<?xml version="1.0" encoding="UTF-8" standalone="no" ?>
<gpx xmlns="http://www.topografix.com/GPX/1/1" xmlns:xsi="http://www.w3.org/2001/XMLSchema-instance" xsi:schemaLocation="http://www.topografix.com/GPX/1/1 http://www.topografix.com/GPX/1/1/gpx.xsd" version="1.1" creator="VisuGPX - https://www.visugpx.com">
  <metadata>
    <name>VTT du mercredi 2 décembre 2015 (à 3 depuis Auxon)</name>
    <desc><![CDATA[

On s'est garé à Auxon, puis on a tenté, sous le soleil, de rejoindre la ferme/château d'Egrevaux, mais il fallait passer un ruisseau et des barbelés. Devant le risque d'une éventuelle possibilité de rencontrer un chien qui aurait pu être mal intentionné, Chris nous a convaincu de faire demi-tour et on est donc passé un peu plus haut par le Crochot . Ensuite, après le Moulin du Val on a du monter 60 m d dénivelé à pied (au km 9) pour suivre le Chemin du Val. A la Croisée des Charmilles (km 14) on a encore marché un moment car c'était trop boueux (c'est un endroit toujours boueux, à éviter). Retour sans problème par le château de Saramboz. Jacques est rentré en vélo à Vesoul.
]]></desc>
  </metadata>
  <trk>
    <name><![CDATA[2015-12-02 09:45]]></name>
    <desc><![CDATA[<h1>OruxMaps</h1><br /><hr align="center" width="480" style="height: 2px; width: 517px"/><h2>Nom: 2015-12-02 09:45</h2><br /><p>Temps de départ: 12/02/2015 09:45</p><p>Temps d'arrivée: 12/02/2015 12:13</p><p>Distance: 22,9km (02:27)</p><p>Temps déplacement: 01:47</p><p>Vitesse moyenne: 9,3km/h</p><p>Vitesse moyenne: 12,8km/h</p><p>Vitess Max.: 42,5km/h</p><p>Altitude minimale: 230m</p><p>Altitude maximale: 405m</p><p>Vitesse d'élévation: 346,2m/h</p><p>Vitesse de descente: -726,4m/h</p><p>Gain Altitude: 438m</p><p>Perte Altitude: -443m</p><p>Temps d'élévation: 01:15</p><p>Temps de descente: 00:36</p><hr align="center" width="480" style="height: 2px; width: 517px"/>]]></desc>
    <trkseg>
      <trkpt lat="47.68223" lon="6.16603">
        <ele>231.3</ele>
        <time>2015-12-02T08:45:41Z</time>
      </trkpt>
      <trkpt lat="47.68227" lon="6.16607">
        <ele>233</ele>
        <time>2015-12-02T08:45:51Z</time>
      </trkpt>
      <trkpt lat="47.68233" lon="6.16601">
        <ele>232.78</ele>
        <time>2015-12-02T08:45:54Z</time>
      </trkpt>
      <trkpt lat="47.68235" lon="6.16593">
        <ele>232.41</ele>
        <time>2015-12-02T08:45:56Z</time>
      </trkpt>
      <trkpt lat="47.68235" lon="6.16584">
        <ele>232.19</ele>
        <time>2015-12-02T08:45:58Z</time>
      </trkpt>
      <trkpt lat="47.68234" lon="6.16574">
        <ele>232.36</ele>
        <time>2015-12-02T08:46:00Z</time>
      </trkpt>
      <trkpt lat="47.68233" lon="6.16565">
        <ele>232.6</ele>
        <time>2015-12-02T08:46:02Z</time>
      </trkpt>
      <trkpt lat="47.68232" lon="6.16556">
        <ele>232.84</ele>
        <time>2015-12-02T08:46:04Z</time>
      </trkpt>
      <trkpt lat="47.68231" lon="6.16546">
        <ele>232.92</ele>
        <time>2015-12-02T08:46:06Z</time>
      </trkpt>
      <trkpt lat="47.6823" lon="6.16536">
        <ele>232.94</ele>
        <time>2015-12-02T08:46:08Z</time>
      </trkpt>
      <trkpt lat="47.68229" lon="6.16522">
        <ele>233.02</ele>
        <time>2015-12-02T08:46:09Z</time>
      </trkpt>
      <trkpt lat="47.6823" lon="6.16512">
        <ele>232.97</ele>
        <time>2015-12-02T08:46:11Z</time>
      </trkpt>
      <trkpt lat="47.68235" lon="6.16505">
        <ele>233.08</ele>
        <time>2015-12-02T08:46:13Z</time>
      </trkpt>
      <trkpt lat="47.68242" lon="6.16501">
        <ele>233.26</ele>
        <time>2015-12-02T08:46:15Z</time>
      </trkpt>
      <trkpt lat="47.68248" lon="6.16496">
        <ele>233.43</ele>
        <time>2015-12-02T08:46:17Z</time>
      </trkpt>
      <trkpt lat="47.68255" lon="6.16493">
        <ele>233.52</ele>
        <time>2015-12-02T08:46:19Z</time>
      </trkpt>
      <trkpt lat="47.68261" lon="6.16489">
        <ele>233.62</ele>
        <time>2015-12-02T08:46:21Z</time>
      </trkpt>
      <trkpt lat="47.68268" lon="6.16485">
        <ele>233.77</ele>
        <time>2015-12-02T08:46:23Z</time>
      </trkpt>
      <trkpt lat="47.68274" lon="6.16481">
        <ele>233.98</ele>
        <time>2015-12-02T08:46:25Z</time>
      </trkpt>
      <trkpt lat="47.6828" lon="6.16476">
        <ele>234.08</ele>
        <time>2015-12-02T08:46:27Z</time>
      </trkpt>
      <trkpt lat="47.68286" lon="6.16473">
        <ele>234.18</ele>
        <time>2015-12-02T08:46:29Z</time>
      </trkpt>
      <trkpt lat="47.68291" lon="6.16471">
        <ele>234.41</ele>
        <time>2015-12-02T08:46:31Z</time>
      </trkpt>
      <trkpt lat="47.68296" lon="6.16468">
        <ele>234.64</ele>
        <time>2015-12-02T08:46:33Z</time>
      </trkpt>
      <trkpt lat="47.68301" lon="6.16462">
        <ele>235.1</ele>
        <time>2015-12-02T08:46:36Z</time>
      </trkpt>
      <trkpt lat="47.68303" lon="6.16456">
        <ele>235.31</ele>
        <time>2015-12-02T08:46:38Z</time>
      </trkpt>
      <trkpt lat="47.68303" lon="6.16448">
        <ele>235.42</ele>
        <time>2015-12-02T08:46:40Z</time>
      </trkpt>
      <trkpt lat="47.68303" lon="6.16441">
        <ele>235.67</ele>
        <time>2015-12-02T08:46:42Z</time>
      </trkpt>
      <trkpt lat="47.68301" lon="6.16434">
        <ele>236.26</ele>
        <time>2015-12-02T08:46:44Z</time>
      </trkpt>
      <trkpt lat="47.68299" lon="6.16427">
        <ele>236.5</ele>
        <time>2015-12-02T08:46:46Z</time>
      </trkpt>
      <trkpt lat="47.68298" lon="6.1642">
        <ele>236.66</ele>
        <time>2015-12-02T08:46:48Z</time>
      </trkpt>
      <trkpt lat="47.68295" lon="6.16412">
        <ele>236.79</ele>
        <time>2015-12-02T08:46:51Z</time>
      </trkpt>
      <trkpt lat="47.68292" lon="6.16404">
        <ele>237.06</ele>
        <time>2015-12-02T08:46:54Z</time>
      </trkpt>
      <trkpt lat="47.68293" lon="6.16398">
        <ele>237.19</ele>
        <time>2015-12-02T08:46:57Z</time>
      </trkpt>
      <trkpt lat="47.68291" lon="6.16404">
        <ele>237.07</ele>
        <time>2015-12-02T08:47:05Z</time>
      </trkpt>
      <trkpt lat="47.68293" lon="6.16412">
        <ele>237.27</ele>
        <time>2015-12-02T08:47:08Z</time>
      </trkpt>
      <trkpt lat="47.68294" lon="6.16421">
        <ele>237.37</ele>
        <time>2015-12-02T08:47:11Z</time>
      </trkpt>
      <trkpt lat="47.68296" lon="6.16427">
        <ele>237.35</ele>
        <time>2015-12-02T08:47:13Z</time>
      </trkpt>
      <trkpt lat="47.68298" lon="6.16434">
        <ele>237.48</ele>
        <time>2015-12-02T08:47:15Z</time>
      </trkpt>
      <trkpt lat="47.683" lon="6.1644">
        <ele>237.48</ele>
        <time>2015-12-02T08:47:17Z</time>
      </trkpt>
      <trkpt lat="47.68302" lon="6.16448">
        <ele>237.38</ele>
        <time>2015-12-02T08:47:19Z</time>
      </trkpt>
      <trkpt lat="47.68302" lon="6.16457">
        <ele>237.08</ele>
        <time>2015-12-02T08:47:21Z</time>
      </trkpt>
      <trkpt lat="47.68298" lon="6.16464">
        <ele>236.63</ele>
        <time>2015-12-02T08:47:23Z</time>
      </trkpt>
      <trkpt lat="47.6829" lon="6.1647">
        <ele>236.27</ele>
        <time>2015-12-02T08:47:25Z</time>
      </trkpt>
      <trkpt lat="47.68286" lon="6.16474">
        <ele>236.11</ele>
        <time>2015-12-02T08:47:26Z</time>
      </trkpt>
      <trkpt lat="47.68281" lon="6.16477">
        <ele>235.88</ele>
        <time>2015-12-02T08:47:27Z</time>
      </trkpt>
      <trkpt lat="47.68276" lon="6.1648">
        <ele>235.72</ele>
        <time>2015-12-02T08:47:28Z</time>
      </trkpt>
      <trkpt lat="47.68271" lon="6.16483">
        <ele>235.63</ele>
        <time>2015-12-02T08:47:29Z</time>
      </trkpt>
      <trkpt lat="47.68267" lon="6.16487">
        <ele>235.59</ele>
        <time>2015-12-02T08:47:30Z</time>
      </trkpt>
      <trkpt lat="47.68262" lon="6.1649">
        <ele>235.57</ele>
        <time>2015-12-02T08:47:31Z</time>
      </trkpt>
      <trkpt lat="47.68257" lon="6.16492">
        <ele>235.61</ele>
        <time>2015-12-02T08:47:32Z</time>
      </trkpt>
      <trkpt lat="47.68253" lon="6.16495">
        <ele>235.68</ele>
        <time>2015-12-02T08:47:33Z</time>
      </trkpt>
      <trkpt lat="47.68248" lon="6.16498">
        <ele>235.77</ele>
        <time>2015-12-02T08:47:34Z</time>
      </trkpt>
      <trkpt lat="47.68244" lon="6.16501">
        <ele>235.96</ele>
        <time>2015-12-02T08:47:35Z</time>
      </trkpt>
      <trkpt lat="47.6824" lon="6.16504">
        <ele>236.1</ele>
        <time>2015-12-02T08:47:36Z</time>
      </trkpt>
      <trkpt lat="47.68232" lon="6.1651">
        <ele>236.26</ele>
        <time>2015-12-02T08:47:38Z</time>
      </trkpt>
      <trkpt lat="47.68227" lon="6.16517">
        <ele>236.23</ele>
        <time>2015-12-02T08:47:40Z</time>
      </trkpt>
      <trkpt lat="47.68225" lon="6.16526">
        <ele>236.07</ele>
        <time>2015-12-02T08:47:42Z</time>
      </trkpt>
      <trkpt lat="47.68226" lon="6.16534">
        <ele>235.98</ele>
        <time>2015-12-02T08:47:44Z</time>
      </trkpt>
      <trkpt lat="47.68226" lon="6.16543">
        <ele>235.88</ele>
        <time>2015-12-02T08:47:46Z</time>
      </trkpt>
      <trkpt lat="47.68226" lon="6.16551">
        <ele>235.73</ele>
        <time>2015-12-02T08:47:48Z</time>
      </trkpt>
      <trkpt lat="47.68227" lon="6.1656">
        <ele>235.55</ele>
        <time>2015-12-02T08:47:50Z</time>
      </trkpt>
      <trkpt lat="47.68228" lon="6.16568">
        <ele>235.27</ele>
        <time>2015-12-02T08:47:52Z</time>
      </trkpt>
      <trkpt lat="47.6823" lon="6.16576">
        <ele>234.93</ele>
        <time>2015-12-02T08:47:54Z</time>
      </trkpt>
      <trkpt lat="47.68231" lon="6.16585">
        <ele>234.87</ele>
        <time>2015-12-02T08:47:56Z</time>
      </trkpt>
      <trkpt lat="47.68232" lon="6.16593">
        <ele>234.93</ele>
        <time>2015-12-02T08:47:58Z</time>
      </trkpt>
      <trkpt lat="47.6823" lon="6.16601">
        <ele>234.9</ele>
        <time>2015-12-02T08:48:00Z</time>
      </trkpt>
      <trkpt lat="47.68227" lon="6.16608">
        <ele>234.91</ele>
        <time>2015-12-02T08:48:03Z</time>
      </trkpt>
      <trkpt lat="47.68222" lon="6.1661">
        <ele>234.28</ele>
        <time>2015-12-02T08:48:08Z</time>
      </trkpt>
      <trkpt lat="47.68219" lon="6.16615">
        <ele>234.68</ele>
        <time>2015-12-02T08:48:12Z</time>
      </trkpt>
      <trkpt lat="47.68222" lon="6.1661">
        <ele>233.06</ele>
        <time>2015-12-02T08:48:21Z</time>
      </trkpt>
      <trkpt lat="47.68224" lon="6.16604">
        <ele>232.88</ele>
        <time>2015-12-02T08:48:40Z</time>
      </trkpt>
      <trkpt lat="47.68223" lon="6.16611">
        <ele>234.03</ele>
        <time>2015-12-02T08:49:06Z</time>
      </trkpt>
      <trkpt lat="47.68228" lon="6.1661">
        <ele>234.01</ele>
        <time>2015-12-02T08:49:10Z</time>
      </trkpt>
      <trkpt lat="47.68232" lon="6.16605">
        <ele>233.84</ele>
        <time>2015-12-02T08:49:12Z</time>
      </trkpt>
      <trkpt lat="47.68234" lon="6.16596">
        <ele>233.57</ele>
        <time>2015-12-02T08:49:14Z</time>
      </trkpt>
      <trkpt lat="47.68234" lon="6.16587">
        <ele>233.36</ele>
        <time>2015-12-02T08:49:16Z</time>
      </trkpt>
      <trkpt lat="47.68233" lon="6.16577">
        <ele>233.1</ele>
        <time>2015-12-02T08:49:18Z</time>
      </trkpt>
      <trkpt lat="47.68233" lon="6.16568">
        <ele>232.86</ele>
        <time>2015-12-02T08:49:20Z</time>
      </trkpt>
      <trkpt lat="47.68232" lon="6.16558">
        <ele>232.7</ele>
        <time>2015-12-02T08:49:22Z</time>
      </trkpt>
      <trkpt lat="47.68231" lon="6.16548">
        <ele>232.41</ele>
        <time>2015-12-02T08:49:24Z</time>
      </trkpt>
      <trkpt lat="47.6823" lon="6.16538">
        <ele>232.32</ele>
        <time>2015-12-02T08:49:26Z</time>
      </trkpt>
      <trkpt lat="47.68229" lon="6.16529">
        <ele>232.22</ele>
        <time>2015-12-02T08:49:28Z</time>
      </trkpt>
      <trkpt lat="47.68229" lon="6.16521">
        <ele>232.09</ele>
        <time>2015-12-02T08:49:30Z</time>
      </trkpt>
      <trkpt lat="47.68231" lon="6.16514">
        <ele>231.86</ele>
        <time>2015-12-02T08:49:32Z</time>
      </trkpt>
      <trkpt lat="47.68235" lon="6.16508">
        <ele>231.78</ele>
        <time>2015-12-02T08:49:34Z</time>
      </trkpt>
      <trkpt lat="47.68242" lon="6.16504">
        <ele>231.18</ele>
        <time>2015-12-02T08:49:36Z</time>
      </trkpt>
      <trkpt lat="47.68248" lon="6.165">
        <ele>230.81</ele>
        <time>2015-12-02T08:49:38Z</time>
      </trkpt>
      <trkpt lat="47.68255" lon="6.16497">
        <ele>230.69</ele>
        <time>2015-12-02T08:49:40Z</time>
      </trkpt>
      <trkpt lat="47.68261" lon="6.16493">
        <ele>230.74</ele>
        <time>2015-12-02T08:49:42Z</time>
      </trkpt>
      <trkpt lat="47.68267" lon="6.16489">
        <ele>230.82</ele>
        <time>2015-12-02T08:49:44Z</time>
      </trkpt>
      <trkpt lat="47.68273" lon="6.16486">
        <ele>230.89</ele>
        <time>2015-12-02T08:49:46Z</time>
      </trkpt>
      <trkpt lat="47.68279" lon="6.16482">
        <ele>231.06</ele>
        <time>2015-12-02T08:49:48Z</time>
      </trkpt>
      <trkpt lat="47.68285" lon="6.16478">
        <ele>231.35</ele>
        <time>2015-12-02T08:49:50Z</time>
      </trkpt>
      <trkpt lat="47.68292" lon="6.16472">
        <ele>231.75</ele>
        <time>2015-12-02T08:49:52Z</time>
      </trkpt>
      <trkpt lat="47.68298" lon="6.16468">
        <ele>232.28</ele>
        <time>2015-12-02T08:49:54Z</time>
      </trkpt>
      <trkpt lat="47.68303" lon="6.16464">
        <ele>232.66</ele>
        <time>2015-12-02T08:49:56Z</time>
      </trkpt>
      <trkpt lat="47.68306" lon="6.16459">
        <ele>233</ele>
        <time>2015-12-02T08:49:58Z</time>
      </trkpt>
      <trkpt lat="47.68307" lon="6.16452">
        <ele>233.36</ele>
        <time>2015-12-02T08:50:00Z</time>
      </trkpt>
      <trkpt lat="47.68305" lon="6.16443">
        <ele>233.69</ele>
        <time>2015-12-02T08:50:03Z</time>
      </trkpt>
      <trkpt lat="47.68303" lon="6.16436">
        <ele>233.91</ele>
        <time>2015-12-02T08:50:05Z</time>
      </trkpt>
      <trkpt lat="47.68301" lon="6.16429">
        <ele>234.17</ele>
        <time>2015-12-02T08:50:07Z</time>
      </trkpt>
      <trkpt lat="47.68299" lon="6.16422">
        <ele>234.28</ele>
        <time>2015-12-02T08:50:09Z</time>
      </trkpt>
      <trkpt lat="47.68297" lon="6.16414">
        <ele>234.41</ele>
        <time>2015-12-02T08:50:11Z</time>
      </trkpt>
      <trkpt lat="47.68295" lon="6.16408">
        <ele>234.62</ele>
        <time>2015-12-02T08:50:13Z</time>
      </trkpt>
      <trkpt lat="47.68293" lon="6.164">
        <ele>235.19</ele>
        <time>2015-12-02T08:50:27Z</time>
      </trkpt>
      <trkpt lat="47.68291" lon="6.16391">
        <ele>235.47</ele>
        <time>2015-12-02T08:50:30Z</time>
      </trkpt>
      <trkpt lat="47.68291" lon="6.16382">
        <ele>235.48</ele>
        <time>2015-12-02T08:50:32Z</time>
      </trkpt>
      <trkpt lat="47.6829" lon="6.16371">
        <ele>235.43</ele>
        <time>2015-12-02T08:50:34Z</time>
      </trkpt>
      <trkpt lat="47.68292" lon="6.16358">
        <ele>235.4</ele>
        <time>2015-12-02T08:50:36Z</time>
      </trkpt>
      <trkpt lat="47.68293" lon="6.16352">
        <ele>235.42</ele>
        <time>2015-12-02T08:50:37Z</time>
      </trkpt>
      <trkpt lat="47.68296" lon="6.16346">
        <ele>235.39</ele>
        <time>2015-12-02T08:50:38Z</time>
      </trkpt>
      <trkpt lat="47.68301" lon="6.16336">
        <ele>235.24</ele>
        <time>2015-12-02T08:50:40Z</time>
      </trkpt>
      <trkpt lat="47.68306" lon="6.16329">
        <ele>234.87</ele>
        <time>2015-12-02T08:50:42Z</time>
      </trkpt>
      <trkpt lat="47.68313" lon="6.16325">
        <ele>234.56</ele>
        <time>2015-12-02T08:50:44Z</time>
      </trkpt>
      <trkpt lat="47.6832" lon="6.16326">
        <ele>234.45</ele>
        <time>2015-12-02T08:50:46Z</time>
      </trkpt>
      <trkpt lat="47.68325" lon="6.1633">
        <ele>234.65</ele>
        <time>2015-12-02T08:50:48Z</time>
      </trkpt>
      <trkpt lat="47.68329" lon="6.16334">
        <ele>234.88</ele>
        <time>2015-12-02T08:50:50Z</time>
      </trkpt>
      <trkpt lat="47.68334" lon="6.16339">
        <ele>235.19</ele>
        <time>2015-12-02T08:50:53Z</time>
      </trkpt>
      <trkpt lat="47.68339" lon="6.16344">
        <ele>235.76</ele>
        <time>2015-12-02T08:50:56Z</time>
      </trkpt>
      <trkpt lat="47.68344" lon="6.16349">
        <ele>236.4</ele>
        <time>2015-12-02T08:50:59Z</time>
      </trkpt>
      <trkpt lat="47.6835" lon="6.16353">
        <ele>237.28</ele>
        <time>2015-12-02T08:51:02Z</time>
      </trkpt>
      <trkpt lat="47.68356" lon="6.16354">
        <ele>237.93</ele>
        <time>2015-12-02T08:51:05Z</time>
      </trkpt>
      <trkpt lat="47.68362" lon="6.16355">
        <ele>237.87</ele>
        <time>2015-12-02T08:51:08Z</time>
      </trkpt>
      <trkpt lat="47.68369" lon="6.16356">
        <ele>237.9</ele>
        <time>2015-12-02T08:51:11Z</time>
      </trkpt>
      <trkpt lat="47.68375" lon="6.16358">
        <ele>238.21</ele>
        <time>2015-12-02T08:51:14Z</time>
      </trkpt>
      <trkpt lat="47.68382" lon="6.16361">
        <ele>238.73</ele>
        <time>2015-12-02T08:51:17Z</time>
      </trkpt>
      <trkpt lat="47.68386" lon="6.16364">
        <ele>239.15</ele>
        <time>2015-12-02T08:51:19Z</time>
      </trkpt>
      <trkpt lat="47.68391" lon="6.16367">
        <ele>239.55</ele>
        <time>2015-12-02T08:51:21Z</time>
      </trkpt>
      <trkpt lat="47.68395" lon="6.1637">
        <ele>239.9</ele>
        <time>2015-12-02T08:51:23Z</time>
      </trkpt>
      <trkpt lat="47.684" lon="6.16374">
        <ele>240.21</ele>
        <time>2015-12-02T08:51:25Z</time>
      </trkpt>
      <trkpt lat="47.68404" lon="6.16377">
        <ele>240.47</ele>
        <time>2015-12-02T08:51:27Z</time>
      </trkpt>
      <trkpt lat="47.68409" lon="6.16381">
        <ele>240.68</ele>
        <time>2015-12-02T08:51:29Z</time>
      </trkpt>
      <trkpt lat="47.68414" lon="6.16384">
        <ele>240.86</ele>
        <time>2015-12-02T08:51:31Z</time>
      </trkpt>
      <trkpt lat="47.68419" lon="6.16389">
        <ele>241.05</ele>
        <time>2015-12-02T08:51:33Z</time>
      </trkpt>
      <trkpt lat="47.68423" lon="6.16394">
        <ele>241.23</ele>
        <time>2015-12-02T08:51:35Z</time>
      </trkpt>
      <trkpt lat="47.68428" lon="6.16398">
        <ele>241.52</ele>
        <time>2015-12-02T08:51:37Z</time>
      </trkpt>
      <trkpt lat="47.68432" lon="6.16403">
        <ele>241.74</ele>
        <time>2015-12-02T08:51:39Z</time>
      </trkpt>
      <trkpt lat="47.68437" lon="6.16408">
        <ele>241.95</ele>
        <time>2015-12-02T08:51:41Z</time>
      </trkpt>
      <trkpt lat="47.68441" lon="6.16412">
        <ele>242.1</ele>
        <time>2015-12-02T08:51:43Z</time>
      </trkpt>
      <trkpt lat="47.68445" lon="6.16418">
        <ele>242.09</ele>
        <time>2015-12-02T08:51:45Z</time>
      </trkpt>
      <trkpt lat="47.6845" lon="6.16423">
        <ele>241.91</ele>
        <time>2015-12-02T08:51:47Z</time>
      </trkpt>
      <trkpt lat="47.68455" lon="6.1643">
        <ele>241.69</ele>
        <time>2015-12-02T08:51:49Z</time>
      </trkpt>
      <trkpt lat="47.68459" lon="6.16436">
        <ele>241.54</ele>
        <time>2015-12-02T08:51:51Z</time>
      </trkpt>
      <trkpt lat="47.68463" lon="6.16441">
        <ele>241.47</ele>
        <time>2015-12-02T08:51:53Z</time>
      </trkpt>
      <trkpt lat="47.68467" lon="6.16447">
        <ele>241.46</ele>
        <time>2015-12-02T08:51:55Z</time>
      </trkpt>
      <trkpt lat="47.68471" lon="6.16454">
        <ele>241.53</ele>
        <time>2015-12-02T08:51:57Z</time>
      </trkpt>
      <trkpt lat="47.68476" lon="6.16462">
        <ele>241.52</ele>
        <time>2015-12-02T08:51:59Z</time>
      </trkpt>
      <trkpt lat="47.68482" lon="6.16472">
        <ele>241.49</ele>
        <time>2015-12-02T08:52:01Z</time>
      </trkpt>
      <trkpt lat="47.68485" lon="6.16477">
        <ele>241.37</ele>
        <time>2015-12-02T08:52:02Z</time>
      </trkpt>
      <trkpt lat="47.68489" lon="6.16482">
        <ele>241.31</ele>
        <time>2015-12-02T08:52:03Z</time>
      </trkpt>
      <trkpt lat="47.68493" lon="6.16487">
        <ele>241.28</ele>
        <time>2015-12-02T08:52:04Z</time>
      </trkpt>
      <trkpt lat="47.68497" lon="6.1649">
        <ele>241.27</ele>
        <time>2015-12-02T08:52:05Z</time>
      </trkpt>
      <trkpt lat="47.68505" lon="6.16494">
        <ele>241.38</ele>
        <time>2015-12-02T08:52:07Z</time>
      </trkpt>
      <trkpt lat="47.68511" lon="6.16496">
        <ele>241.33</ele>
        <time>2015-12-02T08:52:09Z</time>
      </trkpt>
      <trkpt lat="47.68516" lon="6.16498">
        <ele>241.57</ele>
        <time>2015-12-02T08:52:11Z</time>
      </trkpt>
      <trkpt lat="47.68522" lon="6.16499">
        <ele>241.68</ele>
        <time>2015-12-02T08:52:13Z</time>
      </trkpt>
      <trkpt lat="47.68528" lon="6.165">
        <ele>241.46</ele>
        <time>2015-12-02T08:52:15Z</time>
      </trkpt>
      <trkpt lat="47.68533" lon="6.165">
        <ele>241.43</ele>
        <time>2015-12-02T08:52:17Z</time>
      </trkpt>
      <trkpt lat="47.68539" lon="6.16502">
        <ele>241.42</ele>
        <time>2015-12-02T08:52:19Z</time>
      </trkpt>
      <trkpt lat="47.68544" lon="6.16503">
        <ele>241.64</ele>
        <time>2015-12-02T08:52:21Z</time>
      </trkpt>
      <trkpt lat="47.68549" lon="6.16503">
        <ele>241.82</ele>
        <time>2015-12-02T08:52:23Z</time>
      </trkpt>
      <trkpt lat="47.68554" lon="6.16503">
        <ele>242.04</ele>
        <time>2015-12-02T08:52:25Z</time>
      </trkpt>
      <trkpt lat="47.6856" lon="6.16504">
        <ele>242.37</ele>
        <time>2015-12-02T08:52:27Z</time>
      </trkpt>
      <trkpt lat="47.68565" lon="6.16504">
        <ele>242.61</ele>
        <time>2015-12-02T08:52:29Z</time>
      </trkpt>
      <trkpt lat="47.6857" lon="6.16506">
        <ele>242.84</ele>
        <time>2015-12-02T08:52:31Z</time>
      </trkpt>
      <trkpt lat="47.68577" lon="6.16505">
        <ele>242.96</ele>
        <time>2015-12-02T08:52:34Z</time>
      </trkpt>
      <trkpt lat="47.68581" lon="6.16504">
        <ele>243</ele>
        <time>2015-12-02T08:52:36Z</time>
      </trkpt>
      <trkpt lat="47.68586" lon="6.16504">
        <ele>243.09</ele>
        <time>2015-12-02T08:52:38Z</time>
      </trkpt>
      <trkpt lat="47.68591" lon="6.16505">
        <ele>243.19</ele>
        <time>2015-12-02T08:52:40Z</time>
      </trkpt>
      <trkpt lat="47.68596" lon="6.16505">
        <ele>243.28</ele>
        <time>2015-12-02T08:52:42Z</time>
      </trkpt>
      <trkpt lat="47.68601" lon="6.16503">
        <ele>243.38</ele>
        <time>2015-12-02T08:52:44Z</time>
      </trkpt>
      <trkpt lat="47.68606" lon="6.16501">
        <ele>243.53</ele>
        <time>2015-12-02T08:52:46Z</time>
      </trkpt>
      <trkpt lat="47.68611" lon="6.16499">
        <ele>243.62</ele>
        <time>2015-12-02T08:52:48Z</time>
      </trkpt>
      <trkpt lat="47.68616" lon="6.16498">
        <ele>243.59</ele>
        <time>2015-12-02T08:52:50Z</time>
      </trkpt>
      <trkpt lat="47.6862" lon="6.16496">
        <ele>243.56</ele>
        <time>2015-12-02T08:52:52Z</time>
      </trkpt>
      <trkpt lat="47.68625" lon="6.16494">
        <ele>243.68</ele>
        <time>2015-12-02T08:52:54Z</time>
      </trkpt>
      <trkpt lat="47.68629" lon="6.16493">
        <ele>243.81</ele>
        <time>2015-12-02T08:52:56Z</time>
      </trkpt>
      <trkpt lat="47.68634" lon="6.1649">
        <ele>243.97</ele>
        <time>2015-12-02T08:52:58Z</time>
      </trkpt>
      <trkpt lat="47.68638" lon="6.16487">
        <ele>244.28</ele>
        <time>2015-12-02T08:53:00Z</time>
      </trkpt>
      <trkpt lat="47.68642" lon="6.16484">
        <ele>244.58</ele>
        <time>2015-12-02T08:53:02Z</time>
      </trkpt>
      <trkpt lat="47.68646" lon="6.1648">
        <ele>244.88</ele>
        <time>2015-12-02T08:53:04Z</time>
      </trkpt>
      <trkpt lat="47.6865" lon="6.16477">
        <ele>245.13</ele>
        <time>2015-12-02T08:53:06Z</time>
      </trkpt>
      <trkpt lat="47.68654" lon="6.16473">
        <ele>245.47</ele>
        <time>2015-12-02T08:53:08Z</time>
      </trkpt>
      <trkpt lat="47.68658" lon="6.1647">
        <ele>245.78</ele>
        <time>2015-12-02T08:53:10Z</time>
      </trkpt>
      <trkpt lat="47.68664" lon="6.16465">
        <ele>246.09</ele>
        <time>2015-12-02T08:53:13Z</time>
      </trkpt>
      <trkpt lat="47.68669" lon="6.16459">
        <ele>246.19</ele>
        <time>2015-12-02T08:53:16Z</time>
      </trkpt>
      <trkpt lat="47.68674" lon="6.16453">
        <ele>246.46</ele>
        <time>2015-12-02T08:53:19Z</time>
      </trkpt>
      <trkpt lat="47.6868" lon="6.16449">
        <ele>246.66</ele>
        <time>2015-12-02T08:53:22Z</time>
      </trkpt>
      <trkpt lat="47.68686" lon="6.16446">
        <ele>246.93</ele>
        <time>2015-12-02T08:53:25Z</time>
      </trkpt>
      <trkpt lat="47.6869" lon="6.16444">
        <ele>247.15</ele>
        <time>2015-12-02T08:53:27Z</time>
      </trkpt>
      <trkpt lat="47.68695" lon="6.16442">
        <ele>247.22</ele>
        <time>2015-12-02T08:53:29Z</time>
      </trkpt>
      <trkpt lat="47.68699" lon="6.1644">
        <ele>247.42</ele>
        <time>2015-12-02T08:53:31Z</time>
      </trkpt>
      <trkpt lat="47.68704" lon="6.16439">
        <ele>247.64</ele>
        <time>2015-12-02T08:53:33Z</time>
      </trkpt>
      <trkpt lat="47.68709" lon="6.16439">
        <ele>247.85</ele>
        <time>2015-12-02T08:53:35Z</time>
      </trkpt>
      <trkpt lat="47.68714" lon="6.16439">
        <ele>248.05</ele>
        <time>2015-12-02T08:53:37Z</time>
      </trkpt>
      <trkpt lat="47.68719" lon="6.16441">
        <ele>248.38</ele>
        <time>2015-12-02T08:53:39Z</time>
      </trkpt>
      <trkpt lat="47.68723" lon="6.16442">
        <ele>248.63</ele>
        <time>2015-12-02T08:53:41Z</time>
      </trkpt>
      <trkpt lat="47.68728" lon="6.16444">
        <ele>248.97</ele>
        <time>2015-12-02T08:53:43Z</time>
      </trkpt>
      <trkpt lat="47.68732" lon="6.16446">
        <ele>249.28</ele>
        <time>2015-12-02T08:53:45Z</time>
      </trkpt>
      <trkpt lat="47.68737" lon="6.16448">
        <ele>249.61</ele>
        <time>2015-12-02T08:53:47Z</time>
      </trkpt>
      <trkpt lat="47.68741" lon="6.16451">
        <ele>249.72</ele>
        <time>2015-12-02T08:53:49Z</time>
      </trkpt>
      <trkpt lat="47.68746" lon="6.16453">
        <ele>249.87</ele>
        <time>2015-12-02T08:53:51Z</time>
      </trkpt>
      <trkpt lat="47.68751" lon="6.16455">
        <ele>250.01</ele>
        <time>2015-12-02T08:53:53Z</time>
      </trkpt>
      <trkpt lat="47.68756" lon="6.16457">
        <ele>250.11</ele>
        <time>2015-12-02T08:53:55Z</time>
      </trkpt>
      <trkpt lat="47.6876" lon="6.1646">
        <ele>250.27</ele>
        <time>2015-12-02T08:53:57Z</time>
      </trkpt>
      <trkpt lat="47.68766" lon="6.16463">
        <ele>250.33</ele>
        <time>2015-12-02T08:53:59Z</time>
      </trkpt>
      <trkpt lat="47.68772" lon="6.16465">
        <ele>250.35</ele>
        <time>2015-12-02T08:54:01Z</time>
      </trkpt>
      <trkpt lat="47.68778" lon="6.16467">
        <ele>250.47</ele>
        <time>2015-12-02T08:54:03Z</time>
      </trkpt>
      <trkpt lat="47.68784" lon="6.1647">
        <ele>250.51</ele>
        <time>2015-12-02T08:54:05Z</time>
      </trkpt>
      <trkpt lat="47.6879" lon="6.16472">
        <ele>250.54</ele>
        <time>2015-12-02T08:54:07Z</time>
      </trkpt>
      <trkpt lat="47.68797" lon="6.16473">
        <ele>250.55</ele>
        <time>2015-12-02T08:54:09Z</time>
      </trkpt>
      <trkpt lat="47.68803" lon="6.16473">
        <ele>250.5</ele>
        <time>2015-12-02T08:54:11Z</time>
      </trkpt>
      <trkpt lat="47.6881" lon="6.16473">
        <ele>250.39</ele>
        <time>2015-12-02T08:54:13Z</time>
      </trkpt>
      <trkpt lat="47.68816" lon="6.16472">
        <ele>250.36</ele>
        <time>2015-12-02T08:54:15Z</time>
      </trkpt>
      <trkpt lat="47.68823" lon="6.16469">
        <ele>250.4</ele>
        <time>2015-12-02T08:54:17Z</time>
      </trkpt>
      <trkpt lat="47.68829" lon="6.16466">
        <ele>250.49</ele>
        <time>2015-12-02T08:54:19Z</time>
      </trkpt>
      <trkpt lat="47.68835" lon="6.16463">
        <ele>250.59</ele>
        <time>2015-12-02T08:54:21Z</time>
      </trkpt>
      <trkpt lat="47.6884" lon="6.16459">
        <ele>250.76</ele>
        <time>2015-12-02T08:54:23Z</time>
      </trkpt>
      <trkpt lat="47.68846" lon="6.16456">
        <ele>250.95</ele>
        <time>2015-12-02T08:54:25Z</time>
      </trkpt>
      <trkpt lat="47.68851" lon="6.16453">
        <ele>251.15</ele>
        <time>2015-12-02T08:54:27Z</time>
      </trkpt>
      <trkpt lat="47.68856" lon="6.16449">
        <ele>251.43</ele>
        <time>2015-12-02T08:54:29Z</time>
      </trkpt>
      <trkpt lat="47.6886" lon="6.16447">
        <ele>251.64</ele>
        <time>2015-12-02T08:54:31Z</time>
      </trkpt>
      <trkpt lat="47.68865" lon="6.16444">
        <ele>251.92</ele>
        <time>2015-12-02T08:54:33Z</time>
      </trkpt>
      <trkpt lat="47.6887" lon="6.16441">
        <ele>252.14</ele>
        <time>2015-12-02T08:54:35Z</time>
      </trkpt>
      <trkpt lat="47.68875" lon="6.16438">
        <ele>252.4</ele>
        <time>2015-12-02T08:54:37Z</time>
      </trkpt>
      <trkpt lat="47.6888" lon="6.16435">
        <ele>252.69</ele>
        <time>2015-12-02T08:54:39Z</time>
      </trkpt>
      <trkpt lat="47.68885" lon="6.16431">
        <ele>252.99</ele>
        <time>2015-12-02T08:54:41Z</time>
      </trkpt>
      <trkpt lat="47.68889" lon="6.16429">
        <ele>253.23</ele>
        <time>2015-12-02T08:54:43Z</time>
      </trkpt>
      <trkpt lat="47.68894" lon="6.16427">
        <ele>253.52</ele>
        <time>2015-12-02T08:54:45Z</time>
      </trkpt>
      <trkpt lat="47.68899" lon="6.16424">
        <ele>253.82</ele>
        <time>2015-12-02T08:54:47Z</time>
      </trkpt>
      <trkpt lat="47.68903" lon="6.16421">
        <ele>254.04</ele>
        <time>2015-12-02T08:54:49Z</time>
      </trkpt>
      <trkpt lat="47.68908" lon="6.16419">
        <ele>254.3</ele>
        <time>2015-12-02T08:54:51Z</time>
      </trkpt>
      <trkpt lat="47.68912" lon="6.16417">
        <ele>254.54</ele>
        <time>2015-12-02T08:54:53Z</time>
      </trkpt>
      <trkpt lat="47.68917" lon="6.16414">
        <ele>254.82</ele>
        <time>2015-12-02T08:54:55Z</time>
      </trkpt>
      <trkpt lat="47.68922" lon="6.16411">
        <ele>254.97</ele>
        <time>2015-12-02T08:54:57Z</time>
      </trkpt>
      <trkpt lat="47.68926" lon="6.16409">
        <ele>255.16</ele>
        <time>2015-12-02T08:54:59Z</time>
      </trkpt>
      <trkpt lat="47.68931" lon="6.16407">
        <ele>255.43</ele>
        <time>2015-12-02T08:55:01Z</time>
      </trkpt>
      <trkpt lat="47.68935" lon="6.16404">
        <ele>255.65</ele>
        <time>2015-12-02T08:55:03Z</time>
      </trkpt>
      <trkpt lat="47.6894" lon="6.16402">
        <ele>255.85</ele>
        <time>2015-12-02T08:55:05Z</time>
      </trkpt>
      <trkpt lat="47.68945" lon="6.16401">
        <ele>256.05</ele>
        <time>2015-12-02T08:55:07Z</time>
      </trkpt>
      <trkpt lat="47.68949" lon="6.16399">
        <ele>256.25</ele>
        <time>2015-12-02T08:55:09Z</time>
      </trkpt>
      <trkpt lat="47.68954" lon="6.16398">
        <ele>256.45</ele>
        <time>2015-12-02T08:55:11Z</time>
      </trkpt>
      <trkpt lat="47.68961" lon="6.16397">
        <ele>256.84</ele>
        <time>2015-12-02T08:55:14Z</time>
      </trkpt>
      <trkpt lat="47.68965" lon="6.16398">
        <ele>257.12</ele>
        <time>2015-12-02T08:55:16Z</time>
      </trkpt>
      <trkpt lat="47.6897" lon="6.16398">
        <ele>257.34</ele>
        <time>2015-12-02T08:55:18Z</time>
      </trkpt>
      <trkpt lat="47.68975" lon="6.16397">
        <ele>257.55</ele>
        <time>2015-12-02T08:55:20Z</time>
      </trkpt>
      <trkpt lat="47.68979" lon="6.16397">
        <ele>257.8</ele>
        <time>2015-12-02T08:55:22Z</time>
      </trkpt>
      <trkpt lat="47.68984" lon="6.16399">
        <ele>258.01</ele>
        <time>2015-12-02T08:55:24Z</time>
      </trkpt>
      <trkpt lat="47.68989" lon="6.16399">
        <ele>258.39</ele>
        <time>2015-12-02T08:55:26Z</time>
      </trkpt>
      <trkpt lat="47.68993" lon="6.16399">
        <ele>258.64</ele>
        <time>2015-12-02T08:55:28Z</time>
      </trkpt>
      <trkpt lat="47.68998" lon="6.164">
        <ele>258.95</ele>
        <time>2015-12-02T08:55:30Z</time>
      </trkpt>
      <trkpt lat="47.69003" lon="6.16401">
        <ele>259.23</ele>
        <time>2015-12-02T08:55:32Z</time>
      </trkpt>
      <trkpt lat="47.69007" lon="6.164">
        <ele>259.32</ele>
        <time>2015-12-02T08:55:34Z</time>
      </trkpt>
      <trkpt lat="47.69012" lon="6.16401">
        <ele>259.42</ele>
        <time>2015-12-02T08:55:36Z</time>
      </trkpt>
      <trkpt lat="47.69018" lon="6.16402">
        <ele>259.72</ele>
        <time>2015-12-02T08:55:38Z</time>
      </trkpt>
      <trkpt lat="47.69024" lon="6.16402">
        <ele>259.82</ele>
        <time>2015-12-02T08:55:40Z</time>
      </trkpt>
      <trkpt lat="47.69031" lon="6.16403">
        <ele>259.84</ele>
        <time>2015-12-02T08:55:42Z</time>
      </trkpt>
      <trkpt lat="47.69037" lon="6.16403">
        <ele>259.72</ele>
        <time>2015-12-02T08:55:44Z</time>
      </trkpt>
      <trkpt lat="47.69045" lon="6.16404">
        <ele>259.54</ele>
        <time>2015-12-02T08:55:46Z</time>
      </trkpt>
      <trkpt lat="47.69054" lon="6.16405">
        <ele>259.25</ele>
        <time>2015-12-02T08:55:48Z</time>
      </trkpt>
      <trkpt lat="47.69063" lon="6.16405">
        <ele>258.78</ele>
        <time>2015-12-02T08:55:50Z</time>
      </trkpt>
      <trkpt lat="47.69071" lon="6.16406">
        <ele>258.33</ele>
        <time>2015-12-02T08:55:52Z</time>
      </trkpt>
      <trkpt lat="47.6908" lon="6.16408">
        <ele>257.95</ele>
        <time>2015-12-02T08:55:54Z</time>
      </trkpt>
      <trkpt lat="47.69085" lon="6.16409">
        <ele>257.75</ele>
        <time>2015-12-02T08:55:55Z</time>
      </trkpt>
      <trkpt lat="47.6909" lon="6.1641">
        <ele>257.55</ele>
        <time>2015-12-02T08:55:56Z</time>
      </trkpt>
      <trkpt lat="47.69096" lon="6.16411">
        <ele>257.3</ele>
        <time>2015-12-02T08:55:57Z</time>
      </trkpt>
      <trkpt lat="47.69102" lon="6.16411">
        <ele>257.18</ele>
        <time>2015-12-02T08:55:58Z</time>
      </trkpt>
      <trkpt lat="47.69108" lon="6.16412">
        <ele>257.01</ele>
        <time>2015-12-02T08:55:59Z</time>
      </trkpt>
      <trkpt lat="47.69115" lon="6.16413">
        <ele>256.83</ele>
        <time>2015-12-02T08:56:00Z</time>
      </trkpt>
      <trkpt lat="47.69121" lon="6.16414">
        <ele>256.59</ele>
        <time>2015-12-02T08:56:01Z</time>
      </trkpt>
      <trkpt lat="47.69128" lon="6.16415">
        <ele>256.22</ele>
        <time>2015-12-02T08:56:02Z</time>
      </trkpt>
      <trkpt lat="47.69135" lon="6.16416">
        <ele>255.84</ele>
        <time>2015-12-02T08:56:03Z</time>
      </trkpt>
      <trkpt lat="47.69142" lon="6.16417">
        <ele>255.49</ele>
        <time>2015-12-02T08:56:04Z</time>
      </trkpt>
      <trkpt lat="47.69149" lon="6.16419">
        <ele>255.22</ele>
        <time>2015-12-02T08:56:05Z</time>
      </trkpt>
      <trkpt lat="47.69157" lon="6.1642">
        <ele>254.99</ele>
        <time>2015-12-02T08:56:06Z</time>
      </trkpt>
      <trkpt lat="47.69164" lon="6.16421">
        <ele>254.77</ele>
        <time>2015-12-02T08:56:07Z</time>
      </trkpt>
      <trkpt lat="47.69171" lon="6.16421">
        <ele>254.56</ele>
        <time>2015-12-02T08:56:08Z</time>
      </trkpt>
      <trkpt lat="47.69177" lon="6.16421">
        <ele>254.41</ele>
        <time>2015-12-02T08:56:09Z</time>
      </trkpt>
      <trkpt lat="47.69184" lon="6.1642">
        <ele>254.28</ele>
        <time>2015-12-02T08:56:10Z</time>
      </trkpt>
      <trkpt lat="47.6919" lon="6.16418">
        <ele>254.16</ele>
        <time>2015-12-02T08:56:11Z</time>
      </trkpt>
      <trkpt lat="47.69196" lon="6.16417">
        <ele>254.06</ele>
        <time>2015-12-02T08:56:12Z</time>
      </trkpt>
      <trkpt lat="47.69202" lon="6.16415">
        <ele>254</ele>
        <time>2015-12-02T08:56:13Z</time>
      </trkpt>
      <trkpt lat="47.69208" lon="6.16414">
        <ele>253.98</ele>
        <time>2015-12-02T08:56:14Z</time>
      </trkpt>
      <trkpt lat="47.69213" lon="6.16413">
        <ele>253.96</ele>
        <time>2015-12-02T08:56:15Z</time>
      </trkpt>
      <trkpt lat="47.69217" lon="6.16412">
        <ele>253.96</ele>
        <time>2015-12-02T08:56:16Z</time>
      </trkpt>
      <trkpt lat="47.69222" lon="6.1641">
        <ele>253.9</ele>
        <time>2015-12-02T08:56:17Z</time>
      </trkpt>
      <trkpt lat="47.6923" lon="6.16408">
        <ele>253.86</ele>
        <time>2015-12-02T08:56:19Z</time>
      </trkpt>
      <trkpt lat="47.69238" lon="6.16405">
        <ele>253.73</ele>
        <time>2015-12-02T08:56:21Z</time>
      </trkpt>
      <trkpt lat="47.69246" lon="6.16403">
        <ele>253.5</ele>
        <time>2015-12-02T08:56:23Z</time>
      </trkpt>
      <trkpt lat="47.69254" lon="6.164">
        <ele>253.14</ele>
        <time>2015-12-02T08:56:25Z</time>
      </trkpt>
      <trkpt lat="47.69258" lon="6.16397">
        <ele>252.99</ele>
        <time>2015-12-02T08:56:26Z</time>
      </trkpt>
      <trkpt lat="47.69263" lon="6.16395">
        <ele>252.87</ele>
        <time>2015-12-02T08:56:27Z</time>
      </trkpt>
      <trkpt lat="47.69267" lon="6.16392">
        <ele>252.81</ele>
        <time>2015-12-02T08:56:28Z</time>
      </trkpt>
      <trkpt lat="47.69271" lon="6.16389">
        <ele>252.78</ele>
        <time>2015-12-02T08:56:29Z</time>
      </trkpt>
      <trkpt lat="47.69276" lon="6.16386">
        <ele>252.82</ele>
        <time>2015-12-02T08:56:30Z</time>
      </trkpt>
      <trkpt lat="47.6928" lon="6.16384">
        <ele>252.88</ele>
        <time>2015-12-02T08:56:31Z</time>
      </trkpt>
      <trkpt lat="47.69284" lon="6.1638">
        <ele>252.92</ele>
        <time>2015-12-02T08:56:32Z</time>
      </trkpt>
      <trkpt lat="47.69289" lon="6.16377">
        <ele>252.93</ele>
        <time>2015-12-02T08:56:33Z</time>
      </trkpt>
      <trkpt lat="47.69293" lon="6.16374">
        <ele>252.99</ele>
        <time>2015-12-02T08:56:34Z</time>
      </trkpt>
      <trkpt lat="47.69297" lon="6.16371">
        <ele>253.02</ele>
        <time>2015-12-02T08:56:35Z</time>
      </trkpt>
      <trkpt lat="47.69301" lon="6.16367">
        <ele>253.04</ele>
        <time>2015-12-02T08:56:36Z</time>
      </trkpt>
      <trkpt lat="47.69305" lon="6.16364">
        <ele>253.04</ele>
        <time>2015-12-02T08:56:37Z</time>
      </trkpt>
      <trkpt lat="47.69309" lon="6.1636">
        <ele>253.05</ele>
        <time>2015-12-02T08:56:38Z</time>
      </trkpt>
      <trkpt lat="47.69313" lon="6.16357">
        <ele>253.05</ele>
        <time>2015-12-02T08:56:39Z</time>
      </trkpt>
      <trkpt lat="47.69317" lon="6.16354">
        <ele>253.05</ele>
        <time>2015-12-02T08:56:40Z</time>
      </trkpt>
      <trkpt lat="47.69325" lon="6.16348">
        <ele>253.05</ele>
        <time>2015-12-02T08:56:42Z</time>
      </trkpt>
      <trkpt lat="47.69333" lon="6.16342">
        <ele>252.98</ele>
        <time>2015-12-02T08:56:44Z</time>
      </trkpt>
      <trkpt lat="47.6934" lon="6.16336">
        <ele>253.01</ele>
        <time>2015-12-02T08:56:46Z</time>
      </trkpt>
      <trkpt lat="47.69347" lon="6.1633">
        <ele>253.17</ele>
        <time>2015-12-02T08:56:48Z</time>
      </trkpt>
      <trkpt lat="47.69353" lon="6.16325">
        <ele>253.48</ele>
        <time>2015-12-02T08:56:50Z</time>
      </trkpt>
      <trkpt lat="47.69358" lon="6.1632">
        <ele>253.73</ele>
        <time>2015-12-02T08:56:52Z</time>
      </trkpt>
      <trkpt lat="47.69362" lon="6.16316">
        <ele>254</ele>
        <time>2015-12-02T08:56:54Z</time>
      </trkpt>
      <trkpt lat="47.69368" lon="6.16312">
        <ele>254.42</ele>
        <time>2015-12-02T08:56:57Z</time>
      </trkpt>
      <trkpt lat="47.69373" lon="6.16307">
        <ele>254.83</ele>
        <time>2015-12-02T08:57:00Z</time>
      </trkpt>
      <trkpt lat="47.69378" lon="6.16303">
        <ele>254.87</ele>
        <time>2015-12-02T08:57:03Z</time>
      </trkpt>
      <trkpt lat="47.69382" lon="6.163">
        <ele>254.86</ele>
        <time>2015-12-02T08:57:05Z</time>
      </trkpt>
      <trkpt lat="47.69386" lon="6.16298">
        <ele>254.93</ele>
        <time>2015-12-02T08:57:07Z</time>
      </trkpt>
      <trkpt lat="47.69391" lon="6.16297">
        <ele>255.27</ele>
        <time>2015-12-02T08:57:09Z</time>
      </trkpt>
      <trkpt lat="47.69397" lon="6.16295">
        <ele>255.73</ele>
        <time>2015-12-02T08:57:12Z</time>
      </trkpt>
      <trkpt lat="47.69403" lon="6.16296">
        <ele>256.27</ele>
        <time>2015-12-02T08:57:15Z</time>
      </trkpt>
      <trkpt lat="47.69409" lon="6.16295">
        <ele>256.74</ele>
        <time>2015-12-02T08:57:18Z</time>
      </trkpt>
      <trkpt lat="47.69414" lon="6.16297">
        <ele>257.42</ele>
        <time>2015-12-02T08:57:20Z</time>
      </trkpt>
      <trkpt lat="47.69419" lon="6.16299">
        <ele>258</ele>
        <time>2015-12-02T08:57:23Z</time>
      </trkpt>
      <trkpt lat="47.69425" lon="6.16302">
        <ele>258.53</ele>
        <time>2015-12-02T08:57:26Z</time>
      </trkpt>
      <trkpt lat="47.69431" lon="6.16305">
        <ele>258.64</ele>
        <time>2015-12-02T08:57:29Z</time>
      </trkpt>
      <trkpt lat="47.69437" lon="6.16309">
        <ele>258.66</ele>
        <time>2015-12-02T08:57:32Z</time>
      </trkpt>
      <trkpt lat="47.69442" lon="6.1631">
        <ele>258.7</ele>
        <time>2015-12-02T08:57:34Z</time>
      </trkpt>
      <trkpt lat="47.69447" lon="6.1631">
        <ele>258.44</ele>
        <time>2015-12-02T08:57:36Z</time>
      </trkpt>
      <trkpt lat="47.69452" lon="6.1631">
        <ele>258.15</ele>
        <time>2015-12-02T08:57:38Z</time>
      </trkpt>
      <trkpt lat="47.69458" lon="6.1631">
        <ele>257.88</ele>
        <time>2015-12-02T08:57:40Z</time>
      </trkpt>
      <trkpt lat="47.69464" lon="6.16309">
        <ele>257.76</ele>
        <time>2015-12-02T08:57:42Z</time>
      </trkpt>
      <trkpt lat="47.69469" lon="6.16307">
        <ele>257.68</ele>
        <time>2015-12-02T08:57:44Z</time>
      </trkpt>
      <trkpt lat="47.69474" lon="6.16304">
        <ele>257.63</ele>
        <time>2015-12-02T08:57:46Z</time>
      </trkpt>
      <trkpt lat="47.69479" lon="6.163">
        <ele>257.7</ele>
        <time>2015-12-02T08:57:48Z</time>
      </trkpt>
      <trkpt lat="47.69483" lon="6.16295">
        <ele>257.89</ele>
        <time>2015-12-02T08:57:50Z</time>
      </trkpt>
      <trkpt lat="47.69487" lon="6.16291">
        <ele>258.01</ele>
        <time>2015-12-02T08:57:52Z</time>
      </trkpt>
      <trkpt lat="47.69492" lon="6.16286">
        <ele>258.12</ele>
        <time>2015-12-02T08:57:54Z</time>
      </trkpt>
      <trkpt lat="47.69496" lon="6.16281">
        <ele>258.22</ele>
        <time>2015-12-02T08:57:56Z</time>
      </trkpt>
      <trkpt lat="47.69501" lon="6.16276">
        <ele>258.32</ele>
        <time>2015-12-02T08:57:58Z</time>
      </trkpt>
      <trkpt lat="47.69505" lon="6.1627">
        <ele>258.39</ele>
        <time>2015-12-02T08:58:00Z</time>
      </trkpt>
      <trkpt lat="47.69509" lon="6.16265">
        <ele>258.51</ele>
        <time>2015-12-02T08:58:02Z</time>
      </trkpt>
      <trkpt lat="47.69513" lon="6.16261">
        <ele>258.67</ele>
        <time>2015-12-02T08:58:04Z</time>
      </trkpt>
      <trkpt lat="47.69518" lon="6.16256">
        <ele>258.85</ele>
        <time>2015-12-02T08:58:06Z</time>
      </trkpt>
      <trkpt lat="47.69522" lon="6.16252">
        <ele>259.05</ele>
        <time>2015-12-02T08:58:08Z</time>
      </trkpt>
      <trkpt lat="47.69526" lon="6.16247">
        <ele>259.2</ele>
        <time>2015-12-02T08:58:10Z</time>
      </trkpt>
      <trkpt lat="47.6953" lon="6.16242">
        <ele>259.36</ele>
        <time>2015-12-02T08:58:12Z</time>
      </trkpt>
      <trkpt lat="47.69534" lon="6.16238">
        <ele>259.63</ele>
        <time>2015-12-02T08:58:14Z</time>
      </trkpt>
      <trkpt lat="47.69538" lon="6.16234">
        <ele>259.8</ele>
        <time>2015-12-02T08:58:16Z</time>
      </trkpt>
      <trkpt lat="47.69542" lon="6.1623">
        <ele>260.01</ele>
        <time>2015-12-02T08:58:18Z</time>
      </trkpt>
      <trkpt lat="47.69547" lon="6.16224">
        <ele>260.35</ele>
        <time>2015-12-02T08:58:21Z</time>
      </trkpt>
      <trkpt lat="47.6955" lon="6.16219">
        <ele>260.62</ele>
        <time>2015-12-02T08:58:23Z</time>
      </trkpt>
      <trkpt lat="47.69554" lon="6.16214">
        <ele>260.84</ele>
        <time>2015-12-02T08:58:25Z</time>
      </trkpt>
      <trkpt lat="47.69559" lon="6.16209">
        <ele>261.15</ele>
        <time>2015-12-02T08:58:28Z</time>
      </trkpt>
      <trkpt lat="47.69565" lon="6.16204">
        <ele>261.53</ele>
        <time>2015-12-02T08:58:31Z</time>
      </trkpt>
      <trkpt lat="47.6957" lon="6.16199">
        <ele>261.9</ele>
        <time>2015-12-02T08:58:34Z</time>
      </trkpt>
      <trkpt lat="47.69574" lon="6.16195">
        <ele>262.14</ele>
        <time>2015-12-02T08:58:36Z</time>
      </trkpt>
      <trkpt lat="47.69578" lon="6.16191">
        <ele>262.37</ele>
        <time>2015-12-02T08:58:38Z</time>
      </trkpt>
      <trkpt lat="47.69582" lon="6.16187">
        <ele>262.56</ele>
        <time>2015-12-02T08:58:40Z</time>
      </trkpt>
      <trkpt lat="47.69587" lon="6.16183">
        <ele>262.83</ele>
        <time>2015-12-02T08:58:42Z</time>
      </trkpt>
      <trkpt lat="47.69591" lon="6.1618">
        <ele>263.05</ele>
        <time>2015-12-02T08:58:44Z</time>
      </trkpt>
      <trkpt lat="47.69597" lon="6.16175">
        <ele>263.49</ele>
        <time>2015-12-02T08:58:47Z</time>
      </trkpt>
      <trkpt lat="47.69601" lon="6.16172">
        <ele>263.74</ele>
        <time>2015-12-02T08:58:49Z</time>
      </trkpt>
      <trkpt lat="47.69605" lon="6.16169">
        <ele>264.02</ele>
        <time>2015-12-02T08:58:51Z</time>
      </trkpt>
      <trkpt lat="47.69609" lon="6.16166">
        <ele>264.24</ele>
        <time>2015-12-02T08:58:53Z</time>
      </trkpt>
      <trkpt lat="47.69614" lon="6.16163">
        <ele>264.45</ele>
        <time>2015-12-02T08:58:55Z</time>
      </trkpt>
      <trkpt lat="47.69618" lon="6.1616">
        <ele>264.58</ele>
        <time>2015-12-02T08:58:57Z</time>
      </trkpt>
      <trkpt lat="47.69622" lon="6.16157">
        <ele>264.71</ele>
        <time>2015-12-02T08:58:59Z</time>
      </trkpt>
      <trkpt lat="47.69627" lon="6.16154">
        <ele>264.74</ele>
        <time>2015-12-02T08:59:01Z</time>
      </trkpt>
      <trkpt lat="47.69632" lon="6.16149">
        <ele>264.75</ele>
        <time>2015-12-02T08:59:03Z</time>
      </trkpt>
      <trkpt lat="47.69639" lon="6.16144">
        <ele>264.63</ele>
        <time>2015-12-02T08:59:05Z</time>
      </trkpt>
      <trkpt lat="47.69647" lon="6.16139">
        <ele>264.32</ele>
        <time>2015-12-02T08:59:07Z</time>
      </trkpt>
      <trkpt lat="47.69655" lon="6.16133">
        <ele>264.02</ele>
        <time>2015-12-02T08:59:09Z</time>
      </trkpt>
      <trkpt lat="47.69659" lon="6.16129">
        <ele>263.83</ele>
        <time>2015-12-02T08:59:10Z</time>
      </trkpt>
      <trkpt lat="47.69663" lon="6.16126">
        <ele>263.69</ele>
        <time>2015-12-02T08:59:11Z</time>
      </trkpt>
      <trkpt lat="47.69668" lon="6.16123">
        <ele>263.52</ele>
        <time>2015-12-02T08:59:12Z</time>
      </trkpt>
      <trkpt lat="47.69672" lon="6.16119">
        <ele>263.39</ele>
        <time>2015-12-02T08:59:13Z</time>
      </trkpt>
      <trkpt lat="47.69677" lon="6.16115">
        <ele>263.22</ele>
        <time>2015-12-02T08:59:14Z</time>
      </trkpt>
      <trkpt lat="47.69681" lon="6.16111">
        <ele>263.03</ele>
        <time>2015-12-02T08:59:15Z</time>
      </trkpt>
      <trkpt lat="47.69686" lon="6.16107">
        <ele>262.89</ele>
        <time>2015-12-02T08:59:16Z</time>
      </trkpt>
      <trkpt lat="47.6969" lon="6.16102">
        <ele>262.77</ele>
        <time>2015-12-02T08:59:17Z</time>
      </trkpt>
      <trkpt lat="47.69694" lon="6.16098">
        <ele>262.71</ele>
        <time>2015-12-02T08:59:18Z</time>
      </trkpt>
      <trkpt lat="47.69698" lon="6.16094">
        <ele>262.63</ele>
        <time>2015-12-02T08:59:19Z</time>
      </trkpt>
      <trkpt lat="47.69701" lon="6.1609">
        <ele>262.54</ele>
        <time>2015-12-02T08:59:20Z</time>
      </trkpt>
      <trkpt lat="47.69705" lon="6.16086">
        <ele>262.55</ele>
        <time>2015-12-02T08:59:21Z</time>
      </trkpt>
      <trkpt lat="47.69712" lon="6.16078">
        <ele>262.55</ele>
        <time>2015-12-02T08:59:23Z</time>
      </trkpt>
      <trkpt lat="47.69718" lon="6.16071">
        <ele>262.68</ele>
        <time>2015-12-02T08:59:25Z</time>
      </trkpt>
      <trkpt lat="47.69724" lon="6.16064">
        <ele>262.86</ele>
        <time>2015-12-02T08:59:27Z</time>
      </trkpt>
      <trkpt lat="47.69729" lon="6.16058">
        <ele>262.93</ele>
        <time>2015-12-02T08:59:29Z</time>
      </trkpt>
      <trkpt lat="47.69735" lon="6.16051">
        <ele>262.82</ele>
        <time>2015-12-02T08:59:31Z</time>
      </trkpt>
      <trkpt lat="47.69741" lon="6.16044">
        <ele>262.77</ele>
        <time>2015-12-02T08:59:33Z</time>
      </trkpt>
      <trkpt lat="47.69748" lon="6.16038">
        <ele>262.83</ele>
        <time>2015-12-02T08:59:35Z</time>
      </trkpt>
      <trkpt lat="47.69756" lon="6.16036">
        <ele>262.85</ele>
        <time>2015-12-02T08:59:37Z</time>
      </trkpt>
      <trkpt lat="47.69763" lon="6.16036">
        <ele>262.92</ele>
        <time>2015-12-02T08:59:39Z</time>
      </trkpt>
      <trkpt lat="47.69769" lon="6.16038">
        <ele>262.99</ele>
        <time>2015-12-02T08:59:41Z</time>
      </trkpt>
      <trkpt lat="47.69775" lon="6.16041">
        <ele>262.99</ele>
        <time>2015-12-02T08:59:43Z</time>
      </trkpt>
      <trkpt lat="47.6978" lon="6.16045">
        <ele>262.96</ele>
        <time>2015-12-02T08:59:45Z</time>
      </trkpt>
      <trkpt lat="47.69785" lon="6.16051">
        <ele>262.95</ele>
        <time>2015-12-02T08:59:47Z</time>
      </trkpt>
      <trkpt lat="47.6979" lon="6.16055">
        <ele>262.95</ele>
        <time>2015-12-02T08:59:49Z</time>
      </trkpt>
      <trkpt lat="47.69795" lon="6.16059">
        <ele>262.83</ele>
        <time>2015-12-02T08:59:51Z</time>
      </trkpt>
      <trkpt lat="47.698" lon="6.16063">
        <ele>262.84</ele>
        <time>2015-12-02T08:59:53Z</time>
      </trkpt>
      <trkpt lat="47.69805" lon="6.16068">
        <ele>262.97</ele>
        <time>2015-12-02T08:59:55Z</time>
      </trkpt>
      <trkpt lat="47.69809" lon="6.16072">
        <ele>263.16</ele>
        <time>2015-12-02T08:59:57Z</time>
      </trkpt>
      <trkpt lat="47.69814" lon="6.16076">
        <ele>263.35</ele>
        <time>2015-12-02T08:59:59Z</time>
      </trkpt>
      <trkpt lat="47.6982" lon="6.1608">
        <ele>263.58</ele>
        <time>2015-12-02T09:00:01Z</time>
      </trkpt>
      <trkpt lat="47.69824" lon="6.16085">
        <ele>263.71</ele>
        <time>2015-12-02T09:00:03Z</time>
      </trkpt>
      <trkpt lat="47.69829" lon="6.16089">
        <ele>263.87</ele>
        <time>2015-12-02T09:00:05Z</time>
      </trkpt>
      <trkpt lat="47.69834" lon="6.16094">
        <ele>264.05</ele>
        <time>2015-12-02T09:00:07Z</time>
      </trkpt>
      <trkpt lat="47.69839" lon="6.16099">
        <ele>264.23</ele>
        <time>2015-12-02T09:00:09Z</time>
      </trkpt>
      <trkpt lat="47.69843" lon="6.16104">
        <ele>264.44</ele>
        <time>2015-12-02T09:00:11Z</time>
      </trkpt>
      <trkpt lat="47.69848" lon="6.1611">
        <ele>264.65</ele>
        <time>2015-12-02T09:00:13Z</time>
      </trkpt>
      <trkpt lat="47.69852" lon="6.16116">
        <ele>264.9</ele>
        <time>2015-12-02T09:00:15Z</time>
      </trkpt>
      <trkpt lat="47.69856" lon="6.16122">
        <ele>265.06</ele>
        <time>2015-12-02T09:00:17Z</time>
      </trkpt>
      <trkpt lat="47.6986" lon="6.16127">
        <ele>265.05</ele>
        <time>2015-12-02T09:00:19Z</time>
      </trkpt>
      <trkpt lat="47.69863" lon="6.16132">
        <ele>265.13</ele>
        <time>2015-12-02T09:00:21Z</time>
      </trkpt>
      <trkpt lat="47.69866" lon="6.16138">
        <ele>265.14</ele>
        <time>2015-12-02T09:00:23Z</time>
      </trkpt>
      <trkpt lat="47.6987" lon="6.16144">
        <ele>265.27</ele>
        <time>2015-12-02T09:00:25Z</time>
      </trkpt>
      <trkpt lat="47.69873" lon="6.16149">
        <ele>265.46</ele>
        <time>2015-12-02T09:00:27Z</time>
      </trkpt>
      <trkpt lat="47.69877" lon="6.16155">
        <ele>265.6</ele>
        <time>2015-12-02T09:00:29Z</time>
      </trkpt>
      <trkpt lat="47.6988" lon="6.1616">
        <ele>265.76</ele>
        <time>2015-12-02T09:00:31Z</time>
      </trkpt>
      <trkpt lat="47.69883" lon="6.16166">
        <ele>265.9</ele>
        <time>2015-12-02T09:00:33Z</time>
      </trkpt>
      <trkpt lat="47.69887" lon="6.16171">
        <ele>266.01</ele>
        <time>2015-12-02T09:00:35Z</time>
      </trkpt>
      <trkpt lat="47.6989" lon="6.16178">
        <ele>266.22</ele>
        <time>2015-12-02T09:00:37Z</time>
      </trkpt>
      <trkpt lat="47.69894" lon="6.16184">
        <ele>266.37</ele>
        <time>2015-12-02T09:00:39Z</time>
      </trkpt>
      <trkpt lat="47.69897" lon="6.1619">
        <ele>266.56</ele>
        <time>2015-12-02T09:00:41Z</time>
      </trkpt>
      <trkpt lat="47.69901" lon="6.16195">
        <ele>266.68</ele>
        <time>2015-12-02T09:00:43Z</time>
      </trkpt>
      <trkpt lat="47.69904" lon="6.16202">
        <ele>266.78</ele>
        <time>2015-12-02T09:00:45Z</time>
      </trkpt>
      <trkpt lat="47.69907" lon="6.16208">
        <ele>267.01</ele>
        <time>2015-12-02T09:00:47Z</time>
      </trkpt>
      <trkpt lat="47.6991" lon="6.16214">
        <ele>267.27</ele>
        <time>2015-12-02T09:00:49Z</time>
      </trkpt>
      <trkpt lat="47.69914" lon="6.1622">
        <ele>267.53</ele>
        <time>2015-12-02T09:00:51Z</time>
      </trkpt>
      <trkpt lat="47.69916" lon="6.16226">
        <ele>267.67</ele>
        <time>2015-12-02T09:00:53Z</time>
      </trkpt>
      <trkpt lat="47.69919" lon="6.16233">
        <ele>267.86</ele>
        <time>2015-12-02T09:00:55Z</time>
      </trkpt>
      <trkpt lat="47.69922" lon="6.16239">
        <ele>268</ele>
        <time>2015-12-02T09:00:57Z</time>
      </trkpt>
      <trkpt lat="47.69925" lon="6.16245">
        <ele>268.09</ele>
        <time>2015-12-02T09:00:59Z</time>
      </trkpt>
      <trkpt lat="47.69928" lon="6.16251">
        <ele>268.14</ele>
        <time>2015-12-02T09:01:01Z</time>
      </trkpt>
      <trkpt lat="47.6993" lon="6.16257">
        <ele>268.07</ele>
        <time>2015-12-02T09:01:03Z</time>
      </trkpt>
      <trkpt lat="47.69932" lon="6.16264">
        <ele>268.18</ele>
        <time>2015-12-02T09:01:05Z</time>
      </trkpt>
      <trkpt lat="47.69934" lon="6.16271">
        <ele>268.43</ele>
        <time>2015-12-02T09:01:07Z</time>
      </trkpt>
      <trkpt lat="47.69937" lon="6.16277">
        <ele>268.65</ele>
        <time>2015-12-02T09:01:09Z</time>
      </trkpt>
      <trkpt lat="47.69939" lon="6.16283">
        <ele>268.9</ele>
        <time>2015-12-02T09:01:11Z</time>
      </trkpt>
      <trkpt lat="47.69942" lon="6.16289">
        <ele>269.06</ele>
        <time>2015-12-02T09:01:13Z</time>
      </trkpt>
      <trkpt lat="47.69945" lon="6.16295">
        <ele>269.3</ele>
        <time>2015-12-02T09:01:15Z</time>
      </trkpt>
      <trkpt lat="47.69948" lon="6.163">
        <ele>269.49</ele>
        <time>2015-12-02T09:01:17Z</time>
      </trkpt>
      <trkpt lat="47.69953" lon="6.16304">
        <ele>269.86</ele>
        <time>2015-12-02T09:01:19Z</time>
      </trkpt>
      <trkpt lat="47.69958" lon="6.16306">
        <ele>270.13</ele>
        <time>2015-12-02T09:01:21Z</time>
      </trkpt>
      <trkpt lat="47.69963" lon="6.16308">
        <ele>270.3</ele>
        <time>2015-12-02T09:01:23Z</time>
      </trkpt>
      <trkpt lat="47.69968" lon="6.16309">
        <ele>270.26</ele>
        <time>2015-12-02T09:01:25Z</time>
      </trkpt>
      <trkpt lat="47.69973" lon="6.16309">
        <ele>270.15</ele>
        <time>2015-12-02T09:01:27Z</time>
      </trkpt>
      <trkpt lat="47.69978" lon="6.16308">
        <ele>269.95</ele>
        <time>2015-12-02T09:01:29Z</time>
      </trkpt>
      <trkpt lat="47.69983" lon="6.16308">
        <ele>270</ele>
        <time>2015-12-02T09:01:31Z</time>
      </trkpt>
      <trkpt lat="47.69988" lon="6.16307">
        <ele>270.09</ele>
        <time>2015-12-02T09:01:33Z</time>
      </trkpt>
      <trkpt lat="47.69993" lon="6.16306">
        <ele>270.26</ele>
        <time>2015-12-02T09:01:35Z</time>
      </trkpt>
      <trkpt lat="47.69998" lon="6.16305">
        <ele>270.53</ele>
        <time>2015-12-02T09:01:37Z</time>
      </trkpt>
      <trkpt lat="47.70003" lon="6.16304">
        <ele>270.9</ele>
        <time>2015-12-02T09:01:39Z</time>
      </trkpt>
      <trkpt lat="47.70008" lon="6.16304">
        <ele>271.29</ele>
        <time>2015-12-02T09:01:41Z</time>
      </trkpt>
      <trkpt lat="47.70012" lon="6.16303">
        <ele>271.64</ele>
        <time>2015-12-02T09:01:43Z</time>
      </trkpt>
      <trkpt lat="47.70017" lon="6.16301">
        <ele>272</ele>
        <time>2015-12-02T09:01:45Z</time>
      </trkpt>
      <trkpt lat="47.70022" lon="6.16301">
        <ele>272.41</ele>
        <time>2015-12-02T09:01:47Z</time>
      </trkpt>
      <trkpt lat="47.70027" lon="6.163">
        <ele>272.97</ele>
        <time>2015-12-02T09:01:49Z</time>
      </trkpt>
      <trkpt lat="47.70032" lon="6.16299">
        <ele>273.48</ele>
        <time>2015-12-02T09:01:51Z</time>
      </trkpt>
      <trkpt lat="47.70037" lon="6.16298">
        <ele>273.81</ele>
        <time>2015-12-02T09:01:53Z</time>
      </trkpt>
      <trkpt lat="47.70042" lon="6.16297">
        <ele>274.17</ele>
        <time>2015-12-02T09:01:55Z</time>
      </trkpt>
      <trkpt lat="47.70048" lon="6.16296">
        <ele>274.5</ele>
        <time>2015-12-02T09:01:57Z</time>
      </trkpt>
      <trkpt lat="47.70054" lon="6.16295">
        <ele>274.86</ele>
        <time>2015-12-02T09:01:59Z</time>
      </trkpt>
      <trkpt lat="47.7006" lon="6.16295">
        <ele>275.15</ele>
        <time>2015-12-02T09:02:01Z</time>
      </trkpt>
      <trkpt lat="47.70065" lon="6.16294">
        <ele>275.2</ele>
        <time>2015-12-02T09:02:03Z</time>
      </trkpt>
      <trkpt lat="47.7007" lon="6.16293">
        <ele>275.29</ele>
        <time>2015-12-02T09:02:05Z</time>
      </trkpt>
      <trkpt lat="47.70075" lon="6.16293">
        <ele>275.54</ele>
        <time>2015-12-02T09:02:07Z</time>
      </trkpt>
      <trkpt lat="47.7008" lon="6.16292">
        <ele>275.72</ele>
        <time>2015-12-02T09:02:09Z</time>
      </trkpt>
      <trkpt lat="47.70085" lon="6.16292">
        <ele>275.99</ele>
        <time>2015-12-02T09:02:11Z</time>
      </trkpt>
      <trkpt lat="47.7009" lon="6.16291">
        <ele>276.29</ele>
        <time>2015-12-02T09:02:13Z</time>
      </trkpt>
      <trkpt lat="47.70095" lon="6.16291">
        <ele>276.26</ele>
        <time>2015-12-02T09:02:15Z</time>
      </trkpt>
      <trkpt lat="47.701" lon="6.1629">
        <ele>276.3</ele>
        <time>2015-12-02T09:02:17Z</time>
      </trkpt>
      <trkpt lat="47.70105" lon="6.16289">
        <ele>276.61</ele>
        <time>2015-12-02T09:02:19Z</time>
      </trkpt>
      <trkpt lat="47.7011" lon="6.16288">
        <ele>276.92</ele>
        <time>2015-12-02T09:02:21Z</time>
      </trkpt>
      <trkpt lat="47.70115" lon="6.16288">
        <ele>277.22</ele>
        <time>2015-12-02T09:02:23Z</time>
      </trkpt>
      <trkpt lat="47.7012" lon="6.16288">
        <ele>277.37</ele>
        <time>2015-12-02T09:02:25Z</time>
      </trkpt>
      <trkpt lat="47.70125" lon="6.16287">
        <ele>277.53</ele>
        <time>2015-12-02T09:02:27Z</time>
      </trkpt>
      <trkpt lat="47.7013" lon="6.16286">
        <ele>277.72</ele>
        <time>2015-12-02T09:02:29Z</time>
      </trkpt>
      <trkpt lat="47.70134" lon="6.16285">
        <ele>277.87</ele>
        <time>2015-12-02T09:02:31Z</time>
      </trkpt>
      <trkpt lat="47.70139" lon="6.16282">
        <ele>277.98</ele>
        <time>2015-12-02T09:02:33Z</time>
      </trkpt>
      <trkpt lat="47.70144" lon="6.16282">
        <ele>278.36</ele>
        <time>2015-12-02T09:02:35Z</time>
      </trkpt>
      <trkpt lat="47.70149" lon="6.16281">
        <ele>278.68</ele>
        <time>2015-12-02T09:02:37Z</time>
      </trkpt>
      <trkpt lat="47.70155" lon="6.1628">
        <ele>278.91</ele>
        <time>2015-12-02T09:02:39Z</time>
      </trkpt>
      <trkpt lat="47.7016" lon="6.16279">
        <ele>279.07</ele>
        <time>2015-12-02T09:02:41Z</time>
      </trkpt>
      <trkpt lat="47.70165" lon="6.16278">
        <ele>279.18</ele>
        <time>2015-12-02T09:02:43Z</time>
      </trkpt>
      <trkpt lat="47.7017" lon="6.16277">
        <ele>279.26</ele>
        <time>2015-12-02T09:02:45Z</time>
      </trkpt>
      <trkpt lat="47.70174" lon="6.16276">
        <ele>279.45</ele>
        <time>2015-12-02T09:02:47Z</time>
      </trkpt>
      <trkpt lat="47.70179" lon="6.16276">
        <ele>279.58</ele>
        <time>2015-12-02T09:02:49Z</time>
      </trkpt>
      <trkpt lat="47.70185" lon="6.16275">
        <ele>279.7</ele>
        <time>2015-12-02T09:02:52Z</time>
      </trkpt>
      <trkpt lat="47.70191" lon="6.16275">
        <ele>280.4</ele>
        <time>2015-12-02T09:02:55Z</time>
      </trkpt>
      <trkpt lat="47.70193" lon="6.16282">
        <ele>281.68</ele>
        <time>2015-12-02T09:04:29Z</time>
      </trkpt>
      <trkpt lat="47.70194" lon="6.1629">
        <ele>281.6</ele>
        <time>2015-12-02T09:04:33Z</time>
      </trkpt>
      <trkpt lat="47.70195" lon="6.163">
        <ele>280.83</ele>
        <time>2015-12-02T09:04:36Z</time>
      </trkpt>
      <trkpt lat="47.70194" lon="6.16307">
        <ele>280.27</ele>
        <time>2015-12-02T09:04:38Z</time>
      </trkpt>
      <trkpt lat="47.70195" lon="6.16316">
        <ele>279.84</ele>
        <time>2015-12-02T09:04:41Z</time>
      </trkpt>
      <trkpt lat="47.70195" lon="6.16324">
        <ele>279.29</ele>
        <time>2015-12-02T09:04:44Z</time>
      </trkpt>
      <trkpt lat="47.70196" lon="6.16333">
        <ele>279.19</ele>
        <time>2015-12-02T09:04:46Z</time>
      </trkpt>
      <trkpt lat="47.70196" lon="6.16343">
        <ele>279.08</ele>
        <time>2015-12-02T09:04:48Z</time>
      </trkpt>
      <trkpt lat="47.70197" lon="6.16349">
        <ele>279.16</ele>
        <time>2015-12-02T09:04:50Z</time>
      </trkpt>
      <trkpt lat="47.70198" lon="6.16356">
        <ele>279.43</ele>
        <time>2015-12-02T09:04:52Z</time>
      </trkpt>
      <trkpt lat="47.70199" lon="6.16363">
        <ele>279.82</ele>
        <time>2015-12-02T09:04:54Z</time>
      </trkpt>
      <trkpt lat="47.70199" lon="6.1637">
        <ele>280.19</ele>
        <time>2015-12-02T09:04:56Z</time>
      </trkpt>
      <trkpt lat="47.70198" lon="6.16378">
        <ele>279.49</ele>
        <time>2015-12-02T09:04:58Z</time>
      </trkpt>
      <trkpt lat="47.70197" lon="6.16386">
        <ele>279.28</ele>
        <time>2015-12-02T09:05:00Z</time>
      </trkpt>
      <trkpt lat="47.70198" lon="6.16394">
        <ele>280.52</ele>
        <time>2015-12-02T09:05:08Z</time>
      </trkpt>
      <trkpt lat="47.702" lon="6.16401">
        <ele>281.63</ele>
        <time>2015-12-02T09:05:14Z</time>
      </trkpt>
      <trkpt lat="47.70199" lon="6.16409">
        <ele>282.75</ele>
        <time>2015-12-02T09:05:25Z</time>
      </trkpt>
      <trkpt lat="47.702" lon="6.16417">
        <ele>282.69</ele>
        <time>2015-12-02T09:05:28Z</time>
      </trkpt>
      <trkpt lat="47.702" lon="6.16425">
        <ele>282.78</ele>
        <time>2015-12-02T09:05:31Z</time>
      </trkpt>
      <trkpt lat="47.70201" lon="6.16433">
        <ele>282.9</ele>
        <time>2015-12-02T09:05:34Z</time>
      </trkpt>
      <trkpt lat="47.70201" lon="6.16442">
        <ele>283.12</ele>
        <time>2015-12-02T09:05:37Z</time>
      </trkpt>
      <trkpt lat="47.70202" lon="6.16452">
        <ele>283.9</ele>
        <time>2015-12-02T09:05:40Z</time>
      </trkpt>
      <trkpt lat="47.70202" lon="6.16459">
        <ele>284.24</ele>
        <time>2015-12-02T09:05:43Z</time>
      </trkpt>
      <trkpt lat="47.70202" lon="6.16467">
        <ele>284.53</ele>
        <time>2015-12-02T09:05:46Z</time>
      </trkpt>
      <trkpt lat="47.70202" lon="6.16476">
        <ele>284.86</ele>
        <time>2015-12-02T09:05:49Z</time>
      </trkpt>
      <trkpt lat="47.70203" lon="6.16486">
        <ele>285.27</ele>
        <time>2015-12-02T09:05:53Z</time>
      </trkpt>
      <trkpt lat="47.70204" lon="6.16493">
        <ele>286.29</ele>
        <time>2015-12-02T09:05:56Z</time>
      </trkpt>
      <trkpt lat="47.70204" lon="6.16501">
        <ele>286.58</ele>
        <time>2015-12-02T09:05:59Z</time>
      </trkpt>
      <trkpt lat="47.70205" lon="6.16507">
        <ele>287.28</ele>
        <time>2015-12-02T09:06:02Z</time>
      </trkpt>
      <trkpt lat="47.70205" lon="6.16516">
        <ele>287.24</ele>
        <time>2015-12-02T09:06:06Z</time>
      </trkpt>
      <trkpt lat="47.70206" lon="6.16523">
        <ele>286.45</ele>
        <time>2015-12-02T09:06:13Z</time>
      </trkpt>
      <trkpt lat="47.70209" lon="6.16528">
        <ele>286.31</ele>
        <time>2015-12-02T09:06:23Z</time>
      </trkpt>
      <trkpt lat="47.7021" lon="6.16535">
        <ele>285.93</ele>
        <time>2015-12-02T09:06:32Z</time>
      </trkpt>
      <trkpt lat="47.70211" lon="6.16544">
        <ele>285.21</ele>
        <time>2015-12-02T09:06:43Z</time>
      </trkpt>
      <trkpt lat="47.7021" lon="6.16551">
        <ele>285.05</ele>
        <time>2015-12-02T09:06:46Z</time>
      </trkpt>
      <trkpt lat="47.7021" lon="6.16558">
        <ele>284.89</ele>
        <time>2015-12-02T09:06:49Z</time>
      </trkpt>
      <trkpt lat="47.7021" lon="6.16566">
        <ele>284.88</ele>
        <time>2015-12-02T09:06:53Z</time>
      </trkpt>
      <trkpt lat="47.7021" lon="6.16573">
        <ele>284.82</ele>
        <time>2015-12-02T09:07:05Z</time>
      </trkpt>
      <trkpt lat="47.70209" lon="6.1658">
        <ele>283.83</ele>
        <time>2015-12-02T09:07:17Z</time>
      </trkpt>
      <trkpt lat="47.70209" lon="6.16589">
        <ele>282.97</ele>
        <time>2015-12-02T09:07:20Z</time>
      </trkpt>
      <trkpt lat="47.70209" lon="6.16597">
        <ele>282.1</ele>
        <time>2015-12-02T09:07:23Z</time>
      </trkpt>
      <trkpt lat="47.7021" lon="6.16607">
        <ele>281.72</ele>
        <time>2015-12-02T09:07:26Z</time>
      </trkpt>
      <trkpt lat="47.70211" lon="6.16616">
        <ele>281.62</ele>
        <time>2015-12-02T09:07:29Z</time>
      </trkpt>
      <trkpt lat="47.70211" lon="6.16626">
        <ele>281.83</ele>
        <time>2015-12-02T09:07:32Z</time>
      </trkpt>
      <trkpt lat="47.70212" lon="6.16635">
        <ele>281.8</ele>
        <time>2015-12-02T09:07:35Z</time>
      </trkpt>
      <trkpt lat="47.70212" lon="6.16644">
        <ele>281.72</ele>
        <time>2015-12-02T09:07:38Z</time>
      </trkpt>
      <trkpt lat="47.70213" lon="6.16653">
        <ele>282.27</ele>
        <time>2015-12-02T09:07:42Z</time>
      </trkpt>
      <trkpt lat="47.70214" lon="6.1666">
        <ele>282.18</ele>
        <time>2015-12-02T09:07:45Z</time>
      </trkpt>
      <trkpt lat="47.70213" lon="6.16667">
        <ele>282.19</ele>
        <time>2015-12-02T09:07:58Z</time>
      </trkpt>
      <trkpt lat="47.70215" lon="6.16673">
        <ele>282.52</ele>
        <time>2015-12-02T09:08:04Z</time>
      </trkpt>
      <trkpt lat="47.70219" lon="6.16678">
        <ele>283.05</ele>
        <time>2015-12-02T09:08:09Z</time>
      </trkpt>
      <trkpt lat="47.7022" lon="6.16686">
        <ele>283.75</ele>
        <time>2015-12-02T09:08:16Z</time>
      </trkpt>
      <trkpt lat="47.70222" lon="6.16693">
        <ele>284.19</ele>
        <time>2015-12-02T09:08:20Z</time>
      </trkpt>
      <trkpt lat="47.70224" lon="6.167">
        <ele>285.31</ele>
        <time>2015-12-02T09:08:24Z</time>
      </trkpt>
      <trkpt lat="47.70227" lon="6.16706">
        <ele>286.2</ele>
        <time>2015-12-02T09:08:28Z</time>
      </trkpt>
      <trkpt lat="47.7023" lon="6.16713">
        <ele>287.1</ele>
        <time>2015-12-02T09:08:33Z</time>
      </trkpt>
      <trkpt lat="47.70232" lon="6.1672">
        <ele>288.55</ele>
        <time>2015-12-02T09:08:38Z</time>
      </trkpt>
      <trkpt lat="47.70235" lon="6.16727">
        <ele>289.65</ele>
        <time>2015-12-02T09:08:43Z</time>
      </trkpt>
      <trkpt lat="47.70235" lon="6.16734">
        <ele>289.56</ele>
        <time>2015-12-02T09:08:47Z</time>
      </trkpt>
      <trkpt lat="47.70234" lon="6.16742">
        <ele>288.71</ele>
        <time>2015-12-02T09:08:52Z</time>
      </trkpt>
      <trkpt lat="47.70234" lon="6.1675">
        <ele>287.3</ele>
        <time>2015-12-02T09:08:57Z</time>
      </trkpt>
      <trkpt lat="47.70236" lon="6.16758">
        <ele>287.68</ele>
        <time>2015-12-02T09:09:02Z</time>
      </trkpt>
      <trkpt lat="47.70237" lon="6.16765">
        <ele>286.95</ele>
        <time>2015-12-02T09:09:07Z</time>
      </trkpt>
      <trkpt lat="47.70236" lon="6.16771">
        <ele>286.11</ele>
        <time>2015-12-02T09:09:15Z</time>
      </trkpt>
      <trkpt lat="47.70234" lon="6.16765">
        <ele>284.83</ele>
        <time>2015-12-02T09:11:38Z</time>
      </trkpt>
      <trkpt lat="47.70231" lon="6.16758">
        <ele>284.3</ele>
        <time>2015-12-02T09:11:58Z</time>
      </trkpt>
      <trkpt lat="47.70231" lon="6.16751">
        <ele>283.56</ele>
        <time>2015-12-02T09:12:09Z</time>
      </trkpt>
      <trkpt lat="47.7023" lon="6.16744">
        <ele>283.57</ele>
        <time>2015-12-02T09:12:14Z</time>
      </trkpt>
      <trkpt lat="47.70231" lon="6.16737">
        <ele>283.91</ele>
        <time>2015-12-02T09:12:19Z</time>
      </trkpt>
      <trkpt lat="47.7023" lon="6.1673">
        <ele>284.15</ele>
        <time>2015-12-02T09:12:24Z</time>
      </trkpt>
      <trkpt lat="47.70228" lon="6.16723">
        <ele>285.35</ele>
        <time>2015-12-02T09:12:37Z</time>
      </trkpt>
      <trkpt lat="47.70225" lon="6.16715">
        <ele>285.65</ele>
        <time>2015-12-02T09:12:40Z</time>
      </trkpt>
      <trkpt lat="47.70223" lon="6.16709">
        <ele>285.73</ele>
        <time>2015-12-02T09:12:42Z</time>
      </trkpt>
      <trkpt lat="47.70222" lon="6.16702">
        <ele>286.17</ele>
        <time>2015-12-02T09:12:44Z</time>
      </trkpt>
      <trkpt lat="47.70219" lon="6.16694">
        <ele>286.33</ele>
        <time>2015-12-02T09:12:46Z</time>
      </trkpt>
      <trkpt lat="47.70217" lon="6.16688">
        <ele>286.32</ele>
        <time>2015-12-02T09:12:48Z</time>
      </trkpt>
      <trkpt lat="47.70215" lon="6.16681">
        <ele>286.18</ele>
        <time>2015-12-02T09:12:51Z</time>
      </trkpt>
      <trkpt lat="47.70213" lon="6.16675">
        <ele>286.24</ele>
        <time>2015-12-02T09:12:54Z</time>
      </trkpt>
      <trkpt lat="47.70212" lon="6.16668">
        <ele>285.8</ele>
        <time>2015-12-02T09:13:05Z</time>
      </trkpt>
      <trkpt lat="47.70213" lon="6.1666">
        <ele>286.47</ele>
        <time>2015-12-02T09:13:10Z</time>
      </trkpt>
      <trkpt lat="47.70212" lon="6.16651">
        <ele>286.61</ele>
        <time>2015-12-02T09:13:21Z</time>
      </trkpt>
      <trkpt lat="47.70212" lon="6.16642">
        <ele>286.83</ele>
        <time>2015-12-02T09:13:24Z</time>
      </trkpt>
      <trkpt lat="47.70212" lon="6.16633">
        <ele>287.2</ele>
        <time>2015-12-02T09:13:27Z</time>
      </trkpt>
      <trkpt lat="47.70211" lon="6.16624">
        <ele>287.72</ele>
        <time>2015-12-02T09:13:30Z</time>
      </trkpt>
      <trkpt lat="47.7021" lon="6.16614">
        <ele>288.45</ele>
        <time>2015-12-02T09:13:33Z</time>
      </trkpt>
      <trkpt lat="47.7021" lon="6.16606">
        <ele>288.89</ele>
        <time>2015-12-02T09:13:36Z</time>
      </trkpt>
      <trkpt lat="47.70209" lon="6.16599">
        <ele>289.32</ele>
        <time>2015-12-02T09:13:39Z</time>
      </trkpt>
      <trkpt lat="47.70208" lon="6.1659">
        <ele>289.77</ele>
        <time>2015-12-02T09:13:43Z</time>
      </trkpt>
      <trkpt lat="47.70208" lon="6.16583">
        <ele>289.53</ele>
        <time>2015-12-02T09:13:46Z</time>
      </trkpt>
      <trkpt lat="47.70208" lon="6.16575">
        <ele>289.54</ele>
        <time>2015-12-02T09:13:49Z</time>
      </trkpt>
      <trkpt lat="47.70209" lon="6.16568">
        <ele>289.01</ele>
        <time>2015-12-02T09:14:04Z</time>
      </trkpt>
      <trkpt lat="47.70207" lon="6.16559">
        <ele>288.27</ele>
        <time>2015-12-02T09:14:09Z</time>
      </trkpt>
      <trkpt lat="47.70208" lon="6.16551">
        <ele>288.24</ele>
        <time>2015-12-02T09:14:13Z</time>
      </trkpt>
      <trkpt lat="47.70208" lon="6.16543">
        <ele>288.84</ele>
        <time>2015-12-02T09:14:17Z</time>
      </trkpt>
      <trkpt lat="47.70208" lon="6.16534">
        <ele>289.37</ele>
        <time>2015-12-02T09:14:21Z</time>
      </trkpt>
      <trkpt lat="47.70207" lon="6.16527">
        <ele>290</ele>
        <time>2015-12-02T09:14:24Z</time>
      </trkpt>
      <trkpt lat="47.70206" lon="6.16519">
        <ele>290.34</ele>
        <time>2015-12-02T09:14:28Z</time>
      </trkpt>
      <trkpt lat="47.70206" lon="6.16511">
        <ele>290.33</ele>
        <time>2015-12-02T09:14:34Z</time>
      </trkpt>
      <trkpt lat="47.70205" lon="6.16504">
        <ele>290.24</ele>
        <time>2015-12-02T09:14:38Z</time>
      </trkpt>
      <trkpt lat="47.70204" lon="6.16496">
        <ele>290.14</ele>
        <time>2015-12-02T09:14:42Z</time>
      </trkpt>
      <trkpt lat="47.70204" lon="6.16489">
        <ele>290.12</ele>
        <time>2015-12-02T09:14:45Z</time>
      </trkpt>
      <trkpt lat="47.70203" lon="6.16482">
        <ele>290.77</ele>
        <time>2015-12-02T09:14:49Z</time>
      </trkpt>
      <trkpt lat="47.70202" lon="6.16475">
        <ele>291.46</ele>
        <time>2015-12-02T09:14:53Z</time>
      </trkpt>
      <trkpt lat="47.70202" lon="6.16468">
        <ele>292.01</ele>
        <time>2015-12-02T09:14:58Z</time>
      </trkpt>
      <trkpt lat="47.70201" lon="6.1646">
        <ele>292.6</ele>
        <time>2015-12-02T09:15:03Z</time>
      </trkpt>
      <trkpt lat="47.70201" lon="6.16453">
        <ele>292.75</ele>
        <time>2015-12-02T09:15:13Z</time>
      </trkpt>
      <trkpt lat="47.70202" lon="6.16444">
        <ele>291.76</ele>
        <time>2015-12-02T09:15:17Z</time>
      </trkpt>
      <trkpt lat="47.702" lon="6.16436">
        <ele>291.54</ele>
        <time>2015-12-02T09:15:20Z</time>
      </trkpt>
      <trkpt lat="47.70199" lon="6.16427">
        <ele>291.85</ele>
        <time>2015-12-02T09:15:23Z</time>
      </trkpt>
      <trkpt lat="47.70198" lon="6.16417">
        <ele>292.03</ele>
        <time>2015-12-02T09:15:26Z</time>
      </trkpt>
      <trkpt lat="47.70198" lon="6.1641">
        <ele>292.09</ele>
        <time>2015-12-02T09:15:28Z</time>
      </trkpt>
      <trkpt lat="47.70197" lon="6.16401">
        <ele>291.52</ele>
        <time>2015-12-02T09:15:31Z</time>
      </trkpt>
      <trkpt lat="47.70199" lon="6.16395">
        <ele>290.33</ele>
        <time>2015-12-02T09:15:44Z</time>
      </trkpt>
      <trkpt lat="47.70196" lon="6.16389">
        <ele>289.83</ele>
        <time>2015-12-02T09:15:55Z</time>
      </trkpt>
      <trkpt lat="47.70196" lon="6.16381">
        <ele>289.64</ele>
        <time>2015-12-02T09:15:59Z</time>
      </trkpt>
      <trkpt lat="47.70196" lon="6.16372">
        <ele>288.91</ele>
        <time>2015-12-02T09:16:02Z</time>
      </trkpt>
      <trkpt lat="47.70196" lon="6.16363">
        <ele>288.42</ele>
        <time>2015-12-02T09:16:04Z</time>
      </trkpt>
      <trkpt lat="47.70195" lon="6.16357">
        <ele>288.12</ele>
        <time>2015-12-02T09:16:06Z</time>
      </trkpt>
      <trkpt lat="47.70195" lon="6.16348">
        <ele>288.08</ele>
        <time>2015-12-02T09:16:09Z</time>
      </trkpt>
      <trkpt lat="47.70194" lon="6.16339">
        <ele>287.98</ele>
        <time>2015-12-02T09:16:11Z</time>
      </trkpt>
      <trkpt lat="47.70193" lon="6.16332">
        <ele>288.18</ele>
        <time>2015-12-02T09:16:13Z</time>
      </trkpt>
      <trkpt lat="47.70192" lon="6.16324">
        <ele>288.43</ele>
        <time>2015-12-02T09:16:17Z</time>
      </trkpt>
      <trkpt lat="47.70192" lon="6.16314">
        <ele>288.42</ele>
        <time>2015-12-02T09:16:21Z</time>
      </trkpt>
      <trkpt lat="47.70191" lon="6.16306">
        <ele>288.77</ele>
        <time>2015-12-02T09:16:24Z</time>
      </trkpt>
      <trkpt lat="47.70191" lon="6.16298">
        <ele>288.92</ele>
        <time>2015-12-02T09:16:27Z</time>
      </trkpt>
      <trkpt lat="47.70192" lon="6.16291">
        <ele>288.38</ele>
        <time>2015-12-02T09:16:30Z</time>
      </trkpt>
      <trkpt lat="47.70193" lon="6.16283">
        <ele>287.06</ele>
        <time>2015-12-02T09:16:33Z</time>
      </trkpt>
      <trkpt lat="47.70195" lon="6.16276">
        <ele>284.33</ele>
        <time>2015-12-02T09:16:37Z</time>
      </trkpt>
      <trkpt lat="47.702" lon="6.16273">
        <ele>282.65</ele>
        <time>2015-12-02T09:16:40Z</time>
      </trkpt>
      <trkpt lat="47.70205" lon="6.16271">
        <ele>281.75</ele>
        <time>2015-12-02T09:16:43Z</time>
      </trkpt>
      <trkpt lat="47.7021" lon="6.16272">
        <ele>281.58</ele>
        <time>2015-12-02T09:16:46Z</time>
      </trkpt>
      <trkpt lat="47.70217" lon="6.16272">
        <ele>281.25</ele>
        <time>2015-12-02T09:16:49Z</time>
      </trkpt>
      <trkpt lat="47.70223" lon="6.16271">
        <ele>280.66</ele>
        <time>2015-12-02T09:16:52Z</time>
      </trkpt>
      <trkpt lat="47.70229" lon="6.16271">
        <ele>280.4</ele>
        <time>2015-12-02T09:16:55Z</time>
      </trkpt>
      <trkpt lat="47.70236" lon="6.16269">
        <ele>280.34</ele>
        <time>2015-12-02T09:16:58Z</time>
      </trkpt>
      <trkpt lat="47.70242" lon="6.16268">
        <ele>280.1</ele>
        <time>2015-12-02T09:17:01Z</time>
      </trkpt>
      <trkpt lat="47.70248" lon="6.16267">
        <ele>280.11</ele>
        <time>2015-12-02T09:17:04Z</time>
      </trkpt>
      <trkpt lat="47.70254" lon="6.16267">
        <ele>280.28</ele>
        <time>2015-12-02T09:17:07Z</time>
      </trkpt>
      <trkpt lat="47.70258" lon="6.16266">
        <ele>280.46</ele>
        <time>2015-12-02T09:17:09Z</time>
      </trkpt>
      <trkpt lat="47.70265" lon="6.16264">
        <ele>280.55</ele>
        <time>2015-12-02T09:17:12Z</time>
      </trkpt>
      <trkpt lat="47.70271" lon="6.16261">
        <ele>281.25</ele>
        <time>2015-12-02T09:17:15Z</time>
      </trkpt>
      <trkpt lat="47.70277" lon="6.16261">
        <ele>281.7</ele>
        <time>2015-12-02T09:17:18Z</time>
      </trkpt>
      <trkpt lat="47.70283" lon="6.1626">
        <ele>281.97</ele>
        <time>2015-12-02T09:17:21Z</time>
      </trkpt>
      <trkpt lat="47.70288" lon="6.16259">
        <ele>282.05</ele>
        <time>2015-12-02T09:17:24Z</time>
      </trkpt>
      <trkpt lat="47.70295" lon="6.16258">
        <ele>282.6</ele>
        <time>2015-12-02T09:17:27Z</time>
      </trkpt>
      <trkpt lat="47.703" lon="6.16257">
        <ele>283.17</ele>
        <time>2015-12-02T09:17:30Z</time>
      </trkpt>
      <trkpt lat="47.70306" lon="6.16257">
        <ele>283.47</ele>
        <time>2015-12-02T09:17:33Z</time>
      </trkpt>
      <trkpt lat="47.70313" lon="6.16256">
        <ele>283.92</ele>
        <time>2015-12-02T09:17:36Z</time>
      </trkpt>
      <trkpt lat="47.70317" lon="6.16255">
        <ele>284.27</ele>
        <time>2015-12-02T09:17:38Z</time>
      </trkpt>
      <trkpt lat="47.70322" lon="6.16255">
        <ele>284.73</ele>
        <time>2015-12-02T09:17:40Z</time>
      </trkpt>
      <trkpt lat="47.70328" lon="6.16255">
        <ele>284.67</ele>
        <time>2015-12-02T09:17:42Z</time>
      </trkpt>
      <trkpt lat="47.70333" lon="6.16254">
        <ele>284.71</ele>
        <time>2015-12-02T09:17:44Z</time>
      </trkpt>
      <trkpt lat="47.70337" lon="6.16254">
        <ele>284.91</ele>
        <time>2015-12-02T09:17:46Z</time>
      </trkpt>
      <trkpt lat="47.70342" lon="6.16253">
        <ele>285.07</ele>
        <time>2015-12-02T09:17:48Z</time>
      </trkpt>
      <trkpt lat="47.70348" lon="6.16252">
        <ele>285.43</ele>
        <time>2015-12-02T09:17:51Z</time>
      </trkpt>
      <trkpt lat="47.70353" lon="6.16252">
        <ele>286.05</ele>
        <time>2015-12-02T09:17:53Z</time>
      </trkpt>
      <trkpt lat="47.70358" lon="6.16251">
        <ele>286.67</ele>
        <time>2015-12-02T09:17:55Z</time>
      </trkpt>
      <trkpt lat="47.70363" lon="6.16251">
        <ele>286.96</ele>
        <time>2015-12-02T09:17:57Z</time>
      </trkpt>
      <trkpt lat="47.70368" lon="6.16252">
        <ele>287.33</ele>
        <time>2015-12-02T09:17:59Z</time>
      </trkpt>
      <trkpt lat="47.70373" lon="6.16251">
        <ele>287.75</ele>
        <time>2015-12-02T09:18:01Z</time>
      </trkpt>
      <trkpt lat="47.70378" lon="6.16251">
        <ele>288.27</ele>
        <time>2015-12-02T09:18:03Z</time>
      </trkpt>
      <trkpt lat="47.70382" lon="6.16251">
        <ele>288.86</ele>
        <time>2015-12-02T09:18:05Z</time>
      </trkpt>
      <trkpt lat="47.70387" lon="6.1625">
        <ele>289.3</ele>
        <time>2015-12-02T09:18:07Z</time>
      </trkpt>
      <trkpt lat="47.70392" lon="6.16249">
        <ele>289.61</ele>
        <time>2015-12-02T09:18:10Z</time>
      </trkpt>
      <trkpt lat="47.70397" lon="6.16248">
        <ele>289.96</ele>
        <time>2015-12-02T09:19:01Z</time>
      </trkpt>
      <trkpt lat="47.70402" lon="6.16247">
        <ele>290.09</ele>
        <time>2015-12-02T09:19:04Z</time>
      </trkpt>
      <trkpt lat="47.70407" lon="6.16246">
        <ele>289.99</ele>
        <time>2015-12-02T09:19:06Z</time>
      </trkpt>
      <trkpt lat="47.70412" lon="6.16245">
        <ele>289.56</ele>
        <time>2015-12-02T09:19:08Z</time>
      </trkpt>
      <trkpt lat="47.70418" lon="6.16243">
        <ele>289.65</ele>
        <time>2015-12-02T09:19:10Z</time>
      </trkpt>
      <trkpt lat="47.70424" lon="6.16242">
        <ele>289.78</ele>
        <time>2015-12-02T09:19:12Z</time>
      </trkpt>
      <trkpt lat="47.70429" lon="6.16241">
        <ele>289.81</ele>
        <time>2015-12-02T09:19:14Z</time>
      </trkpt>
      <trkpt lat="47.70435" lon="6.1624">
        <ele>289.72</ele>
        <time>2015-12-02T09:19:16Z</time>
      </trkpt>
      <trkpt lat="47.70441" lon="6.16239">
        <ele>289.22</ele>
        <time>2015-12-02T09:19:18Z</time>
      </trkpt>
      <trkpt lat="47.70447" lon="6.16238">
        <ele>288.84</ele>
        <time>2015-12-02T09:19:20Z</time>
      </trkpt>
      <trkpt lat="47.70453" lon="6.16237">
        <ele>288.8</ele>
        <time>2015-12-02T09:19:22Z</time>
      </trkpt>
      <trkpt lat="47.70458" lon="6.16238">
        <ele>288.96</ele>
        <time>2015-12-02T09:19:24Z</time>
      </trkpt>
      <trkpt lat="47.70463" lon="6.16237">
        <ele>289.13</ele>
        <time>2015-12-02T09:19:26Z</time>
      </trkpt>
      <trkpt lat="47.70468" lon="6.16236">
        <ele>289.47</ele>
        <time>2015-12-02T09:19:28Z</time>
      </trkpt>
      <trkpt lat="47.70473" lon="6.16235">
        <ele>289.86</ele>
        <time>2015-12-02T09:19:30Z</time>
      </trkpt>
      <trkpt lat="47.70477" lon="6.16234">
        <ele>289.8</ele>
        <time>2015-12-02T09:19:32Z</time>
      </trkpt>
      <trkpt lat="47.70483" lon="6.16233">
        <ele>289.71</ele>
        <time>2015-12-02T09:19:34Z</time>
      </trkpt>
      <trkpt lat="47.70488" lon="6.16233">
        <ele>289.92</ele>
        <time>2015-12-02T09:19:36Z</time>
      </trkpt>
      <trkpt lat="47.70493" lon="6.16232">
        <ele>290.32</ele>
        <time>2015-12-02T09:19:38Z</time>
      </trkpt>
      <trkpt lat="47.70498" lon="6.16231">
        <ele>290.62</ele>
        <time>2015-12-02T09:19:40Z</time>
      </trkpt>
      <trkpt lat="47.70503" lon="6.1623">
        <ele>290.99</ele>
        <time>2015-12-02T09:19:42Z</time>
      </trkpt>
      <trkpt lat="47.70508" lon="6.1623">
        <ele>291.44</ele>
        <time>2015-12-02T09:19:44Z</time>
      </trkpt>
      <trkpt lat="47.70513" lon="6.1623">
        <ele>291.77</ele>
        <time>2015-12-02T09:19:46Z</time>
      </trkpt>
      <trkpt lat="47.70518" lon="6.16229">
        <ele>291.98</ele>
        <time>2015-12-02T09:19:48Z</time>
      </trkpt>
      <trkpt lat="47.70522" lon="6.16229">
        <ele>292.23</ele>
        <time>2015-12-02T09:19:50Z</time>
      </trkpt>
      <trkpt lat="47.70529" lon="6.16227">
        <ele>292.79</ele>
        <time>2015-12-02T09:19:53Z</time>
      </trkpt>
      <trkpt lat="47.70534" lon="6.16227">
        <ele>293.18</ele>
        <time>2015-12-02T09:19:55Z</time>
      </trkpt>
      <trkpt lat="47.70539" lon="6.16227">
        <ele>293.61</ele>
        <time>2015-12-02T09:19:57Z</time>
      </trkpt>
      <trkpt lat="47.70543" lon="6.16227">
        <ele>294.07</ele>
        <time>2015-12-02T09:19:59Z</time>
      </trkpt>
      <trkpt lat="47.70549" lon="6.16227">
        <ele>294.43</ele>
        <time>2015-12-02T09:20:01Z</time>
      </trkpt>
      <trkpt lat="47.70554" lon="6.16226">
        <ele>294.9</ele>
        <time>2015-12-02T09:20:03Z</time>
      </trkpt>
      <trkpt lat="47.70559" lon="6.16225">
        <ele>295.19</ele>
        <time>2015-12-02T09:20:05Z</time>
      </trkpt>
      <trkpt lat="47.70564" lon="6.16223">
        <ele>295.31</ele>
        <time>2015-12-02T09:20:07Z</time>
      </trkpt>
      <trkpt lat="47.70569" lon="6.1622">
        <ele>295.19</ele>
        <time>2015-12-02T09:20:09Z</time>
      </trkpt>
      <trkpt lat="47.70573" lon="6.16218">
        <ele>295.26</ele>
        <time>2015-12-02T09:20:11Z</time>
      </trkpt>
      <trkpt lat="47.70578" lon="6.16217">
        <ele>295.2</ele>
        <time>2015-12-02T09:20:13Z</time>
      </trkpt>
      <trkpt lat="47.70585" lon="6.16217">
        <ele>295.4</ele>
        <time>2015-12-02T09:20:16Z</time>
      </trkpt>
      <trkpt lat="47.7059" lon="6.16218">
        <ele>295.44</ele>
        <time>2015-12-02T09:20:18Z</time>
      </trkpt>
      <trkpt lat="47.70596" lon="6.16218">
        <ele>294.89</ele>
        <time>2015-12-02T09:20:21Z</time>
      </trkpt>
      <trkpt lat="47.70601" lon="6.16217">
        <ele>295.03</ele>
        <time>2015-12-02T09:20:23Z</time>
      </trkpt>
      <trkpt lat="47.70606" lon="6.16216">
        <ele>295.25</ele>
        <time>2015-12-02T09:20:25Z</time>
      </trkpt>
      <trkpt lat="47.7061" lon="6.16216">
        <ele>295.2</ele>
        <time>2015-12-02T09:20:27Z</time>
      </trkpt>
      <trkpt lat="47.70615" lon="6.16215">
        <ele>295.36</ele>
        <time>2015-12-02T09:20:29Z</time>
      </trkpt>
      <trkpt lat="47.70621" lon="6.16214">
        <ele>295.77</ele>
        <time>2015-12-02T09:20:32Z</time>
      </trkpt>
      <trkpt lat="47.70627" lon="6.16213">
        <ele>296</ele>
        <time>2015-12-02T09:20:35Z</time>
      </trkpt>
      <trkpt lat="47.70633" lon="6.16213">
        <ele>296.17</ele>
        <time>2015-12-02T09:20:38Z</time>
      </trkpt>
      <trkpt lat="47.70636" lon="6.1622">
        <ele>295.45</ele>
        <time>2015-12-02T09:20:41Z</time>
      </trkpt>
      <trkpt lat="47.70638" lon="6.1623">
        <ele>295.29</ele>
        <time>2015-12-02T09:20:44Z</time>
      </trkpt>
      <trkpt lat="47.70638" lon="6.16238">
        <ele>295.09</ele>
        <time>2015-12-02T09:20:46Z</time>
      </trkpt>
      <trkpt lat="47.70638" lon="6.16245">
        <ele>295.11</ele>
        <time>2015-12-02T09:20:48Z</time>
      </trkpt>
      <trkpt lat="47.70638" lon="6.16253">
        <ele>295.48</ele>
        <time>2015-12-02T09:20:51Z</time>
      </trkpt>
      <trkpt lat="47.70638" lon="6.1626">
        <ele>296.52</ele>
        <time>2015-12-02T09:20:54Z</time>
      </trkpt>
      <trkpt lat="47.70639" lon="6.16268">
        <ele>296.85</ele>
        <time>2015-12-02T09:20:57Z</time>
      </trkpt>
      <trkpt lat="47.70639" lon="6.16277">
        <ele>296.71</ele>
        <time>2015-12-02T09:21:01Z</time>
      </trkpt>
      <trkpt lat="47.70641" lon="6.16284">
        <ele>297.02</ele>
        <time>2015-12-02T09:21:04Z</time>
      </trkpt>
      <trkpt lat="47.70641" lon="6.16292">
        <ele>297.2</ele>
        <time>2015-12-02T09:21:07Z</time>
      </trkpt>
      <trkpt lat="47.70641" lon="6.163">
        <ele>297.39</ele>
        <time>2015-12-02T09:21:10Z</time>
      </trkpt>
      <trkpt lat="47.70642" lon="6.16307">
        <ele>297.16</ele>
        <time>2015-12-02T09:21:13Z</time>
      </trkpt>
      <trkpt lat="47.70643" lon="6.16316">
        <ele>297.16</ele>
        <time>2015-12-02T09:21:16Z</time>
      </trkpt>
      <trkpt lat="47.70644" lon="6.16323">
        <ele>297.48</ele>
        <time>2015-12-02T09:21:19Z</time>
      </trkpt>
      <trkpt lat="47.70645" lon="6.16331">
        <ele>298.1</ele>
        <time>2015-12-02T09:21:22Z</time>
      </trkpt>
      <trkpt lat="47.70645" lon="6.16338">
        <ele>298.22</ele>
        <time>2015-12-02T09:21:25Z</time>
      </trkpt>
      <trkpt lat="47.70644" lon="6.16346">
        <ele>298.12</ele>
        <time>2015-12-02T09:21:29Z</time>
      </trkpt>
      <trkpt lat="47.70644" lon="6.16353">
        <ele>297.91</ele>
        <time>2015-12-02T09:21:33Z</time>
      </trkpt>
      <trkpt lat="47.70645" lon="6.16361">
        <ele>298.3</ele>
        <time>2015-12-02T09:21:37Z</time>
      </trkpt>
      <trkpt lat="47.70646" lon="6.16367">
        <ele>298.4</ele>
        <time>2015-12-02T09:21:41Z</time>
      </trkpt>
      <trkpt lat="47.70647" lon="6.16374">
        <ele>298.48</ele>
        <time>2015-12-02T09:21:44Z</time>
      </trkpt>
      <trkpt lat="47.70648" lon="6.16381">
        <ele>298.63</ele>
        <time>2015-12-02T09:21:47Z</time>
      </trkpt>
      <trkpt lat="47.70648" lon="6.16389">
        <ele>298.84</ele>
        <time>2015-12-02T09:21:50Z</time>
      </trkpt>
      <trkpt lat="47.70649" lon="6.16397">
        <ele>298.89</ele>
        <time>2015-12-02T09:21:54Z</time>
      </trkpt>
      <trkpt lat="47.70649" lon="6.16404">
        <ele>299.57</ele>
        <time>2015-12-02T09:21:57Z</time>
      </trkpt>
      <trkpt lat="47.70651" lon="6.16411">
        <ele>299.84</ele>
        <time>2015-12-02T09:22:01Z</time>
      </trkpt>
      <trkpt lat="47.70652" lon="6.16419">
        <ele>300.44</ele>
        <time>2015-12-02T09:22:05Z</time>
      </trkpt>
      <trkpt lat="47.70653" lon="6.16426">
        <ele>300.91</ele>
        <time>2015-12-02T09:22:09Z</time>
      </trkpt>
      <trkpt lat="47.70654" lon="6.16434">
        <ele>300.8</ele>
        <time>2015-12-02T09:22:13Z</time>
      </trkpt>
      <trkpt lat="47.70654" lon="6.16444">
        <ele>301.17</ele>
        <time>2015-12-02T09:22:17Z</time>
      </trkpt>
      <trkpt lat="47.70654" lon="6.16453">
        <ele>301.15</ele>
        <time>2015-12-02T09:22:20Z</time>
      </trkpt>
      <trkpt lat="47.70654" lon="6.16462">
        <ele>301.1</ele>
        <time>2015-12-02T09:22:23Z</time>
      </trkpt>
      <trkpt lat="47.70654" lon="6.1647">
        <ele>301.39</ele>
        <time>2015-12-02T09:22:27Z</time>
      </trkpt>
      <trkpt lat="47.70655" lon="6.16477">
        <ele>301.43</ele>
        <time>2015-12-02T09:22:31Z</time>
      </trkpt>
      <trkpt lat="47.70656" lon="6.16484">
        <ele>301.6</ele>
        <time>2015-12-02T09:22:34Z</time>
      </trkpt>
      <trkpt lat="47.70657" lon="6.16492">
        <ele>301.46</ele>
        <time>2015-12-02T09:22:37Z</time>
      </trkpt>
      <trkpt lat="47.70656" lon="6.16499">
        <ele>301.21</ele>
        <time>2015-12-02T09:22:40Z</time>
      </trkpt>
      <trkpt lat="47.70657" lon="6.16506">
        <ele>301.9</ele>
        <time>2015-12-02T09:22:44Z</time>
      </trkpt>
      <trkpt lat="47.70658" lon="6.16515">
        <ele>303.16</ele>
        <time>2015-12-02T09:22:48Z</time>
      </trkpt>
      <trkpt lat="47.70658" lon="6.16523">
        <ele>303.63</ele>
        <time>2015-12-02T09:22:52Z</time>
      </trkpt>
      <trkpt lat="47.70659" lon="6.16531">
        <ele>303.41</ele>
        <time>2015-12-02T09:22:56Z</time>
      </trkpt>
      <trkpt lat="47.7066" lon="6.1654">
        <ele>303.7</ele>
        <time>2015-12-02T09:23:00Z</time>
      </trkpt>
      <trkpt lat="47.7066" lon="6.16548">
        <ele>303.57</ele>
        <time>2015-12-02T09:23:03Z</time>
      </trkpt>
      <trkpt lat="47.7066" lon="6.16555">
        <ele>303.75</ele>
        <time>2015-12-02T09:23:06Z</time>
      </trkpt>
      <trkpt lat="47.70661" lon="6.16565">
        <ele>304.7</ele>
        <time>2015-12-02T09:23:09Z</time>
      </trkpt>
      <trkpt lat="47.70663" lon="6.16572">
        <ele>305.56</ele>
        <time>2015-12-02T09:23:12Z</time>
      </trkpt>
      <trkpt lat="47.70665" lon="6.1658">
        <ele>305.99</ele>
        <time>2015-12-02T09:23:15Z</time>
      </trkpt>
      <trkpt lat="47.70665" lon="6.16587">
        <ele>305.74</ele>
        <time>2015-12-02T09:23:17Z</time>
      </trkpt>
      <trkpt lat="47.70665" lon="6.16594">
        <ele>305.52</ele>
        <time>2015-12-02T09:23:19Z</time>
      </trkpt>
      <trkpt lat="47.70665" lon="6.16604">
        <ele>305.37</ele>
        <time>2015-12-02T09:23:22Z</time>
      </trkpt>
      <trkpt lat="47.70666" lon="6.16611">
        <ele>305.51</ele>
        <time>2015-12-02T09:23:24Z</time>
      </trkpt>
      <trkpt lat="47.70666" lon="6.16619">
        <ele>305.53</ele>
        <time>2015-12-02T09:23:27Z</time>
      </trkpt>
      <trkpt lat="47.70666" lon="6.16627">
        <ele>305.41</ele>
        <time>2015-12-02T09:23:30Z</time>
      </trkpt>
      <trkpt lat="47.70666" lon="6.16635">
        <ele>305.18</ele>
        <time>2015-12-02T09:23:33Z</time>
      </trkpt>
      <trkpt lat="47.70666" lon="6.16643">
        <ele>305.17</ele>
        <time>2015-12-02T09:23:36Z</time>
      </trkpt>
      <trkpt lat="47.70666" lon="6.16653">
        <ele>305.22</ele>
        <time>2015-12-02T09:23:39Z</time>
      </trkpt>
      <trkpt lat="47.70668" lon="6.16661">
        <ele>305.83</ele>
        <time>2015-12-02T09:23:42Z</time>
      </trkpt>
      <trkpt lat="47.7067" lon="6.16669">
        <ele>306.47</ele>
        <time>2015-12-02T09:23:44Z</time>
      </trkpt>
      <trkpt lat="47.70669" lon="6.16678">
        <ele>306.33</ele>
        <time>2015-12-02T09:23:47Z</time>
      </trkpt>
      <trkpt lat="47.7067" lon="6.16686">
        <ele>306.25</ele>
        <time>2015-12-02T09:23:49Z</time>
      </trkpt>
      <trkpt lat="47.7067" lon="6.16695">
        <ele>306.15</ele>
        <time>2015-12-02T09:23:51Z</time>
      </trkpt>
      <trkpt lat="47.7067" lon="6.16703">
        <ele>305.98</ele>
        <time>2015-12-02T09:23:53Z</time>
      </trkpt>
      <trkpt lat="47.70671" lon="6.16711">
        <ele>305.78</ele>
        <time>2015-12-02T09:23:55Z</time>
      </trkpt>
      <trkpt lat="47.7067" lon="6.16719">
        <ele>305.88</ele>
        <time>2015-12-02T09:23:57Z</time>
      </trkpt>
      <trkpt lat="47.70669" lon="6.16729">
        <ele>305.61</ele>
        <time>2015-12-02T09:24:00Z</time>
      </trkpt>
      <trkpt lat="47.70669" lon="6.16738">
        <ele>304.9</ele>
        <time>2015-12-02T09:24:03Z</time>
      </trkpt>
      <trkpt lat="47.70669" lon="6.16746">
        <ele>303.86</ele>
        <time>2015-12-02T09:24:06Z</time>
      </trkpt>
      <trkpt lat="47.70667" lon="6.16752">
        <ele>302.44</ele>
        <time>2015-12-02T09:24:14Z</time>
      </trkpt>
      <trkpt lat="47.70672" lon="6.16755">
        <ele>301.74</ele>
        <time>2015-12-02T09:24:20Z</time>
      </trkpt>
      <trkpt lat="47.70676" lon="6.16752">
        <ele>301.4</ele>
        <time>2015-12-02T09:24:24Z</time>
      </trkpt>
      <trkpt lat="47.70681" lon="6.16755">
        <ele>300.72</ele>
        <time>2015-12-02T09:24:32Z</time>
      </trkpt>
      <trkpt lat="47.70682" lon="6.16763">
        <ele>300.43</ele>
        <time>2015-12-02T09:24:36Z</time>
      </trkpt>
      <trkpt lat="47.70682" lon="6.16771">
        <ele>300.44</ele>
        <time>2015-12-02T09:24:40Z</time>
      </trkpt>
      <trkpt lat="47.70684" lon="6.16778">
        <ele>302.2</ele>
        <time>2015-12-02T09:24:51Z</time>
      </trkpt>
      <trkpt lat="47.70687" lon="6.16786">
        <ele>302.57</ele>
        <time>2015-12-02T09:24:55Z</time>
      </trkpt>
      <trkpt lat="47.70689" lon="6.16794">
        <ele>302.72</ele>
        <time>2015-12-02T09:24:58Z</time>
      </trkpt>
      <trkpt lat="47.7069" lon="6.16801">
        <ele>302.81</ele>
        <time>2015-12-02T09:25:01Z</time>
      </trkpt>
      <trkpt lat="47.70691" lon="6.16809">
        <ele>303.15</ele>
        <time>2015-12-02T09:25:04Z</time>
      </trkpt>
      <trkpt lat="47.70693" lon="6.16816">
        <ele>303.2</ele>
        <time>2015-12-02T09:25:07Z</time>
      </trkpt>
      <trkpt lat="47.70694" lon="6.16824">
        <ele>303.24</ele>
        <time>2015-12-02T09:25:10Z</time>
      </trkpt>
      <trkpt lat="47.70695" lon="6.16832">
        <ele>302.8</ele>
        <time>2015-12-02T09:25:13Z</time>
      </trkpt>
      <trkpt lat="47.70696" lon="6.16839">
        <ele>302.49</ele>
        <time>2015-12-02T09:25:16Z</time>
      </trkpt>
      <trkpt lat="47.70697" lon="6.16846">
        <ele>302.22</ele>
        <time>2015-12-02T09:25:19Z</time>
      </trkpt>
      <trkpt lat="47.70699" lon="6.16854">
        <ele>302.06</ele>
        <time>2015-12-02T09:25:22Z</time>
      </trkpt>
      <trkpt lat="47.707" lon="6.16861">
        <ele>301.54</ele>
        <time>2015-12-02T09:25:25Z</time>
      </trkpt>
      <trkpt lat="47.70703" lon="6.16869">
        <ele>301.59</ele>
        <time>2015-12-02T09:25:28Z</time>
      </trkpt>
      <trkpt lat="47.70704" lon="6.16877">
        <ele>301.71</ele>
        <time>2015-12-02T09:25:31Z</time>
      </trkpt>
      <trkpt lat="47.70705" lon="6.16884">
        <ele>301.33</ele>
        <time>2015-12-02T09:25:34Z</time>
      </trkpt>
      <trkpt lat="47.70706" lon="6.16893">
        <ele>301.3</ele>
        <time>2015-12-02T09:25:37Z</time>
      </trkpt>
      <trkpt lat="47.70708" lon="6.16901">
        <ele>301.64</ele>
        <time>2015-12-02T09:25:40Z</time>
      </trkpt>
      <trkpt lat="47.7071" lon="6.16909">
        <ele>301.44</ele>
        <time>2015-12-02T09:25:43Z</time>
      </trkpt>
      <trkpt lat="47.70712" lon="6.16918">
        <ele>301.54</ele>
        <time>2015-12-02T09:25:46Z</time>
      </trkpt>
      <trkpt lat="47.70713" lon="6.16925">
        <ele>301.62</ele>
        <time>2015-12-02T09:25:48Z</time>
      </trkpt>
      <trkpt lat="47.70715" lon="6.16934">
        <ele>301.66</ele>
        <time>2015-12-02T09:25:51Z</time>
      </trkpt>
      <trkpt lat="47.70715" lon="6.16942">
        <ele>301.45</ele>
        <time>2015-12-02T09:25:53Z</time>
      </trkpt>
      <trkpt lat="47.70716" lon="6.16949">
        <ele>301.28</ele>
        <time>2015-12-02T09:25:55Z</time>
      </trkpt>
      <trkpt lat="47.70716" lon="6.16957">
        <ele>300.78</ele>
        <time>2015-12-02T09:25:57Z</time>
      </trkpt>
      <trkpt lat="47.70717" lon="6.16966">
        <ele>300.56</ele>
        <time>2015-12-02T09:25:59Z</time>
      </trkpt>
      <trkpt lat="47.70718" lon="6.16974">
        <ele>300.53</ele>
        <time>2015-12-02T09:26:01Z</time>
      </trkpt>
      <trkpt lat="47.7072" lon="6.16982">
        <ele>300.67</ele>
        <time>2015-12-02T09:26:03Z</time>
      </trkpt>
      <trkpt lat="47.70721" lon="6.16989">
        <ele>300.63</ele>
        <time>2015-12-02T09:26:05Z</time>
      </trkpt>
      <trkpt lat="47.70722" lon="6.16997">
        <ele>300.32</ele>
        <time>2015-12-02T09:26:07Z</time>
      </trkpt>
      <trkpt lat="47.70723" lon="6.17004">
        <ele>300.44</ele>
        <time>2015-12-02T09:26:09Z</time>
      </trkpt>
      <trkpt lat="47.70724" lon="6.17012">
        <ele>300.37</ele>
        <time>2015-12-02T09:26:11Z</time>
      </trkpt>
      <trkpt lat="47.70726" lon="6.17019">
        <ele>299.96</ele>
        <time>2015-12-02T09:26:13Z</time>
      </trkpt>
      <trkpt lat="47.70727" lon="6.17028">
        <ele>299.58</ele>
        <time>2015-12-02T09:26:15Z</time>
      </trkpt>
      <trkpt lat="47.70728" lon="6.17037">
        <ele>299.03</ele>
        <time>2015-12-02T09:26:17Z</time>
      </trkpt>
      <trkpt lat="47.7073" lon="6.17046">
        <ele>298.67</ele>
        <time>2015-12-02T09:26:19Z</time>
      </trkpt>
      <trkpt lat="47.70731" lon="6.17056">
        <ele>298.26</ele>
        <time>2015-12-02T09:26:21Z</time>
      </trkpt>
      <trkpt lat="47.70733" lon="6.17066">
        <ele>297.95</ele>
        <time>2015-12-02T09:26:23Z</time>
      </trkpt>
      <trkpt lat="47.70735" lon="6.17076">
        <ele>297.83</ele>
        <time>2015-12-02T09:26:25Z</time>
      </trkpt>
      <trkpt lat="47.70737" lon="6.17085">
        <ele>297.64</ele>
        <time>2015-12-02T09:26:27Z</time>
      </trkpt>
      <trkpt lat="47.70738" lon="6.17094">
        <ele>297.27</ele>
        <time>2015-12-02T09:26:29Z</time>
      </trkpt>
      <trkpt lat="47.70739" lon="6.17102">
        <ele>297.11</ele>
        <time>2015-12-02T09:26:31Z</time>
      </trkpt>
      <trkpt lat="47.7074" lon="6.17109">
        <ele>297.01</ele>
        <time>2015-12-02T09:26:33Z</time>
      </trkpt>
      <trkpt lat="47.70741" lon="6.17117">
        <ele>296.72</ele>
        <time>2015-12-02T09:26:35Z</time>
      </trkpt>
      <trkpt lat="47.70742" lon="6.17124">
        <ele>296.44</ele>
        <time>2015-12-02T09:26:37Z</time>
      </trkpt>
      <trkpt lat="47.70742" lon="6.17131">
        <ele>296.3</ele>
        <time>2015-12-02T09:26:39Z</time>
      </trkpt>
      <trkpt lat="47.70743" lon="6.17138">
        <ele>296.29</ele>
        <time>2015-12-02T09:26:41Z</time>
      </trkpt>
      <trkpt lat="47.70744" lon="6.17148">
        <ele>296.14</ele>
        <time>2015-12-02T09:26:44Z</time>
      </trkpt>
      <trkpt lat="47.70743" lon="6.17156">
        <ele>296.23</ele>
        <time>2015-12-02T09:26:47Z</time>
      </trkpt>
      <trkpt lat="47.70747" lon="6.17162">
        <ele>298.35</ele>
        <time>2015-12-02T09:27:58Z</time>
      </trkpt>
      <trkpt lat="47.7075" lon="6.17167">
        <ele>298.53</ele>
        <time>2015-12-02T09:28:01Z</time>
      </trkpt>
      <trkpt lat="47.7075" lon="6.17174">
        <ele>298.23</ele>
        <time>2015-12-02T09:28:05Z</time>
      </trkpt>
      <trkpt lat="47.70752" lon="6.17182">
        <ele>298.62</ele>
        <time>2015-12-02T09:28:57Z</time>
      </trkpt>
      <trkpt lat="47.70753" lon="6.17189">
        <ele>298.65</ele>
        <time>2015-12-02T09:29:44Z</time>
      </trkpt>
      <trkpt lat="47.70754" lon="6.17198">
        <ele>298.69</ele>
        <time>2015-12-02T09:29:48Z</time>
      </trkpt>
      <trkpt lat="47.70756" lon="6.17207">
        <ele>298.91</ele>
        <time>2015-12-02T09:29:51Z</time>
      </trkpt>
      <trkpt lat="47.70757" lon="6.17214">
        <ele>298.96</ele>
        <time>2015-12-02T09:29:53Z</time>
      </trkpt>
      <trkpt lat="47.70759" lon="6.17222">
        <ele>298.88</ele>
        <time>2015-12-02T09:29:55Z</time>
      </trkpt>
      <trkpt lat="47.7076" lon="6.17231">
        <ele>299.01</ele>
        <time>2015-12-02T09:29:57Z</time>
      </trkpt>
      <trkpt lat="47.70762" lon="6.17239">
        <ele>298.99</ele>
        <time>2015-12-02T09:29:59Z</time>
      </trkpt>
      <trkpt lat="47.70763" lon="6.17248">
        <ele>298.96</ele>
        <time>2015-12-02T09:30:01Z</time>
      </trkpt>
      <trkpt lat="47.70765" lon="6.17258">
        <ele>298.95</ele>
        <time>2015-12-02T09:30:03Z</time>
      </trkpt>
      <trkpt lat="47.70766" lon="6.17268">
        <ele>299.03</ele>
        <time>2015-12-02T09:30:05Z</time>
      </trkpt>
      <trkpt lat="47.70768" lon="6.17278">
        <ele>299.29</ele>
        <time>2015-12-02T09:30:07Z</time>
      </trkpt>
      <trkpt lat="47.70769" lon="6.17289">
        <ele>299.46</ele>
        <time>2015-12-02T09:30:09Z</time>
      </trkpt>
      <trkpt lat="47.70771" lon="6.173">
        <ele>299.53</ele>
        <time>2015-12-02T09:30:11Z</time>
      </trkpt>
      <trkpt lat="47.70773" lon="6.1731">
        <ele>299.35</ele>
        <time>2015-12-02T09:30:13Z</time>
      </trkpt>
      <trkpt lat="47.70775" lon="6.17322">
        <ele>299.22</ele>
        <time>2015-12-02T09:30:15Z</time>
      </trkpt>
      <trkpt lat="47.70777" lon="6.17333">
        <ele>299.19</ele>
        <time>2015-12-02T09:30:17Z</time>
      </trkpt>
      <trkpt lat="47.70779" lon="6.17344">
        <ele>299.31</ele>
        <time>2015-12-02T09:30:19Z</time>
      </trkpt>
      <trkpt lat="47.7078" lon="6.17354">
        <ele>299.09</ele>
        <time>2015-12-02T09:30:21Z</time>
      </trkpt>
      <trkpt lat="47.70782" lon="6.17364">
        <ele>298.74</ele>
        <time>2015-12-02T09:30:23Z</time>
      </trkpt>
      <trkpt lat="47.70784" lon="6.17374">
        <ele>298.52</ele>
        <time>2015-12-02T09:30:25Z</time>
      </trkpt>
      <trkpt lat="47.70785" lon="6.17384">
        <ele>298.59</ele>
        <time>2015-12-02T09:30:27Z</time>
      </trkpt>
      <trkpt lat="47.70787" lon="6.17394">
        <ele>298.84</ele>
        <time>2015-12-02T09:30:29Z</time>
      </trkpt>
      <trkpt lat="47.70789" lon="6.17406">
        <ele>299</ele>
        <time>2015-12-02T09:30:31Z</time>
      </trkpt>
      <trkpt lat="47.70791" lon="6.17419">
        <ele>298.69</ele>
        <time>2015-12-02T09:30:33Z</time>
      </trkpt>
      <trkpt lat="47.70792" lon="6.17426">
        <ele>298.52</ele>
        <time>2015-12-02T09:30:34Z</time>
      </trkpt>
      <trkpt lat="47.70793" lon="6.17434">
        <ele>298.44</ele>
        <time>2015-12-02T09:30:35Z</time>
      </trkpt>
      <trkpt lat="47.70795" lon="6.17442">
        <ele>298.34</ele>
        <time>2015-12-02T09:30:36Z</time>
      </trkpt>
      <trkpt lat="47.70796" lon="6.17452">
        <ele>298.25</ele>
        <time>2015-12-02T09:30:37Z</time>
      </trkpt>
      <trkpt lat="47.70797" lon="6.17463">
        <ele>298.1</ele>
        <time>2015-12-02T09:30:38Z</time>
      </trkpt>
      <trkpt lat="47.70799" lon="6.17474">
        <ele>297.98</ele>
        <time>2015-12-02T09:30:39Z</time>
      </trkpt>
      <trkpt lat="47.70801" lon="6.17485">
        <ele>297.76</ele>
        <time>2015-12-02T09:30:40Z</time>
      </trkpt>
      <trkpt lat="47.70802" lon="6.17496">
        <ele>297.51</ele>
        <time>2015-12-02T09:30:41Z</time>
      </trkpt>
      <trkpt lat="47.70804" lon="6.17506">
        <ele>297.18</ele>
        <time>2015-12-02T09:30:42Z</time>
      </trkpt>
      <trkpt lat="47.70806" lon="6.17516">
        <ele>296.86</ele>
        <time>2015-12-02T09:30:43Z</time>
      </trkpt>
      <trkpt lat="47.70808" lon="6.17525">
        <ele>296.61</ele>
        <time>2015-12-02T09:30:44Z</time>
      </trkpt>
      <trkpt lat="47.70809" lon="6.17534">
        <ele>296.58</ele>
        <time>2015-12-02T09:30:45Z</time>
      </trkpt>
      <trkpt lat="47.7081" lon="6.17542">
        <ele>296.62</ele>
        <time>2015-12-02T09:30:46Z</time>
      </trkpt>
      <trkpt lat="47.7081" lon="6.17553">
        <ele>297.19</ele>
        <time>2015-12-02T09:30:48Z</time>
      </trkpt>
      <trkpt lat="47.70809" lon="6.1756">
        <ele>298.39</ele>
        <time>2015-12-02T09:30:50Z</time>
      </trkpt>
      <trkpt lat="47.70807" lon="6.1757">
        <ele>299.66</ele>
        <time>2015-12-02T09:30:53Z</time>
      </trkpt>
      <trkpt lat="47.70804" lon="6.17577">
        <ele>300.3</ele>
        <time>2015-12-02T09:30:55Z</time>
      </trkpt>
      <trkpt lat="47.70802" lon="6.17584">
        <ele>300.71</ele>
        <time>2015-12-02T09:30:57Z</time>
      </trkpt>
      <trkpt lat="47.70799" lon="6.17592">
        <ele>300.97</ele>
        <time>2015-12-02T09:30:59Z</time>
      </trkpt>
      <trkpt lat="47.70795" lon="6.176">
        <ele>301</ele>
        <time>2015-12-02T09:31:01Z</time>
      </trkpt>
      <trkpt lat="47.70791" lon="6.17609">
        <ele>301.04</ele>
        <time>2015-12-02T09:31:03Z</time>
      </trkpt>
      <trkpt lat="47.70785" lon="6.17619">
        <ele>300.72</ele>
        <time>2015-12-02T09:31:05Z</time>
      </trkpt>
      <trkpt lat="47.7078" lon="6.17629">
        <ele>300.39</ele>
        <time>2015-12-02T09:31:07Z</time>
      </trkpt>
      <trkpt lat="47.70775" lon="6.1764">
        <ele>300.04</ele>
        <time>2015-12-02T09:31:09Z</time>
      </trkpt>
      <trkpt lat="47.70772" lon="6.17646">
        <ele>299.89</ele>
        <time>2015-12-02T09:31:10Z</time>
      </trkpt>
      <trkpt lat="47.7077" lon="6.17651">
        <ele>299.67</ele>
        <time>2015-12-02T09:31:11Z</time>
      </trkpt>
      <trkpt lat="47.70767" lon="6.17658">
        <ele>299.36</ele>
        <time>2015-12-02T09:31:12Z</time>
      </trkpt>
      <trkpt lat="47.70763" lon="6.17664">
        <ele>299.11</ele>
        <time>2015-12-02T09:31:13Z</time>
      </trkpt>
      <trkpt lat="47.70759" lon="6.1767">
        <ele>298.73</ele>
        <time>2015-12-02T09:31:14Z</time>
      </trkpt>
      <trkpt lat="47.70754" lon="6.17676">
        <ele>297.79</ele>
        <time>2015-12-02T09:31:15Z</time>
      </trkpt>
      <trkpt lat="47.70749" lon="6.17681">
        <ele>296.62</ele>
        <time>2015-12-02T09:31:16Z</time>
      </trkpt>
      <trkpt lat="47.70743" lon="6.17685">
        <ele>295.44</ele>
        <time>2015-12-02T09:31:17Z</time>
      </trkpt>
      <trkpt lat="47.70737" lon="6.17688">
        <ele>294.34</ele>
        <time>2015-12-02T09:31:18Z</time>
      </trkpt>
      <trkpt lat="47.7073" lon="6.17691">
        <ele>293.25</ele>
        <time>2015-12-02T09:31:19Z</time>
      </trkpt>
      <trkpt lat="47.70723" lon="6.17694">
        <ele>292.3</ele>
        <time>2015-12-02T09:31:20Z</time>
      </trkpt>
      <trkpt lat="47.70716" lon="6.17696">
        <ele>291.38</ele>
        <time>2015-12-02T09:31:21Z</time>
      </trkpt>
      <trkpt lat="47.70708" lon="6.17697">
        <ele>290.46</ele>
        <time>2015-12-02T09:31:22Z</time>
      </trkpt>
      <trkpt lat="47.70701" lon="6.17699">
        <ele>289.66</ele>
        <time>2015-12-02T09:31:23Z</time>
      </trkpt>
      <trkpt lat="47.70694" lon="6.17701">
        <ele>289</ele>
        <time>2015-12-02T09:31:24Z</time>
      </trkpt>
      <trkpt lat="47.70687" lon="6.17703">
        <ele>288.38</ele>
        <time>2015-12-02T09:31:25Z</time>
      </trkpt>
      <trkpt lat="47.7068" lon="6.17706">
        <ele>287.76</ele>
        <time>2015-12-02T09:31:26Z</time>
      </trkpt>
      <trkpt lat="47.70674" lon="6.1771">
        <ele>287.11</ele>
        <time>2015-12-02T09:31:27Z</time>
      </trkpt>
      <trkpt lat="47.70668" lon="6.17716">
        <ele>286.53</ele>
        <time>2015-12-02T09:31:28Z</time>
      </trkpt>
      <trkpt lat="47.70663" lon="6.17722">
        <ele>286.19</ele>
        <time>2015-12-02T09:31:29Z</time>
      </trkpt>
      <trkpt lat="47.70659" lon="6.17729">
        <ele>286.02</ele>
        <time>2015-12-02T09:31:30Z</time>
      </trkpt>
      <trkpt lat="47.70655" lon="6.17736">
        <ele>285.89</ele>
        <time>2015-12-02T09:31:31Z</time>
      </trkpt>
      <trkpt lat="47.70651" lon="6.17742">
        <ele>285.77</ele>
        <time>2015-12-02T09:31:32Z</time>
      </trkpt>
      <trkpt lat="47.70648" lon="6.17748">
        <ele>285.61</ele>
        <time>2015-12-02T09:31:33Z</time>
      </trkpt>
      <trkpt lat="47.70644" lon="6.17754">
        <ele>285.43</ele>
        <time>2015-12-02T09:31:34Z</time>
      </trkpt>
      <trkpt lat="47.70641" lon="6.17759">
        <ele>285.49</ele>
        <time>2015-12-02T09:31:35Z</time>
      </trkpt>
      <trkpt lat="47.70634" lon="6.17767">
        <ele>285.24</ele>
        <time>2015-12-02T09:31:37Z</time>
      </trkpt>
      <trkpt lat="47.70627" lon="6.17774">
        <ele>284.77</ele>
        <time>2015-12-02T09:31:39Z</time>
      </trkpt>
      <trkpt lat="47.70621" lon="6.17778">
        <ele>284.38</ele>
        <time>2015-12-02T09:31:41Z</time>
      </trkpt>
      <trkpt lat="47.70615" lon="6.1778">
        <ele>283.93</ele>
        <time>2015-12-02T09:31:43Z</time>
      </trkpt>
      <trkpt lat="47.70609" lon="6.17782">
        <ele>283.87</ele>
        <time>2015-12-02T09:31:45Z</time>
      </trkpt>
      <trkpt lat="47.70603" lon="6.17784">
        <ele>283.86</ele>
        <time>2015-12-02T09:31:47Z</time>
      </trkpt>
      <trkpt lat="47.70597" lon="6.17786">
        <ele>284.05</ele>
        <time>2015-12-02T09:31:49Z</time>
      </trkpt>
      <trkpt lat="47.7059" lon="6.17787">
        <ele>284.08</ele>
        <time>2015-12-02T09:31:51Z</time>
      </trkpt>
      <trkpt lat="47.70583" lon="6.17786">
        <ele>284.28</ele>
        <time>2015-12-02T09:31:53Z</time>
      </trkpt>
      <trkpt lat="47.70575" lon="6.17786">
        <ele>284.53</ele>
        <time>2015-12-02T09:31:55Z</time>
      </trkpt>
      <trkpt lat="47.70566" lon="6.17785">
        <ele>284.45</ele>
        <time>2015-12-02T09:31:57Z</time>
      </trkpt>
      <trkpt lat="47.70562" lon="6.17786">
        <ele>284.3</ele>
        <time>2015-12-02T09:31:58Z</time>
      </trkpt>
      <trkpt lat="47.70557" lon="6.17789">
        <ele>284.12</ele>
        <time>2015-12-02T09:31:59Z</time>
      </trkpt>
      <trkpt lat="47.70552" lon="6.17792">
        <ele>283.84</ele>
        <time>2015-12-02T09:32:00Z</time>
      </trkpt>
      <trkpt lat="47.70547" lon="6.17795">
        <ele>283.54</ele>
        <time>2015-12-02T09:32:01Z</time>
      </trkpt>
      <trkpt lat="47.70543" lon="6.178">
        <ele>283.25</ele>
        <time>2015-12-02T09:32:02Z</time>
      </trkpt>
      <trkpt lat="47.70539" lon="6.17805">
        <ele>283</ele>
        <time>2015-12-02T09:32:03Z</time>
      </trkpt>
      <trkpt lat="47.70535" lon="6.17811">
        <ele>282.83</ele>
        <time>2015-12-02T09:32:04Z</time>
      </trkpt>
      <trkpt lat="47.70531" lon="6.17818">
        <ele>282.59</ele>
        <time>2015-12-02T09:32:05Z</time>
      </trkpt>
      <trkpt lat="47.70526" lon="6.17827">
        <ele>282.47</ele>
        <time>2015-12-02T09:32:06Z</time>
      </trkpt>
      <trkpt lat="47.70522" lon="6.17835">
        <ele>282.31</ele>
        <time>2015-12-02T09:32:07Z</time>
      </trkpt>
      <trkpt lat="47.70517" lon="6.17843">
        <ele>282.08</ele>
        <time>2015-12-02T09:32:08Z</time>
      </trkpt>
      <trkpt lat="47.70513" lon="6.17851">
        <ele>281.82</ele>
        <time>2015-12-02T09:32:09Z</time>
      </trkpt>
      <trkpt lat="47.70508" lon="6.17859">
        <ele>281.53</ele>
        <time>2015-12-02T09:32:10Z</time>
      </trkpt>
      <trkpt lat="47.70503" lon="6.17867">
        <ele>281.19</ele>
        <time>2015-12-02T09:32:11Z</time>
      </trkpt>
      <trkpt lat="47.70499" lon="6.17875">
        <ele>280.92</ele>
        <time>2015-12-02T09:32:12Z</time>
      </trkpt>
      <trkpt lat="47.70494" lon="6.17884">
        <ele>280.49</ele>
        <time>2015-12-02T09:32:13Z</time>
      </trkpt>
      <trkpt lat="47.70489" lon="6.17892">
        <ele>280.17</ele>
        <time>2015-12-02T09:32:14Z</time>
      </trkpt>
      <trkpt lat="47.70484" lon="6.179">
        <ele>280.01</ele>
        <time>2015-12-02T09:32:15Z</time>
      </trkpt>
      <trkpt lat="47.7048" lon="6.17909">
        <ele>279.58</ele>
        <time>2015-12-02T09:32:16Z</time>
      </trkpt>
      <trkpt lat="47.70475" lon="6.17918">
        <ele>279.27</ele>
        <time>2015-12-02T09:32:17Z</time>
      </trkpt>
      <trkpt lat="47.7047" lon="6.17926">
        <ele>279.01</ele>
        <time>2015-12-02T09:32:18Z</time>
      </trkpt>
      <trkpt lat="47.70465" lon="6.17935">
        <ele>278.78</ele>
        <time>2015-12-02T09:32:19Z</time>
      </trkpt>
      <trkpt lat="47.7046" lon="6.17943">
        <ele>278.57</ele>
        <time>2015-12-02T09:32:20Z</time>
      </trkpt>
      <trkpt lat="47.70455" lon="6.17952">
        <ele>278.36</ele>
        <time>2015-12-02T09:32:21Z</time>
      </trkpt>
      <trkpt lat="47.7045" lon="6.17961">
        <ele>277.95</ele>
        <time>2015-12-02T09:32:22Z</time>
      </trkpt>
      <trkpt lat="47.70444" lon="6.17971">
        <ele>277.1</ele>
        <time>2015-12-02T09:32:23Z</time>
      </trkpt>
      <trkpt lat="47.70439" lon="6.1798">
        <ele>276.18</ele>
        <time>2015-12-02T09:32:24Z</time>
      </trkpt>
      <trkpt lat="47.70434" lon="6.17989">
        <ele>275.31</ele>
        <time>2015-12-02T09:32:25Z</time>
      </trkpt>
      <trkpt lat="47.70429" lon="6.17999">
        <ele>274.48</ele>
        <time>2015-12-02T09:32:26Z</time>
      </trkpt>
      <trkpt lat="47.70424" lon="6.18008">
        <ele>273.62</ele>
        <time>2015-12-02T09:32:27Z</time>
      </trkpt>
      <trkpt lat="47.70418" lon="6.18016">
        <ele>272.68</ele>
        <time>2015-12-02T09:32:28Z</time>
      </trkpt>
      <trkpt lat="47.70413" lon="6.18024">
        <ele>271.97</ele>
        <time>2015-12-02T09:32:29Z</time>
      </trkpt>
      <trkpt lat="47.70408" lon="6.18032">
        <ele>271.56</ele>
        <time>2015-12-02T09:32:30Z</time>
      </trkpt>
      <trkpt lat="47.70403" lon="6.1804">
        <ele>271.16</ele>
        <time>2015-12-02T09:32:31Z</time>
      </trkpt>
      <trkpt lat="47.70398" lon="6.18048">
        <ele>270.85</ele>
        <time>2015-12-02T09:32:32Z</time>
      </trkpt>
      <trkpt lat="47.70393" lon="6.18055">
        <ele>270.6</ele>
        <time>2015-12-02T09:32:33Z</time>
      </trkpt>
      <trkpt lat="47.70389" lon="6.18063">
        <ele>270.28</ele>
        <time>2015-12-02T09:32:34Z</time>
      </trkpt>
      <trkpt lat="47.70384" lon="6.1807">
        <ele>269.91</ele>
        <time>2015-12-02T09:32:35Z</time>
      </trkpt>
      <trkpt lat="47.7038" lon="6.18078">
        <ele>269.58</ele>
        <time>2015-12-02T09:32:36Z</time>
      </trkpt>
      <trkpt lat="47.70376" lon="6.18085">
        <ele>269.22</ele>
        <time>2015-12-02T09:32:37Z</time>
      </trkpt>
      <trkpt lat="47.70372" lon="6.18092">
        <ele>268.88</ele>
        <time>2015-12-02T09:32:38Z</time>
      </trkpt>
      <trkpt lat="47.70368" lon="6.18099">
        <ele>268.62</ele>
        <time>2015-12-02T09:32:39Z</time>
      </trkpt>
      <trkpt lat="47.70364" lon="6.18105">
        <ele>268.33</ele>
        <time>2015-12-02T09:32:40Z</time>
      </trkpt>
      <trkpt lat="47.7036" lon="6.18112">
        <ele>267.99</ele>
        <time>2015-12-02T09:32:41Z</time>
      </trkpt>
      <trkpt lat="47.70356" lon="6.18119">
        <ele>267.77</ele>
        <time>2015-12-02T09:32:42Z</time>
      </trkpt>
      <trkpt lat="47.70352" lon="6.18125">
        <ele>267.61</ele>
        <time>2015-12-02T09:32:43Z</time>
      </trkpt>
      <trkpt lat="47.70349" lon="6.18131">
        <ele>267.48</ele>
        <time>2015-12-02T09:32:44Z</time>
      </trkpt>
      <trkpt lat="47.70346" lon="6.18138">
        <ele>267.37</ele>
        <time>2015-12-02T09:32:45Z</time>
      </trkpt>
      <trkpt lat="47.70343" lon="6.18144">
        <ele>267.21</ele>
        <time>2015-12-02T09:32:46Z</time>
      </trkpt>
      <trkpt lat="47.7034" lon="6.18151">
        <ele>266.78</ele>
        <time>2015-12-02T09:32:47Z</time>
      </trkpt>
      <trkpt lat="47.70337" lon="6.18157">
        <ele>266.52</ele>
        <time>2015-12-02T09:32:48Z</time>
      </trkpt>
      <trkpt lat="47.70334" lon="6.18163">
        <ele>266.33</ele>
        <time>2015-12-02T09:32:49Z</time>
      </trkpt>
      <trkpt lat="47.70332" lon="6.1817">
        <ele>266.14</ele>
        <time>2015-12-02T09:32:50Z</time>
      </trkpt>
      <trkpt lat="47.70328" lon="6.18182">
        <ele>265.72</ele>
        <time>2015-12-02T09:32:52Z</time>
      </trkpt>
      <trkpt lat="47.70327" lon="6.18188">
        <ele>265.64</ele>
        <time>2015-12-02T09:32:53Z</time>
      </trkpt>
      <trkpt lat="47.70325" lon="6.18195">
        <ele>265.59</ele>
        <time>2015-12-02T09:32:54Z</time>
      </trkpt>
      <trkpt lat="47.70324" lon="6.18201">
        <ele>265.47</ele>
        <time>2015-12-02T09:32:55Z</time>
      </trkpt>
      <trkpt lat="47.70323" lon="6.18208">
        <ele>265.31</ele>
        <time>2015-12-02T09:32:56Z</time>
      </trkpt>
      <trkpt lat="47.70322" lon="6.18215">
        <ele>265.13</ele>
        <time>2015-12-02T09:32:57Z</time>
      </trkpt>
      <trkpt lat="47.7032" lon="6.18222">
        <ele>264.94</ele>
        <time>2015-12-02T09:32:58Z</time>
      </trkpt>
      <trkpt lat="47.70319" lon="6.1823">
        <ele>264.8</ele>
        <time>2015-12-02T09:32:59Z</time>
      </trkpt>
      <trkpt lat="47.70317" lon="6.18237">
        <ele>264.57</ele>
        <time>2015-12-02T09:33:00Z</time>
      </trkpt>
      <trkpt lat="47.70316" lon="6.18244">
        <ele>264.36</ele>
        <time>2015-12-02T09:33:01Z</time>
      </trkpt>
      <trkpt lat="47.70314" lon="6.18252">
        <ele>264.11</ele>
        <time>2015-12-02T09:33:02Z</time>
      </trkpt>
      <trkpt lat="47.70313" lon="6.18261">
        <ele>263.78</ele>
        <time>2015-12-02T09:33:03Z</time>
      </trkpt>
      <trkpt lat="47.70312" lon="6.1827">
        <ele>263.46</ele>
        <time>2015-12-02T09:33:04Z</time>
      </trkpt>
      <trkpt lat="47.7031" lon="6.18279">
        <ele>263.16</ele>
        <time>2015-12-02T09:33:05Z</time>
      </trkpt>
      <trkpt lat="47.70309" lon="6.18289">
        <ele>263.05</ele>
        <time>2015-12-02T09:33:06Z</time>
      </trkpt>
      <trkpt lat="47.70307" lon="6.183">
        <ele>262.85</ele>
        <time>2015-12-02T09:33:07Z</time>
      </trkpt>
      <trkpt lat="47.70306" lon="6.1831">
        <ele>262.65</ele>
        <time>2015-12-02T09:33:08Z</time>
      </trkpt>
      <trkpt lat="47.70304" lon="6.18321">
        <ele>262.45</ele>
        <time>2015-12-02T09:33:09Z</time>
      </trkpt>
      <trkpt lat="47.70303" lon="6.18331">
        <ele>262.25</ele>
        <time>2015-12-02T09:33:10Z</time>
      </trkpt>
      <trkpt lat="47.70301" lon="6.18341">
        <ele>262.05</ele>
        <time>2015-12-02T09:33:11Z</time>
      </trkpt>
      <trkpt lat="47.703" lon="6.18351">
        <ele>261.9</ele>
        <time>2015-12-02T09:33:12Z</time>
      </trkpt>
      <trkpt lat="47.70298" lon="6.18362">
        <ele>261.73</ele>
        <time>2015-12-02T09:33:13Z</time>
      </trkpt>
      <trkpt lat="47.70297" lon="6.18372">
        <ele>261.64</ele>
        <time>2015-12-02T09:33:14Z</time>
      </trkpt>
      <trkpt lat="47.70295" lon="6.18382">
        <ele>261.59</ele>
        <time>2015-12-02T09:33:15Z</time>
      </trkpt>
      <trkpt lat="47.70293" lon="6.18391">
        <ele>261.57</ele>
        <time>2015-12-02T09:33:16Z</time>
      </trkpt>
      <trkpt lat="47.70291" lon="6.18401">
        <ele>261.41</ele>
        <time>2015-12-02T09:33:17Z</time>
      </trkpt>
      <trkpt lat="47.70288" lon="6.1841">
        <ele>261.23</ele>
        <time>2015-12-02T09:33:18Z</time>
      </trkpt>
      <trkpt lat="47.70285" lon="6.18419">
        <ele>260.94</ele>
        <time>2015-12-02T09:33:19Z</time>
      </trkpt>
      <trkpt lat="47.70282" lon="6.18428">
        <ele>260.6</ele>
        <time>2015-12-02T09:33:20Z</time>
      </trkpt>
      <trkpt lat="47.70278" lon="6.18438">
        <ele>260.27</ele>
        <time>2015-12-02T09:33:21Z</time>
      </trkpt>
      <trkpt lat="47.70274" lon="6.18448">
        <ele>259.91</ele>
        <time>2015-12-02T09:33:22Z</time>
      </trkpt>
      <trkpt lat="47.7027" lon="6.18459">
        <ele>259.43</ele>
        <time>2015-12-02T09:33:23Z</time>
      </trkpt>
      <trkpt lat="47.70266" lon="6.1847">
        <ele>258.89</ele>
        <time>2015-12-02T09:33:24Z</time>
      </trkpt>
      <trkpt lat="47.70262" lon="6.18483">
        <ele>258.32</ele>
        <time>2015-12-02T09:33:25Z</time>
      </trkpt>
      <trkpt lat="47.70259" lon="6.18495">
        <ele>257.64</ele>
        <time>2015-12-02T09:33:26Z</time>
      </trkpt>
      <trkpt lat="47.70255" lon="6.18508">
        <ele>256.89</ele>
        <time>2015-12-02T09:33:27Z</time>
      </trkpt>
      <trkpt lat="47.70251" lon="6.18521">
        <ele>256.12</ele>
        <time>2015-12-02T09:33:28Z</time>
      </trkpt>
      <trkpt lat="47.70248" lon="6.18533">
        <ele>255.34</ele>
        <time>2015-12-02T09:33:29Z</time>
      </trkpt>
      <trkpt lat="47.70245" lon="6.18544">
        <ele>254.54</ele>
        <time>2015-12-02T09:33:30Z</time>
      </trkpt>
      <trkpt lat="47.70241" lon="6.18555">
        <ele>253.8</ele>
        <time>2015-12-02T09:33:31Z</time>
      </trkpt>
      <trkpt lat="47.70237" lon="6.18565">
        <ele>253.02</ele>
        <time>2015-12-02T09:33:32Z</time>
      </trkpt>
      <trkpt lat="47.70234" lon="6.18575">
        <ele>252.24</ele>
        <time>2015-12-02T09:33:33Z</time>
      </trkpt>
      <trkpt lat="47.70229" lon="6.18583">
        <ele>251.49</ele>
        <time>2015-12-02T09:33:34Z</time>
      </trkpt>
      <trkpt lat="47.70226" lon="6.18591">
        <ele>250.87</ele>
        <time>2015-12-02T09:33:35Z</time>
      </trkpt>
      <trkpt lat="47.70222" lon="6.18598">
        <ele>250.31</ele>
        <time>2015-12-02T09:33:36Z</time>
      </trkpt>
      <trkpt lat="47.70219" lon="6.18604">
        <ele>249.78</ele>
        <time>2015-12-02T09:33:37Z</time>
      </trkpt>
      <trkpt lat="47.70216" lon="6.18611">
        <ele>249.42</ele>
        <time>2015-12-02T09:33:38Z</time>
      </trkpt>
      <trkpt lat="47.70213" lon="6.18616">
        <ele>249.08</ele>
        <time>2015-12-02T09:33:39Z</time>
      </trkpt>
      <trkpt lat="47.7021" lon="6.18625">
        <ele>248.66</ele>
        <time>2015-12-02T09:33:41Z</time>
      </trkpt>
      <trkpt lat="47.70213" lon="6.18632">
        <ele>248.05</ele>
        <time>2015-12-02T09:33:43Z</time>
      </trkpt>
      <trkpt lat="47.70219" lon="6.18633">
        <ele>247.65</ele>
        <time>2015-12-02T09:33:45Z</time>
      </trkpt>
      <trkpt lat="47.70226" lon="6.18632">
        <ele>247.5</ele>
        <time>2015-12-02T09:33:47Z</time>
      </trkpt>
      <trkpt lat="47.70232" lon="6.18631">
        <ele>247.61</ele>
        <time>2015-12-02T09:33:49Z</time>
      </trkpt>
      <trkpt lat="47.70238" lon="6.18631">
        <ele>247.92</ele>
        <time>2015-12-02T09:33:51Z</time>
      </trkpt>
      <trkpt lat="47.70244" lon="6.1863">
        <ele>247.97</ele>
        <time>2015-12-02T09:33:53Z</time>
      </trkpt>
      <trkpt lat="47.7025" lon="6.1863">
        <ele>247.68</ele>
        <time>2015-12-02T09:33:55Z</time>
      </trkpt>
      <trkpt lat="47.70256" lon="6.18629">
        <ele>247.31</ele>
        <time>2015-12-02T09:33:57Z</time>
      </trkpt>
      <trkpt lat="47.70263" lon="6.18629">
        <ele>247.09</ele>
        <time>2015-12-02T09:33:59Z</time>
      </trkpt>
      <trkpt lat="47.70269" lon="6.18628">
        <ele>246.86</ele>
        <time>2015-12-02T09:34:01Z</time>
      </trkpt>
      <trkpt lat="47.70275" lon="6.18628">
        <ele>246.6</ele>
        <time>2015-12-02T09:34:03Z</time>
      </trkpt>
      <trkpt lat="47.70281" lon="6.18628">
        <ele>246.69</ele>
        <time>2015-12-02T09:34:05Z</time>
      </trkpt>
      <trkpt lat="47.70287" lon="6.18627">
        <ele>246.71</ele>
        <time>2015-12-02T09:34:07Z</time>
      </trkpt>
      <trkpt lat="47.70293" lon="6.18627">
        <ele>246.67</ele>
        <time>2015-12-02T09:34:09Z</time>
      </trkpt>
      <trkpt lat="47.70298" lon="6.18627">
        <ele>246.65</ele>
        <time>2015-12-02T09:34:11Z</time>
      </trkpt>
      <trkpt lat="47.70304" lon="6.18626">
        <ele>246.83</ele>
        <time>2015-12-02T09:34:13Z</time>
      </trkpt>
      <trkpt lat="47.7031" lon="6.18626">
        <ele>247.04</ele>
        <time>2015-12-02T09:34:15Z</time>
      </trkpt>
      <trkpt lat="47.70316" lon="6.18625">
        <ele>247.12</ele>
        <time>2015-12-02T09:34:17Z</time>
      </trkpt>
      <trkpt lat="47.70322" lon="6.18625">
        <ele>247.24</ele>
        <time>2015-12-02T09:34:19Z</time>
      </trkpt>
      <trkpt lat="47.70328" lon="6.18625">
        <ele>247.52</ele>
        <time>2015-12-02T09:34:21Z</time>
      </trkpt>
      <trkpt lat="47.70333" lon="6.18624">
        <ele>247.79</ele>
        <time>2015-12-02T09:34:23Z</time>
      </trkpt>
      <trkpt lat="47.70339" lon="6.18624">
        <ele>248.04</ele>
        <time>2015-12-02T09:34:25Z</time>
      </trkpt>
      <trkpt lat="47.70345" lon="6.18623">
        <ele>248.17</ele>
        <time>2015-12-02T09:34:27Z</time>
      </trkpt>
      <trkpt lat="47.70351" lon="6.18623">
        <ele>248.21</ele>
        <time>2015-12-02T09:34:29Z</time>
      </trkpt>
      <trkpt lat="47.70356" lon="6.18622">
        <ele>248.49</ele>
        <time>2015-12-02T09:34:31Z</time>
      </trkpt>
      <trkpt lat="47.70362" lon="6.18622">
        <ele>248.69</ele>
        <time>2015-12-02T09:34:33Z</time>
      </trkpt>
      <trkpt lat="47.70368" lon="6.18622">
        <ele>248.81</ele>
        <time>2015-12-02T09:34:35Z</time>
      </trkpt>
      <trkpt lat="47.70374" lon="6.18621">
        <ele>248.89</ele>
        <time>2015-12-02T09:34:37Z</time>
      </trkpt>
      <trkpt lat="47.7038" lon="6.1862">
        <ele>249.34</ele>
        <time>2015-12-02T09:34:39Z</time>
      </trkpt>
      <trkpt lat="47.70386" lon="6.1862">
        <ele>250.12</ele>
        <time>2015-12-02T09:34:41Z</time>
      </trkpt>
      <trkpt lat="47.70392" lon="6.1862">
        <ele>250.69</ele>
        <time>2015-12-02T09:34:43Z</time>
      </trkpt>
      <trkpt lat="47.70398" lon="6.18619">
        <ele>250.96</ele>
        <time>2015-12-02T09:34:45Z</time>
      </trkpt>
      <trkpt lat="47.70404" lon="6.18618">
        <ele>251.03</ele>
        <time>2015-12-02T09:34:47Z</time>
      </trkpt>
      <trkpt lat="47.7041" lon="6.18618">
        <ele>250.87</ele>
        <time>2015-12-02T09:34:49Z</time>
      </trkpt>
      <trkpt lat="47.70415" lon="6.18618">
        <ele>250.71</ele>
        <time>2015-12-02T09:34:51Z</time>
      </trkpt>
      <trkpt lat="47.70421" lon="6.18618">
        <ele>250.54</ele>
        <time>2015-12-02T09:34:53Z</time>
      </trkpt>
      <trkpt lat="47.70427" lon="6.18617">
        <ele>250.55</ele>
        <time>2015-12-02T09:34:55Z</time>
      </trkpt>
      <trkpt lat="47.70432" lon="6.18617">
        <ele>250.53</ele>
        <time>2015-12-02T09:34:57Z</time>
      </trkpt>
      <trkpt lat="47.70438" lon="6.18616">
        <ele>250.54</ele>
        <time>2015-12-02T09:34:59Z</time>
      </trkpt>
      <trkpt lat="47.70444" lon="6.18616">
        <ele>250.62</ele>
        <time>2015-12-02T09:35:01Z</time>
      </trkpt>
      <trkpt lat="47.7045" lon="6.18616">
        <ele>250.64</ele>
        <time>2015-12-02T09:35:03Z</time>
      </trkpt>
      <trkpt lat="47.70456" lon="6.18615">
        <ele>250.72</ele>
        <time>2015-12-02T09:35:05Z</time>
      </trkpt>
      <trkpt lat="47.70463" lon="6.18615">
        <ele>250.74</ele>
        <time>2015-12-02T09:35:07Z</time>
      </trkpt>
      <trkpt lat="47.7047" lon="6.18614">
        <ele>250.75</ele>
        <time>2015-12-02T09:35:09Z</time>
      </trkpt>
      <trkpt lat="47.70476" lon="6.18614">
        <ele>250.75</ele>
        <time>2015-12-02T09:35:11Z</time>
      </trkpt>
      <trkpt lat="47.70483" lon="6.18614">
        <ele>250.75</ele>
        <time>2015-12-02T09:35:13Z</time>
      </trkpt>
      <trkpt lat="47.7049" lon="6.18613">
        <ele>250.8</ele>
        <time>2015-12-02T09:35:15Z</time>
      </trkpt>
      <trkpt lat="47.70497" lon="6.18613">
        <ele>250.84</ele>
        <time>2015-12-02T09:35:17Z</time>
      </trkpt>
      <trkpt lat="47.70504" lon="6.18612">
        <ele>250.92</ele>
        <time>2015-12-02T09:35:19Z</time>
      </trkpt>
      <trkpt lat="47.7051" lon="6.18612">
        <ele>250.99</ele>
        <time>2015-12-02T09:35:21Z</time>
      </trkpt>
      <trkpt lat="47.70517" lon="6.18611">
        <ele>251.04</ele>
        <time>2015-12-02T09:35:23Z</time>
      </trkpt>
      <trkpt lat="47.70524" lon="6.18611">
        <ele>251.1</ele>
        <time>2015-12-02T09:35:25Z</time>
      </trkpt>
      <trkpt lat="47.70531" lon="6.1861">
        <ele>251.19</ele>
        <time>2015-12-02T09:35:27Z</time>
      </trkpt>
      <trkpt lat="47.70538" lon="6.18609">
        <ele>251.36</ele>
        <time>2015-12-02T09:35:29Z</time>
      </trkpt>
      <trkpt lat="47.70544" lon="6.18609">
        <ele>251.43</ele>
        <time>2015-12-02T09:35:31Z</time>
      </trkpt>
      <trkpt lat="47.70551" lon="6.18609">
        <ele>251.57</ele>
        <time>2015-12-02T09:35:33Z</time>
      </trkpt>
      <trkpt lat="47.70557" lon="6.18609">
        <ele>251.68</ele>
        <time>2015-12-02T09:35:35Z</time>
      </trkpt>
      <trkpt lat="47.70563" lon="6.18609">
        <ele>251.73</ele>
        <time>2015-12-02T09:35:37Z</time>
      </trkpt>
      <trkpt lat="47.70569" lon="6.18609">
        <ele>251.8</ele>
        <time>2015-12-02T09:35:39Z</time>
      </trkpt>
      <trkpt lat="47.70576" lon="6.18608">
        <ele>251.84</ele>
        <time>2015-12-02T09:35:41Z</time>
      </trkpt>
      <trkpt lat="47.70582" lon="6.18608">
        <ele>251.92</ele>
        <time>2015-12-02T09:35:43Z</time>
      </trkpt>
      <trkpt lat="47.70588" lon="6.18607">
        <ele>252.02</ele>
        <time>2015-12-02T09:35:45Z</time>
      </trkpt>
      <trkpt lat="47.70595" lon="6.18607">
        <ele>252.09</ele>
        <time>2015-12-02T09:35:47Z</time>
      </trkpt>
      <trkpt lat="47.70601" lon="6.18606">
        <ele>252.14</ele>
        <time>2015-12-02T09:35:49Z</time>
      </trkpt>
      <trkpt lat="47.70608" lon="6.18606">
        <ele>252.2</ele>
        <time>2015-12-02T09:35:51Z</time>
      </trkpt>
      <trkpt lat="47.70615" lon="6.18605">
        <ele>252.29</ele>
        <time>2015-12-02T09:35:53Z</time>
      </trkpt>
      <trkpt lat="47.70622" lon="6.18605">
        <ele>252.46</ele>
        <time>2015-12-02T09:35:55Z</time>
      </trkpt>
      <trkpt lat="47.70629" lon="6.18604">
        <ele>252.53</ele>
        <time>2015-12-02T09:35:57Z</time>
      </trkpt>
      <trkpt lat="47.70637" lon="6.18604">
        <ele>252.6</ele>
        <time>2015-12-02T09:35:59Z</time>
      </trkpt>
      <trkpt lat="47.70644" lon="6.18603">
        <ele>252.76</ele>
        <time>2015-12-02T09:36:01Z</time>
      </trkpt>
      <trkpt lat="47.70651" lon="6.18603">
        <ele>252.9</ele>
        <time>2015-12-02T09:36:03Z</time>
      </trkpt>
      <trkpt lat="47.70658" lon="6.18602">
        <ele>253.06</ele>
        <time>2015-12-02T09:36:05Z</time>
      </trkpt>
      <trkpt lat="47.70665" lon="6.18602">
        <ele>253.18</ele>
        <time>2015-12-02T09:36:07Z</time>
      </trkpt>
      <trkpt lat="47.70671" lon="6.18602">
        <ele>253.48</ele>
        <time>2015-12-02T09:36:09Z</time>
      </trkpt>
      <trkpt lat="47.70678" lon="6.18601">
        <ele>253.73</ele>
        <time>2015-12-02T09:36:11Z</time>
      </trkpt>
      <trkpt lat="47.70685" lon="6.186">
        <ele>253.82</ele>
        <time>2015-12-02T09:36:13Z</time>
      </trkpt>
      <trkpt lat="47.70692" lon="6.186">
        <ele>253.97</ele>
        <time>2015-12-02T09:36:15Z</time>
      </trkpt>
      <trkpt lat="47.70699" lon="6.186">
        <ele>254.21</ele>
        <time>2015-12-02T09:36:17Z</time>
      </trkpt>
      <trkpt lat="47.70706" lon="6.186">
        <ele>254.44</ele>
        <time>2015-12-02T09:36:19Z</time>
      </trkpt>
      <trkpt lat="47.70712" lon="6.18599">
        <ele>254.6</ele>
        <time>2015-12-02T09:36:21Z</time>
      </trkpt>
      <trkpt lat="47.70718" lon="6.18599">
        <ele>254.81</ele>
        <time>2015-12-02T09:36:23Z</time>
      </trkpt>
      <trkpt lat="47.70725" lon="6.18599">
        <ele>255.09</ele>
        <time>2015-12-02T09:36:25Z</time>
      </trkpt>
      <trkpt lat="47.70732" lon="6.18599">
        <ele>255.26</ele>
        <time>2015-12-02T09:36:27Z</time>
      </trkpt>
      <trkpt lat="47.70739" lon="6.18598">
        <ele>255.33</ele>
        <time>2015-12-02T09:36:29Z</time>
      </trkpt>
      <trkpt lat="47.70745" lon="6.18598">
        <ele>255.35</ele>
        <time>2015-12-02T09:36:31Z</time>
      </trkpt>
      <trkpt lat="47.70752" lon="6.18598">
        <ele>255.27</ele>
        <time>2015-12-02T09:36:33Z</time>
      </trkpt>
      <trkpt lat="47.70759" lon="6.18597">
        <ele>255.21</ele>
        <time>2015-12-02T09:36:35Z</time>
      </trkpt>
      <trkpt lat="47.70766" lon="6.18597">
        <ele>254.94</ele>
        <time>2015-12-02T09:36:37Z</time>
      </trkpt>
      <trkpt lat="47.70772" lon="6.18596">
        <ele>254.72</ele>
        <time>2015-12-02T09:36:39Z</time>
      </trkpt>
      <trkpt lat="47.70779" lon="6.18596">
        <ele>254.94</ele>
        <time>2015-12-02T09:36:41Z</time>
      </trkpt>
      <trkpt lat="47.70785" lon="6.18595">
        <ele>255.15</ele>
        <time>2015-12-02T09:36:43Z</time>
      </trkpt>
      <trkpt lat="47.70791" lon="6.18594">
        <ele>255.48</ele>
        <time>2015-12-02T09:36:45Z</time>
      </trkpt>
      <trkpt lat="47.70798" lon="6.18595">
        <ele>255.78</ele>
        <time>2015-12-02T09:36:47Z</time>
      </trkpt>
      <trkpt lat="47.70804" lon="6.18594">
        <ele>256.03</ele>
        <time>2015-12-02T09:36:49Z</time>
      </trkpt>
      <trkpt lat="47.70809" lon="6.18593">
        <ele>256.32</ele>
        <time>2015-12-02T09:36:51Z</time>
      </trkpt>
      <trkpt lat="47.70815" lon="6.18593">
        <ele>256.57</ele>
        <time>2015-12-02T09:36:53Z</time>
      </trkpt>
      <trkpt lat="47.7082" lon="6.18593">
        <ele>256.58</ele>
        <time>2015-12-02T09:36:55Z</time>
      </trkpt>
      <trkpt lat="47.70826" lon="6.18592">
        <ele>256.43</ele>
        <time>2015-12-02T09:36:57Z</time>
      </trkpt>
      <trkpt lat="47.70831" lon="6.18592">
        <ele>256.37</ele>
        <time>2015-12-02T09:36:59Z</time>
      </trkpt>
      <trkpt lat="47.70836" lon="6.18593">
        <ele>256.33</ele>
        <time>2015-12-02T09:37:01Z</time>
      </trkpt>
      <trkpt lat="47.70842" lon="6.18592">
        <ele>256.35</ele>
        <time>2015-12-02T09:37:03Z</time>
      </trkpt>
      <trkpt lat="47.70847" lon="6.18592">
        <ele>256.35</ele>
        <time>2015-12-02T09:37:05Z</time>
      </trkpt>
      <trkpt lat="47.70852" lon="6.18592">
        <ele>256.35</ele>
        <time>2015-12-02T09:37:07Z</time>
      </trkpt>
      <trkpt lat="47.70857" lon="6.18592">
        <ele>256.23</ele>
        <time>2015-12-02T09:37:09Z</time>
      </trkpt>
      <trkpt lat="47.70862" lon="6.18592">
        <ele>256.17</ele>
        <time>2015-12-02T09:37:11Z</time>
      </trkpt>
      <trkpt lat="47.70867" lon="6.18592">
        <ele>256.16</ele>
        <time>2015-12-02T09:37:13Z</time>
      </trkpt>
      <trkpt lat="47.70872" lon="6.18591">
        <ele>256.1</ele>
        <time>2015-12-02T09:37:15Z</time>
      </trkpt>
      <trkpt lat="47.70878" lon="6.18591">
        <ele>256.06</ele>
        <time>2015-12-02T09:37:17Z</time>
      </trkpt>
      <trkpt lat="47.70883" lon="6.18591">
        <ele>256.05</ele>
        <time>2015-12-02T09:37:19Z</time>
      </trkpt>
      <trkpt lat="47.70889" lon="6.1859">
        <ele>256.13</ele>
        <time>2015-12-02T09:37:21Z</time>
      </trkpt>
      <trkpt lat="47.70895" lon="6.1859">
        <ele>255.99</ele>
        <time>2015-12-02T09:37:23Z</time>
      </trkpt>
      <trkpt lat="47.709" lon="6.18589">
        <ele>255.81</ele>
        <time>2015-12-02T09:37:25Z</time>
      </trkpt>
      <trkpt lat="47.70905" lon="6.18589">
        <ele>255.92</ele>
        <time>2015-12-02T09:37:27Z</time>
      </trkpt>
      <trkpt lat="47.70911" lon="6.18589">
        <ele>255.79</ele>
        <time>2015-12-02T09:37:29Z</time>
      </trkpt>
      <trkpt lat="47.70916" lon="6.18589">
        <ele>255.99</ele>
        <time>2015-12-02T09:37:31Z</time>
      </trkpt>
      <trkpt lat="47.70921" lon="6.18588">
        <ele>256.38</ele>
        <time>2015-12-02T09:37:33Z</time>
      </trkpt>
      <trkpt lat="47.70928" lon="6.18588">
        <ele>257.09</ele>
        <time>2015-12-02T09:37:36Z</time>
      </trkpt>
      <trkpt lat="47.70933" lon="6.18586">
        <ele>257.59</ele>
        <time>2015-12-02T09:37:38Z</time>
      </trkpt>
      <trkpt lat="47.70938" lon="6.18586">
        <ele>258.11</ele>
        <time>2015-12-02T09:37:40Z</time>
      </trkpt>
      <trkpt lat="47.70944" lon="6.18587">
        <ele>258.42</ele>
        <time>2015-12-02T09:37:42Z</time>
      </trkpt>
      <trkpt lat="47.70951" lon="6.18585">
        <ele>258.72</ele>
        <time>2015-12-02T09:37:44Z</time>
      </trkpt>
      <trkpt lat="47.70958" lon="6.18585">
        <ele>259.12</ele>
        <time>2015-12-02T09:37:46Z</time>
      </trkpt>
      <trkpt lat="47.70965" lon="6.18584">
        <ele>259.22</ele>
        <time>2015-12-02T09:37:48Z</time>
      </trkpt>
      <trkpt lat="47.70973" lon="6.18582">
        <ele>259.34</ele>
        <time>2015-12-02T09:37:50Z</time>
      </trkpt>
      <trkpt lat="47.70982" lon="6.18581">
        <ele>259.85</ele>
        <time>2015-12-02T09:37:52Z</time>
      </trkpt>
      <trkpt lat="47.7099" lon="6.18579">
        <ele>260.38</ele>
        <time>2015-12-02T09:37:54Z</time>
      </trkpt>
      <trkpt lat="47.70998" lon="6.18578">
        <ele>260.51</ele>
        <time>2015-12-02T09:37:56Z</time>
      </trkpt>
      <trkpt lat="47.71007" lon="6.18579">
        <ele>260.47</ele>
        <time>2015-12-02T09:37:58Z</time>
      </trkpt>
      <trkpt lat="47.71015" lon="6.1858">
        <ele>260.4</ele>
        <time>2015-12-02T09:38:00Z</time>
      </trkpt>
      <trkpt lat="47.71023" lon="6.18581">
        <ele>260.59</ele>
        <time>2015-12-02T09:38:02Z</time>
      </trkpt>
      <trkpt lat="47.71031" lon="6.18582">
        <ele>260.89</ele>
        <time>2015-12-02T09:38:04Z</time>
      </trkpt>
      <trkpt lat="47.71036" lon="6.18583">
        <ele>261.07</ele>
        <time>2015-12-02T09:38:05Z</time>
      </trkpt>
      <trkpt lat="47.71041" lon="6.18583">
        <ele>261.41</ele>
        <time>2015-12-02T09:38:06Z</time>
      </trkpt>
      <trkpt lat="47.7105" lon="6.18584">
        <ele>261.77</ele>
        <time>2015-12-02T09:38:08Z</time>
      </trkpt>
      <trkpt lat="47.71058" lon="6.18585">
        <ele>261.78</ele>
        <time>2015-12-02T09:38:10Z</time>
      </trkpt>
      <trkpt lat="47.71067" lon="6.18586">
        <ele>261.68</ele>
        <time>2015-12-02T09:38:12Z</time>
      </trkpt>
      <trkpt lat="47.71075" lon="6.18588">
        <ele>261.58</ele>
        <time>2015-12-02T09:38:14Z</time>
      </trkpt>
      <trkpt lat="47.71083" lon="6.18589">
        <ele>261.78</ele>
        <time>2015-12-02T09:38:16Z</time>
      </trkpt>
      <trkpt lat="47.71091" lon="6.18591">
        <ele>262.18</ele>
        <time>2015-12-02T09:38:18Z</time>
      </trkpt>
      <trkpt lat="47.71098" lon="6.18592">
        <ele>262.38</ele>
        <time>2015-12-02T09:38:20Z</time>
      </trkpt>
      <trkpt lat="47.71105" lon="6.18595">
        <ele>262.63</ele>
        <time>2015-12-02T09:38:22Z</time>
      </trkpt>
      <trkpt lat="47.71112" lon="6.18598">
        <ele>262.8</ele>
        <time>2015-12-02T09:38:24Z</time>
      </trkpt>
      <trkpt lat="47.7112" lon="6.18599">
        <ele>262.46</ele>
        <time>2015-12-02T09:38:26Z</time>
      </trkpt>
      <trkpt lat="47.71127" lon="6.18602">
        <ele>262.33</ele>
        <time>2015-12-02T09:38:28Z</time>
      </trkpt>
      <trkpt lat="47.71134" lon="6.18604">
        <ele>262.22</ele>
        <time>2015-12-02T09:38:30Z</time>
      </trkpt>
      <trkpt lat="47.7114" lon="6.18607">
        <ele>262.17</ele>
        <time>2015-12-02T09:38:32Z</time>
      </trkpt>
      <trkpt lat="47.71146" lon="6.18608">
        <ele>262.16</ele>
        <time>2015-12-02T09:38:34Z</time>
      </trkpt>
      <trkpt lat="47.71153" lon="6.18611">
        <ele>262.38</ele>
        <time>2015-12-02T09:38:36Z</time>
      </trkpt>
      <trkpt lat="47.71159" lon="6.18613">
        <ele>262.61</ele>
        <time>2015-12-02T09:38:38Z</time>
      </trkpt>
      <trkpt lat="47.71165" lon="6.18615">
        <ele>262.79</ele>
        <time>2015-12-02T09:38:40Z</time>
      </trkpt>
      <trkpt lat="47.71172" lon="6.18617">
        <ele>262.96</ele>
        <time>2015-12-02T09:38:42Z</time>
      </trkpt>
      <trkpt lat="47.71178" lon="6.18617">
        <ele>263.35</ele>
        <time>2015-12-02T09:38:44Z</time>
      </trkpt>
      <trkpt lat="47.71184" lon="6.18619">
        <ele>263.55</ele>
        <time>2015-12-02T09:38:46Z</time>
      </trkpt>
      <trkpt lat="47.7119" lon="6.18622">
        <ele>263.55</ele>
        <time>2015-12-02T09:38:48Z</time>
      </trkpt>
      <trkpt lat="47.71197" lon="6.18624">
        <ele>263.75</ele>
        <time>2015-12-02T09:38:50Z</time>
      </trkpt>
      <trkpt lat="47.71203" lon="6.18625">
        <ele>264.25</ele>
        <time>2015-12-02T09:38:52Z</time>
      </trkpt>
      <trkpt lat="47.71209" lon="6.18625">
        <ele>265.18</ele>
        <time>2015-12-02T09:38:54Z</time>
      </trkpt>
      <trkpt lat="47.71215" lon="6.18626">
        <ele>266.16</ele>
        <time>2015-12-02T09:38:56Z</time>
      </trkpt>
      <trkpt lat="47.71219" lon="6.18626">
        <ele>266.65</ele>
        <time>2015-12-02T09:38:58Z</time>
      </trkpt>
      <trkpt lat="47.71226" lon="6.1863">
        <ele>267.03</ele>
        <time>2015-12-02T09:39:00Z</time>
      </trkpt>
      <trkpt lat="47.71234" lon="6.18634">
        <ele>267.64</ele>
        <time>2015-12-02T09:39:02Z</time>
      </trkpt>
      <trkpt lat="47.71241" lon="6.18637">
        <ele>267.97</ele>
        <time>2015-12-02T09:39:04Z</time>
      </trkpt>
      <trkpt lat="47.71246" lon="6.18639">
        <ele>267.96</ele>
        <time>2015-12-02T09:39:05Z</time>
      </trkpt>
      <trkpt lat="47.71253" lon="6.18641">
        <ele>267.73</ele>
        <time>2015-12-02T09:39:07Z</time>
      </trkpt>
      <trkpt lat="47.71262" lon="6.18643">
        <ele>267.1</ele>
        <time>2015-12-02T09:39:09Z</time>
      </trkpt>
      <trkpt lat="47.7127" lon="6.18645">
        <ele>266.34</ele>
        <time>2015-12-02T09:39:11Z</time>
      </trkpt>
      <trkpt lat="47.71279" lon="6.18645">
        <ele>265.77</ele>
        <time>2015-12-02T09:39:13Z</time>
      </trkpt>
      <trkpt lat="47.71283" lon="6.18645">
        <ele>265.66</ele>
        <time>2015-12-02T09:39:14Z</time>
      </trkpt>
      <trkpt lat="47.71288" lon="6.18645">
        <ele>265.61</ele>
        <time>2015-12-02T09:39:15Z</time>
      </trkpt>
      <trkpt lat="47.71293" lon="6.18644">
        <ele>265.43</ele>
        <time>2015-12-02T09:39:16Z</time>
      </trkpt>
      <trkpt lat="47.71297" lon="6.18643">
        <ele>265.24</ele>
        <time>2015-12-02T09:39:17Z</time>
      </trkpt>
      <trkpt lat="47.71302" lon="6.18642">
        <ele>265.25</ele>
        <time>2015-12-02T09:39:18Z</time>
      </trkpt>
      <trkpt lat="47.71306" lon="6.18641">
        <ele>265.2</ele>
        <time>2015-12-02T09:39:19Z</time>
      </trkpt>
      <trkpt lat="47.71315" lon="6.18639">
        <ele>265.11</ele>
        <time>2015-12-02T09:39:21Z</time>
      </trkpt>
      <trkpt lat="47.71323" lon="6.18637">
        <ele>264.94</ele>
        <time>2015-12-02T09:39:23Z</time>
      </trkpt>
      <trkpt lat="47.7133" lon="6.18633">
        <ele>264.65</ele>
        <time>2015-12-02T09:39:25Z</time>
      </trkpt>
      <trkpt lat="47.71338" lon="6.18629">
        <ele>264.78</ele>
        <time>2015-12-02T09:39:27Z</time>
      </trkpt>
      <trkpt lat="47.71345" lon="6.18626">
        <ele>264.93</ele>
        <time>2015-12-02T09:39:29Z</time>
      </trkpt>
      <trkpt lat="47.71352" lon="6.18623">
        <ele>265.15</ele>
        <time>2015-12-02T09:39:31Z</time>
      </trkpt>
      <trkpt lat="47.71359" lon="6.1862">
        <ele>265.1</ele>
        <time>2015-12-02T09:39:33Z</time>
      </trkpt>
      <trkpt lat="47.71367" lon="6.18617">
        <ele>265.39</ele>
        <time>2015-12-02T09:39:35Z</time>
      </trkpt>
      <trkpt lat="47.71374" lon="6.18614">
        <ele>265.66</ele>
        <time>2015-12-02T09:39:37Z</time>
      </trkpt>
      <trkpt lat="47.71382" lon="6.18611">
        <ele>265.93</ele>
        <time>2015-12-02T09:39:39Z</time>
      </trkpt>
      <trkpt lat="47.7139" lon="6.1861">
        <ele>265.82</ele>
        <time>2015-12-02T09:39:41Z</time>
      </trkpt>
      <trkpt lat="47.71394" lon="6.18609">
        <ele>265.84</ele>
        <time>2015-12-02T09:39:42Z</time>
      </trkpt>
      <trkpt lat="47.71403" lon="6.18608">
        <ele>265.52</ele>
        <time>2015-12-02T09:39:44Z</time>
      </trkpt>
      <trkpt lat="47.71411" lon="6.18608">
        <ele>265.12</ele>
        <time>2015-12-02T09:39:46Z</time>
      </trkpt>
      <trkpt lat="47.71419" lon="6.18609">
        <ele>264.67</ele>
        <time>2015-12-02T09:39:48Z</time>
      </trkpt>
      <trkpt lat="47.71427" lon="6.18612">
        <ele>264.31</ele>
        <time>2015-12-02T09:39:50Z</time>
      </trkpt>
      <trkpt lat="47.71435" lon="6.18614">
        <ele>264.44</ele>
        <time>2015-12-02T09:39:52Z</time>
      </trkpt>
      <trkpt lat="47.71443" lon="6.18617">
        <ele>264.62</ele>
        <time>2015-12-02T09:39:54Z</time>
      </trkpt>
      <trkpt lat="47.71451" lon="6.18621">
        <ele>264.77</ele>
        <time>2015-12-02T09:39:56Z</time>
      </trkpt>
      <trkpt lat="47.71459" lon="6.18626">
        <ele>265.23</ele>
        <time>2015-12-02T09:39:58Z</time>
      </trkpt>
      <trkpt lat="47.71467" lon="6.18631">
        <ele>265.97</ele>
        <time>2015-12-02T09:40:00Z</time>
      </trkpt>
      <trkpt lat="47.71473" lon="6.18636">
        <ele>266.96</ele>
        <time>2015-12-02T09:40:02Z</time>
      </trkpt>
      <trkpt lat="47.7148" lon="6.1864">
        <ele>267.6</ele>
        <time>2015-12-02T09:40:04Z</time>
      </trkpt>
      <trkpt lat="47.71485" lon="6.18645">
        <ele>267.79</ele>
        <time>2015-12-02T09:40:06Z</time>
      </trkpt>
      <trkpt lat="47.71491" lon="6.1865">
        <ele>268.11</ele>
        <time>2015-12-02T09:40:08Z</time>
      </trkpt>
      <trkpt lat="47.71496" lon="6.18655">
        <ele>268.52</ele>
        <time>2015-12-02T09:40:10Z</time>
      </trkpt>
      <trkpt lat="47.715" lon="6.18659">
        <ele>268.79</ele>
        <time>2015-12-02T09:40:12Z</time>
      </trkpt>
      <trkpt lat="47.71507" lon="6.18663">
        <ele>268.89</ele>
        <time>2015-12-02T09:40:14Z</time>
      </trkpt>
      <trkpt lat="47.71512" lon="6.18667">
        <ele>268.98</ele>
        <time>2015-12-02T09:40:16Z</time>
      </trkpt>
      <trkpt lat="47.71518" lon="6.18672">
        <ele>269.23</ele>
        <time>2015-12-02T09:40:18Z</time>
      </trkpt>
      <trkpt lat="47.71524" lon="6.18677">
        <ele>269.32</ele>
        <time>2015-12-02T09:40:20Z</time>
      </trkpt>
      <trkpt lat="47.71532" lon="6.18682">
        <ele>269.17</ele>
        <time>2015-12-02T09:40:22Z</time>
      </trkpt>
      <trkpt lat="47.71538" lon="6.18686">
        <ele>269.51</ele>
        <time>2015-12-02T09:40:24Z</time>
      </trkpt>
      <trkpt lat="47.71544" lon="6.18691">
        <ele>270.11</ele>
        <time>2015-12-02T09:40:26Z</time>
      </trkpt>
      <trkpt lat="47.71551" lon="6.18697">
        <ele>271.09</ele>
        <time>2015-12-02T09:40:28Z</time>
      </trkpt>
      <trkpt lat="47.71557" lon="6.18702">
        <ele>271.61</ele>
        <time>2015-12-02T09:40:30Z</time>
      </trkpt>
      <trkpt lat="47.71564" lon="6.18707">
        <ele>272.44</ele>
        <time>2015-12-02T09:40:32Z</time>
      </trkpt>
      <trkpt lat="47.7157" lon="6.18713">
        <ele>273.17</ele>
        <time>2015-12-02T09:40:34Z</time>
      </trkpt>
      <trkpt lat="47.71577" lon="6.18719">
        <ele>274.23</ele>
        <time>2015-12-02T09:40:36Z</time>
      </trkpt>
      <trkpt lat="47.71584" lon="6.18724">
        <ele>275.25</ele>
        <time>2015-12-02T09:40:38Z</time>
      </trkpt>
      <trkpt lat="47.7159" lon="6.1873">
        <ele>276.02</ele>
        <time>2015-12-02T09:40:40Z</time>
      </trkpt>
      <trkpt lat="47.71596" lon="6.18735">
        <ele>275.59</ele>
        <time>2015-12-02T09:40:42Z</time>
      </trkpt>
      <trkpt lat="47.71603" lon="6.1874">
        <ele>274.81</ele>
        <time>2015-12-02T09:40:44Z</time>
      </trkpt>
      <trkpt lat="47.7161" lon="6.18744">
        <ele>274.54</ele>
        <time>2015-12-02T09:40:46Z</time>
      </trkpt>
      <trkpt lat="47.71617" lon="6.18749">
        <ele>274.9</ele>
        <time>2015-12-02T09:40:48Z</time>
      </trkpt>
      <trkpt lat="47.71623" lon="6.18755">
        <ele>275.06</ele>
        <time>2015-12-02T09:40:50Z</time>
      </trkpt>
      <trkpt lat="47.7163" lon="6.18761">
        <ele>275.58</ele>
        <time>2015-12-02T09:40:52Z</time>
      </trkpt>
      <trkpt lat="47.71637" lon="6.18766">
        <ele>276.23</ele>
        <time>2015-12-02T09:40:54Z</time>
      </trkpt>
      <trkpt lat="47.71644" lon="6.18771">
        <ele>277.2</ele>
        <time>2015-12-02T09:40:56Z</time>
      </trkpt>
      <trkpt lat="47.71651" lon="6.18779">
        <ele>278.01</ele>
        <time>2015-12-02T09:40:58Z</time>
      </trkpt>
      <trkpt lat="47.71655" lon="6.18783">
        <ele>278.63</ele>
        <time>2015-12-02T09:40:59Z</time>
      </trkpt>
      <trkpt lat="47.71659" lon="6.18787">
        <ele>279.29</ele>
        <time>2015-12-02T09:41:00Z</time>
      </trkpt>
      <trkpt lat="47.71667" lon="6.18792">
        <ele>280.49</ele>
        <time>2015-12-02T09:41:02Z</time>
      </trkpt>
      <trkpt lat="47.71671" lon="6.18795">
        <ele>280.97</ele>
        <time>2015-12-02T09:41:03Z</time>
      </trkpt>
      <trkpt lat="47.71677" lon="6.18801">
        <ele>281.41</ele>
        <time>2015-12-02T09:41:05Z</time>
      </trkpt>
      <trkpt lat="47.71683" lon="6.18806">
        <ele>282.06</ele>
        <time>2015-12-02T09:41:07Z</time>
      </trkpt>
      <trkpt lat="47.71688" lon="6.18811">
        <ele>282.78</ele>
        <time>2015-12-02T09:41:09Z</time>
      </trkpt>
      <trkpt lat="47.71694" lon="6.18815">
        <ele>283.13</ele>
        <time>2015-12-02T09:41:11Z</time>
      </trkpt>
      <trkpt lat="47.717" lon="6.18821">
        <ele>283.4</ele>
        <time>2015-12-02T09:41:13Z</time>
      </trkpt>
      <trkpt lat="47.71708" lon="6.18827">
        <ele>283.84</ele>
        <time>2015-12-02T09:41:15Z</time>
      </trkpt>
      <trkpt lat="47.71714" lon="6.18835">
        <ele>284.32</ele>
        <time>2015-12-02T09:41:17Z</time>
      </trkpt>
      <trkpt lat="47.71721" lon="6.18842">
        <ele>284.82</ele>
        <time>2015-12-02T09:41:19Z</time>
      </trkpt>
      <trkpt lat="47.71728" lon="6.18847">
        <ele>285.02</ele>
        <time>2015-12-02T09:41:21Z</time>
      </trkpt>
      <trkpt lat="47.71735" lon="6.18851">
        <ele>285.29</ele>
        <time>2015-12-02T09:41:23Z</time>
      </trkpt>
      <trkpt lat="47.71741" lon="6.18857">
        <ele>285.36</ele>
        <time>2015-12-02T09:41:25Z</time>
      </trkpt>
      <trkpt lat="47.71747" lon="6.1886">
        <ele>285.25</ele>
        <time>2015-12-02T09:41:27Z</time>
      </trkpt>
      <trkpt lat="47.71754" lon="6.18865">
        <ele>285.13</ele>
        <time>2015-12-02T09:41:29Z</time>
      </trkpt>
      <trkpt lat="47.71761" lon="6.18869">
        <ele>284.79</ele>
        <time>2015-12-02T09:41:31Z</time>
      </trkpt>
      <trkpt lat="47.71768" lon="6.18871">
        <ele>284.39</ele>
        <time>2015-12-02T09:41:33Z</time>
      </trkpt>
      <trkpt lat="47.71775" lon="6.18875">
        <ele>284.39</ele>
        <time>2015-12-02T09:41:35Z</time>
      </trkpt>
      <trkpt lat="47.71784" lon="6.18877">
        <ele>284.56</ele>
        <time>2015-12-02T09:41:38Z</time>
      </trkpt>
      <trkpt lat="47.71791" lon="6.18876">
        <ele>284.8</ele>
        <time>2015-12-02T09:41:40Z</time>
      </trkpt>
      <trkpt lat="47.71797" lon="6.18874">
        <ele>285.01</ele>
        <time>2015-12-02T09:41:42Z</time>
      </trkpt>
      <trkpt lat="47.71804" lon="6.18874">
        <ele>285.42</ele>
        <time>2015-12-02T09:41:44Z</time>
      </trkpt>
      <trkpt lat="47.71813" lon="6.18875">
        <ele>287.52</ele>
        <time>2015-12-02T09:41:46Z</time>
      </trkpt>
      <trkpt lat="47.71821" lon="6.18875">
        <ele>288.47</ele>
        <time>2015-12-02T09:41:48Z</time>
      </trkpt>
      <trkpt lat="47.7183" lon="6.18872">
        <ele>288.46</ele>
        <time>2015-12-02T09:41:50Z</time>
      </trkpt>
      <trkpt lat="47.71835" lon="6.1887">
        <ele>288.05</ele>
        <time>2015-12-02T09:41:51Z</time>
      </trkpt>
      <trkpt lat="47.71839" lon="6.18868">
        <ele>287.75</ele>
        <time>2015-12-02T09:41:52Z</time>
      </trkpt>
      <trkpt lat="47.71844" lon="6.18866">
        <ele>287.35</ele>
        <time>2015-12-02T09:41:53Z</time>
      </trkpt>
      <trkpt lat="47.71848" lon="6.18863">
        <ele>287.25</ele>
        <time>2015-12-02T09:41:54Z</time>
      </trkpt>
      <trkpt lat="47.71852" lon="6.18861">
        <ele>287.6</ele>
        <time>2015-12-02T09:41:55Z</time>
      </trkpt>
      <trkpt lat="47.71857" lon="6.18858">
        <ele>287.93</ele>
        <time>2015-12-02T09:41:56Z</time>
      </trkpt>
      <trkpt lat="47.7186" lon="6.18855">
        <ele>287.74</ele>
        <time>2015-12-02T09:41:57Z</time>
      </trkpt>
      <trkpt lat="47.71867" lon="6.18847">
        <ele>285.8</ele>
        <time>2015-12-02T09:41:59Z</time>
      </trkpt>
      <trkpt lat="47.71874" lon="6.18839">
        <ele>282.69</ele>
        <time>2015-12-02T09:42:01Z</time>
      </trkpt>
      <trkpt lat="47.71879" lon="6.1883">
        <ele>278.81</ele>
        <time>2015-12-02T09:42:03Z</time>
      </trkpt>
      <trkpt lat="47.71884" lon="6.18821">
        <ele>274.97</ele>
        <time>2015-12-02T09:42:05Z</time>
      </trkpt>
      <trkpt lat="47.71889" lon="6.18814">
        <ele>271.8</ele>
        <time>2015-12-02T09:42:07Z</time>
      </trkpt>
      <trkpt lat="47.71894" lon="6.18807">
        <ele>270.14</ele>
        <time>2015-12-02T09:42:09Z</time>
      </trkpt>
      <trkpt lat="47.71899" lon="6.188">
        <ele>269.75</ele>
        <time>2015-12-02T09:42:11Z</time>
      </trkpt>
      <trkpt lat="47.71904" lon="6.18794">
        <ele>269.9</ele>
        <time>2015-12-02T09:42:13Z</time>
      </trkpt>
      <trkpt lat="47.71909" lon="6.18787">
        <ele>269.99</ele>
        <time>2015-12-02T09:42:15Z</time>
      </trkpt>
      <trkpt lat="47.71914" lon="6.1878">
        <ele>269.91</ele>
        <time>2015-12-02T09:42:17Z</time>
      </trkpt>
      <trkpt lat="47.71918" lon="6.18773">
        <ele>269.19</ele>
        <time>2015-12-02T09:42:19Z</time>
      </trkpt>
      <trkpt lat="47.71923" lon="6.18766">
        <ele>268.66</ele>
        <time>2015-12-02T09:42:21Z</time>
      </trkpt>
      <trkpt lat="47.71929" lon="6.18759">
        <ele>268.7</ele>
        <time>2015-12-02T09:42:23Z</time>
      </trkpt>
      <trkpt lat="47.71934" lon="6.18752">
        <ele>268.81</ele>
        <time>2015-12-02T09:42:25Z</time>
      </trkpt>
      <trkpt lat="47.71941" lon="6.18745">
        <ele>269.47</ele>
        <time>2015-12-02T09:42:27Z</time>
      </trkpt>
      <trkpt lat="47.71947" lon="6.18738">
        <ele>270.1</ele>
        <time>2015-12-02T09:42:29Z</time>
      </trkpt>
      <trkpt lat="47.71954" lon="6.18731">
        <ele>270.49</ele>
        <time>2015-12-02T09:42:31Z</time>
      </trkpt>
      <trkpt lat="47.71961" lon="6.18724">
        <ele>270.76</ele>
        <time>2015-12-02T09:42:33Z</time>
      </trkpt>
      <trkpt lat="47.71968" lon="6.18719">
        <ele>270.88</ele>
        <time>2015-12-02T09:42:35Z</time>
      </trkpt>
      <trkpt lat="47.71975" lon="6.18714">
        <ele>271.28</ele>
        <time>2015-12-02T09:42:37Z</time>
      </trkpt>
      <trkpt lat="47.71983" lon="6.1871">
        <ele>272.03</ele>
        <time>2015-12-02T09:42:39Z</time>
      </trkpt>
      <trkpt lat="47.71992" lon="6.1871">
        <ele>272.65</ele>
        <time>2015-12-02T09:42:41Z</time>
      </trkpt>
      <trkpt lat="47.72" lon="6.18709">
        <ele>273.47</ele>
        <time>2015-12-02T09:42:43Z</time>
      </trkpt>
      <trkpt lat="47.72008" lon="6.18709">
        <ele>274.43</ele>
        <time>2015-12-02T09:42:45Z</time>
      </trkpt>
      <trkpt lat="47.72016" lon="6.18709">
        <ele>275.15</ele>
        <time>2015-12-02T09:42:47Z</time>
      </trkpt>
      <trkpt lat="47.72023" lon="6.18708">
        <ele>275.42</ele>
        <time>2015-12-02T09:42:49Z</time>
      </trkpt>
      <trkpt lat="47.7203" lon="6.18706">
        <ele>275.34</ele>
        <time>2015-12-02T09:42:51Z</time>
      </trkpt>
      <trkpt lat="47.72037" lon="6.18704">
        <ele>275.52</ele>
        <time>2015-12-02T09:42:53Z</time>
      </trkpt>
      <trkpt lat="47.72044" lon="6.18703">
        <ele>276.39</ele>
        <time>2015-12-02T09:42:55Z</time>
      </trkpt>
      <trkpt lat="47.7205" lon="6.18703">
        <ele>277.66</ele>
        <time>2015-12-02T09:42:57Z</time>
      </trkpt>
      <trkpt lat="47.72057" lon="6.18701">
        <ele>278.55</ele>
        <time>2015-12-02T09:42:59Z</time>
      </trkpt>
      <trkpt lat="47.72063" lon="6.18699">
        <ele>279.13</ele>
        <time>2015-12-02T09:43:01Z</time>
      </trkpt>
      <trkpt lat="47.72069" lon="6.18698">
        <ele>279.49</ele>
        <time>2015-12-02T09:43:03Z</time>
      </trkpt>
      <trkpt lat="47.72075" lon="6.18697">
        <ele>279.59</ele>
        <time>2015-12-02T09:43:05Z</time>
      </trkpt>
      <trkpt lat="47.72081" lon="6.18695">
        <ele>279.43</ele>
        <time>2015-12-02T09:43:07Z</time>
      </trkpt>
      <trkpt lat="47.72087" lon="6.18694">
        <ele>279.6</ele>
        <time>2015-12-02T09:43:09Z</time>
      </trkpt>
      <trkpt lat="47.72094" lon="6.18695">
        <ele>280.29</ele>
        <time>2015-12-02T09:43:11Z</time>
      </trkpt>
      <trkpt lat="47.721" lon="6.18697">
        <ele>281.16</ele>
        <time>2015-12-02T09:43:13Z</time>
      </trkpt>
      <trkpt lat="47.72106" lon="6.18697">
        <ele>281.85</ele>
        <time>2015-12-02T09:43:15Z</time>
      </trkpt>
      <trkpt lat="47.72112" lon="6.18696">
        <ele>282.88</ele>
        <time>2015-12-02T09:43:17Z</time>
      </trkpt>
      <trkpt lat="47.72118" lon="6.18694">
        <ele>282.91</ele>
        <time>2015-12-02T09:43:19Z</time>
      </trkpt>
      <trkpt lat="47.72124" lon="6.18692">
        <ele>282.79</ele>
        <time>2015-12-02T09:43:21Z</time>
      </trkpt>
      <trkpt lat="47.72129" lon="6.18692">
        <ele>282.71</ele>
        <time>2015-12-02T09:43:23Z</time>
      </trkpt>
      <trkpt lat="47.72135" lon="6.18692">
        <ele>282.69</ele>
        <time>2015-12-02T09:43:25Z</time>
      </trkpt>
      <trkpt lat="47.7214" lon="6.18692">
        <ele>282.29</ele>
        <time>2015-12-02T09:43:27Z</time>
      </trkpt>
      <trkpt lat="47.72145" lon="6.18691">
        <ele>281.53</ele>
        <time>2015-12-02T09:43:29Z</time>
      </trkpt>
      <trkpt lat="47.72151" lon="6.18691">
        <ele>281.87</ele>
        <time>2015-12-02T09:43:31Z</time>
      </trkpt>
      <trkpt lat="47.72156" lon="6.18691">
        <ele>282.33</ele>
        <time>2015-12-02T09:43:33Z</time>
      </trkpt>
      <trkpt lat="47.72161" lon="6.18694">
        <ele>282.9</ele>
        <time>2015-12-02T09:43:35Z</time>
      </trkpt>
      <trkpt lat="47.72166" lon="6.18696">
        <ele>283.09</ele>
        <time>2015-12-02T09:43:37Z</time>
      </trkpt>
      <trkpt lat="47.72172" lon="6.18699">
        <ele>283.21</ele>
        <time>2015-12-02T09:43:39Z</time>
      </trkpt>
      <trkpt lat="47.72178" lon="6.18701">
        <ele>283.09</ele>
        <time>2015-12-02T09:43:41Z</time>
      </trkpt>
      <trkpt lat="47.72185" lon="6.18703">
        <ele>283.41</ele>
        <time>2015-12-02T09:43:43Z</time>
      </trkpt>
      <trkpt lat="47.7219" lon="6.18705">
        <ele>284.09</ele>
        <time>2015-12-02T09:43:45Z</time>
      </trkpt>
      <trkpt lat="47.72195" lon="6.18707">
        <ele>284.06</ele>
        <time>2015-12-02T09:43:47Z</time>
      </trkpt>
      <trkpt lat="47.72199" lon="6.18708">
        <ele>283.43</ele>
        <time>2015-12-02T09:43:49Z</time>
      </trkpt>
      <trkpt lat="47.72206" lon="6.18712">
        <ele>282.76</ele>
        <time>2015-12-02T09:43:52Z</time>
      </trkpt>
      <trkpt lat="47.72211" lon="6.18713">
        <ele>282.34</ele>
        <time>2015-12-02T09:43:55Z</time>
      </trkpt>
      <trkpt lat="47.72216" lon="6.18711">
        <ele>281.17</ele>
        <time>2015-12-02T09:43:57Z</time>
      </trkpt>
      <trkpt lat="47.72221" lon="6.18705">
        <ele>278.69</ele>
        <time>2015-12-02T09:44:00Z</time>
      </trkpt>
      <trkpt lat="47.72223" lon="6.18698">
        <ele>276.46</ele>
        <time>2015-12-02T09:44:03Z</time>
      </trkpt>
      <trkpt lat="47.72225" lon="6.1869">
        <ele>274.95</ele>
        <time>2015-12-02T09:44:06Z</time>
      </trkpt>
      <trkpt lat="47.72227" lon="6.18681">
        <ele>273.63</ele>
        <time>2015-12-02T09:44:09Z</time>
      </trkpt>
      <trkpt lat="47.72228" lon="6.18671">
        <ele>273.1</ele>
        <time>2015-12-02T09:44:12Z</time>
      </trkpt>
      <trkpt lat="47.7223" lon="6.18664">
        <ele>273.53</ele>
        <time>2015-12-02T09:44:15Z</time>
      </trkpt>
      <trkpt lat="47.7223" lon="6.18657">
        <ele>274.15</ele>
        <time>2015-12-02T09:44:18Z</time>
      </trkpt>
      <trkpt lat="47.72231" lon="6.18649">
        <ele>274.41</ele>
        <time>2015-12-02T09:44:21Z</time>
      </trkpt>
      <trkpt lat="47.72231" lon="6.1864">
        <ele>275.23</ele>
        <time>2015-12-02T09:44:24Z</time>
      </trkpt>
      <trkpt lat="47.7223" lon="6.18633">
        <ele>275.76</ele>
        <time>2015-12-02T09:44:27Z</time>
      </trkpt>
      <trkpt lat="47.7223" lon="6.18624">
        <ele>276.81</ele>
        <time>2015-12-02T09:44:30Z</time>
      </trkpt>
      <trkpt lat="47.7223" lon="6.18617">
        <ele>277.19</ele>
        <time>2015-12-02T09:44:32Z</time>
      </trkpt>
      <trkpt lat="47.72229" lon="6.1861">
        <ele>277.41</ele>
        <time>2015-12-02T09:44:34Z</time>
      </trkpt>
      <trkpt lat="47.7223" lon="6.18602">
        <ele>277.47</ele>
        <time>2015-12-02T09:44:37Z</time>
      </trkpt>
      <trkpt lat="47.7223" lon="6.18594">
        <ele>277.73</ele>
        <time>2015-12-02T09:44:40Z</time>
      </trkpt>
      <trkpt lat="47.72229" lon="6.18584">
        <ele>277.85</ele>
        <time>2015-12-02T09:44:43Z</time>
      </trkpt>
      <trkpt lat="47.72229" lon="6.18576">
        <ele>278.69</ele>
        <time>2015-12-02T09:44:46Z</time>
      </trkpt>
      <trkpt lat="47.7223" lon="6.18567">
        <ele>278.96</ele>
        <time>2015-12-02T09:44:49Z</time>
      </trkpt>
      <trkpt lat="47.7223" lon="6.18557">
        <ele>278.94</ele>
        <time>2015-12-02T09:44:52Z</time>
      </trkpt>
      <trkpt lat="47.72231" lon="6.1855">
        <ele>278.9</ele>
        <time>2015-12-02T09:44:55Z</time>
      </trkpt>
      <trkpt lat="47.72233" lon="6.1854">
        <ele>278.66</ele>
        <time>2015-12-02T09:44:58Z</time>
      </trkpt>
      <trkpt lat="47.72234" lon="6.18533">
        <ele>278.6</ele>
        <time>2015-12-02T09:45:00Z</time>
      </trkpt>
      <trkpt lat="47.72236" lon="6.18526">
        <ele>278.49</ele>
        <time>2015-12-02T09:45:02Z</time>
      </trkpt>
      <trkpt lat="47.72239" lon="6.18519">
        <ele>278.46</ele>
        <time>2015-12-02T09:45:04Z</time>
      </trkpt>
      <trkpt lat="47.72242" lon="6.18514">
        <ele>278.43</ele>
        <time>2015-12-02T09:45:06Z</time>
      </trkpt>
      <trkpt lat="47.72244" lon="6.18505">
        <ele>277.99</ele>
        <time>2015-12-02T09:45:09Z</time>
      </trkpt>
      <trkpt lat="47.72246" lon="6.18498">
        <ele>277.51</ele>
        <time>2015-12-02T09:45:11Z</time>
      </trkpt>
      <trkpt lat="47.72248" lon="6.18492">
        <ele>277.54</ele>
        <time>2015-12-02T09:45:13Z</time>
      </trkpt>
      <trkpt lat="47.72251" lon="6.18486">
        <ele>277.97</ele>
        <time>2015-12-02T09:45:15Z</time>
      </trkpt>
      <trkpt lat="47.72254" lon="6.18477">
        <ele>278.69</ele>
        <time>2015-12-02T09:45:18Z</time>
      </trkpt>
      <trkpt lat="47.72257" lon="6.18469">
        <ele>279.74</ele>
        <time>2015-12-02T09:45:21Z</time>
      </trkpt>
      <trkpt lat="47.72262" lon="6.18463">
        <ele>280.94</ele>
        <time>2015-12-02T09:45:24Z</time>
      </trkpt>
      <trkpt lat="47.72267" lon="6.18458">
        <ele>281.36</ele>
        <time>2015-12-02T09:45:27Z</time>
      </trkpt>
      <trkpt lat="47.72271" lon="6.18453">
        <ele>281.7</ele>
        <time>2015-12-02T09:45:30Z</time>
      </trkpt>
      <trkpt lat="47.72275" lon="6.1845">
        <ele>281.97</ele>
        <time>2015-12-02T09:45:33Z</time>
      </trkpt>
      <trkpt lat="47.7228" lon="6.18446">
        <ele>282.82</ele>
        <time>2015-12-02T09:45:36Z</time>
      </trkpt>
      <trkpt lat="47.72284" lon="6.18443">
        <ele>284.52</ele>
        <time>2015-12-02T09:45:39Z</time>
      </trkpt>
      <trkpt lat="47.72288" lon="6.18439">
        <ele>286.3</ele>
        <time>2015-12-02T09:45:42Z</time>
      </trkpt>
      <trkpt lat="47.72293" lon="6.18435">
        <ele>287.23</ele>
        <time>2015-12-02T09:45:45Z</time>
      </trkpt>
      <trkpt lat="47.72297" lon="6.18432">
        <ele>287.8</ele>
        <time>2015-12-02T09:45:47Z</time>
      </trkpt>
      <trkpt lat="47.72301" lon="6.18427">
        <ele>287.71</ele>
        <time>2015-12-02T09:45:49Z</time>
      </trkpt>
      <trkpt lat="47.72304" lon="6.18422">
        <ele>287.14</ele>
        <time>2015-12-02T09:45:51Z</time>
      </trkpt>
      <trkpt lat="47.72308" lon="6.18417">
        <ele>286.92</ele>
        <time>2015-12-02T09:45:53Z</time>
      </trkpt>
      <trkpt lat="47.72312" lon="6.18412">
        <ele>287.14</ele>
        <time>2015-12-02T09:45:55Z</time>
      </trkpt>
      <trkpt lat="47.72316" lon="6.18405">
        <ele>287.68</ele>
        <time>2015-12-02T09:45:58Z</time>
      </trkpt>
      <trkpt lat="47.7232" lon="6.18399">
        <ele>288.94</ele>
        <time>2015-12-02T09:46:01Z</time>
      </trkpt>
      <trkpt lat="47.72325" lon="6.18395">
        <ele>289.37</ele>
        <time>2015-12-02T09:46:04Z</time>
      </trkpt>
      <trkpt lat="47.72329" lon="6.18389">
        <ele>289.49</ele>
        <time>2015-12-02T09:46:07Z</time>
      </trkpt>
      <trkpt lat="47.72332" lon="6.18383">
        <ele>289.13</ele>
        <time>2015-12-02T09:46:10Z</time>
      </trkpt>
      <trkpt lat="47.72336" lon="6.18378">
        <ele>288.32</ele>
        <time>2015-12-02T09:46:13Z</time>
      </trkpt>
      <trkpt lat="47.72339" lon="6.18372">
        <ele>288.34</ele>
        <time>2015-12-02T09:46:16Z</time>
      </trkpt>
      <trkpt lat="47.72343" lon="6.18367">
        <ele>288.03</ele>
        <time>2015-12-02T09:46:20Z</time>
      </trkpt>
      <trkpt lat="47.72347" lon="6.18363">
        <ele>288.14</ele>
        <time>2015-12-02T09:46:23Z</time>
      </trkpt>
      <trkpt lat="47.72355" lon="6.18348">
        <ele>288.7</ele>
        <time>2015-12-02T09:46:32Z</time>
      </trkpt>
      <trkpt lat="47.72359" lon="6.18343">
        <ele>289.36</ele>
        <time>2015-12-02T09:46:35Z</time>
      </trkpt>
      <trkpt lat="47.72364" lon="6.18339">
        <ele>289.41</ele>
        <time>2015-12-02T09:46:38Z</time>
      </trkpt>
      <trkpt lat="47.72368" lon="6.18331">
        <ele>289.65</ele>
        <time>2015-12-02T09:46:41Z</time>
      </trkpt>
      <trkpt lat="47.72373" lon="6.18325">
        <ele>289.94</ele>
        <time>2015-12-02T09:46:44Z</time>
      </trkpt>
      <trkpt lat="47.72376" lon="6.1832">
        <ele>290.45</ele>
        <time>2015-12-02T09:46:46Z</time>
      </trkpt>
      <trkpt lat="47.72381" lon="6.18314">
        <ele>291.13</ele>
        <time>2015-12-02T09:46:49Z</time>
      </trkpt>
      <trkpt lat="47.72385" lon="6.18308">
        <ele>291.45</ele>
        <time>2015-12-02T09:46:52Z</time>
      </trkpt>
      <trkpt lat="47.7239" lon="6.18302">
        <ele>291.99</ele>
        <time>2015-12-02T09:46:55Z</time>
      </trkpt>
      <trkpt lat="47.72394" lon="6.18297">
        <ele>292.68</ele>
        <time>2015-12-02T09:46:58Z</time>
      </trkpt>
      <trkpt lat="47.72399" lon="6.18292">
        <ele>293.62</ele>
        <time>2015-12-02T09:47:01Z</time>
      </trkpt>
      <trkpt lat="47.72403" lon="6.18288">
        <ele>294.71</ele>
        <time>2015-12-02T09:47:04Z</time>
      </trkpt>
      <trkpt lat="47.72407" lon="6.18282">
        <ele>296.13</ele>
        <time>2015-12-02T09:47:07Z</time>
      </trkpt>
      <trkpt lat="47.7241" lon="6.18277">
        <ele>296.87</ele>
        <time>2015-12-02T09:47:10Z</time>
      </trkpt>
      <trkpt lat="47.72414" lon="6.18272">
        <ele>297.75</ele>
        <time>2015-12-02T09:47:13Z</time>
      </trkpt>
      <trkpt lat="47.72428" lon="6.18293">
        <ele>297.7</ele>
        <time>2015-12-02T09:48:10Z</time>
      </trkpt>
      <trkpt lat="47.72448" lon="6.1834">
        <ele>303.25</ele>
        <time>2015-12-02T09:49:23Z</time>
      </trkpt>
      <trkpt lat="47.7245" lon="6.18349">
        <ele>309.39</ele>
        <time>2015-12-02T09:49:33Z</time>
      </trkpt>
      <trkpt lat="47.72464" lon="6.18375">
        <ele>313.15</ele>
        <time>2015-12-02T09:50:06Z</time>
      </trkpt>
      <trkpt lat="47.72485" lon="6.18421">
        <ele>320.95</ele>
        <time>2015-12-02T09:51:19Z</time>
      </trkpt>
      <trkpt lat="47.72509" lon="6.18467">
        <ele>326.4</ele>
        <time>2015-12-02T09:52:07Z</time>
      </trkpt>
      <trkpt lat="47.7251" lon="6.18474">
        <ele>326.91</ele>
        <time>2015-12-02T09:52:10Z</time>
      </trkpt>
      <trkpt lat="47.72522" lon="6.18498">
        <ele>329.4</ele>
        <time>2015-12-02T09:52:22Z</time>
      </trkpt>
      <trkpt lat="47.72525" lon="6.18505">
        <ele>332.17</ele>
        <time>2015-12-02T09:52:25Z</time>
      </trkpt>
      <trkpt lat="47.72533" lon="6.18529">
        <ele>333.5</ele>
        <time>2015-12-02T09:52:35Z</time>
      </trkpt>
      <trkpt lat="47.72537" lon="6.18533">
        <ele>333.79</ele>
        <time>2015-12-02T09:52:37Z</time>
      </trkpt>
      <trkpt lat="47.72541" lon="6.1854">
        <ele>333.64</ele>
        <time>2015-12-02T09:52:40Z</time>
      </trkpt>
      <trkpt lat="47.72543" lon="6.18546">
        <ele>333.8</ele>
        <time>2015-12-02T09:52:43Z</time>
      </trkpt>
      <trkpt lat="47.72547" lon="6.1855">
        <ele>333.88</ele>
        <time>2015-12-02T09:52:46Z</time>
      </trkpt>
      <trkpt lat="47.72552" lon="6.18547">
        <ele>333.98</ele>
        <time>2015-12-02T09:52:49Z</time>
      </trkpt>
      <trkpt lat="47.72578" lon="6.18509">
        <ele>333.85</ele>
        <time>2015-12-02T09:53:26Z</time>
      </trkpt>
      <trkpt lat="47.72614" lon="6.18486">
        <ele>335.35</ele>
        <time>2015-12-02T09:54:10Z</time>
      </trkpt>
      <trkpt lat="47.7265" lon="6.18463">
        <ele>337.55</ele>
        <time>2015-12-02T09:54:51Z</time>
      </trkpt>
      <trkpt lat="47.72688" lon="6.18443">
        <ele>340.05</ele>
        <time>2015-12-02T09:55:35Z</time>
      </trkpt>
      <trkpt lat="47.72724" lon="6.18419">
        <ele>344</ele>
        <time>2015-12-02T09:56:12Z</time>
      </trkpt>
      <trkpt lat="47.7276" lon="6.18392">
        <ele>348.6</ele>
        <time>2015-12-02T09:56:51Z</time>
      </trkpt>
      <trkpt lat="47.72791" lon="6.18361">
        <ele>351.4</ele>
        <time>2015-12-02T09:58:32Z</time>
      </trkpt>
      <trkpt lat="47.72796" lon="6.18358">
        <ele>352.67</ele>
        <time>2015-12-02T09:58:35Z</time>
      </trkpt>
      <trkpt lat="47.72801" lon="6.18354">
        <ele>352.96</ele>
        <time>2015-12-02T09:58:39Z</time>
      </trkpt>
      <trkpt lat="47.72809" lon="6.18348">
        <ele>353.55</ele>
        <time>2015-12-02T09:58:45Z</time>
      </trkpt>
      <trkpt lat="47.72814" lon="6.18342">
        <ele>354.41</ele>
        <time>2015-12-02T09:58:48Z</time>
      </trkpt>
      <trkpt lat="47.72817" lon="6.18335">
        <ele>354.92</ele>
        <time>2015-12-02T09:58:51Z</time>
      </trkpt>
      <trkpt lat="47.72821" lon="6.1833">
        <ele>355.16</ele>
        <time>2015-12-02T09:58:54Z</time>
      </trkpt>
      <trkpt lat="47.72824" lon="6.18323">
        <ele>355.45</ele>
        <time>2015-12-02T09:58:58Z</time>
      </trkpt>
      <trkpt lat="47.72854" lon="6.18292">
        <ele>356.75</ele>
        <time>2015-12-02T09:59:25Z</time>
      </trkpt>
      <trkpt lat="47.72886" lon="6.18253">
        <ele>357.35</ele>
        <time>2015-12-02T09:59:54Z</time>
      </trkpt>
      <trkpt lat="47.72889" lon="6.18247">
        <ele>356.16</ele>
        <time>2015-12-02T09:59:58Z</time>
      </trkpt>
      <trkpt lat="47.72898" lon="6.18233">
        <ele>356.5</ele>
        <time>2015-12-02T10:00:07Z</time>
      </trkpt>
      <trkpt lat="47.7292" lon="6.18215">
        <ele>359.4</ele>
        <time>2015-12-02T10:00:24Z</time>
      </trkpt>
      <trkpt lat="47.72924" lon="6.18213">
        <ele>361.57</ele>
        <time>2015-12-02T10:00:27Z</time>
      </trkpt>
      <trkpt lat="47.72958" lon="6.18189">
        <ele>361.55</ele>
        <time>2015-12-02T10:01:08Z</time>
      </trkpt>
      <trkpt lat="47.72962" lon="6.18183">
        <ele>360.94</ele>
        <time>2015-12-02T10:01:11Z</time>
      </trkpt>
      <trkpt lat="47.72967" lon="6.18179">
        <ele>360.67</ele>
        <time>2015-12-02T10:01:14Z</time>
      </trkpt>
      <trkpt lat="47.72979" lon="6.18157">
        <ele>361.7</ele>
        <time>2015-12-02T10:01:28Z</time>
      </trkpt>
      <trkpt lat="47.72981" lon="6.18149">
        <ele>361.96</ele>
        <time>2015-12-02T10:01:30Z</time>
      </trkpt>
      <trkpt lat="47.72983" lon="6.18143">
        <ele>361.65</ele>
        <time>2015-12-02T10:01:32Z</time>
      </trkpt>
      <trkpt lat="47.72987" lon="6.18136">
        <ele>361.03</ele>
        <time>2015-12-02T10:01:35Z</time>
      </trkpt>
      <trkpt lat="47.72988" lon="6.18128">
        <ele>361.19</ele>
        <time>2015-12-02T10:01:37Z</time>
      </trkpt>
      <trkpt lat="47.72991" lon="6.18121">
        <ele>361.02</ele>
        <time>2015-12-02T10:01:40Z</time>
      </trkpt>
      <trkpt lat="47.72993" lon="6.18115">
        <ele>359.76</ele>
        <time>2015-12-02T10:01:43Z</time>
      </trkpt>
      <trkpt lat="47.72995" lon="6.18106">
        <ele>359.11</ele>
        <time>2015-12-02T10:01:46Z</time>
      </trkpt>
      <trkpt lat="47.72997" lon="6.18099">
        <ele>359.54</ele>
        <time>2015-12-02T10:01:48Z</time>
      </trkpt>
      <trkpt lat="47.72999" lon="6.18093">
        <ele>360</ele>
        <time>2015-12-02T10:01:50Z</time>
      </trkpt>
      <trkpt lat="47.73002" lon="6.18086">
        <ele>360.32</ele>
        <time>2015-12-02T10:01:53Z</time>
      </trkpt>
      <trkpt lat="47.73005" lon="6.18081">
        <ele>360.75</ele>
        <time>2015-12-02T10:01:56Z</time>
      </trkpt>
      <trkpt lat="47.73009" lon="6.18075">
        <ele>360.18</ele>
        <time>2015-12-02T10:02:00Z</time>
      </trkpt>
      <trkpt lat="47.73023" lon="6.1806">
        <ele>361.1</ele>
        <time>2015-12-02T10:02:11Z</time>
      </trkpt>
      <trkpt lat="47.73027" lon="6.18057">
        <ele>362.54</ele>
        <time>2015-12-02T10:02:13Z</time>
      </trkpt>
      <trkpt lat="47.73034" lon="6.18055">
        <ele>363.47</ele>
        <time>2015-12-02T10:02:16Z</time>
      </trkpt>
      <trkpt lat="47.73039" lon="6.1805">
        <ele>362.89</ele>
        <time>2015-12-02T10:02:20Z</time>
      </trkpt>
      <trkpt lat="47.73042" lon="6.18045">
        <ele>362.21</ele>
        <time>2015-12-02T10:02:23Z</time>
      </trkpt>
      <trkpt lat="47.73045" lon="6.18039">
        <ele>362.22</ele>
        <time>2015-12-02T10:02:27Z</time>
      </trkpt>
      <trkpt lat="47.7305" lon="6.18026">
        <ele>361.95</ele>
        <time>2015-12-02T10:02:34Z</time>
      </trkpt>
      <trkpt lat="47.73053" lon="6.1802">
        <ele>362.2</ele>
        <time>2015-12-02T10:02:37Z</time>
      </trkpt>
      <trkpt lat="47.7306" lon="6.1801">
        <ele>364.09</ele>
        <time>2015-12-02T10:02:42Z</time>
      </trkpt>
      <trkpt lat="47.73064" lon="6.18007">
        <ele>365.36</ele>
        <time>2015-12-02T10:02:44Z</time>
      </trkpt>
      <trkpt lat="47.73069" lon="6.18003">
        <ele>366.16</ele>
        <time>2015-12-02T10:02:47Z</time>
      </trkpt>
      <trkpt lat="47.73074" lon="6.18">
        <ele>366.03</ele>
        <time>2015-12-02T10:02:51Z</time>
      </trkpt>
      <trkpt lat="47.73078" lon="6.17993">
        <ele>365.76</ele>
        <time>2015-12-02T10:02:55Z</time>
      </trkpt>
      <trkpt lat="47.73082" lon="6.17987">
        <ele>365.88</ele>
        <time>2015-12-02T10:02:58Z</time>
      </trkpt>
      <trkpt lat="47.73085" lon="6.17979">
        <ele>366.12</ele>
        <time>2015-12-02T10:03:01Z</time>
      </trkpt>
      <trkpt lat="47.73091" lon="6.17977">
        <ele>365.86</ele>
        <time>2015-12-02T10:03:04Z</time>
      </trkpt>
      <trkpt lat="47.73094" lon="6.17972">
        <ele>365.84</ele>
        <time>2015-12-02T10:03:07Z</time>
      </trkpt>
      <trkpt lat="47.731" lon="6.17969">
        <ele>365.84</ele>
        <time>2015-12-02T10:03:11Z</time>
      </trkpt>
      <trkpt lat="47.73103" lon="6.17962">
        <ele>366.02</ele>
        <time>2015-12-02T10:03:15Z</time>
      </trkpt>
      <trkpt lat="47.73107" lon="6.17958">
        <ele>366.07</ele>
        <time>2015-12-02T10:03:18Z</time>
      </trkpt>
      <trkpt lat="47.73113" lon="6.17957">
        <ele>366.19</ele>
        <time>2015-12-02T10:03:21Z</time>
      </trkpt>
      <trkpt lat="47.73118" lon="6.17955">
        <ele>365.47</ele>
        <time>2015-12-02T10:03:24Z</time>
      </trkpt>
      <trkpt lat="47.73122" lon="6.17951">
        <ele>364.82</ele>
        <time>2015-12-02T10:03:27Z</time>
      </trkpt>
      <trkpt lat="47.73126" lon="6.17947">
        <ele>364.61</ele>
        <time>2015-12-02T10:03:30Z</time>
      </trkpt>
      <trkpt lat="47.73131" lon="6.17941">
        <ele>364.57</ele>
        <time>2015-12-02T10:03:33Z</time>
      </trkpt>
      <trkpt lat="47.73136" lon="6.17936">
        <ele>365.02</ele>
        <time>2015-12-02T10:03:36Z</time>
      </trkpt>
      <trkpt lat="47.7314" lon="6.17931">
        <ele>364.96</ele>
        <time>2015-12-02T10:03:39Z</time>
      </trkpt>
      <trkpt lat="47.73144" lon="6.17925">
        <ele>365.35</ele>
        <time>2015-12-02T10:03:42Z</time>
      </trkpt>
      <trkpt lat="47.73149" lon="6.17921">
        <ele>365.5</ele>
        <time>2015-12-02T10:03:45Z</time>
      </trkpt>
      <trkpt lat="47.73154" lon="6.17916">
        <ele>365.34</ele>
        <time>2015-12-02T10:03:48Z</time>
      </trkpt>
      <trkpt lat="47.73159" lon="6.17912">
        <ele>365.83</ele>
        <time>2015-12-02T10:03:51Z</time>
      </trkpt>
      <trkpt lat="47.73163" lon="6.17907">
        <ele>366.15</ele>
        <time>2015-12-02T10:03:54Z</time>
      </trkpt>
      <trkpt lat="47.73167" lon="6.17901">
        <ele>366.44</ele>
        <time>2015-12-02T10:03:57Z</time>
      </trkpt>
      <trkpt lat="47.73171" lon="6.17897">
        <ele>366.67</ele>
        <time>2015-12-02T10:04:00Z</time>
      </trkpt>
      <trkpt lat="47.73176" lon="6.17893">
        <ele>366.68</ele>
        <time>2015-12-02T10:04:03Z</time>
      </trkpt>
      <trkpt lat="47.7318" lon="6.17887">
        <ele>367.04</ele>
        <time>2015-12-02T10:04:06Z</time>
      </trkpt>
      <trkpt lat="47.73185" lon="6.17883">
        <ele>367.9</ele>
        <time>2015-12-02T10:04:09Z</time>
      </trkpt>
      <trkpt lat="47.7319" lon="6.1788">
        <ele>367.99</ele>
        <time>2015-12-02T10:04:12Z</time>
      </trkpt>
      <trkpt lat="47.73195" lon="6.17877">
        <ele>368.12</ele>
        <time>2015-12-02T10:04:15Z</time>
      </trkpt>
      <trkpt lat="47.73199" lon="6.17875">
        <ele>368.14</ele>
        <time>2015-12-02T10:04:17Z</time>
      </trkpt>
      <trkpt lat="47.73203" lon="6.17871">
        <ele>368.32</ele>
        <time>2015-12-02T10:04:19Z</time>
      </trkpt>
      <trkpt lat="47.73209" lon="6.17867">
        <ele>368.54</ele>
        <time>2015-12-02T10:04:22Z</time>
      </trkpt>
      <trkpt lat="47.73214" lon="6.17861">
        <ele>369.15</ele>
        <time>2015-12-02T10:04:25Z</time>
      </trkpt>
      <trkpt lat="47.73218" lon="6.17857">
        <ele>369.78</ele>
        <time>2015-12-02T10:04:27Z</time>
      </trkpt>
      <trkpt lat="47.73224" lon="6.17851">
        <ele>369.88</ele>
        <time>2015-12-02T10:04:30Z</time>
      </trkpt>
      <trkpt lat="47.73227" lon="6.17847">
        <ele>369.88</ele>
        <time>2015-12-02T10:04:32Z</time>
      </trkpt>
      <trkpt lat="47.73233" lon="6.17844">
        <ele>369.89</ele>
        <time>2015-12-02T10:04:35Z</time>
      </trkpt>
      <trkpt lat="47.73237" lon="6.17838">
        <ele>369.79</ele>
        <time>2015-12-02T10:04:38Z</time>
      </trkpt>
      <trkpt lat="47.7324" lon="6.17833">
        <ele>368.78</ele>
        <time>2015-12-02T10:04:41Z</time>
      </trkpt>
      <trkpt lat="47.73245" lon="6.17829">
        <ele>368.25</ele>
        <time>2015-12-02T10:04:44Z</time>
      </trkpt>
      <trkpt lat="47.7325" lon="6.17826">
        <ele>368.16</ele>
        <time>2015-12-02T10:04:47Z</time>
      </trkpt>
      <trkpt lat="47.73255" lon="6.17822">
        <ele>368.04</ele>
        <time>2015-12-02T10:04:50Z</time>
      </trkpt>
      <trkpt lat="47.7326" lon="6.17818">
        <ele>368.39</ele>
        <time>2015-12-02T10:04:53Z</time>
      </trkpt>
      <trkpt lat="47.73265" lon="6.17813">
        <ele>368.66</ele>
        <time>2015-12-02T10:04:56Z</time>
      </trkpt>
      <trkpt lat="47.73269" lon="6.17809">
        <ele>368.85</ele>
        <time>2015-12-02T10:04:59Z</time>
      </trkpt>
      <trkpt lat="47.73273" lon="6.17806">
        <ele>369.05</ele>
        <time>2015-12-02T10:05:01Z</time>
      </trkpt>
      <trkpt lat="47.73278" lon="6.17803">
        <ele>369.78</ele>
        <time>2015-12-02T10:05:03Z</time>
      </trkpt>
      <trkpt lat="47.73283" lon="6.17802">
        <ele>370.26</ele>
        <time>2015-12-02T10:05:05Z</time>
      </trkpt>
      <trkpt lat="47.73289" lon="6.17798">
        <ele>371.51</ele>
        <time>2015-12-02T10:05:08Z</time>
      </trkpt>
      <trkpt lat="47.73292" lon="6.17792">
        <ele>372.32</ele>
        <time>2015-12-02T10:05:11Z</time>
      </trkpt>
      <trkpt lat="47.73295" lon="6.17785">
        <ele>372.6</ele>
        <time>2015-12-02T10:05:14Z</time>
      </trkpt>
      <trkpt lat="47.73299" lon="6.1778">
        <ele>373.08</ele>
        <time>2015-12-02T10:05:17Z</time>
      </trkpt>
      <trkpt lat="47.73303" lon="6.17777">
        <ele>373.69</ele>
        <time>2015-12-02T10:05:20Z</time>
      </trkpt>
      <trkpt lat="47.73308" lon="6.17772">
        <ele>374.04</ele>
        <time>2015-12-02T10:05:23Z</time>
      </trkpt>
      <trkpt lat="47.73312" lon="6.17768">
        <ele>374.24</ele>
        <time>2015-12-02T10:05:26Z</time>
      </trkpt>
      <trkpt lat="47.73315" lon="6.17762">
        <ele>373.51</ele>
        <time>2015-12-02T10:05:29Z</time>
      </trkpt>
      <trkpt lat="47.7332" lon="6.17755">
        <ele>373.13</ele>
        <time>2015-12-02T10:05:32Z</time>
      </trkpt>
      <trkpt lat="47.73324" lon="6.17751">
        <ele>373.62</ele>
        <time>2015-12-02T10:05:34Z</time>
      </trkpt>
      <trkpt lat="47.73328" lon="6.17747">
        <ele>374.22</ele>
        <time>2015-12-02T10:05:36Z</time>
      </trkpt>
      <trkpt lat="47.73333" lon="6.17741">
        <ele>375.21</ele>
        <time>2015-12-02T10:05:39Z</time>
      </trkpt>
      <trkpt lat="47.73338" lon="6.17735">
        <ele>376.5</ele>
        <time>2015-12-02T10:05:42Z</time>
      </trkpt>
      <trkpt lat="47.73342" lon="6.1773">
        <ele>377.29</ele>
        <time>2015-12-02T10:05:45Z</time>
      </trkpt>
      <trkpt lat="47.73349" lon="6.17726">
        <ele>378.24</ele>
        <time>2015-12-02T10:05:48Z</time>
      </trkpt>
      <trkpt lat="47.73353" lon="6.17722">
        <ele>379.05</ele>
        <time>2015-12-02T10:05:50Z</time>
      </trkpt>
      <trkpt lat="47.73356" lon="6.17716">
        <ele>379.98</ele>
        <time>2015-12-02T10:05:53Z</time>
      </trkpt>
      <trkpt lat="47.73361" lon="6.17711">
        <ele>381.05</ele>
        <time>2015-12-02T10:05:56Z</time>
      </trkpt>
      <trkpt lat="47.73365" lon="6.17706">
        <ele>381.58</ele>
        <time>2015-12-02T10:05:59Z</time>
      </trkpt>
      <trkpt lat="47.73371" lon="6.17704">
        <ele>381.84</ele>
        <time>2015-12-02T10:06:02Z</time>
      </trkpt>
      <trkpt lat="47.73376" lon="6.177">
        <ele>381.84</ele>
        <time>2015-12-02T10:06:05Z</time>
      </trkpt>
      <trkpt lat="47.73379" lon="6.17695">
        <ele>381.34</ele>
        <time>2015-12-02T10:06:08Z</time>
      </trkpt>
      <trkpt lat="47.73383" lon="6.1769">
        <ele>381.4</ele>
        <time>2015-12-02T10:06:11Z</time>
      </trkpt>
      <trkpt lat="47.73388" lon="6.17684">
        <ele>381.97</ele>
        <time>2015-12-02T10:06:14Z</time>
      </trkpt>
      <trkpt lat="47.73393" lon="6.17679">
        <ele>382.87</ele>
        <time>2015-12-02T10:06:17Z</time>
      </trkpt>
      <trkpt lat="47.73396" lon="6.17673">
        <ele>383.4</ele>
        <time>2015-12-02T10:06:20Z</time>
      </trkpt>
      <trkpt lat="47.73401" lon="6.1767">
        <ele>384.41</ele>
        <time>2015-12-02T10:06:23Z</time>
      </trkpt>
      <trkpt lat="47.73405" lon="6.17664">
        <ele>385.01</ele>
        <time>2015-12-02T10:06:26Z</time>
      </trkpt>
      <trkpt lat="47.7341" lon="6.1766">
        <ele>385.41</ele>
        <time>2015-12-02T10:06:29Z</time>
      </trkpt>
      <trkpt lat="47.73415" lon="6.17655">
        <ele>385.73</ele>
        <time>2015-12-02T10:06:32Z</time>
      </trkpt>
      <trkpt lat="47.73419" lon="6.1765">
        <ele>386.17</ele>
        <time>2015-12-02T10:06:35Z</time>
      </trkpt>
      <trkpt lat="47.73423" lon="6.17645">
        <ele>386.22</ele>
        <time>2015-12-02T10:06:38Z</time>
      </trkpt>
      <trkpt lat="47.73428" lon="6.17639">
        <ele>386.46</ele>
        <time>2015-12-02T10:06:41Z</time>
      </trkpt>
      <trkpt lat="47.73434" lon="6.17636">
        <ele>386.13</ele>
        <time>2015-12-02T10:06:44Z</time>
      </trkpt>
      <trkpt lat="47.73437" lon="6.17631">
        <ele>385.54</ele>
        <time>2015-12-02T10:06:47Z</time>
      </trkpt>
      <trkpt lat="47.7344" lon="6.17626">
        <ele>385.11</ele>
        <time>2015-12-02T10:06:50Z</time>
      </trkpt>
      <trkpt lat="47.73445" lon="6.17623">
        <ele>385.38</ele>
        <time>2015-12-02T10:06:53Z</time>
      </trkpt>
      <trkpt lat="47.73449" lon="6.17617">
        <ele>385.43</ele>
        <time>2015-12-02T10:06:56Z</time>
      </trkpt>
      <trkpt lat="47.73454" lon="6.17612">
        <ele>385.81</ele>
        <time>2015-12-02T10:06:59Z</time>
      </trkpt>
      <trkpt lat="47.73457" lon="6.17606">
        <ele>386.11</ele>
        <time>2015-12-02T10:07:02Z</time>
      </trkpt>
      <trkpt lat="47.73462" lon="6.17604">
        <ele>387.3</ele>
        <time>2015-12-02T10:07:05Z</time>
      </trkpt>
      <trkpt lat="47.73467" lon="6.17598">
        <ele>387.7</ele>
        <time>2015-12-02T10:07:09Z</time>
      </trkpt>
      <trkpt lat="47.73471" lon="6.17595">
        <ele>387.39</ele>
        <time>2015-12-02T10:07:12Z</time>
      </trkpt>
      <trkpt lat="47.73476" lon="6.1759">
        <ele>386.98</ele>
        <time>2015-12-02T10:07:15Z</time>
      </trkpt>
      <trkpt lat="47.7348" lon="6.17585">
        <ele>386.94</ele>
        <time>2015-12-02T10:07:18Z</time>
      </trkpt>
      <trkpt lat="47.73484" lon="6.17579">
        <ele>386.47</ele>
        <time>2015-12-02T10:07:21Z</time>
      </trkpt>
      <trkpt lat="47.7349" lon="6.17575">
        <ele>386.8</ele>
        <time>2015-12-02T10:07:24Z</time>
      </trkpt>
      <trkpt lat="47.73495" lon="6.17571">
        <ele>387.4</ele>
        <time>2015-12-02T10:07:27Z</time>
      </trkpt>
      <trkpt lat="47.735" lon="6.17567">
        <ele>387.34</ele>
        <time>2015-12-02T10:07:30Z</time>
      </trkpt>
      <trkpt lat="47.73505" lon="6.17561">
        <ele>386.79</ele>
        <time>2015-12-02T10:07:33Z</time>
      </trkpt>
      <trkpt lat="47.73508" lon="6.17556">
        <ele>386.39</ele>
        <time>2015-12-02T10:07:36Z</time>
      </trkpt>
      <trkpt lat="47.73512" lon="6.17552">
        <ele>386.14</ele>
        <time>2015-12-02T10:07:39Z</time>
      </trkpt>
      <trkpt lat="47.73517" lon="6.17551">
        <ele>386.58</ele>
        <time>2015-12-02T10:07:42Z</time>
      </trkpt>
      <trkpt lat="47.73524" lon="6.17534">
        <ele>385.9</ele>
        <time>2015-12-02T10:13:39Z</time>
      </trkpt>
      <trkpt lat="47.7353" lon="6.17532">
        <ele>385.34</ele>
        <time>2015-12-02T10:13:41Z</time>
      </trkpt>
      <trkpt lat="47.73534" lon="6.17527">
        <ele>385.72</ele>
        <time>2015-12-02T10:13:43Z</time>
      </trkpt>
      <trkpt lat="47.73539" lon="6.17523">
        <ele>386.52</ele>
        <time>2015-12-02T10:13:45Z</time>
      </trkpt>
      <trkpt lat="47.73544" lon="6.1752">
        <ele>387.22</ele>
        <time>2015-12-02T10:13:47Z</time>
      </trkpt>
      <trkpt lat="47.73549" lon="6.17515">
        <ele>387.62</ele>
        <time>2015-12-02T10:13:49Z</time>
      </trkpt>
      <trkpt lat="47.73553" lon="6.1751">
        <ele>388.17</ele>
        <time>2015-12-02T10:13:51Z</time>
      </trkpt>
      <trkpt lat="47.73557" lon="6.17506">
        <ele>388.56</ele>
        <time>2015-12-02T10:13:53Z</time>
      </trkpt>
      <trkpt lat="47.73562" lon="6.17499">
        <ele>389.3</ele>
        <time>2015-12-02T10:13:55Z</time>
      </trkpt>
      <trkpt lat="47.73567" lon="6.17492">
        <ele>389.59</ele>
        <time>2015-12-02T10:13:57Z</time>
      </trkpt>
      <trkpt lat="47.73573" lon="6.17486">
        <ele>389.24</ele>
        <time>2015-12-02T10:13:59Z</time>
      </trkpt>
      <trkpt lat="47.7358" lon="6.17481">
        <ele>389.2</ele>
        <time>2015-12-02T10:14:01Z</time>
      </trkpt>
      <trkpt lat="47.73586" lon="6.17474">
        <ele>389.06</ele>
        <time>2015-12-02T10:14:03Z</time>
      </trkpt>
      <trkpt lat="47.73592" lon="6.17468">
        <ele>388.98</ele>
        <time>2015-12-02T10:14:05Z</time>
      </trkpt>
      <trkpt lat="47.73598" lon="6.1746">
        <ele>388.88</ele>
        <time>2015-12-02T10:14:07Z</time>
      </trkpt>
      <trkpt lat="47.73605" lon="6.17453">
        <ele>388.81</ele>
        <time>2015-12-02T10:14:09Z</time>
      </trkpt>
      <trkpt lat="47.73609" lon="6.17449">
        <ele>388.83</ele>
        <time>2015-12-02T10:14:10Z</time>
      </trkpt>
      <trkpt lat="47.73613" lon="6.17447">
        <ele>388.54</ele>
        <time>2015-12-02T10:14:11Z</time>
      </trkpt>
      <trkpt lat="47.73617" lon="6.17443">
        <ele>388.15</ele>
        <time>2015-12-02T10:14:12Z</time>
      </trkpt>
      <trkpt lat="47.73621" lon="6.17438">
        <ele>387.8</ele>
        <time>2015-12-02T10:14:13Z</time>
      </trkpt>
      <trkpt lat="47.73624" lon="6.17432">
        <ele>387.72</ele>
        <time>2015-12-02T10:14:14Z</time>
      </trkpt>
      <trkpt lat="47.73629" lon="6.17427">
        <ele>387.79</ele>
        <time>2015-12-02T10:14:15Z</time>
      </trkpt>
      <trkpt lat="47.73633" lon="6.17424">
        <ele>387.72</ele>
        <time>2015-12-02T10:14:16Z</time>
      </trkpt>
      <trkpt lat="47.73638" lon="6.17421">
        <ele>387.49</ele>
        <time>2015-12-02T10:14:17Z</time>
      </trkpt>
      <trkpt lat="47.73643" lon="6.17419">
        <ele>387.17</ele>
        <time>2015-12-02T10:14:18Z</time>
      </trkpt>
      <trkpt lat="47.73648" lon="6.17415">
        <ele>386.96</ele>
        <time>2015-12-02T10:14:19Z</time>
      </trkpt>
      <trkpt lat="47.73652" lon="6.1741">
        <ele>386.86</ele>
        <time>2015-12-02T10:14:20Z</time>
      </trkpt>
      <trkpt lat="47.73656" lon="6.17406">
        <ele>386.7</ele>
        <time>2015-12-02T10:14:21Z</time>
      </trkpt>
      <trkpt lat="47.7366" lon="6.17401">
        <ele>386.53</ele>
        <time>2015-12-02T10:14:22Z</time>
      </trkpt>
      <trkpt lat="47.73663" lon="6.17397">
        <ele>386.54</ele>
        <time>2015-12-02T10:14:23Z</time>
      </trkpt>
      <trkpt lat="47.73667" lon="6.17392">
        <ele>386.65</ele>
        <time>2015-12-02T10:14:24Z</time>
      </trkpt>
      <trkpt lat="47.73671" lon="6.17387">
        <ele>386.8</ele>
        <time>2015-12-02T10:14:25Z</time>
      </trkpt>
      <trkpt lat="47.73675" lon="6.17384">
        <ele>386.92</ele>
        <time>2015-12-02T10:14:26Z</time>
      </trkpt>
      <trkpt lat="47.73679" lon="6.17379">
        <ele>387.04</ele>
        <time>2015-12-02T10:14:27Z</time>
      </trkpt>
      <trkpt lat="47.73682" lon="6.17375">
        <ele>386.99</ele>
        <time>2015-12-02T10:14:28Z</time>
      </trkpt>
      <trkpt lat="47.73686" lon="6.17371">
        <ele>386.87</ele>
        <time>2015-12-02T10:14:29Z</time>
      </trkpt>
      <trkpt lat="47.7369" lon="6.17365">
        <ele>386.86</ele>
        <time>2015-12-02T10:14:30Z</time>
      </trkpt>
      <trkpt lat="47.73693" lon="6.17361">
        <ele>386.81</ele>
        <time>2015-12-02T10:14:31Z</time>
      </trkpt>
      <trkpt lat="47.73697" lon="6.17356">
        <ele>386.58</ele>
        <time>2015-12-02T10:14:32Z</time>
      </trkpt>
      <trkpt lat="47.737" lon="6.17352">
        <ele>386.21</ele>
        <time>2015-12-02T10:14:33Z</time>
      </trkpt>
      <trkpt lat="47.73705" lon="6.17349">
        <ele>386.03</ele>
        <time>2015-12-02T10:14:34Z</time>
      </trkpt>
      <trkpt lat="47.73709" lon="6.17346">
        <ele>385.94</ele>
        <time>2015-12-02T10:14:35Z</time>
      </trkpt>
      <trkpt lat="47.73713" lon="6.17342">
        <ele>386.05</ele>
        <time>2015-12-02T10:14:36Z</time>
      </trkpt>
      <trkpt lat="47.73721" lon="6.17338">
        <ele>386.2</ele>
        <time>2015-12-02T10:14:38Z</time>
      </trkpt>
      <trkpt lat="47.73727" lon="6.17331">
        <ele>386.26</ele>
        <time>2015-12-02T10:14:40Z</time>
      </trkpt>
      <trkpt lat="47.73734" lon="6.17325">
        <ele>385.8</ele>
        <time>2015-12-02T10:14:42Z</time>
      </trkpt>
      <trkpt lat="47.7374" lon="6.17317">
        <ele>385.26</ele>
        <time>2015-12-02T10:14:44Z</time>
      </trkpt>
      <trkpt lat="47.73745" lon="6.17308">
        <ele>384.95</ele>
        <time>2015-12-02T10:14:46Z</time>
      </trkpt>
      <trkpt lat="47.73753" lon="6.17303">
        <ele>385.1</ele>
        <time>2015-12-02T10:14:48Z</time>
      </trkpt>
      <trkpt lat="47.73758" lon="6.17295">
        <ele>385.54</ele>
        <time>2015-12-02T10:14:50Z</time>
      </trkpt>
      <trkpt lat="47.73762" lon="6.17286">
        <ele>385.9</ele>
        <time>2015-12-02T10:14:52Z</time>
      </trkpt>
      <trkpt lat="47.73765" lon="6.17279">
        <ele>385.66</ele>
        <time>2015-12-02T10:14:54Z</time>
      </trkpt>
      <trkpt lat="47.73767" lon="6.1727">
        <ele>385.65</ele>
        <time>2015-12-02T10:14:56Z</time>
      </trkpt>
      <trkpt lat="47.73769" lon="6.1726">
        <ele>385.73</ele>
        <time>2015-12-02T10:14:58Z</time>
      </trkpt>
      <trkpt lat="47.7377" lon="6.17251">
        <ele>386.34</ele>
        <time>2015-12-02T10:15:00Z</time>
      </trkpt>
      <trkpt lat="47.73772" lon="6.17242">
        <ele>386.82</ele>
        <time>2015-12-02T10:15:02Z</time>
      </trkpt>
      <trkpt lat="47.73772" lon="6.17232">
        <ele>386.97</ele>
        <time>2015-12-02T10:15:04Z</time>
      </trkpt>
      <trkpt lat="47.73773" lon="6.17225">
        <ele>386.68</ele>
        <time>2015-12-02T10:15:06Z</time>
      </trkpt>
      <trkpt lat="47.73774" lon="6.17216">
        <ele>386.46</ele>
        <time>2015-12-02T10:15:08Z</time>
      </trkpt>
      <trkpt lat="47.73775" lon="6.17207">
        <ele>386.48</ele>
        <time>2015-12-02T10:15:10Z</time>
      </trkpt>
      <trkpt lat="47.73776" lon="6.17199">
        <ele>386.51</ele>
        <time>2015-12-02T10:15:12Z</time>
      </trkpt>
      <trkpt lat="47.73777" lon="6.17189">
        <ele>386.34</ele>
        <time>2015-12-02T10:15:14Z</time>
      </trkpt>
      <trkpt lat="47.73778" lon="6.17181">
        <ele>385.7</ele>
        <time>2015-12-02T10:15:16Z</time>
      </trkpt>
      <trkpt lat="47.73778" lon="6.17171">
        <ele>384.81</ele>
        <time>2015-12-02T10:15:18Z</time>
      </trkpt>
      <trkpt lat="47.73781" lon="6.17163">
        <ele>383.62</ele>
        <time>2015-12-02T10:15:20Z</time>
      </trkpt>
      <trkpt lat="47.73781" lon="6.17153">
        <ele>382.87</ele>
        <time>2015-12-02T10:15:22Z</time>
      </trkpt>
      <trkpt lat="47.73783" lon="6.17144">
        <ele>382.56</ele>
        <time>2015-12-02T10:15:24Z</time>
      </trkpt>
      <trkpt lat="47.73785" lon="6.17137">
        <ele>382.2</ele>
        <time>2015-12-02T10:15:26Z</time>
      </trkpt>
      <trkpt lat="47.73787" lon="6.17129">
        <ele>382.09</ele>
        <time>2015-12-02T10:15:28Z</time>
      </trkpt>
      <trkpt lat="47.73787" lon="6.17121">
        <ele>382.11</ele>
        <time>2015-12-02T10:15:30Z</time>
      </trkpt>
      <trkpt lat="47.73788" lon="6.17113">
        <ele>382.42</ele>
        <time>2015-12-02T10:15:32Z</time>
      </trkpt>
      <trkpt lat="47.73791" lon="6.17106">
        <ele>382.42</ele>
        <time>2015-12-02T10:15:34Z</time>
      </trkpt>
      <trkpt lat="47.73792" lon="6.17097">
        <ele>383.09</ele>
        <time>2015-12-02T10:15:36Z</time>
      </trkpt>
      <trkpt lat="47.73792" lon="6.17087">
        <ele>384.36</ele>
        <time>2015-12-02T10:15:38Z</time>
      </trkpt>
      <trkpt lat="47.73793" lon="6.17078">
        <ele>385.45</ele>
        <time>2015-12-02T10:15:40Z</time>
      </trkpt>
      <trkpt lat="47.73794" lon="6.17069">
        <ele>386.08</ele>
        <time>2015-12-02T10:15:42Z</time>
      </trkpt>
      <trkpt lat="47.73795" lon="6.1706">
        <ele>386.41</ele>
        <time>2015-12-02T10:15:44Z</time>
      </trkpt>
      <trkpt lat="47.73794" lon="6.1705">
        <ele>386.49</ele>
        <time>2015-12-02T10:15:46Z</time>
      </trkpt>
      <trkpt lat="47.7379" lon="6.1704">
        <ele>386.74</ele>
        <time>2015-12-02T10:15:48Z</time>
      </trkpt>
      <trkpt lat="47.73784" lon="6.1703">
        <ele>387.07</ele>
        <time>2015-12-02T10:15:50Z</time>
      </trkpt>
      <trkpt lat="47.73777" lon="6.17022">
        <ele>387.16</ele>
        <time>2015-12-02T10:15:52Z</time>
      </trkpt>
      <trkpt lat="47.73772" lon="6.17015">
        <ele>386.73</ele>
        <time>2015-12-02T10:15:54Z</time>
      </trkpt>
      <trkpt lat="47.73767" lon="6.1701">
        <ele>386.1</ele>
        <time>2015-12-02T10:15:56Z</time>
      </trkpt>
      <trkpt lat="47.73762" lon="6.17003">
        <ele>386.04</ele>
        <time>2015-12-02T10:15:58Z</time>
      </trkpt>
      <trkpt lat="47.73758" lon="6.16994">
        <ele>386.2</ele>
        <time>2015-12-02T10:16:00Z</time>
      </trkpt>
      <trkpt lat="47.73754" lon="6.16986">
        <ele>386.14</ele>
        <time>2015-12-02T10:16:02Z</time>
      </trkpt>
      <trkpt lat="47.73749" lon="6.16979">
        <ele>386.6</ele>
        <time>2015-12-02T10:16:04Z</time>
      </trkpt>
      <trkpt lat="47.73745" lon="6.16972">
        <ele>386.69</ele>
        <time>2015-12-02T10:16:07Z</time>
      </trkpt>
      <trkpt lat="47.73741" lon="6.16968">
        <ele>386.43</ele>
        <time>2015-12-02T10:16:10Z</time>
      </trkpt>
      <trkpt lat="47.73739" lon="6.16962">
        <ele>386.15</ele>
        <time>2015-12-02T10:16:13Z</time>
      </trkpt>
      <trkpt lat="47.73735" lon="6.16955">
        <ele>386.83</ele>
        <time>2015-12-02T10:16:16Z</time>
      </trkpt>
      <trkpt lat="47.7373" lon="6.1695">
        <ele>386.93</ele>
        <time>2015-12-02T10:16:20Z</time>
      </trkpt>
      <trkpt lat="47.73726" lon="6.16943">
        <ele>387.2</ele>
        <time>2015-12-02T10:16:23Z</time>
      </trkpt>
      <trkpt lat="47.73722" lon="6.16937">
        <ele>387.62</ele>
        <time>2015-12-02T10:16:26Z</time>
      </trkpt>
      <trkpt lat="47.73718" lon="6.16931">
        <ele>387.87</ele>
        <time>2015-12-02T10:16:29Z</time>
      </trkpt>
      <trkpt lat="47.73714" lon="6.16925">
        <ele>388.63</ele>
        <time>2015-12-02T10:16:32Z</time>
      </trkpt>
      <trkpt lat="47.73711" lon="6.1692">
        <ele>388.84</ele>
        <time>2015-12-02T10:16:35Z</time>
      </trkpt>
      <trkpt lat="47.73708" lon="6.16915">
        <ele>388.71</ele>
        <time>2015-12-02T10:16:39Z</time>
      </trkpt>
      <trkpt lat="47.73704" lon="6.16909">
        <ele>389.07</ele>
        <time>2015-12-02T10:16:42Z</time>
      </trkpt>
      <trkpt lat="47.73701" lon="6.16904">
        <ele>389.58</ele>
        <time>2015-12-02T10:16:44Z</time>
      </trkpt>
      <trkpt lat="47.73698" lon="6.16898">
        <ele>389.66</ele>
        <time>2015-12-02T10:16:46Z</time>
      </trkpt>
      <trkpt lat="47.73695" lon="6.16893">
        <ele>390</ele>
        <time>2015-12-02T10:16:48Z</time>
      </trkpt>
      <trkpt lat="47.73692" lon="6.16886">
        <ele>390.69</ele>
        <time>2015-12-02T10:16:50Z</time>
      </trkpt>
      <trkpt lat="47.73689" lon="6.16879">
        <ele>391.39</ele>
        <time>2015-12-02T10:16:52Z</time>
      </trkpt>
      <trkpt lat="47.73686" lon="6.16873">
        <ele>392.46</ele>
        <time>2015-12-02T10:16:54Z</time>
      </trkpt>
      <trkpt lat="47.73682" lon="6.16868">
        <ele>394.08</ele>
        <time>2015-12-02T10:16:56Z</time>
      </trkpt>
      <trkpt lat="47.73678" lon="6.16862">
        <ele>395.83</ele>
        <time>2015-12-02T10:16:59Z</time>
      </trkpt>
      <trkpt lat="47.73675" lon="6.16856">
        <ele>396.57</ele>
        <time>2015-12-02T10:17:02Z</time>
      </trkpt>
      <trkpt lat="47.73671" lon="6.1685">
        <ele>396.3</ele>
        <time>2015-12-02T10:17:05Z</time>
      </trkpt>
      <trkpt lat="47.73667" lon="6.16845">
        <ele>395.71</ele>
        <time>2015-12-02T10:17:08Z</time>
      </trkpt>
      <trkpt lat="47.73664" lon="6.16839">
        <ele>395.44</ele>
        <time>2015-12-02T10:17:10Z</time>
      </trkpt>
      <trkpt lat="47.73659" lon="6.16831">
        <ele>395.5</ele>
        <time>2015-12-02T10:17:13Z</time>
      </trkpt>
      <trkpt lat="47.73656" lon="6.16826">
        <ele>395.56</ele>
        <time>2015-12-02T10:17:15Z</time>
      </trkpt>
      <trkpt lat="47.73653" lon="6.16821">
        <ele>395.8</ele>
        <time>2015-12-02T10:17:17Z</time>
      </trkpt>
      <trkpt lat="47.7365" lon="6.16815">
        <ele>396.19</ele>
        <time>2015-12-02T10:17:19Z</time>
      </trkpt>
      <trkpt lat="47.73647" lon="6.1681">
        <ele>396.44</ele>
        <time>2015-12-02T10:17:21Z</time>
      </trkpt>
      <trkpt lat="47.73645" lon="6.16803">
        <ele>396.82</ele>
        <time>2015-12-02T10:17:23Z</time>
      </trkpt>
      <trkpt lat="47.7364" lon="6.16798">
        <ele>397.32</ele>
        <time>2015-12-02T10:17:25Z</time>
      </trkpt>
      <trkpt lat="47.73637" lon="6.16792">
        <ele>397.99</ele>
        <time>2015-12-02T10:17:27Z</time>
      </trkpt>
      <trkpt lat="47.73633" lon="6.16785">
        <ele>399.11</ele>
        <time>2015-12-02T10:17:30Z</time>
      </trkpt>
      <trkpt lat="47.7363" lon="6.16779">
        <ele>399.56</ele>
        <time>2015-12-02T10:17:33Z</time>
      </trkpt>
      <trkpt lat="47.73627" lon="6.16772">
        <ele>399.36</ele>
        <time>2015-12-02T10:17:36Z</time>
      </trkpt>
      <trkpt lat="47.73624" lon="6.16764">
        <ele>399.15</ele>
        <time>2015-12-02T10:17:39Z</time>
      </trkpt>
      <trkpt lat="47.73622" lon="6.16758">
        <ele>399.5</ele>
        <time>2015-12-02T10:17:41Z</time>
      </trkpt>
      <trkpt lat="47.7362" lon="6.16751">
        <ele>399.59</ele>
        <time>2015-12-02T10:17:43Z</time>
      </trkpt>
      <trkpt lat="47.73618" lon="6.16742">
        <ele>399.63</ele>
        <time>2015-12-02T10:17:46Z</time>
      </trkpt>
      <trkpt lat="47.73616" lon="6.16736">
        <ele>399.72</ele>
        <time>2015-12-02T10:17:48Z</time>
      </trkpt>
      <trkpt lat="47.73614" lon="6.16728">
        <ele>400.07</ele>
        <time>2015-12-02T10:17:50Z</time>
      </trkpt>
      <trkpt lat="47.73612" lon="6.16722">
        <ele>400.63</ele>
        <time>2015-12-02T10:17:52Z</time>
      </trkpt>
      <trkpt lat="47.7361" lon="6.16713">
        <ele>400.8</ele>
        <time>2015-12-02T10:17:55Z</time>
      </trkpt>
      <trkpt lat="47.73608" lon="6.16706">
        <ele>401.09</ele>
        <time>2015-12-02T10:17:57Z</time>
      </trkpt>
      <trkpt lat="47.73605" lon="6.16697">
        <ele>401.61</ele>
        <time>2015-12-02T10:18:00Z</time>
      </trkpt>
      <trkpt lat="47.73603" lon="6.16688">
        <ele>402.47</ele>
        <time>2015-12-02T10:18:03Z</time>
      </trkpt>
      <trkpt lat="47.73601" lon="6.16678">
        <ele>402.77</ele>
        <time>2015-12-02T10:18:06Z</time>
      </trkpt>
      <trkpt lat="47.736" lon="6.16672">
        <ele>402.75</ele>
        <time>2015-12-02T10:18:08Z</time>
      </trkpt>
      <trkpt lat="47.73599" lon="6.16662">
        <ele>402.59</ele>
        <time>2015-12-02T10:18:11Z</time>
      </trkpt>
      <trkpt lat="47.73597" lon="6.16653">
        <ele>402.64</ele>
        <time>2015-12-02T10:18:14Z</time>
      </trkpt>
      <trkpt lat="47.73596" lon="6.16646">
        <ele>402.9</ele>
        <time>2015-12-02T10:18:16Z</time>
      </trkpt>
      <trkpt lat="47.73594" lon="6.16638">
        <ele>403.22</ele>
        <time>2015-12-02T10:18:19Z</time>
      </trkpt>
      <trkpt lat="47.73593" lon="6.1663">
        <ele>403.28</ele>
        <time>2015-12-02T10:18:22Z</time>
      </trkpt>
      <trkpt lat="47.73591" lon="6.16624">
        <ele>403.26</ele>
        <time>2015-12-02T10:18:24Z</time>
      </trkpt>
      <trkpt lat="47.73588" lon="6.16616">
        <ele>403.29</ele>
        <time>2015-12-02T10:18:27Z</time>
      </trkpt>
      <trkpt lat="47.73584" lon="6.16607">
        <ele>404.06</ele>
        <time>2015-12-02T10:18:30Z</time>
      </trkpt>
      <trkpt lat="47.73582" lon="6.16599">
        <ele>404.03</ele>
        <time>2015-12-02T10:18:32Z</time>
      </trkpt>
      <trkpt lat="47.73581" lon="6.1659">
        <ele>404.17</ele>
        <time>2015-12-02T10:18:35Z</time>
      </trkpt>
      <trkpt lat="47.73579" lon="6.16581">
        <ele>404.08</ele>
        <time>2015-12-02T10:18:37Z</time>
      </trkpt>
      <trkpt lat="47.73579" lon="6.16574">
        <ele>404.18</ele>
        <time>2015-12-02T10:18:39Z</time>
      </trkpt>
      <trkpt lat="47.73576" lon="6.16565">
        <ele>404.48</ele>
        <time>2015-12-02T10:19:09Z</time>
      </trkpt>
      <trkpt lat="47.73575" lon="6.16558">
        <ele>404.31</ele>
        <time>2015-12-02T10:19:11Z</time>
      </trkpt>
      <trkpt lat="47.73573" lon="6.16548">
        <ele>404.82</ele>
        <time>2015-12-02T10:19:13Z</time>
      </trkpt>
      <trkpt lat="47.7357" lon="6.1654">
        <ele>405.27</ele>
        <time>2015-12-02T10:19:15Z</time>
      </trkpt>
      <trkpt lat="47.73568" lon="6.16533">
        <ele>405.38</ele>
        <time>2015-12-02T10:19:17Z</time>
      </trkpt>
      <trkpt lat="47.73567" lon="6.16525">
        <ele>405.33</ele>
        <time>2015-12-02T10:19:19Z</time>
      </trkpt>
      <trkpt lat="47.73566" lon="6.16518">
        <ele>405.15</ele>
        <time>2015-12-02T10:19:21Z</time>
      </trkpt>
      <trkpt lat="47.73563" lon="6.16511">
        <ele>404.8</ele>
        <time>2015-12-02T10:19:23Z</time>
      </trkpt>
      <trkpt lat="47.73561" lon="6.16505">
        <ele>404.41</ele>
        <time>2015-12-02T10:19:25Z</time>
      </trkpt>
      <trkpt lat="47.73559" lon="6.16498">
        <ele>404.29</ele>
        <time>2015-12-02T10:19:27Z</time>
      </trkpt>
      <trkpt lat="47.73557" lon="6.1649">
        <ele>404.41</ele>
        <time>2015-12-02T10:19:29Z</time>
      </trkpt>
      <trkpt lat="47.73557" lon="6.16482">
        <ele>404.14</ele>
        <time>2015-12-02T10:19:31Z</time>
      </trkpt>
      <trkpt lat="47.73556" lon="6.16473">
        <ele>403.97</ele>
        <time>2015-12-02T10:19:33Z</time>
      </trkpt>
      <trkpt lat="47.73553" lon="6.16464">
        <ele>403.43</ele>
        <time>2015-12-02T10:19:35Z</time>
      </trkpt>
      <trkpt lat="47.73551" lon="6.16452">
        <ele>402.72</ele>
        <time>2015-12-02T10:19:37Z</time>
      </trkpt>
      <trkpt lat="47.73549" lon="6.16442">
        <ele>401.97</ele>
        <time>2015-12-02T10:19:39Z</time>
      </trkpt>
      <trkpt lat="47.73548" lon="6.16432">
        <ele>400.91</ele>
        <time>2015-12-02T10:19:41Z</time>
      </trkpt>
      <trkpt lat="47.73547" lon="6.16421">
        <ele>400.31</ele>
        <time>2015-12-02T10:19:43Z</time>
      </trkpt>
      <trkpt lat="47.73547" lon="6.16408">
        <ele>399.62</ele>
        <time>2015-12-02T10:19:45Z</time>
      </trkpt>
      <trkpt lat="47.73549" lon="6.16395">
        <ele>398.94</ele>
        <time>2015-12-02T10:19:47Z</time>
      </trkpt>
      <trkpt lat="47.73553" lon="6.16382">
        <ele>398.45</ele>
        <time>2015-12-02T10:19:49Z</time>
      </trkpt>
      <trkpt lat="47.73555" lon="6.16375">
        <ele>398.35</ele>
        <time>2015-12-02T10:19:50Z</time>
      </trkpt>
      <trkpt lat="47.73558" lon="6.16369">
        <ele>398.25</ele>
        <time>2015-12-02T10:19:51Z</time>
      </trkpt>
      <trkpt lat="47.7356" lon="6.16362">
        <ele>398.15</ele>
        <time>2015-12-02T10:19:52Z</time>
      </trkpt>
      <trkpt lat="47.73564" lon="6.16355">
        <ele>397.95</ele>
        <time>2015-12-02T10:19:53Z</time>
      </trkpt>
      <trkpt lat="47.73567" lon="6.16348">
        <ele>397.45</ele>
        <time>2015-12-02T10:19:54Z</time>
      </trkpt>
      <trkpt lat="47.73571" lon="6.16341">
        <ele>397</ele>
        <time>2015-12-02T10:19:55Z</time>
      </trkpt>
      <trkpt lat="47.73574" lon="6.16334">
        <ele>396.73</ele>
        <time>2015-12-02T10:19:56Z</time>
      </trkpt>
      <trkpt lat="47.73578" lon="6.16327">
        <ele>396.39</ele>
        <time>2015-12-02T10:19:57Z</time>
      </trkpt>
      <trkpt lat="47.73581" lon="6.16321">
        <ele>395.77</ele>
        <time>2015-12-02T10:19:58Z</time>
      </trkpt>
      <trkpt lat="47.73585" lon="6.16314">
        <ele>395.26</ele>
        <time>2015-12-02T10:19:59Z</time>
      </trkpt>
      <trkpt lat="47.73588" lon="6.16306">
        <ele>394.76</ele>
        <time>2015-12-02T10:20:00Z</time>
      </trkpt>
      <trkpt lat="47.73591" lon="6.16298">
        <ele>394.4</ele>
        <time>2015-12-02T10:20:01Z</time>
      </trkpt>
      <trkpt lat="47.73595" lon="6.1629">
        <ele>394.03</ele>
        <time>2015-12-02T10:20:02Z</time>
      </trkpt>
      <trkpt lat="47.73598" lon="6.16284">
        <ele>393.79</ele>
        <time>2015-12-02T10:20:03Z</time>
      </trkpt>
      <trkpt lat="47.73601" lon="6.16278">
        <ele>393.72</ele>
        <time>2015-12-02T10:20:04Z</time>
      </trkpt>
      <trkpt lat="47.73606" lon="6.1627">
        <ele>393.07</ele>
        <time>2015-12-02T10:20:06Z</time>
      </trkpt>
      <trkpt lat="47.7361" lon="6.16262">
        <ele>392.61</ele>
        <time>2015-12-02T10:20:08Z</time>
      </trkpt>
      <trkpt lat="47.73614" lon="6.16254">
        <ele>392.51</ele>
        <time>2015-12-02T10:20:10Z</time>
      </trkpt>
      <trkpt lat="47.73618" lon="6.16246">
        <ele>391.94</ele>
        <time>2015-12-02T10:20:12Z</time>
      </trkpt>
      <trkpt lat="47.73622" lon="6.16237">
        <ele>391.65</ele>
        <time>2015-12-02T10:20:14Z</time>
      </trkpt>
      <trkpt lat="47.73626" lon="6.16228">
        <ele>391.4</ele>
        <time>2015-12-02T10:20:16Z</time>
      </trkpt>
      <trkpt lat="47.73631" lon="6.16219">
        <ele>391.36</ele>
        <time>2015-12-02T10:20:18Z</time>
      </trkpt>
      <trkpt lat="47.73635" lon="6.16209">
        <ele>391.08</ele>
        <time>2015-12-02T10:20:20Z</time>
      </trkpt>
      <trkpt lat="47.7364" lon="6.16198">
        <ele>390.88</ele>
        <time>2015-12-02T10:20:22Z</time>
      </trkpt>
      <trkpt lat="47.73643" lon="6.16191">
        <ele>390.92</ele>
        <time>2015-12-02T10:20:23Z</time>
      </trkpt>
      <trkpt lat="47.73645" lon="6.16184">
        <ele>390.93</ele>
        <time>2015-12-02T10:20:24Z</time>
      </trkpt>
      <trkpt lat="47.73648" lon="6.16178">
        <ele>390.89</ele>
        <time>2015-12-02T10:20:25Z</time>
      </trkpt>
      <trkpt lat="47.73652" lon="6.16168">
        <ele>390.54</ele>
        <time>2015-12-02T10:20:27Z</time>
      </trkpt>
      <trkpt lat="47.73656" lon="6.1616">
        <ele>390.67</ele>
        <time>2015-12-02T10:20:29Z</time>
      </trkpt>
      <trkpt lat="47.7366" lon="6.16151">
        <ele>391.16</ele>
        <time>2015-12-02T10:20:31Z</time>
      </trkpt>
      <trkpt lat="47.73663" lon="6.16142">
        <ele>391.65</ele>
        <time>2015-12-02T10:20:33Z</time>
      </trkpt>
      <trkpt lat="47.73666" lon="6.16134">
        <ele>392.23</ele>
        <time>2015-12-02T10:20:35Z</time>
      </trkpt>
      <trkpt lat="47.7367" lon="6.16123">
        <ele>393.54</ele>
        <time>2015-12-02T10:20:37Z</time>
      </trkpt>
      <trkpt lat="47.73675" lon="6.16115">
        <ele>394.65</ele>
        <time>2015-12-02T10:20:39Z</time>
      </trkpt>
      <trkpt lat="47.73678" lon="6.16108">
        <ele>395.35</ele>
        <time>2015-12-02T10:20:41Z</time>
      </trkpt>
      <trkpt lat="47.73681" lon="6.16101">
        <ele>396.38</ele>
        <time>2015-12-02T10:20:43Z</time>
      </trkpt>
      <trkpt lat="47.73683" lon="6.16093">
        <ele>397.83</ele>
        <time>2015-12-02T10:20:45Z</time>
      </trkpt>
      <trkpt lat="47.73686" lon="6.16087">
        <ele>398.27</ele>
        <time>2015-12-02T10:20:47Z</time>
      </trkpt>
      <trkpt lat="47.73689" lon="6.1608">
        <ele>398.33</ele>
        <time>2015-12-02T10:20:49Z</time>
      </trkpt>
      <trkpt lat="47.73692" lon="6.16073">
        <ele>398.72</ele>
        <time>2015-12-02T10:20:51Z</time>
      </trkpt>
      <trkpt lat="47.73695" lon="6.16066">
        <ele>398.99</ele>
        <time>2015-12-02T10:20:53Z</time>
      </trkpt>
      <trkpt lat="47.73697" lon="6.1606">
        <ele>399.01</ele>
        <time>2015-12-02T10:20:55Z</time>
      </trkpt>
      <trkpt lat="47.73699" lon="6.16053">
        <ele>398.79</ele>
        <time>2015-12-02T10:20:57Z</time>
      </trkpt>
      <trkpt lat="47.73702" lon="6.16047">
        <ele>398.41</ele>
        <time>2015-12-02T10:20:59Z</time>
      </trkpt>
      <trkpt lat="47.73705" lon="6.16041">
        <ele>398.14</ele>
        <time>2015-12-02T10:21:01Z</time>
      </trkpt>
      <trkpt lat="47.73707" lon="6.16035">
        <ele>397.45</ele>
        <time>2015-12-02T10:21:03Z</time>
      </trkpt>
      <trkpt lat="47.7371" lon="6.16029">
        <ele>396.98</ele>
        <time>2015-12-02T10:21:05Z</time>
      </trkpt>
      <trkpt lat="47.73713" lon="6.16021">
        <ele>397.03</ele>
        <time>2015-12-02T10:21:07Z</time>
      </trkpt>
      <trkpt lat="47.73716" lon="6.16015">
        <ele>397.22</ele>
        <time>2015-12-02T10:21:09Z</time>
      </trkpt>
      <trkpt lat="47.73719" lon="6.16007">
        <ele>397.49</ele>
        <time>2015-12-02T10:21:11Z</time>
      </trkpt>
      <trkpt lat="47.73723" lon="6.15999">
        <ele>397.46</ele>
        <time>2015-12-02T10:21:13Z</time>
      </trkpt>
      <trkpt lat="47.73726" lon="6.15992">
        <ele>397.25</ele>
        <time>2015-12-02T10:21:15Z</time>
      </trkpt>
      <trkpt lat="47.73729" lon="6.15985">
        <ele>396.65</ele>
        <time>2015-12-02T10:21:17Z</time>
      </trkpt>
      <trkpt lat="47.73732" lon="6.15978">
        <ele>396.13</ele>
        <time>2015-12-02T10:21:19Z</time>
      </trkpt>
      <trkpt lat="47.73736" lon="6.1597">
        <ele>395.69</ele>
        <time>2015-12-02T10:21:21Z</time>
      </trkpt>
      <trkpt lat="47.7374" lon="6.15963">
        <ele>395.24</ele>
        <time>2015-12-02T10:21:23Z</time>
      </trkpt>
      <trkpt lat="47.73744" lon="6.15955">
        <ele>394.77</ele>
        <time>2015-12-02T10:21:25Z</time>
      </trkpt>
      <trkpt lat="47.73748" lon="6.15946">
        <ele>394.21</ele>
        <time>2015-12-02T10:21:27Z</time>
      </trkpt>
      <trkpt lat="47.73753" lon="6.15937">
        <ele>393.84</ele>
        <time>2015-12-02T10:21:29Z</time>
      </trkpt>
      <trkpt lat="47.73757" lon="6.15926">
        <ele>393.95</ele>
        <time>2015-12-02T10:21:31Z</time>
      </trkpt>
      <trkpt lat="47.73761" lon="6.15916">
        <ele>393.85</ele>
        <time>2015-12-02T10:21:33Z</time>
      </trkpt>
      <trkpt lat="47.73763" lon="6.1591">
        <ele>393.8</ele>
        <time>2015-12-02T10:21:34Z</time>
      </trkpt>
      <trkpt lat="47.73766" lon="6.15903">
        <ele>393.68</ele>
        <time>2015-12-02T10:21:35Z</time>
      </trkpt>
      <trkpt lat="47.73768" lon="6.15895">
        <ele>393.36</ele>
        <time>2015-12-02T10:21:36Z</time>
      </trkpt>
      <trkpt lat="47.73771" lon="6.15888">
        <ele>392.91</ele>
        <time>2015-12-02T10:21:37Z</time>
      </trkpt>
      <trkpt lat="47.73773" lon="6.15879">
        <ele>392.58</ele>
        <time>2015-12-02T10:21:38Z</time>
      </trkpt>
      <trkpt lat="47.73775" lon="6.1587">
        <ele>392.27</ele>
        <time>2015-12-02T10:21:39Z</time>
      </trkpt>
      <trkpt lat="47.73776" lon="6.15862">
        <ele>391.56</ele>
        <time>2015-12-02T10:21:40Z</time>
      </trkpt>
      <trkpt lat="47.73777" lon="6.15853">
        <ele>391</ele>
        <time>2015-12-02T10:21:41Z</time>
      </trkpt>
      <trkpt lat="47.73778" lon="6.15844">
        <ele>390.48</ele>
        <time>2015-12-02T10:21:42Z</time>
      </trkpt>
      <trkpt lat="47.73778" lon="6.15836">
        <ele>389.96</ele>
        <time>2015-12-02T10:21:43Z</time>
      </trkpt>
      <trkpt lat="47.73779" lon="6.15827">
        <ele>389.51</ele>
        <time>2015-12-02T10:21:44Z</time>
      </trkpt>
      <trkpt lat="47.73779" lon="6.15819">
        <ele>389.08</ele>
        <time>2015-12-02T10:21:45Z</time>
      </trkpt>
      <trkpt lat="47.73777" lon="6.15806">
        <ele>387.41</ele>
        <time>2015-12-02T10:21:47Z</time>
      </trkpt>
      <trkpt lat="47.73777" lon="6.15799">
        <ele>387.18</ele>
        <time>2015-12-02T10:21:48Z</time>
      </trkpt>
      <trkpt lat="47.73776" lon="6.15788">
        <ele>386.68</ele>
        <time>2015-12-02T10:21:50Z</time>
      </trkpt>
      <trkpt lat="47.73775" lon="6.15778">
        <ele>386.41</ele>
        <time>2015-12-02T10:21:52Z</time>
      </trkpt>
      <trkpt lat="47.73774" lon="6.1577">
        <ele>386.19</ele>
        <time>2015-12-02T10:21:54Z</time>
      </trkpt>
      <trkpt lat="47.73774" lon="6.15764">
        <ele>385.66</ele>
        <time>2015-12-02T10:21:56Z</time>
      </trkpt>
      <trkpt lat="47.73774" lon="6.15757">
        <ele>385.28</ele>
        <time>2015-12-02T10:21:58Z</time>
      </trkpt>
      <trkpt lat="47.73774" lon="6.15749">
        <ele>385.21</ele>
        <time>2015-12-02T10:22:00Z</time>
      </trkpt>
      <trkpt lat="47.73774" lon="6.15742">
        <ele>385.44</ele>
        <time>2015-12-02T10:22:02Z</time>
      </trkpt>
      <trkpt lat="47.73773" lon="6.15735">
        <ele>385.9</ele>
        <time>2015-12-02T10:22:04Z</time>
      </trkpt>
      <trkpt lat="47.73772" lon="6.15728">
        <ele>386.49</ele>
        <time>2015-12-02T10:22:06Z</time>
      </trkpt>
      <trkpt lat="47.73772" lon="6.15718">
        <ele>386.88</ele>
        <time>2015-12-02T10:22:09Z</time>
      </trkpt>
      <trkpt lat="47.73772" lon="6.1571">
        <ele>386.83</ele>
        <time>2015-12-02T10:22:12Z</time>
      </trkpt>
      <trkpt lat="47.73772" lon="6.15702">
        <ele>386.49</ele>
        <time>2015-12-02T10:22:15Z</time>
      </trkpt>
      <trkpt lat="47.73771" lon="6.15693">
        <ele>386.47</ele>
        <time>2015-12-02T10:22:18Z</time>
      </trkpt>
      <trkpt lat="47.73771" lon="6.15685">
        <ele>386.76</ele>
        <time>2015-12-02T10:22:20Z</time>
      </trkpt>
      <trkpt lat="47.7377" lon="6.15677">
        <ele>387.05</ele>
        <time>2015-12-02T10:22:22Z</time>
      </trkpt>
      <trkpt lat="47.73769" lon="6.15669">
        <ele>387.13</ele>
        <time>2015-12-02T10:22:24Z</time>
      </trkpt>
      <trkpt lat="47.73768" lon="6.15661">
        <ele>387.52</ele>
        <time>2015-12-02T10:22:26Z</time>
      </trkpt>
      <trkpt lat="47.73767" lon="6.15652">
        <ele>388.02</ele>
        <time>2015-12-02T10:22:28Z</time>
      </trkpt>
      <trkpt lat="47.73766" lon="6.15644">
        <ele>388.42</ele>
        <time>2015-12-02T10:22:30Z</time>
      </trkpt>
      <trkpt lat="47.73766" lon="6.15637">
        <ele>388.47</ele>
        <time>2015-12-02T10:22:32Z</time>
      </trkpt>
      <trkpt lat="47.73764" lon="6.15631">
        <ele>388.58</ele>
        <time>2015-12-02T10:22:34Z</time>
      </trkpt>
      <trkpt lat="47.73762" lon="6.15621">
        <ele>388.29</ele>
        <time>2015-12-02T10:22:37Z</time>
      </trkpt>
      <trkpt lat="47.73763" lon="6.15614">
        <ele>388.06</ele>
        <time>2015-12-02T10:22:39Z</time>
      </trkpt>
      <trkpt lat="47.73762" lon="6.15607">
        <ele>388</ele>
        <time>2015-12-02T10:22:41Z</time>
      </trkpt>
      <trkpt lat="47.7376" lon="6.15601">
        <ele>388.26</ele>
        <time>2015-12-02T10:22:43Z</time>
      </trkpt>
      <trkpt lat="47.73758" lon="6.15594">
        <ele>388.8</ele>
        <time>2015-12-02T10:22:45Z</time>
      </trkpt>
      <trkpt lat="47.73756" lon="6.15586">
        <ele>389.34</ele>
        <time>2015-12-02T10:22:47Z</time>
      </trkpt>
      <trkpt lat="47.73755" lon="6.15578">
        <ele>389.7</ele>
        <time>2015-12-02T10:22:49Z</time>
      </trkpt>
      <trkpt lat="47.73754" lon="6.15568">
        <ele>390.14</ele>
        <time>2015-12-02T10:22:51Z</time>
      </trkpt>
      <trkpt lat="47.73752" lon="6.15559">
        <ele>390.62</ele>
        <time>2015-12-02T10:22:53Z</time>
      </trkpt>
      <trkpt lat="47.7375" lon="6.1555">
        <ele>391.04</ele>
        <time>2015-12-02T10:22:55Z</time>
      </trkpt>
      <trkpt lat="47.73748" lon="6.15542">
        <ele>391.5</ele>
        <time>2015-12-02T10:22:57Z</time>
      </trkpt>
      <trkpt lat="47.73746" lon="6.15534">
        <ele>391.84</ele>
        <time>2015-12-02T10:22:59Z</time>
      </trkpt>
      <trkpt lat="47.73744" lon="6.15527">
        <ele>391.97</ele>
        <time>2015-12-02T10:23:01Z</time>
      </trkpt>
      <trkpt lat="47.73741" lon="6.1552">
        <ele>392.11</ele>
        <time>2015-12-02T10:23:03Z</time>
      </trkpt>
      <trkpt lat="47.73739" lon="6.15513">
        <ele>392.19</ele>
        <time>2015-12-02T10:23:05Z</time>
      </trkpt>
      <trkpt lat="47.73737" lon="6.15506">
        <ele>392.46</ele>
        <time>2015-12-02T10:23:07Z</time>
      </trkpt>
      <trkpt lat="47.73735" lon="6.15499">
        <ele>392.6</ele>
        <time>2015-12-02T10:23:09Z</time>
      </trkpt>
      <trkpt lat="47.73733" lon="6.15493">
        <ele>392.74</ele>
        <time>2015-12-02T10:23:11Z</time>
      </trkpt>
      <trkpt lat="47.7373" lon="6.15485">
        <ele>392.65</ele>
        <time>2015-12-02T10:23:13Z</time>
      </trkpt>
      <trkpt lat="47.73727" lon="6.15477">
        <ele>392.38</ele>
        <time>2015-12-02T10:23:15Z</time>
      </trkpt>
      <trkpt lat="47.73723" lon="6.15467">
        <ele>392.48</ele>
        <time>2015-12-02T10:23:17Z</time>
      </trkpt>
      <trkpt lat="47.73718" lon="6.15457">
        <ele>392.93</ele>
        <time>2015-12-02T10:23:19Z</time>
      </trkpt>
      <trkpt lat="47.73711" lon="6.15447">
        <ele>393.45</ele>
        <time>2015-12-02T10:23:21Z</time>
      </trkpt>
      <trkpt lat="47.73708" lon="6.15442">
        <ele>393.6</ele>
        <time>2015-12-02T10:23:22Z</time>
      </trkpt>
      <trkpt lat="47.73702" lon="6.15434">
        <ele>392.76</ele>
        <time>2015-12-02T10:23:24Z</time>
      </trkpt>
      <trkpt lat="47.73698" lon="6.15429">
        <ele>392.36</ele>
        <time>2015-12-02T10:23:25Z</time>
      </trkpt>
      <trkpt lat="47.73694" lon="6.15424">
        <ele>392.05</ele>
        <time>2015-12-02T10:23:26Z</time>
      </trkpt>
      <trkpt lat="47.73689" lon="6.1542">
        <ele>391.65</ele>
        <time>2015-12-02T10:23:27Z</time>
      </trkpt>
      <trkpt lat="47.73685" lon="6.15417">
        <ele>391.1</ele>
        <time>2015-12-02T10:23:28Z</time>
      </trkpt>
      <trkpt lat="47.7368" lon="6.15414">
        <ele>390.43</ele>
        <time>2015-12-02T10:23:29Z</time>
      </trkpt>
      <trkpt lat="47.73676" lon="6.15411">
        <ele>389.84</ele>
        <time>2015-12-02T10:23:30Z</time>
      </trkpt>
      <trkpt lat="47.73671" lon="6.15407">
        <ele>389.34</ele>
        <time>2015-12-02T10:23:31Z</time>
      </trkpt>
      <trkpt lat="47.73666" lon="6.15404">
        <ele>388.85</ele>
        <time>2015-12-02T10:23:32Z</time>
      </trkpt>
      <trkpt lat="47.7366" lon="6.15401">
        <ele>388.4</ele>
        <time>2015-12-02T10:23:33Z</time>
      </trkpt>
      <trkpt lat="47.73655" lon="6.15397">
        <ele>388.03</ele>
        <time>2015-12-02T10:23:34Z</time>
      </trkpt>
      <trkpt lat="47.73649" lon="6.15393">
        <ele>387.64</ele>
        <time>2015-12-02T10:23:35Z</time>
      </trkpt>
      <trkpt lat="47.73643" lon="6.15388">
        <ele>387.24</ele>
        <time>2015-12-02T10:23:36Z</time>
      </trkpt>
      <trkpt lat="47.73637" lon="6.15383">
        <ele>386.8</ele>
        <time>2015-12-02T10:23:37Z</time>
      </trkpt>
      <trkpt lat="47.73632" lon="6.15378">
        <ele>386.32</ele>
        <time>2015-12-02T10:23:38Z</time>
      </trkpt>
      <trkpt lat="47.73626" lon="6.15371">
        <ele>385.94</ele>
        <time>2015-12-02T10:23:39Z</time>
      </trkpt>
      <trkpt lat="47.73621" lon="6.15364">
        <ele>385.39</ele>
        <time>2015-12-02T10:23:40Z</time>
      </trkpt>
      <trkpt lat="47.73616" lon="6.15356">
        <ele>384.82</ele>
        <time>2015-12-02T10:23:41Z</time>
      </trkpt>
      <trkpt lat="47.73611" lon="6.15346">
        <ele>384.14</ele>
        <time>2015-12-02T10:23:42Z</time>
      </trkpt>
      <trkpt lat="47.73607" lon="6.15336">
        <ele>383.34</ele>
        <time>2015-12-02T10:23:43Z</time>
      </trkpt>
      <trkpt lat="47.73604" lon="6.15324">
        <ele>382.6</ele>
        <time>2015-12-02T10:23:44Z</time>
      </trkpt>
      <trkpt lat="47.73601" lon="6.15312">
        <ele>381.77</ele>
        <time>2015-12-02T10:23:45Z</time>
      </trkpt>
      <trkpt lat="47.73598" lon="6.15299">
        <ele>380.91</ele>
        <time>2015-12-02T10:23:46Z</time>
      </trkpt>
      <trkpt lat="47.73595" lon="6.15286">
        <ele>379.88</ele>
        <time>2015-12-02T10:23:47Z</time>
      </trkpt>
      <trkpt lat="47.73592" lon="6.15272">
        <ele>378.77</ele>
        <time>2015-12-02T10:23:48Z</time>
      </trkpt>
      <trkpt lat="47.7359" lon="6.15257">
        <ele>377.46</ele>
        <time>2015-12-02T10:23:49Z</time>
      </trkpt>
      <trkpt lat="47.73588" lon="6.15241">
        <ele>376.1</ele>
        <time>2015-12-02T10:23:50Z</time>
      </trkpt>
      <trkpt lat="47.73587" lon="6.15225">
        <ele>374.83</ele>
        <time>2015-12-02T10:23:51Z</time>
      </trkpt>
      <trkpt lat="47.73587" lon="6.15209">
        <ele>373.79</ele>
        <time>2015-12-02T10:23:52Z</time>
      </trkpt>
      <trkpt lat="47.73587" lon="6.15193">
        <ele>372.87</ele>
        <time>2015-12-02T10:23:53Z</time>
      </trkpt>
      <trkpt lat="47.73587" lon="6.15179">
        <ele>372.26</ele>
        <time>2015-12-02T10:23:54Z</time>
      </trkpt>
      <trkpt lat="47.73587" lon="6.15164">
        <ele>371.96</ele>
        <time>2015-12-02T10:23:55Z</time>
      </trkpt>
      <trkpt lat="47.73587" lon="6.15151">
        <ele>371.8</ele>
        <time>2015-12-02T10:23:56Z</time>
      </trkpt>
      <trkpt lat="47.73588" lon="6.15136">
        <ele>371.58</ele>
        <time>2015-12-02T10:23:57Z</time>
      </trkpt>
      <trkpt lat="47.73588" lon="6.15123">
        <ele>371.41</ele>
        <time>2015-12-02T10:23:58Z</time>
      </trkpt>
      <trkpt lat="47.7359" lon="6.15111">
        <ele>371.18</ele>
        <time>2015-12-02T10:23:59Z</time>
      </trkpt>
      <trkpt lat="47.73591" lon="6.15099">
        <ele>370.82</ele>
        <time>2015-12-02T10:24:00Z</time>
      </trkpt>
      <trkpt lat="47.73593" lon="6.15087">
        <ele>370.48</ele>
        <time>2015-12-02T10:24:01Z</time>
      </trkpt>
      <trkpt lat="47.73596" lon="6.15077">
        <ele>369.97</ele>
        <time>2015-12-02T10:24:02Z</time>
      </trkpt>
      <trkpt lat="47.73601" lon="6.15068">
        <ele>368.81</ele>
        <time>2015-12-02T10:24:03Z</time>
      </trkpt>
      <trkpt lat="47.73606" lon="6.1506">
        <ele>367.88</ele>
        <time>2015-12-02T10:24:04Z</time>
      </trkpt>
      <trkpt lat="47.73612" lon="6.15051">
        <ele>367.17</ele>
        <time>2015-12-02T10:24:05Z</time>
      </trkpt>
      <trkpt lat="47.73618" lon="6.15044">
        <ele>366.06</ele>
        <time>2015-12-02T10:24:06Z</time>
      </trkpt>
      <trkpt lat="47.73625" lon="6.15036">
        <ele>365.35</ele>
        <time>2015-12-02T10:24:07Z</time>
      </trkpt>
      <trkpt lat="47.73633" lon="6.15028">
        <ele>364.85</ele>
        <time>2015-12-02T10:24:08Z</time>
      </trkpt>
      <trkpt lat="47.73642" lon="6.15021">
        <ele>363.95</ele>
        <time>2015-12-02T10:24:09Z</time>
      </trkpt>
      <trkpt lat="47.73652" lon="6.15015">
        <ele>362.75</ele>
        <time>2015-12-02T10:24:10Z</time>
      </trkpt>
      <trkpt lat="47.7366" lon="6.15007">
        <ele>361.85</ele>
        <time>2015-12-02T10:24:11Z</time>
      </trkpt>
      <trkpt lat="47.73668" lon="6.14999">
        <ele>361.2</ele>
        <time>2015-12-02T10:24:12Z</time>
      </trkpt>
      <trkpt lat="47.73677" lon="6.14991">
        <ele>360.63</ele>
        <time>2015-12-02T10:24:13Z</time>
      </trkpt>
      <trkpt lat="47.73685" lon="6.14983">
        <ele>359.94</ele>
        <time>2015-12-02T10:24:14Z</time>
      </trkpt>
      <trkpt lat="47.73694" lon="6.14974">
        <ele>359.39</ele>
        <time>2015-12-02T10:24:15Z</time>
      </trkpt>
      <trkpt lat="47.73703" lon="6.14965">
        <ele>358.72</ele>
        <time>2015-12-02T10:24:16Z</time>
      </trkpt>
      <trkpt lat="47.73712" lon="6.14956">
        <ele>358.04</ele>
        <time>2015-12-02T10:24:17Z</time>
      </trkpt>
      <trkpt lat="47.73722" lon="6.14948">
        <ele>356.94</ele>
        <time>2015-12-02T10:24:18Z</time>
      </trkpt>
      <trkpt lat="47.73731" lon="6.1494">
        <ele>355.5</ele>
        <time>2015-12-02T10:24:19Z</time>
      </trkpt>
      <trkpt lat="47.73739" lon="6.1493">
        <ele>354.02</ele>
        <time>2015-12-02T10:24:20Z</time>
      </trkpt>
      <trkpt lat="47.73748" lon="6.14921">
        <ele>352.84</ele>
        <time>2015-12-02T10:24:21Z</time>
      </trkpt>
      <trkpt lat="47.73757" lon="6.14913">
        <ele>351.89</ele>
        <time>2015-12-02T10:24:22Z</time>
      </trkpt>
      <trkpt lat="47.73766" lon="6.14906">
        <ele>350.82</ele>
        <time>2015-12-02T10:24:23Z</time>
      </trkpt>
      <trkpt lat="47.73775" lon="6.14899">
        <ele>349.89</ele>
        <time>2015-12-02T10:24:24Z</time>
      </trkpt>
      <trkpt lat="47.73784" lon="6.14892">
        <ele>349.32</ele>
        <time>2015-12-02T10:24:25Z</time>
      </trkpt>
      <trkpt lat="47.73792" lon="6.14886">
        <ele>348.68</ele>
        <time>2015-12-02T10:24:26Z</time>
      </trkpt>
      <trkpt lat="47.73801" lon="6.14881">
        <ele>348.17</ele>
        <time>2015-12-02T10:24:27Z</time>
      </trkpt>
      <trkpt lat="47.73809" lon="6.14876">
        <ele>348.11</ele>
        <time>2015-12-02T10:24:28Z</time>
      </trkpt>
      <trkpt lat="47.73817" lon="6.14871">
        <ele>348.43</ele>
        <time>2015-12-02T10:24:29Z</time>
      </trkpt>
      <trkpt lat="47.73824" lon="6.14867">
        <ele>348.64</ele>
        <time>2015-12-02T10:24:30Z</time>
      </trkpt>
      <trkpt lat="47.73831" lon="6.14862">
        <ele>348.9</ele>
        <time>2015-12-02T10:24:31Z</time>
      </trkpt>
      <trkpt lat="47.73838" lon="6.14858">
        <ele>349.17</ele>
        <time>2015-12-02T10:24:32Z</time>
      </trkpt>
      <trkpt lat="47.73845" lon="6.14854">
        <ele>349.56</ele>
        <time>2015-12-02T10:24:33Z</time>
      </trkpt>
      <trkpt lat="47.73851" lon="6.14851">
        <ele>349.56</ele>
        <time>2015-12-02T10:24:34Z</time>
      </trkpt>
      <trkpt lat="47.73857" lon="6.14846">
        <ele>349.75</ele>
        <time>2015-12-02T10:24:35Z</time>
      </trkpt>
      <trkpt lat="47.73863" lon="6.14843">
        <ele>350</ele>
        <time>2015-12-02T10:24:36Z</time>
      </trkpt>
      <trkpt lat="47.73868" lon="6.14837">
        <ele>350.58</ele>
        <time>2015-12-02T10:24:37Z</time>
      </trkpt>
      <trkpt lat="47.73873" lon="6.14834">
        <ele>350.81</ele>
        <time>2015-12-02T10:24:38Z</time>
      </trkpt>
      <trkpt lat="47.7388" lon="6.14828">
        <ele>351.37</ele>
        <time>2015-12-02T10:24:40Z</time>
      </trkpt>
      <trkpt lat="47.73888" lon="6.14827">
        <ele>351.7</ele>
        <time>2015-12-02T10:24:42Z</time>
      </trkpt>
      <trkpt lat="47.73893" lon="6.14821">
        <ele>351.96</ele>
        <time>2015-12-02T10:24:44Z</time>
      </trkpt>
      <trkpt lat="47.73897" lon="6.14813">
        <ele>352.18</ele>
        <time>2015-12-02T10:24:46Z</time>
      </trkpt>
      <trkpt lat="47.73894" lon="6.14801">
        <ele>352.11</ele>
        <time>2015-12-02T10:24:48Z</time>
      </trkpt>
      <trkpt lat="47.73889" lon="6.14795">
        <ele>351.94</ele>
        <time>2015-12-02T10:24:50Z</time>
      </trkpt>
      <trkpt lat="47.73884" lon="6.14795">
        <ele>350.9</ele>
        <time>2015-12-02T10:24:52Z</time>
      </trkpt>
      <trkpt lat="47.73878" lon="6.14795">
        <ele>349.59</ele>
        <time>2015-12-02T10:24:54Z</time>
      </trkpt>
      <trkpt lat="47.73874" lon="6.14791">
        <ele>349.61</ele>
        <time>2015-12-02T10:24:56Z</time>
      </trkpt>
      <trkpt lat="47.73869" lon="6.14786">
        <ele>349.8</ele>
        <time>2015-12-02T10:24:59Z</time>
      </trkpt>
      <trkpt lat="47.73864" lon="6.14785">
        <ele>349.87</ele>
        <time>2015-12-02T10:25:02Z</time>
      </trkpt>
      <trkpt lat="47.73877" lon="6.14798">
        <ele>350.5</ele>
        <time>2015-12-02T10:25:46Z</time>
      </trkpt>
      <trkpt lat="47.7388" lon="6.14792">
        <ele>351.96</ele>
        <time>2015-12-02T10:25:49Z</time>
      </trkpt>
      <trkpt lat="47.73877" lon="6.14785">
        <ele>353.04</ele>
        <time>2015-12-02T10:25:53Z</time>
      </trkpt>
      <trkpt lat="47.73875" lon="6.14778">
        <ele>353.16</ele>
        <time>2015-12-02T10:25:56Z</time>
      </trkpt>
      <trkpt lat="47.73872" lon="6.14773">
        <ele>352.74</ele>
        <time>2015-12-02T10:25:59Z</time>
      </trkpt>
      <trkpt lat="47.73873" lon="6.14762">
        <ele>351.58</ele>
        <time>2015-12-02T10:26:05Z</time>
      </trkpt>
      <trkpt lat="47.73877" lon="6.14757">
        <ele>350.17</ele>
        <time>2015-12-02T10:26:08Z</time>
      </trkpt>
      <trkpt lat="47.73882" lon="6.1475">
        <ele>350.1</ele>
        <time>2015-12-02T10:26:11Z</time>
      </trkpt>
      <trkpt lat="47.73886" lon="6.14743">
        <ele>350.35</ele>
        <time>2015-12-02T10:26:14Z</time>
      </trkpt>
      <trkpt lat="47.73888" lon="6.14737">
        <ele>350.46</ele>
        <time>2015-12-02T10:26:17Z</time>
      </trkpt>
      <trkpt lat="47.73885" lon="6.1473">
        <ele>350.38</ele>
        <time>2015-12-02T10:26:19Z</time>
      </trkpt>
      <trkpt lat="47.73883" lon="6.14723">
        <ele>350.53</ele>
        <time>2015-12-02T10:26:21Z</time>
      </trkpt>
      <trkpt lat="47.73902" lon="6.14695">
        <ele>351.25</ele>
        <time>2015-12-02T10:27:20Z</time>
      </trkpt>
      <trkpt lat="47.73906" lon="6.14691">
        <ele>351.86</ele>
        <time>2015-12-02T10:27:23Z</time>
      </trkpt>
      <trkpt lat="47.73904" lon="6.14635">
        <ele>354.85</ele>
        <time>2015-12-02T10:28:35Z</time>
      </trkpt>
      <trkpt lat="47.73874" lon="6.14601">
        <ele>361.85</ele>
        <time>2015-12-02T10:29:22Z</time>
      </trkpt>
      <trkpt lat="47.73853" lon="6.14581">
        <ele>367.9</ele>
        <time>2015-12-02T10:29:56Z</time>
      </trkpt>
      <trkpt lat="47.73849" lon="6.14576">
        <ele>368.86</ele>
        <time>2015-12-02T10:29:59Z</time>
      </trkpt>
      <trkpt lat="47.73842" lon="6.14565">
        <ele>369.55</ele>
        <time>2015-12-02T10:30:06Z</time>
      </trkpt>
      <trkpt lat="47.7382" lon="6.14514">
        <ele>368.65</ele>
        <time>2015-12-02T10:30:38Z</time>
      </trkpt>
      <trkpt lat="47.73817" lon="6.14455">
        <ele>366.8</ele>
        <time>2015-12-02T10:31:13Z</time>
      </trkpt>
      <trkpt lat="47.73814" lon="6.14396">
        <ele>370.45</ele>
        <time>2015-12-02T10:31:43Z</time>
      </trkpt>
      <trkpt lat="47.73813" lon="6.14388">
        <ele>374.99</ele>
        <time>2015-12-02T10:31:46Z</time>
      </trkpt>
      <trkpt lat="47.73809" lon="6.14332">
        <ele>377.7</ele>
        <time>2015-12-02T10:32:15Z</time>
      </trkpt>
      <trkpt lat="47.73808" lon="6.14325">
        <ele>379.56</ele>
        <time>2015-12-02T10:32:17Z</time>
      </trkpt>
      <trkpt lat="47.73805" lon="6.14269">
        <ele>380.15</ele>
        <time>2015-12-02T10:32:47Z</time>
      </trkpt>
      <trkpt lat="47.73798" lon="6.14216">
        <ele>380.75</ele>
        <time>2015-12-02T10:33:14Z</time>
      </trkpt>
      <trkpt lat="47.73797" lon="6.14208">
        <ele>381.28</ele>
        <time>2015-12-02T10:33:17Z</time>
      </trkpt>
      <trkpt lat="47.73797" lon="6.14195">
        <ele>381.1</ele>
        <time>2015-12-02T10:33:24Z</time>
      </trkpt>
      <trkpt lat="47.73796" lon="6.14187">
        <ele>380.01</ele>
        <time>2015-12-02T10:33:27Z</time>
      </trkpt>
      <trkpt lat="47.73797" lon="6.14179">
        <ele>379.7</ele>
        <time>2015-12-02T10:33:30Z</time>
      </trkpt>
      <trkpt lat="47.73796" lon="6.14171">
        <ele>380.48</ele>
        <time>2015-12-02T10:33:33Z</time>
      </trkpt>
      <trkpt lat="47.73797" lon="6.14164">
        <ele>380.29</ele>
        <time>2015-12-02T10:33:36Z</time>
      </trkpt>
      <trkpt lat="47.73798" lon="6.14155">
        <ele>379.47</ele>
        <time>2015-12-02T10:33:39Z</time>
      </trkpt>
      <trkpt lat="47.73799" lon="6.14148">
        <ele>378.85</ele>
        <time>2015-12-02T10:33:42Z</time>
      </trkpt>
      <trkpt lat="47.73798" lon="6.1414">
        <ele>379.08</ele>
        <time>2015-12-02T10:33:44Z</time>
      </trkpt>
      <trkpt lat="47.73796" lon="6.14133">
        <ele>379.4</ele>
        <time>2015-12-02T10:33:47Z</time>
      </trkpt>
      <trkpt lat="47.73795" lon="6.14125">
        <ele>379.97</ele>
        <time>2015-12-02T10:33:50Z</time>
      </trkpt>
      <trkpt lat="47.73795" lon="6.14116">
        <ele>381.05</ele>
        <time>2015-12-02T10:33:53Z</time>
      </trkpt>
      <trkpt lat="47.73793" lon="6.14109">
        <ele>381.75</ele>
        <time>2015-12-02T10:33:55Z</time>
      </trkpt>
      <trkpt lat="47.73792" lon="6.14101">
        <ele>382.23</ele>
        <time>2015-12-02T10:33:57Z</time>
      </trkpt>
      <trkpt lat="47.73792" lon="6.14091">
        <ele>382.6</ele>
        <time>2015-12-02T10:34:00Z</time>
      </trkpt>
      <trkpt lat="47.73792" lon="6.14085">
        <ele>382.91</ele>
        <time>2015-12-02T10:34:02Z</time>
      </trkpt>
      <trkpt lat="47.73791" lon="6.14076">
        <ele>383.47</ele>
        <time>2015-12-02T10:34:05Z</time>
      </trkpt>
      <trkpt lat="47.7379" lon="6.14067">
        <ele>383.78</ele>
        <time>2015-12-02T10:34:08Z</time>
      </trkpt>
      <trkpt lat="47.73789" lon="6.1406">
        <ele>383.33</ele>
        <time>2015-12-02T10:34:11Z</time>
      </trkpt>
      <trkpt lat="47.73788" lon="6.14051">
        <ele>383.95</ele>
        <time>2015-12-02T10:34:14Z</time>
      </trkpt>
      <trkpt lat="47.73787" lon="6.14044">
        <ele>384.6</ele>
        <time>2015-12-02T10:34:16Z</time>
      </trkpt>
      <trkpt lat="47.73786" lon="6.14036">
        <ele>384.71</ele>
        <time>2015-12-02T10:34:19Z</time>
      </trkpt>
      <trkpt lat="47.73786" lon="6.14028">
        <ele>384.63</ele>
        <time>2015-12-02T10:34:23Z</time>
      </trkpt>
      <trkpt lat="47.73786" lon="6.1402">
        <ele>384.5</ele>
        <time>2015-12-02T10:34:26Z</time>
      </trkpt>
      <trkpt lat="47.73785" lon="6.1401">
        <ele>385.37</ele>
        <time>2015-12-02T10:34:29Z</time>
      </trkpt>
      <trkpt lat="47.73785" lon="6.14002">
        <ele>385.55</ele>
        <time>2015-12-02T10:34:32Z</time>
      </trkpt>
      <trkpt lat="47.73783" lon="6.13995">
        <ele>385.6</ele>
        <time>2015-12-02T10:34:35Z</time>
      </trkpt>
      <trkpt lat="47.73782" lon="6.13986">
        <ele>385.67</ele>
        <time>2015-12-02T10:34:38Z</time>
      </trkpt>
      <trkpt lat="47.73782" lon="6.13978">
        <ele>384.6</ele>
        <time>2015-12-02T10:34:41Z</time>
      </trkpt>
      <trkpt lat="47.7378" lon="6.1397">
        <ele>383.83</ele>
        <time>2015-12-02T10:34:44Z</time>
      </trkpt>
      <trkpt lat="47.7378" lon="6.13962">
        <ele>383.55</ele>
        <time>2015-12-02T10:34:47Z</time>
      </trkpt>
      <trkpt lat="47.73779" lon="6.13954">
        <ele>383.18</ele>
        <time>2015-12-02T10:34:50Z</time>
      </trkpt>
      <trkpt lat="47.73778" lon="6.13947">
        <ele>382.72</ele>
        <time>2015-12-02T10:34:53Z</time>
      </trkpt>
      <trkpt lat="47.73779" lon="6.13937">
        <ele>382.48</ele>
        <time>2015-12-02T10:34:56Z</time>
      </trkpt>
      <trkpt lat="47.7378" lon="6.13929">
        <ele>382.73</ele>
        <time>2015-12-02T10:34:59Z</time>
      </trkpt>
      <trkpt lat="47.7378" lon="6.13921">
        <ele>383.72</ele>
        <time>2015-12-02T10:35:02Z</time>
      </trkpt>
      <trkpt lat="47.73779" lon="6.13914">
        <ele>384.05</ele>
        <time>2015-12-02T10:35:05Z</time>
      </trkpt>
      <trkpt lat="47.73778" lon="6.13905">
        <ele>385.23</ele>
        <time>2015-12-02T10:35:08Z</time>
      </trkpt>
      <trkpt lat="47.73777" lon="6.13896">
        <ele>386.05</ele>
        <time>2015-12-02T10:35:11Z</time>
      </trkpt>
      <trkpt lat="47.73777" lon="6.13888">
        <ele>387.03</ele>
        <time>2015-12-02T10:35:14Z</time>
      </trkpt>
      <trkpt lat="47.73779" lon="6.13881">
        <ele>387.75</ele>
        <time>2015-12-02T10:35:17Z</time>
      </trkpt>
      <trkpt lat="47.73779" lon="6.13872">
        <ele>387.86</ele>
        <time>2015-12-02T10:35:20Z</time>
      </trkpt>
      <trkpt lat="47.73779" lon="6.13865">
        <ele>388.03</ele>
        <time>2015-12-02T10:35:22Z</time>
      </trkpt>
      <trkpt lat="47.73778" lon="6.13858">
        <ele>387.74</ele>
        <time>2015-12-02T10:35:25Z</time>
      </trkpt>
      <trkpt lat="47.73781" lon="6.13852">
        <ele>387.14</ele>
        <time>2015-12-02T10:35:28Z</time>
      </trkpt>
      <trkpt lat="47.73782" lon="6.13844">
        <ele>387.34</ele>
        <time>2015-12-02T10:35:31Z</time>
      </trkpt>
      <trkpt lat="47.73782" lon="6.13837">
        <ele>387.35</ele>
        <time>2015-12-02T10:35:34Z</time>
      </trkpt>
      <trkpt lat="47.7378" lon="6.13823">
        <ele>385.55</ele>
        <time>2015-12-02T10:35:55Z</time>
      </trkpt>
      <trkpt lat="47.73779" lon="6.13813">
        <ele>383.88</ele>
        <time>2015-12-02T10:35:58Z</time>
      </trkpt>
      <trkpt lat="47.73779" lon="6.13805">
        <ele>383.76</ele>
        <time>2015-12-02T10:36:00Z</time>
      </trkpt>
      <trkpt lat="47.73779" lon="6.13794">
        <ele>383.04</ele>
        <time>2015-12-02T10:36:03Z</time>
      </trkpt>
      <trkpt lat="47.73779" lon="6.13785">
        <ele>382.62</ele>
        <time>2015-12-02T10:36:05Z</time>
      </trkpt>
      <trkpt lat="47.7378" lon="6.13774">
        <ele>381.64</ele>
        <time>2015-12-02T10:36:07Z</time>
      </trkpt>
      <trkpt lat="47.73781" lon="6.13762">
        <ele>380.67</ele>
        <time>2015-12-02T10:36:09Z</time>
      </trkpt>
      <trkpt lat="47.73781" lon="6.13755">
        <ele>380.46</ele>
        <time>2015-12-02T10:36:10Z</time>
      </trkpt>
      <trkpt lat="47.73782" lon="6.13747">
        <ele>380.36</ele>
        <time>2015-12-02T10:36:11Z</time>
      </trkpt>
      <trkpt lat="47.73781" lon="6.13739">
        <ele>380.3</ele>
        <time>2015-12-02T10:36:12Z</time>
      </trkpt>
      <trkpt lat="47.73781" lon="6.1373">
        <ele>380.38</ele>
        <time>2015-12-02T10:36:13Z</time>
      </trkpt>
      <trkpt lat="47.73782" lon="6.13721">
        <ele>380.51</ele>
        <time>2015-12-02T10:36:14Z</time>
      </trkpt>
      <trkpt lat="47.73782" lon="6.13713">
        <ele>380.43</ele>
        <time>2015-12-02T10:36:15Z</time>
      </trkpt>
      <trkpt lat="47.73783" lon="6.13705">
        <ele>380.04</ele>
        <time>2015-12-02T10:36:16Z</time>
      </trkpt>
      <trkpt lat="47.73783" lon="6.13696">
        <ele>379.25</ele>
        <time>2015-12-02T10:36:17Z</time>
      </trkpt>
      <trkpt lat="47.73783" lon="6.13687">
        <ele>378.6</ele>
        <time>2015-12-02T10:36:18Z</time>
      </trkpt>
      <trkpt lat="47.73784" lon="6.13678">
        <ele>378.37</ele>
        <time>2015-12-02T10:36:19Z</time>
      </trkpt>
      <trkpt lat="47.73784" lon="6.13668">
        <ele>378.16</ele>
        <time>2015-12-02T10:36:20Z</time>
      </trkpt>
      <trkpt lat="47.73784" lon="6.1366">
        <ele>377.76</ele>
        <time>2015-12-02T10:36:21Z</time>
      </trkpt>
      <trkpt lat="47.73784" lon="6.13652">
        <ele>377.45</ele>
        <time>2015-12-02T10:36:22Z</time>
      </trkpt>
      <trkpt lat="47.73784" lon="6.13645">
        <ele>377</ele>
        <time>2015-12-02T10:36:23Z</time>
      </trkpt>
      <trkpt lat="47.73785" lon="6.13633">
        <ele>376.09</ele>
        <time>2015-12-02T10:36:25Z</time>
      </trkpt>
      <trkpt lat="47.73784" lon="6.13621">
        <ele>375.71</ele>
        <time>2015-12-02T10:36:27Z</time>
      </trkpt>
      <trkpt lat="47.73782" lon="6.13609">
        <ele>375.57</ele>
        <time>2015-12-02T10:36:29Z</time>
      </trkpt>
      <trkpt lat="47.73782" lon="6.13602">
        <ele>375.76</ele>
        <time>2015-12-02T10:36:30Z</time>
      </trkpt>
      <trkpt lat="47.73782" lon="6.13595">
        <ele>376</ele>
        <time>2015-12-02T10:36:31Z</time>
      </trkpt>
      <trkpt lat="47.73782" lon="6.13589">
        <ele>376.38</ele>
        <time>2015-12-02T10:36:32Z</time>
      </trkpt>
      <trkpt lat="47.73782" lon="6.13582">
        <ele>376.61</ele>
        <time>2015-12-02T10:36:33Z</time>
      </trkpt>
      <trkpt lat="47.73782" lon="6.1357">
        <ele>376.62</ele>
        <time>2015-12-02T10:36:35Z</time>
      </trkpt>
      <trkpt lat="47.73782" lon="6.13561">
        <ele>376.64</ele>
        <time>2015-12-02T10:36:37Z</time>
      </trkpt>
      <trkpt lat="47.73782" lon="6.13554">
        <ele>376.32</ele>
        <time>2015-12-02T10:36:39Z</time>
      </trkpt>
      <trkpt lat="47.7378" lon="6.13546">
        <ele>375.34</ele>
        <time>2015-12-02T10:36:43Z</time>
      </trkpt>
      <trkpt lat="47.7378" lon="6.13537">
        <ele>375.4</ele>
        <time>2015-12-02T10:36:46Z</time>
      </trkpt>
      <trkpt lat="47.73778" lon="6.13528">
        <ele>376.82</ele>
        <time>2015-12-02T10:36:49Z</time>
      </trkpt>
      <trkpt lat="47.73777" lon="6.13521">
        <ele>377.89</ele>
        <time>2015-12-02T10:36:51Z</time>
      </trkpt>
      <trkpt lat="47.73776" lon="6.13511">
        <ele>378.78</ele>
        <time>2015-12-02T10:36:54Z</time>
      </trkpt>
      <trkpt lat="47.73776" lon="6.13503">
        <ele>379.36</ele>
        <time>2015-12-02T10:36:56Z</time>
      </trkpt>
      <trkpt lat="47.73775" lon="6.13496">
        <ele>379.65</ele>
        <time>2015-12-02T10:36:58Z</time>
      </trkpt>
      <trkpt lat="47.73772" lon="6.13489">
        <ele>379.65</ele>
        <time>2015-12-02T10:37:00Z</time>
      </trkpt>
      <trkpt lat="47.73771" lon="6.13482">
        <ele>379.93</ele>
        <time>2015-12-02T10:37:02Z</time>
      </trkpt>
      <trkpt lat="47.73769" lon="6.13474">
        <ele>380.27</ele>
        <time>2015-12-02T10:37:04Z</time>
      </trkpt>
      <trkpt lat="47.73767" lon="6.13467">
        <ele>380.66</ele>
        <time>2015-12-02T10:37:06Z</time>
      </trkpt>
      <trkpt lat="47.73766" lon="6.1346">
        <ele>380.78</ele>
        <time>2015-12-02T10:37:08Z</time>
      </trkpt>
      <trkpt lat="47.73764" lon="6.13452">
        <ele>380.63</ele>
        <time>2015-12-02T10:37:10Z</time>
      </trkpt>
      <trkpt lat="47.73762" lon="6.13443">
        <ele>379.95</ele>
        <time>2015-12-02T10:37:12Z</time>
      </trkpt>
      <trkpt lat="47.73759" lon="6.13434">
        <ele>378.95</ele>
        <time>2015-12-02T10:37:14Z</time>
      </trkpt>
      <trkpt lat="47.73756" lon="6.13426">
        <ele>378.2</ele>
        <time>2015-12-02T10:37:16Z</time>
      </trkpt>
      <trkpt lat="47.73753" lon="6.13417">
        <ele>377.49</ele>
        <time>2015-12-02T10:37:18Z</time>
      </trkpt>
      <trkpt lat="47.7375" lon="6.13408">
        <ele>376.91</ele>
        <time>2015-12-02T10:37:20Z</time>
      </trkpt>
      <trkpt lat="47.73747" lon="6.13397">
        <ele>376.07</ele>
        <time>2015-12-02T10:37:22Z</time>
      </trkpt>
      <trkpt lat="47.73744" lon="6.13386">
        <ele>375.4</ele>
        <time>2015-12-02T10:37:24Z</time>
      </trkpt>
      <trkpt lat="47.73742" lon="6.13376">
        <ele>374.51</ele>
        <time>2015-12-02T10:37:26Z</time>
      </trkpt>
      <trkpt lat="47.73741" lon="6.13366">
        <ele>373.19</ele>
        <time>2015-12-02T10:37:28Z</time>
      </trkpt>
      <trkpt lat="47.73739" lon="6.13354">
        <ele>372.39</ele>
        <time>2015-12-02T10:37:30Z</time>
      </trkpt>
      <trkpt lat="47.73737" lon="6.13343">
        <ele>371.31</ele>
        <time>2015-12-02T10:37:32Z</time>
      </trkpt>
      <trkpt lat="47.73736" lon="6.13332">
        <ele>370.37</ele>
        <time>2015-12-02T10:37:34Z</time>
      </trkpt>
      <trkpt lat="47.73732" lon="6.13324">
        <ele>369.35</ele>
        <time>2015-12-02T10:37:36Z</time>
      </trkpt>
      <trkpt lat="47.73727" lon="6.13321">
        <ele>367.85</ele>
        <time>2015-12-02T10:37:38Z</time>
      </trkpt>
      <trkpt lat="47.73722" lon="6.13322">
        <ele>366.5</ele>
        <time>2015-12-02T10:37:40Z</time>
      </trkpt>
      <trkpt lat="47.73717" lon="6.13324">
        <ele>365.41</ele>
        <time>2015-12-02T10:37:42Z</time>
      </trkpt>
      <trkpt lat="47.73712" lon="6.13326">
        <ele>364.84</ele>
        <time>2015-12-02T10:37:44Z</time>
      </trkpt>
      <trkpt lat="47.73707" lon="6.13328">
        <ele>364.1</ele>
        <time>2015-12-02T10:37:46Z</time>
      </trkpt>
      <trkpt lat="47.73702" lon="6.13332">
        <ele>363.91</ele>
        <time>2015-12-02T10:37:48Z</time>
      </trkpt>
      <trkpt lat="47.73697" lon="6.13332">
        <ele>364.37</ele>
        <time>2015-12-02T10:37:50Z</time>
      </trkpt>
      <trkpt lat="47.73692" lon="6.13331">
        <ele>364.85</ele>
        <time>2015-12-02T10:37:52Z</time>
      </trkpt>
      <trkpt lat="47.73686" lon="6.13331">
        <ele>365.38</ele>
        <time>2015-12-02T10:37:54Z</time>
      </trkpt>
      <trkpt lat="47.73681" lon="6.13333">
        <ele>366.21</ele>
        <time>2015-12-02T10:37:56Z</time>
      </trkpt>
      <trkpt lat="47.73676" lon="6.13335">
        <ele>366.42</ele>
        <time>2015-12-02T10:37:58Z</time>
      </trkpt>
      <trkpt lat="47.73671" lon="6.13335">
        <ele>366.07</ele>
        <time>2015-12-02T10:38:00Z</time>
      </trkpt>
      <trkpt lat="47.73666" lon="6.13333">
        <ele>365.73</ele>
        <time>2015-12-02T10:38:02Z</time>
      </trkpt>
      <trkpt lat="47.7366" lon="6.13332">
        <ele>365.1</ele>
        <time>2015-12-02T10:38:04Z</time>
      </trkpt>
      <trkpt lat="47.73656" lon="6.13333">
        <ele>365.01</ele>
        <time>2015-12-02T10:38:06Z</time>
      </trkpt>
      <trkpt lat="47.7365" lon="6.13334">
        <ele>363.87</ele>
        <time>2015-12-02T10:38:09Z</time>
      </trkpt>
      <trkpt lat="47.73645" lon="6.13336">
        <ele>363.53</ele>
        <time>2015-12-02T10:38:12Z</time>
      </trkpt>
      <trkpt lat="47.73638" lon="6.13337">
        <ele>363.17</ele>
        <time>2015-12-02T10:38:15Z</time>
      </trkpt>
      <trkpt lat="47.73633" lon="6.13339">
        <ele>363.16</ele>
        <time>2015-12-02T10:38:17Z</time>
      </trkpt>
      <trkpt lat="47.73628" lon="6.1334">
        <ele>363.23</ele>
        <time>2015-12-02T10:38:19Z</time>
      </trkpt>
      <trkpt lat="47.73623" lon="6.13339">
        <ele>363.55</ele>
        <time>2015-12-02T10:38:21Z</time>
      </trkpt>
      <trkpt lat="47.73618" lon="6.13339">
        <ele>363.72</ele>
        <time>2015-12-02T10:38:23Z</time>
      </trkpt>
      <trkpt lat="47.73613" lon="6.1334">
        <ele>363.14</ele>
        <time>2015-12-02T10:38:26Z</time>
      </trkpt>
      <trkpt lat="47.73606" lon="6.1334">
        <ele>363.25</ele>
        <time>2015-12-02T10:38:29Z</time>
      </trkpt>
      <trkpt lat="47.73601" lon="6.1334">
        <ele>362.44</ele>
        <time>2015-12-02T10:38:32Z</time>
      </trkpt>
      <trkpt lat="47.73595" lon="6.1334">
        <ele>362.1</ele>
        <time>2015-12-02T10:38:34Z</time>
      </trkpt>
      <trkpt lat="47.7359" lon="6.13341">
        <ele>362.11</ele>
        <time>2015-12-02T10:38:37Z</time>
      </trkpt>
      <trkpt lat="47.73585" lon="6.13342">
        <ele>363</ele>
        <time>2015-12-02T10:38:41Z</time>
      </trkpt>
      <trkpt lat="47.7358" lon="6.13345">
        <ele>363.13</ele>
        <time>2015-12-02T10:38:44Z</time>
      </trkpt>
      <trkpt lat="47.73574" lon="6.13348">
        <ele>363.15</ele>
        <time>2015-12-02T10:38:47Z</time>
      </trkpt>
      <trkpt lat="47.73568" lon="6.13349">
        <ele>363.25</ele>
        <time>2015-12-02T10:38:50Z</time>
      </trkpt>
      <trkpt lat="47.73562" lon="6.13352">
        <ele>363.6</ele>
        <time>2015-12-02T10:38:53Z</time>
      </trkpt>
      <trkpt lat="47.73557" lon="6.13356">
        <ele>363.67</ele>
        <time>2015-12-02T10:38:56Z</time>
      </trkpt>
      <trkpt lat="47.73551" lon="6.13356">
        <ele>364.1</ele>
        <time>2015-12-02T10:38:59Z</time>
      </trkpt>
      <trkpt lat="47.73545" lon="6.13359">
        <ele>364.47</ele>
        <time>2015-12-02T10:39:02Z</time>
      </trkpt>
      <trkpt lat="47.7354" lon="6.13362">
        <ele>364.39</ele>
        <time>2015-12-02T10:39:05Z</time>
      </trkpt>
      <trkpt lat="47.73535" lon="6.13364">
        <ele>364.49</ele>
        <time>2015-12-02T10:39:08Z</time>
      </trkpt>
      <trkpt lat="47.7353" lon="6.13365">
        <ele>365.79</ele>
        <time>2015-12-02T10:39:11Z</time>
      </trkpt>
      <trkpt lat="47.73525" lon="6.13368">
        <ele>366.31</ele>
        <time>2015-12-02T10:39:14Z</time>
      </trkpt>
      <trkpt lat="47.7352" lon="6.13372">
        <ele>366.67</ele>
        <time>2015-12-02T10:39:18Z</time>
      </trkpt>
      <trkpt lat="47.73514" lon="6.13375">
        <ele>368.32</ele>
        <time>2015-12-02T10:39:21Z</time>
      </trkpt>
      <trkpt lat="47.73506" lon="6.13377">
        <ele>369.71</ele>
        <time>2015-12-02T10:39:25Z</time>
      </trkpt>
      <trkpt lat="47.73501" lon="6.1338">
        <ele>370.69</ele>
        <time>2015-12-02T10:39:27Z</time>
      </trkpt>
      <trkpt lat="47.73496" lon="6.13383">
        <ele>370.99</ele>
        <time>2015-12-02T10:39:30Z</time>
      </trkpt>
      <trkpt lat="47.73491" lon="6.13387">
        <ele>369.83</ele>
        <time>2015-12-02T10:39:34Z</time>
      </trkpt>
      <trkpt lat="47.73486" lon="6.13391">
        <ele>370.26</ele>
        <time>2015-12-02T10:39:38Z</time>
      </trkpt>
      <trkpt lat="47.7348" lon="6.13392">
        <ele>370.64</ele>
        <time>2015-12-02T10:39:41Z</time>
      </trkpt>
      <trkpt lat="47.73474" lon="6.13395">
        <ele>371.96</ele>
        <time>2015-12-02T10:39:44Z</time>
      </trkpt>
      <trkpt lat="47.7347" lon="6.13396">
        <ele>373.28</ele>
        <time>2015-12-02T10:39:46Z</time>
      </trkpt>
      <trkpt lat="47.73464" lon="6.13397">
        <ele>374.33</ele>
        <time>2015-12-02T10:39:48Z</time>
      </trkpt>
      <trkpt lat="47.7346" lon="6.134">
        <ele>375.56</ele>
        <time>2015-12-02T10:39:51Z</time>
      </trkpt>
      <trkpt lat="47.73454" lon="6.13402">
        <ele>376.69</ele>
        <time>2015-12-02T10:39:54Z</time>
      </trkpt>
      <trkpt lat="47.7345" lon="6.13407">
        <ele>377.18</ele>
        <time>2015-12-02T10:39:57Z</time>
      </trkpt>
      <trkpt lat="47.73444" lon="6.13409">
        <ele>377.72</ele>
        <time>2015-12-02T10:40:00Z</time>
      </trkpt>
      <trkpt lat="47.73439" lon="6.13412">
        <ele>377.92</ele>
        <time>2015-12-02T10:40:03Z</time>
      </trkpt>
      <trkpt lat="47.73432" lon="6.13416">
        <ele>377.75</ele>
        <time>2015-12-02T10:40:08Z</time>
      </trkpt>
      <trkpt lat="47.73425" lon="6.13419">
        <ele>378.51</ele>
        <time>2015-12-02T10:40:11Z</time>
      </trkpt>
      <trkpt lat="47.73419" lon="6.13421">
        <ele>379.39</ele>
        <time>2015-12-02T10:40:13Z</time>
      </trkpt>
      <trkpt lat="47.73414" lon="6.13424">
        <ele>381.16</ele>
        <time>2015-12-02T10:40:16Z</time>
      </trkpt>
      <trkpt lat="47.7341" lon="6.13428">
        <ele>380.46</ele>
        <time>2015-12-02T10:40:19Z</time>
      </trkpt>
      <trkpt lat="47.73405" lon="6.13429">
        <ele>379.63</ele>
        <time>2015-12-02T10:40:22Z</time>
      </trkpt>
      <trkpt lat="47.73398" lon="6.13433">
        <ele>378.56</ele>
        <time>2015-12-02T10:40:25Z</time>
      </trkpt>
      <trkpt lat="47.73392" lon="6.13433">
        <ele>379.18</ele>
        <time>2015-12-02T10:40:27Z</time>
      </trkpt>
      <trkpt lat="47.73385" lon="6.13434">
        <ele>379.52</ele>
        <time>2015-12-02T10:40:30Z</time>
      </trkpt>
      <trkpt lat="47.7338" lon="6.13438">
        <ele>379.07</ele>
        <time>2015-12-02T10:40:32Z</time>
      </trkpt>
      <trkpt lat="47.73374" lon="6.13443">
        <ele>378.26</ele>
        <time>2015-12-02T10:40:34Z</time>
      </trkpt>
      <trkpt lat="47.73368" lon="6.13447">
        <ele>378.03</ele>
        <time>2015-12-02T10:40:36Z</time>
      </trkpt>
      <trkpt lat="47.73361" lon="6.13451">
        <ele>377.62</ele>
        <time>2015-12-02T10:40:38Z</time>
      </trkpt>
      <trkpt lat="47.73355" lon="6.13453">
        <ele>377.39</ele>
        <time>2015-12-02T10:40:40Z</time>
      </trkpt>
      <trkpt lat="47.73349" lon="6.13456">
        <ele>377.59</ele>
        <time>2015-12-02T10:40:42Z</time>
      </trkpt>
      <trkpt lat="47.73344" lon="6.1346">
        <ele>377.73</ele>
        <time>2015-12-02T10:40:44Z</time>
      </trkpt>
      <trkpt lat="47.73339" lon="6.13465">
        <ele>377.45</ele>
        <time>2015-12-02T10:40:46Z</time>
      </trkpt>
      <trkpt lat="47.73334" lon="6.1347">
        <ele>377.7</ele>
        <time>2015-12-02T10:40:48Z</time>
      </trkpt>
      <trkpt lat="47.73329" lon="6.13475">
        <ele>378.01</ele>
        <time>2015-12-02T10:40:50Z</time>
      </trkpt>
      <trkpt lat="47.73324" lon="6.13481">
        <ele>378.59</ele>
        <time>2015-12-02T10:40:52Z</time>
      </trkpt>
      <trkpt lat="47.73318" lon="6.13485">
        <ele>378.72</ele>
        <time>2015-12-02T10:40:55Z</time>
      </trkpt>
      <trkpt lat="47.73315" lon="6.13489">
        <ele>378.69</ele>
        <time>2015-12-02T10:40:57Z</time>
      </trkpt>
      <trkpt lat="47.73311" lon="6.13492">
        <ele>379.24</ele>
        <time>2015-12-02T10:40:59Z</time>
      </trkpt>
      <trkpt lat="47.73305" lon="6.13499">
        <ele>380.02</ele>
        <time>2015-12-02T10:41:01Z</time>
      </trkpt>
      <trkpt lat="47.73299" lon="6.13506">
        <ele>380.52</ele>
        <time>2015-12-02T10:41:03Z</time>
      </trkpt>
      <trkpt lat="47.73293" lon="6.13514">
        <ele>380.64</ele>
        <time>2015-12-02T10:41:05Z</time>
      </trkpt>
      <trkpt lat="47.73286" lon="6.1352">
        <ele>380.72</ele>
        <time>2015-12-02T10:41:07Z</time>
      </trkpt>
      <trkpt lat="47.73281" lon="6.13526">
        <ele>381.49</ele>
        <time>2015-12-02T10:41:09Z</time>
      </trkpt>
      <trkpt lat="47.73277" lon="6.13532">
        <ele>382.36</ele>
        <time>2015-12-02T10:41:11Z</time>
      </trkpt>
      <trkpt lat="47.73272" lon="6.13538">
        <ele>382.58</ele>
        <time>2015-12-02T10:41:13Z</time>
      </trkpt>
      <trkpt lat="47.73267" lon="6.13545">
        <ele>383.03</ele>
        <time>2015-12-02T10:41:15Z</time>
      </trkpt>
      <trkpt lat="47.73263" lon="6.13549">
        <ele>383.52</ele>
        <time>2015-12-02T10:41:17Z</time>
      </trkpt>
      <trkpt lat="47.73258" lon="6.13556">
        <ele>383.07</ele>
        <time>2015-12-02T10:41:19Z</time>
      </trkpt>
      <trkpt lat="47.73252" lon="6.13563">
        <ele>382.53</ele>
        <time>2015-12-02T10:41:21Z</time>
      </trkpt>
      <trkpt lat="47.73246" lon="6.1357">
        <ele>382.07</ele>
        <time>2015-12-02T10:41:23Z</time>
      </trkpt>
      <trkpt lat="47.7324" lon="6.13575">
        <ele>381.83</ele>
        <time>2015-12-02T10:41:25Z</time>
      </trkpt>
      <trkpt lat="47.73234" lon="6.13582">
        <ele>381.2</ele>
        <time>2015-12-02T10:41:27Z</time>
      </trkpt>
      <trkpt lat="47.73226" lon="6.13589">
        <ele>380.31</ele>
        <time>2015-12-02T10:41:29Z</time>
      </trkpt>
      <trkpt lat="47.73222" lon="6.13593">
        <ele>379.83</ele>
        <time>2015-12-02T10:41:30Z</time>
      </trkpt>
      <trkpt lat="47.73218" lon="6.13596">
        <ele>379.44</ele>
        <time>2015-12-02T10:41:31Z</time>
      </trkpt>
      <trkpt lat="47.73214" lon="6.13601">
        <ele>379.1</ele>
        <time>2015-12-02T10:41:32Z</time>
      </trkpt>
      <trkpt lat="47.7321" lon="6.13606">
        <ele>378.87</ele>
        <time>2015-12-02T10:41:33Z</time>
      </trkpt>
      <trkpt lat="47.73205" lon="6.13611">
        <ele>378.86</ele>
        <time>2015-12-02T10:41:34Z</time>
      </trkpt>
      <trkpt lat="47.732" lon="6.13615">
        <ele>378.71</ele>
        <time>2015-12-02T10:41:35Z</time>
      </trkpt>
      <trkpt lat="47.73194" lon="6.13619">
        <ele>378.48</ele>
        <time>2015-12-02T10:41:36Z</time>
      </trkpt>
      <trkpt lat="47.73189" lon="6.13624">
        <ele>378.16</ele>
        <time>2015-12-02T10:41:37Z</time>
      </trkpt>
      <trkpt lat="47.73184" lon="6.1363">
        <ele>377.61</ele>
        <time>2015-12-02T10:41:38Z</time>
      </trkpt>
      <trkpt lat="47.73178" lon="6.13635">
        <ele>376.83</ele>
        <time>2015-12-02T10:41:39Z</time>
      </trkpt>
      <trkpt lat="47.73173" lon="6.13637">
        <ele>376.14</ele>
        <time>2015-12-02T10:41:40Z</time>
      </trkpt>
      <trkpt lat="47.73168" lon="6.1364">
        <ele>375.2</ele>
        <time>2015-12-02T10:41:41Z</time>
      </trkpt>
      <trkpt lat="47.73162" lon="6.13643">
        <ele>374.52</ele>
        <time>2015-12-02T10:41:42Z</time>
      </trkpt>
      <trkpt lat="47.73156" lon="6.13648">
        <ele>373.84</ele>
        <time>2015-12-02T10:41:43Z</time>
      </trkpt>
      <trkpt lat="47.73149" lon="6.13652">
        <ele>373.24</ele>
        <time>2015-12-02T10:41:44Z</time>
      </trkpt>
      <trkpt lat="47.73142" lon="6.13657">
        <ele>372.65</ele>
        <time>2015-12-02T10:41:45Z</time>
      </trkpt>
      <trkpt lat="47.73135" lon="6.13662">
        <ele>372</ele>
        <time>2015-12-02T10:41:46Z</time>
      </trkpt>
      <trkpt lat="47.73127" lon="6.13667">
        <ele>371.38</ele>
        <time>2015-12-02T10:41:47Z</time>
      </trkpt>
      <trkpt lat="47.7312" lon="6.13672">
        <ele>370.91</ele>
        <time>2015-12-02T10:41:48Z</time>
      </trkpt>
      <trkpt lat="47.73112" lon="6.13677">
        <ele>370.58</ele>
        <time>2015-12-02T10:41:49Z</time>
      </trkpt>
      <trkpt lat="47.73105" lon="6.13682">
        <ele>370.27</ele>
        <time>2015-12-02T10:41:50Z</time>
      </trkpt>
      <trkpt lat="47.73098" lon="6.13687">
        <ele>369.91</ele>
        <time>2015-12-02T10:41:51Z</time>
      </trkpt>
      <trkpt lat="47.73092" lon="6.13692">
        <ele>369.28</ele>
        <time>2015-12-02T10:41:52Z</time>
      </trkpt>
      <trkpt lat="47.73086" lon="6.13697">
        <ele>368.42</ele>
        <time>2015-12-02T10:41:53Z</time>
      </trkpt>
      <trkpt lat="47.73081" lon="6.13702">
        <ele>367.38</ele>
        <time>2015-12-02T10:41:54Z</time>
      </trkpt>
      <trkpt lat="47.73076" lon="6.13707">
        <ele>366.27</ele>
        <time>2015-12-02T10:41:55Z</time>
      </trkpt>
      <trkpt lat="47.73072" lon="6.13712">
        <ele>365.26</ele>
        <time>2015-12-02T10:41:56Z</time>
      </trkpt>
      <trkpt lat="47.73067" lon="6.13716">
        <ele>364.31</ele>
        <time>2015-12-02T10:41:57Z</time>
      </trkpt>
      <trkpt lat="47.73063" lon="6.1372">
        <ele>363.48</ele>
        <time>2015-12-02T10:41:58Z</time>
      </trkpt>
      <trkpt lat="47.73058" lon="6.13724">
        <ele>363.01</ele>
        <time>2015-12-02T10:41:59Z</time>
      </trkpt>
      <trkpt lat="47.73054" lon="6.13728">
        <ele>362.78</ele>
        <time>2015-12-02T10:42:00Z</time>
      </trkpt>
      <trkpt lat="47.73046" lon="6.13734">
        <ele>362.41</ele>
        <time>2015-12-02T10:42:02Z</time>
      </trkpt>
      <trkpt lat="47.73039" lon="6.1374">
        <ele>361.84</ele>
        <time>2015-12-02T10:42:04Z</time>
      </trkpt>
      <trkpt lat="47.73032" lon="6.13744">
        <ele>361.05</ele>
        <time>2015-12-02T10:42:06Z</time>
      </trkpt>
      <trkpt lat="47.73025" lon="6.13747">
        <ele>359.5</ele>
        <time>2015-12-02T10:42:08Z</time>
      </trkpt>
      <trkpt lat="47.73018" lon="6.1375">
        <ele>358.44</ele>
        <time>2015-12-02T10:42:10Z</time>
      </trkpt>
      <trkpt lat="47.73011" lon="6.13753">
        <ele>357.92</ele>
        <time>2015-12-02T10:42:12Z</time>
      </trkpt>
      <trkpt lat="47.73005" lon="6.13754">
        <ele>357.64</ele>
        <time>2015-12-02T10:42:14Z</time>
      </trkpt>
      <trkpt lat="47.72998" lon="6.13755">
        <ele>357.35</ele>
        <time>2015-12-02T10:42:16Z</time>
      </trkpt>
      <trkpt lat="47.72991" lon="6.13756">
        <ele>356.93</ele>
        <time>2015-12-02T10:42:18Z</time>
      </trkpt>
      <trkpt lat="47.72984" lon="6.13757">
        <ele>356.84</ele>
        <time>2015-12-02T10:42:20Z</time>
      </trkpt>
      <trkpt lat="47.72977" lon="6.13758">
        <ele>356.85</ele>
        <time>2015-12-02T10:42:22Z</time>
      </trkpt>
      <trkpt lat="47.7297" lon="6.1376">
        <ele>356.78</ele>
        <time>2015-12-02T10:42:24Z</time>
      </trkpt>
      <trkpt lat="47.72963" lon="6.13761">
        <ele>356.96</ele>
        <time>2015-12-02T10:42:26Z</time>
      </trkpt>
      <trkpt lat="47.72957" lon="6.13763">
        <ele>356.98</ele>
        <time>2015-12-02T10:42:28Z</time>
      </trkpt>
      <trkpt lat="47.72951" lon="6.13764">
        <ele>357.08</ele>
        <time>2015-12-02T10:42:30Z</time>
      </trkpt>
      <trkpt lat="47.72945" lon="6.13764">
        <ele>357.06</ele>
        <time>2015-12-02T10:42:32Z</time>
      </trkpt>
      <trkpt lat="47.7294" lon="6.13763">
        <ele>357.03</ele>
        <time>2015-12-02T10:42:34Z</time>
      </trkpt>
      <trkpt lat="47.72934" lon="6.13759">
        <ele>356.8</ele>
        <time>2015-12-02T10:42:36Z</time>
      </trkpt>
      <trkpt lat="47.72929" lon="6.13754">
        <ele>356.61</ele>
        <time>2015-12-02T10:42:38Z</time>
      </trkpt>
      <trkpt lat="47.72923" lon="6.13747">
        <ele>356.62</ele>
        <time>2015-12-02T10:42:40Z</time>
      </trkpt>
      <trkpt lat="47.72917" lon="6.13739">
        <ele>356.37</ele>
        <time>2015-12-02T10:42:42Z</time>
      </trkpt>
      <trkpt lat="47.72911" lon="6.13732">
        <ele>356.28</ele>
        <time>2015-12-02T10:42:44Z</time>
      </trkpt>
      <trkpt lat="47.72904" lon="6.13724">
        <ele>356.18</ele>
        <time>2015-12-02T10:42:46Z</time>
      </trkpt>
      <trkpt lat="47.72898" lon="6.13715">
        <ele>356.28</ele>
        <time>2015-12-02T10:42:48Z</time>
      </trkpt>
      <trkpt lat="47.72891" lon="6.13707">
        <ele>356.51</ele>
        <time>2015-12-02T10:42:50Z</time>
      </trkpt>
      <trkpt lat="47.72888" lon="6.13703">
        <ele>356.58</ele>
        <time>2015-12-02T10:42:51Z</time>
      </trkpt>
      <trkpt lat="47.72884" lon="6.13699">
        <ele>356.67</ele>
        <time>2015-12-02T10:42:52Z</time>
      </trkpt>
      <trkpt lat="47.7288" lon="6.13694">
        <ele>356.81</ele>
        <time>2015-12-02T10:42:53Z</time>
      </trkpt>
      <trkpt lat="47.72877" lon="6.1369">
        <ele>356.93</ele>
        <time>2015-12-02T10:42:54Z</time>
      </trkpt>
      <trkpt lat="47.7287" lon="6.13682">
        <ele>356.95</ele>
        <time>2015-12-02T10:42:56Z</time>
      </trkpt>
      <trkpt lat="47.72864" lon="6.13674">
        <ele>356.87</ele>
        <time>2015-12-02T10:42:58Z</time>
      </trkpt>
      <trkpt lat="47.72858" lon="6.13666">
        <ele>356.81</ele>
        <time>2015-12-02T10:43:00Z</time>
      </trkpt>
      <trkpt lat="47.72851" lon="6.13657">
        <ele>356.81</ele>
        <time>2015-12-02T10:43:02Z</time>
      </trkpt>
      <trkpt lat="47.72845" lon="6.13649">
        <ele>357.07</ele>
        <time>2015-12-02T10:43:04Z</time>
      </trkpt>
      <trkpt lat="47.72838" lon="6.13642">
        <ele>357.26</ele>
        <time>2015-12-02T10:43:06Z</time>
      </trkpt>
      <trkpt lat="47.72832" lon="6.13634">
        <ele>357.5</ele>
        <time>2015-12-02T10:43:08Z</time>
      </trkpt>
      <trkpt lat="47.72828" lon="6.1363">
        <ele>357.48</ele>
        <time>2015-12-02T10:43:09Z</time>
      </trkpt>
      <trkpt lat="47.72822" lon="6.13622">
        <ele>357.81</ele>
        <time>2015-12-02T10:43:11Z</time>
      </trkpt>
      <trkpt lat="47.72819" lon="6.13617">
        <ele>357.93</ele>
        <time>2015-12-02T10:43:12Z</time>
      </trkpt>
      <trkpt lat="47.72815" lon="6.13614">
        <ele>357.89</ele>
        <time>2015-12-02T10:43:13Z</time>
      </trkpt>
      <trkpt lat="47.72811" lon="6.13609">
        <ele>358.02</ele>
        <time>2015-12-02T10:43:14Z</time>
      </trkpt>
      <trkpt lat="47.72805" lon="6.13601">
        <ele>358.14</ele>
        <time>2015-12-02T10:43:16Z</time>
      </trkpt>
      <trkpt lat="47.72798" lon="6.13594">
        <ele>358.02</ele>
        <time>2015-12-02T10:43:18Z</time>
      </trkpt>
      <trkpt lat="47.72791" lon="6.13586">
        <ele>358.24</ele>
        <time>2015-12-02T10:43:20Z</time>
      </trkpt>
      <trkpt lat="47.72787" lon="6.13581">
        <ele>358.45</ele>
        <time>2015-12-02T10:43:21Z</time>
      </trkpt>
      <trkpt lat="47.72784" lon="6.13575">
        <ele>358.75</ele>
        <time>2015-12-02T10:43:22Z</time>
      </trkpt>
      <trkpt lat="47.7278" lon="6.1357">
        <ele>359.05</ele>
        <time>2015-12-02T10:43:23Z</time>
      </trkpt>
      <trkpt lat="47.72776" lon="6.13565">
        <ele>359.3</ele>
        <time>2015-12-02T10:43:24Z</time>
      </trkpt>
      <trkpt lat="47.72772" lon="6.13561">
        <ele>359.33</ele>
        <time>2015-12-02T10:43:25Z</time>
      </trkpt>
      <trkpt lat="47.72768" lon="6.13556">
        <ele>359.19</ele>
        <time>2015-12-02T10:43:26Z</time>
      </trkpt>
      <trkpt lat="47.72764" lon="6.13552">
        <ele>358.92</ele>
        <time>2015-12-02T10:43:27Z</time>
      </trkpt>
      <trkpt lat="47.72761" lon="6.13548">
        <ele>358.54</ele>
        <time>2015-12-02T10:43:28Z</time>
      </trkpt>
      <trkpt lat="47.72757" lon="6.13543">
        <ele>358.09</ele>
        <time>2015-12-02T10:43:29Z</time>
      </trkpt>
      <trkpt lat="47.72753" lon="6.13539">
        <ele>357.67</ele>
        <time>2015-12-02T10:43:30Z</time>
      </trkpt>
      <trkpt lat="47.7275" lon="6.13535">
        <ele>357.46</ele>
        <time>2015-12-02T10:43:31Z</time>
      </trkpt>
      <trkpt lat="47.72746" lon="6.1353">
        <ele>357.21</ele>
        <time>2015-12-02T10:43:32Z</time>
      </trkpt>
      <trkpt lat="47.72742" lon="6.13527">
        <ele>356.93</ele>
        <time>2015-12-02T10:43:33Z</time>
      </trkpt>
      <trkpt lat="47.72735" lon="6.13518">
        <ele>356.22</ele>
        <time>2015-12-02T10:43:35Z</time>
      </trkpt>
      <trkpt lat="47.72731" lon="6.13514">
        <ele>355.94</ele>
        <time>2015-12-02T10:43:36Z</time>
      </trkpt>
      <trkpt lat="47.72727" lon="6.1351">
        <ele>355.64</ele>
        <time>2015-12-02T10:43:37Z</time>
      </trkpt>
      <trkpt lat="47.72724" lon="6.13506">
        <ele>355.35</ele>
        <time>2015-12-02T10:43:38Z</time>
      </trkpt>
      <trkpt lat="47.7272" lon="6.13502">
        <ele>355.05</ele>
        <time>2015-12-02T10:43:39Z</time>
      </trkpt>
      <trkpt lat="47.72716" lon="6.13497">
        <ele>354.75</ele>
        <time>2015-12-02T10:43:40Z</time>
      </trkpt>
      <trkpt lat="47.72711" lon="6.13492">
        <ele>354.5</ele>
        <time>2015-12-02T10:43:41Z</time>
      </trkpt>
      <trkpt lat="47.72707" lon="6.13488">
        <ele>354.13</ele>
        <time>2015-12-02T10:43:42Z</time>
      </trkpt>
      <trkpt lat="47.72703" lon="6.13483">
        <ele>353.79</ele>
        <time>2015-12-02T10:43:43Z</time>
      </trkpt>
      <trkpt lat="47.72699" lon="6.13478">
        <ele>353.47</ele>
        <time>2015-12-02T10:43:44Z</time>
      </trkpt>
      <trkpt lat="47.72695" lon="6.13473">
        <ele>353.21</ele>
        <time>2015-12-02T10:43:45Z</time>
      </trkpt>
      <trkpt lat="47.72691" lon="6.13467">
        <ele>353.13</ele>
        <time>2015-12-02T10:43:46Z</time>
      </trkpt>
      <trkpt lat="47.72687" lon="6.13462">
        <ele>353.14</ele>
        <time>2015-12-02T10:43:47Z</time>
      </trkpt>
      <trkpt lat="47.72682" lon="6.13456">
        <ele>353.2</ele>
        <time>2015-12-02T10:43:48Z</time>
      </trkpt>
      <trkpt lat="47.72678" lon="6.13451">
        <ele>353.02</ele>
        <time>2015-12-02T10:43:49Z</time>
      </trkpt>
      <trkpt lat="47.72673" lon="6.13447">
        <ele>352.99</ele>
        <time>2015-12-02T10:43:50Z</time>
      </trkpt>
      <trkpt lat="47.72669" lon="6.13443">
        <ele>352.82</ele>
        <time>2015-12-02T10:43:51Z</time>
      </trkpt>
      <trkpt lat="47.72664" lon="6.13441">
        <ele>352.59</ele>
        <time>2015-12-02T10:43:52Z</time>
      </trkpt>
      <trkpt lat="47.72656" lon="6.13438">
        <ele>351.33</ele>
        <time>2015-12-02T10:43:54Z</time>
      </trkpt>
      <trkpt lat="47.72648" lon="6.13439">
        <ele>350.45</ele>
        <time>2015-12-02T10:43:56Z</time>
      </trkpt>
      <trkpt lat="47.72642" lon="6.13439">
        <ele>349.57</ele>
        <time>2015-12-02T10:43:58Z</time>
      </trkpt>
      <trkpt lat="47.72636" lon="6.13439">
        <ele>349.08</ele>
        <time>2015-12-02T10:44:00Z</time>
      </trkpt>
      <trkpt lat="47.72631" lon="6.13438">
        <ele>349.06</ele>
        <time>2015-12-02T10:44:02Z</time>
      </trkpt>
      <trkpt lat="47.72626" lon="6.13437">
        <ele>349.45</ele>
        <time>2015-12-02T10:44:05Z</time>
      </trkpt>
      <trkpt lat="47.7262" lon="6.13438">
        <ele>350.35</ele>
        <time>2015-12-02T10:44:07Z</time>
      </trkpt>
      <trkpt lat="47.72614" lon="6.13439">
        <ele>350.85</ele>
        <time>2015-12-02T10:44:09Z</time>
      </trkpt>
      <trkpt lat="47.72608" lon="6.1344">
        <ele>351.18</ele>
        <time>2015-12-02T10:44:11Z</time>
      </trkpt>
      <trkpt lat="47.72602" lon="6.13441">
        <ele>351.81</ele>
        <time>2015-12-02T10:44:13Z</time>
      </trkpt>
      <trkpt lat="47.72596" lon="6.13442">
        <ele>352.07</ele>
        <time>2015-12-02T10:44:15Z</time>
      </trkpt>
      <trkpt lat="47.7259" lon="6.13442">
        <ele>352.18</ele>
        <time>2015-12-02T10:44:17Z</time>
      </trkpt>
      <trkpt lat="47.72585" lon="6.13442">
        <ele>352.36</ele>
        <time>2015-12-02T10:44:19Z</time>
      </trkpt>
      <trkpt lat="47.7258" lon="6.13442">
        <ele>352.63</ele>
        <time>2015-12-02T10:44:21Z</time>
      </trkpt>
      <trkpt lat="47.72573" lon="6.13443">
        <ele>353.44</ele>
        <time>2015-12-02T10:44:24Z</time>
      </trkpt>
      <trkpt lat="47.72568" lon="6.13443">
        <ele>353.97</ele>
        <time>2015-12-02T10:44:26Z</time>
      </trkpt>
      <trkpt lat="47.72562" lon="6.13443">
        <ele>354.23</ele>
        <time>2015-12-02T10:44:28Z</time>
      </trkpt>
      <trkpt lat="47.72556" lon="6.13441">
        <ele>354.51</ele>
        <time>2015-12-02T10:44:31Z</time>
      </trkpt>
      <trkpt lat="47.72551" lon="6.1344">
        <ele>354.84</ele>
        <time>2015-12-02T10:44:33Z</time>
      </trkpt>
      <trkpt lat="47.72544" lon="6.13439">
        <ele>355.67</ele>
        <time>2015-12-02T10:44:36Z</time>
      </trkpt>
      <trkpt lat="47.72538" lon="6.1344">
        <ele>355.71</ele>
        <time>2015-12-02T10:44:38Z</time>
      </trkpt>
      <trkpt lat="47.72534" lon="6.1344">
        <ele>355.94</ele>
        <time>2015-12-02T10:44:40Z</time>
      </trkpt>
      <trkpt lat="47.72529" lon="6.1344">
        <ele>356.4</ele>
        <time>2015-12-02T10:44:42Z</time>
      </trkpt>
      <trkpt lat="47.72524" lon="6.13441">
        <ele>357.09</ele>
        <time>2015-12-02T10:44:44Z</time>
      </trkpt>
      <trkpt lat="47.72519" lon="6.1344">
        <ele>357.71</ele>
        <time>2015-12-02T10:44:46Z</time>
      </trkpt>
      <trkpt lat="47.72513" lon="6.13441">
        <ele>358.34</ele>
        <time>2015-12-02T10:44:48Z</time>
      </trkpt>
      <trkpt lat="47.72508" lon="6.13439">
        <ele>358.57</ele>
        <time>2015-12-02T10:44:50Z</time>
      </trkpt>
      <trkpt lat="47.72503" lon="6.13439">
        <ele>359.08</ele>
        <time>2015-12-02T10:44:52Z</time>
      </trkpt>
      <trkpt lat="47.72497" lon="6.1344">
        <ele>360.13</ele>
        <time>2015-12-02T10:44:54Z</time>
      </trkpt>
      <trkpt lat="47.72492" lon="6.13439">
        <ele>360.92</ele>
        <time>2015-12-02T10:44:56Z</time>
      </trkpt>
      <trkpt lat="47.72486" lon="6.13439">
        <ele>361</ele>
        <time>2015-12-02T10:44:59Z</time>
      </trkpt>
      <trkpt lat="47.7248" lon="6.1344">
        <ele>360.71</ele>
        <time>2015-12-02T10:45:02Z</time>
      </trkpt>
      <trkpt lat="47.72475" lon="6.1344">
        <ele>360.66</ele>
        <time>2015-12-02T10:45:04Z</time>
      </trkpt>
      <trkpt lat="47.72469" lon="6.1344">
        <ele>360.58</ele>
        <time>2015-12-02T10:45:07Z</time>
      </trkpt>
      <trkpt lat="47.72464" lon="6.13441">
        <ele>360.93</ele>
        <time>2015-12-02T10:45:09Z</time>
      </trkpt>
      <trkpt lat="47.72459" lon="6.13443">
        <ele>361.2</ele>
        <time>2015-12-02T10:45:11Z</time>
      </trkpt>
      <trkpt lat="47.72454" lon="6.13444">
        <ele>361.29</ele>
        <time>2015-12-02T10:45:13Z</time>
      </trkpt>
      <trkpt lat="47.72449" lon="6.13446">
        <ele>361.16</ele>
        <time>2015-12-02T10:45:15Z</time>
      </trkpt>
      <trkpt lat="47.72444" lon="6.13445">
        <ele>361.18</ele>
        <time>2015-12-02T10:45:17Z</time>
      </trkpt>
      <trkpt lat="47.72439" lon="6.13444">
        <ele>361.61</ele>
        <time>2015-12-02T10:45:19Z</time>
      </trkpt>
      <trkpt lat="47.72434" lon="6.13444">
        <ele>362.02</ele>
        <time>2015-12-02T10:45:21Z</time>
      </trkpt>
      <trkpt lat="47.72427" lon="6.13443">
        <ele>361.41</ele>
        <time>2015-12-02T10:45:24Z</time>
      </trkpt>
      <trkpt lat="47.72422" lon="6.13443">
        <ele>361.27</ele>
        <time>2015-12-02T10:45:26Z</time>
      </trkpt>
      <trkpt lat="47.72417" lon="6.13441">
        <ele>361.23</ele>
        <time>2015-12-02T10:45:28Z</time>
      </trkpt>
      <trkpt lat="47.72412" lon="6.13438">
        <ele>361.15</ele>
        <time>2015-12-02T10:45:30Z</time>
      </trkpt>
      <trkpt lat="47.72406" lon="6.13437">
        <ele>361.25</ele>
        <time>2015-12-02T10:45:32Z</time>
      </trkpt>
      <trkpt lat="47.724" lon="6.13436">
        <ele>361.55</ele>
        <time>2015-12-02T10:45:34Z</time>
      </trkpt>
      <trkpt lat="47.72392" lon="6.13435">
        <ele>362.08</ele>
        <time>2015-12-02T10:45:36Z</time>
      </trkpt>
      <trkpt lat="47.72386" lon="6.13435">
        <ele>362.26</ele>
        <time>2015-12-02T10:45:38Z</time>
      </trkpt>
      <trkpt lat="47.72378" lon="6.13437">
        <ele>361.85</ele>
        <time>2015-12-02T10:45:40Z</time>
      </trkpt>
      <trkpt lat="47.7237" lon="6.13439">
        <ele>361.7</ele>
        <time>2015-12-02T10:45:42Z</time>
      </trkpt>
      <trkpt lat="47.72366" lon="6.13439">
        <ele>361.73</ele>
        <time>2015-12-02T10:45:43Z</time>
      </trkpt>
      <trkpt lat="47.72357" lon="6.13439">
        <ele>361.07</ele>
        <time>2015-12-02T10:45:45Z</time>
      </trkpt>
      <trkpt lat="47.72352" lon="6.13439">
        <ele>360.81</ele>
        <time>2015-12-02T10:45:46Z</time>
      </trkpt>
      <trkpt lat="47.72347" lon="6.13439">
        <ele>360.48</ele>
        <time>2015-12-02T10:45:47Z</time>
      </trkpt>
      <trkpt lat="47.72342" lon="6.13438">
        <ele>360.07</ele>
        <time>2015-12-02T10:45:48Z</time>
      </trkpt>
      <trkpt lat="47.72336" lon="6.13437">
        <ele>359.36</ele>
        <time>2015-12-02T10:45:49Z</time>
      </trkpt>
      <trkpt lat="47.7233" lon="6.13436">
        <ele>358.85</ele>
        <time>2015-12-02T10:45:50Z</time>
      </trkpt>
      <trkpt lat="47.72324" lon="6.13436">
        <ele>358.45</ele>
        <time>2015-12-02T10:45:51Z</time>
      </trkpt>
      <trkpt lat="47.72318" lon="6.13436">
        <ele>358.05</ele>
        <time>2015-12-02T10:45:52Z</time>
      </trkpt>
      <trkpt lat="47.72311" lon="6.13435">
        <ele>357.6</ele>
        <time>2015-12-02T10:45:53Z</time>
      </trkpt>
      <trkpt lat="47.72306" lon="6.13434">
        <ele>357.18</ele>
        <time>2015-12-02T10:45:54Z</time>
      </trkpt>
      <trkpt lat="47.723" lon="6.13433">
        <ele>356.76</ele>
        <time>2015-12-02T10:45:55Z</time>
      </trkpt>
      <trkpt lat="47.72294" lon="6.13433">
        <ele>356.66</ele>
        <time>2015-12-02T10:45:56Z</time>
      </trkpt>
      <trkpt lat="47.72288" lon="6.13432">
        <ele>356.6</ele>
        <time>2015-12-02T10:45:57Z</time>
      </trkpt>
      <trkpt lat="47.72281" lon="6.13431">
        <ele>356.68</ele>
        <time>2015-12-02T10:45:58Z</time>
      </trkpt>
      <trkpt lat="47.72274" lon="6.13431">
        <ele>356.66</ele>
        <time>2015-12-02T10:45:59Z</time>
      </trkpt>
      <trkpt lat="47.72266" lon="6.13431">
        <ele>356.41</ele>
        <time>2015-12-02T10:46:00Z</time>
      </trkpt>
      <trkpt lat="47.72259" lon="6.13431">
        <ele>355.98</ele>
        <time>2015-12-02T10:46:01Z</time>
      </trkpt>
      <trkpt lat="47.72252" lon="6.13431">
        <ele>355.12</ele>
        <time>2015-12-02T10:46:02Z</time>
      </trkpt>
      <trkpt lat="47.72244" lon="6.13431">
        <ele>354.03</ele>
        <time>2015-12-02T10:46:03Z</time>
      </trkpt>
      <trkpt lat="47.72236" lon="6.1343">
        <ele>352.54</ele>
        <time>2015-12-02T10:46:04Z</time>
      </trkpt>
      <trkpt lat="47.72227" lon="6.1343">
        <ele>351.35</ele>
        <time>2015-12-02T10:46:05Z</time>
      </trkpt>
      <trkpt lat="47.72218" lon="6.1343">
        <ele>350.4</ele>
        <time>2015-12-02T10:46:06Z</time>
      </trkpt>
      <trkpt lat="47.72209" lon="6.1343">
        <ele>349.62</ele>
        <time>2015-12-02T10:46:07Z</time>
      </trkpt>
      <trkpt lat="47.722" lon="6.1343">
        <ele>348.99</ele>
        <time>2015-12-02T10:46:08Z</time>
      </trkpt>
      <trkpt lat="47.72191" lon="6.13429">
        <ele>348.42</ele>
        <time>2015-12-02T10:46:09Z</time>
      </trkpt>
      <trkpt lat="47.72182" lon="6.1343">
        <ele>347.69</ele>
        <time>2015-12-02T10:46:10Z</time>
      </trkpt>
      <trkpt lat="47.72174" lon="6.1343">
        <ele>346.92</ele>
        <time>2015-12-02T10:46:11Z</time>
      </trkpt>
      <trkpt lat="47.72165" lon="6.13431">
        <ele>346.48</ele>
        <time>2015-12-02T10:46:12Z</time>
      </trkpt>
      <trkpt lat="47.72156" lon="6.13431">
        <ele>345.97</ele>
        <time>2015-12-02T10:46:13Z</time>
      </trkpt>
      <trkpt lat="47.72148" lon="6.1343">
        <ele>345.31</ele>
        <time>2015-12-02T10:46:14Z</time>
      </trkpt>
      <trkpt lat="47.7214" lon="6.13431">
        <ele>344.63</ele>
        <time>2015-12-02T10:46:15Z</time>
      </trkpt>
      <trkpt lat="47.72132" lon="6.13431">
        <ele>344.04</ele>
        <time>2015-12-02T10:46:16Z</time>
      </trkpt>
      <trkpt lat="47.72125" lon="6.1343">
        <ele>343.55</ele>
        <time>2015-12-02T10:46:17Z</time>
      </trkpt>
      <trkpt lat="47.72118" lon="6.13429">
        <ele>343.2</ele>
        <time>2015-12-02T10:46:18Z</time>
      </trkpt>
      <trkpt lat="47.72113" lon="6.13429">
        <ele>342.27</ele>
        <time>2015-12-02T10:46:19Z</time>
      </trkpt>
      <trkpt lat="47.72107" lon="6.1343">
        <ele>341.31</ele>
        <time>2015-12-02T10:46:20Z</time>
      </trkpt>
      <trkpt lat="47.72102" lon="6.13429">
        <ele>340.78</ele>
        <time>2015-12-02T10:46:21Z</time>
      </trkpt>
      <trkpt lat="47.72097" lon="6.13427">
        <ele>340.72</ele>
        <time>2015-12-02T10:46:22Z</time>
      </trkpt>
      <trkpt lat="47.72092" lon="6.13427">
        <ele>340.63</ele>
        <time>2015-12-02T10:46:23Z</time>
      </trkpt>
      <trkpt lat="47.72087" lon="6.13428">
        <ele>340.34</ele>
        <time>2015-12-02T10:46:24Z</time>
      </trkpt>
      <trkpt lat="47.7208" lon="6.13428">
        <ele>339.77</ele>
        <time>2015-12-02T10:46:26Z</time>
      </trkpt>
      <trkpt lat="47.72073" lon="6.13428">
        <ele>338.76</ele>
        <time>2015-12-02T10:46:28Z</time>
      </trkpt>
      <trkpt lat="47.72066" lon="6.13427">
        <ele>338.88</ele>
        <time>2015-12-02T10:46:30Z</time>
      </trkpt>
      <trkpt lat="47.72059" lon="6.13428">
        <ele>339.58</ele>
        <time>2015-12-02T10:46:32Z</time>
      </trkpt>
      <trkpt lat="47.72053" lon="6.13429">
        <ele>340.18</ele>
        <time>2015-12-02T10:46:34Z</time>
      </trkpt>
      <trkpt lat="47.72046" lon="6.13431">
        <ele>340.01</ele>
        <time>2015-12-02T10:46:36Z</time>
      </trkpt>
      <trkpt lat="47.72039" lon="6.1343">
        <ele>339.72</ele>
        <time>2015-12-02T10:46:38Z</time>
      </trkpt>
      <trkpt lat="47.72032" lon="6.13429">
        <ele>339.64</ele>
        <time>2015-12-02T10:46:40Z</time>
      </trkpt>
      <trkpt lat="47.72025" lon="6.13428">
        <ele>340.02</ele>
        <time>2015-12-02T10:46:42Z</time>
      </trkpt>
      <trkpt lat="47.72019" lon="6.13428">
        <ele>340.34</ele>
        <time>2015-12-02T10:46:44Z</time>
      </trkpt>
      <trkpt lat="47.72013" lon="6.13428">
        <ele>340.22</ele>
        <time>2015-12-02T10:46:46Z</time>
      </trkpt>
      <trkpt lat="47.72007" lon="6.13428">
        <ele>340.09</ele>
        <time>2015-12-02T10:46:48Z</time>
      </trkpt>
      <trkpt lat="47.72001" lon="6.13429">
        <ele>340.21</ele>
        <time>2015-12-02T10:46:50Z</time>
      </trkpt>
      <trkpt lat="47.71995" lon="6.13427">
        <ele>340.72</ele>
        <time>2015-12-02T10:46:52Z</time>
      </trkpt>
      <trkpt lat="47.71989" lon="6.13427">
        <ele>341.57</ele>
        <time>2015-12-02T10:46:54Z</time>
      </trkpt>
      <trkpt lat="47.71983" lon="6.13427">
        <ele>342.31</ele>
        <time>2015-12-02T10:46:56Z</time>
      </trkpt>
      <trkpt lat="47.71977" lon="6.13427">
        <ele>342.91</ele>
        <time>2015-12-02T10:46:58Z</time>
      </trkpt>
      <trkpt lat="47.71972" lon="6.13428">
        <ele>343.57</ele>
        <time>2015-12-02T10:47:00Z</time>
      </trkpt>
      <trkpt lat="47.71965" lon="6.13427">
        <ele>344.05</ele>
        <time>2015-12-02T10:47:03Z</time>
      </trkpt>
      <trkpt lat="47.71959" lon="6.13427">
        <ele>344.68</ele>
        <time>2015-12-02T10:47:05Z</time>
      </trkpt>
      <trkpt lat="47.71954" lon="6.13429">
        <ele>345.58</ele>
        <time>2015-12-02T10:47:07Z</time>
      </trkpt>
      <trkpt lat="47.71949" lon="6.13427">
        <ele>346.08</ele>
        <time>2015-12-02T10:47:09Z</time>
      </trkpt>
      <trkpt lat="47.71944" lon="6.13425">
        <ele>346.23</ele>
        <time>2015-12-02T10:47:11Z</time>
      </trkpt>
      <trkpt lat="47.71939" lon="6.13425">
        <ele>346.05</ele>
        <time>2015-12-02T10:47:13Z</time>
      </trkpt>
      <trkpt lat="47.71933" lon="6.13425">
        <ele>345.82</ele>
        <time>2015-12-02T10:47:15Z</time>
      </trkpt>
      <trkpt lat="47.71928" lon="6.13428">
        <ele>345.82</ele>
        <time>2015-12-02T10:47:17Z</time>
      </trkpt>
      <trkpt lat="47.71922" lon="6.13429">
        <ele>346.02</ele>
        <time>2015-12-02T10:47:19Z</time>
      </trkpt>
      <trkpt lat="47.71917" lon="6.1343">
        <ele>346.69</ele>
        <time>2015-12-02T10:47:21Z</time>
      </trkpt>
      <trkpt lat="47.71911" lon="6.13431">
        <ele>347.51</ele>
        <time>2015-12-02T10:47:23Z</time>
      </trkpt>
      <trkpt lat="47.71906" lon="6.1343">
        <ele>347.59</ele>
        <time>2015-12-02T10:47:25Z</time>
      </trkpt>
      <trkpt lat="47.719" lon="6.13431">
        <ele>347.46</ele>
        <time>2015-12-02T10:47:27Z</time>
      </trkpt>
      <trkpt lat="47.71895" lon="6.13429">
        <ele>347.38</ele>
        <time>2015-12-02T10:47:29Z</time>
      </trkpt>
      <trkpt lat="47.71891" lon="6.13432">
        <ele>346.76</ele>
        <time>2015-12-02T10:47:31Z</time>
      </trkpt>
      <trkpt lat="47.71885" lon="6.13432">
        <ele>346.5</ele>
        <time>2015-12-02T10:47:33Z</time>
      </trkpt>
      <trkpt lat="47.7188" lon="6.13432">
        <ele>346.94</ele>
        <time>2015-12-02T10:47:35Z</time>
      </trkpt>
      <trkpt lat="47.71876" lon="6.13432">
        <ele>347.15</ele>
        <time>2015-12-02T10:47:37Z</time>
      </trkpt>
      <trkpt lat="47.71871" lon="6.13432">
        <ele>347.05</ele>
        <time>2015-12-02T10:47:39Z</time>
      </trkpt>
      <trkpt lat="47.71866" lon="6.13432">
        <ele>346.65</ele>
        <time>2015-12-02T10:47:42Z</time>
      </trkpt>
      <trkpt lat="47.71859" lon="6.13433">
        <ele>346.61</ele>
        <time>2015-12-02T10:47:45Z</time>
      </trkpt>
      <trkpt lat="47.71855" lon="6.13433">
        <ele>346.77</ele>
        <time>2015-12-02T10:47:47Z</time>
      </trkpt>
      <trkpt lat="47.7185" lon="6.13432">
        <ele>346.85</ele>
        <time>2015-12-02T10:47:49Z</time>
      </trkpt>
      <trkpt lat="47.71845" lon="6.13432">
        <ele>346.8</ele>
        <time>2015-12-02T10:47:51Z</time>
      </trkpt>
      <trkpt lat="47.7184" lon="6.13432">
        <ele>346.41</ele>
        <time>2015-12-02T10:47:53Z</time>
      </trkpt>
      <trkpt lat="47.71836" lon="6.1343">
        <ele>346.29</ele>
        <time>2015-12-02T10:47:55Z</time>
      </trkpt>
      <trkpt lat="47.71831" lon="6.1343">
        <ele>346.16</ele>
        <time>2015-12-02T10:47:57Z</time>
      </trkpt>
      <trkpt lat="47.71826" lon="6.13429">
        <ele>346.05</ele>
        <time>2015-12-02T10:47:59Z</time>
      </trkpt>
      <trkpt lat="47.71821" lon="6.13428">
        <ele>345.73</ele>
        <time>2015-12-02T10:48:01Z</time>
      </trkpt>
      <trkpt lat="47.71816" lon="6.13429">
        <ele>345.69</ele>
        <time>2015-12-02T10:48:03Z</time>
      </trkpt>
      <trkpt lat="47.71811" lon="6.13429">
        <ele>345.54</ele>
        <time>2015-12-02T10:48:05Z</time>
      </trkpt>
      <trkpt lat="47.71806" lon="6.13429">
        <ele>345.6</ele>
        <time>2015-12-02T10:48:07Z</time>
      </trkpt>
      <trkpt lat="47.71801" lon="6.13428">
        <ele>346.16</ele>
        <time>2015-12-02T10:48:09Z</time>
      </trkpt>
      <trkpt lat="47.71795" lon="6.13429">
        <ele>346.5</ele>
        <time>2015-12-02T10:48:12Z</time>
      </trkpt>
      <trkpt lat="47.71791" lon="6.13431">
        <ele>346.54</ele>
        <time>2015-12-02T10:48:14Z</time>
      </trkpt>
      <trkpt lat="47.71786" lon="6.13433">
        <ele>346.47</ele>
        <time>2015-12-02T10:48:16Z</time>
      </trkpt>
      <trkpt lat="47.71782" lon="6.1344">
        <ele>345.94</ele>
        <time>2015-12-02T10:48:19Z</time>
      </trkpt>
      <trkpt lat="47.7178" lon="6.13446">
        <ele>345.95</ele>
        <time>2015-12-02T10:48:21Z</time>
      </trkpt>
      <trkpt lat="47.71776" lon="6.13453">
        <ele>346.68</ele>
        <time>2015-12-02T10:48:23Z</time>
      </trkpt>
      <trkpt lat="47.71771" lon="6.13461">
        <ele>347.28</ele>
        <time>2015-12-02T10:48:25Z</time>
      </trkpt>
      <trkpt lat="47.71764" lon="6.13466">
        <ele>347.71</ele>
        <time>2015-12-02T10:48:27Z</time>
      </trkpt>
      <trkpt lat="47.7176" lon="6.13466">
        <ele>347.83</ele>
        <time>2015-12-02T10:48:28Z</time>
      </trkpt>
      <trkpt lat="47.71755" lon="6.13468">
        <ele>347.84</ele>
        <time>2015-12-02T10:48:29Z</time>
      </trkpt>
      <trkpt lat="47.7175" lon="6.13469">
        <ele>347.65</ele>
        <time>2015-12-02T10:48:30Z</time>
      </trkpt>
      <trkpt lat="47.71745" lon="6.13469">
        <ele>347.35</ele>
        <time>2015-12-02T10:48:31Z</time>
      </trkpt>
      <trkpt lat="47.7174" lon="6.1347">
        <ele>347</ele>
        <time>2015-12-02T10:48:32Z</time>
      </trkpt>
      <trkpt lat="47.71734" lon="6.13469">
        <ele>346.73</ele>
        <time>2015-12-02T10:48:33Z</time>
      </trkpt>
      <trkpt lat="47.71728" lon="6.13468">
        <ele>346.54</ele>
        <time>2015-12-02T10:48:34Z</time>
      </trkpt>
      <trkpt lat="47.71722" lon="6.13468">
        <ele>346.29</ele>
        <time>2015-12-02T10:48:35Z</time>
      </trkpt>
      <trkpt lat="47.71716" lon="6.13468">
        <ele>346.02</ele>
        <time>2015-12-02T10:48:36Z</time>
      </trkpt>
      <trkpt lat="47.71709" lon="6.13468">
        <ele>345.64</ele>
        <time>2015-12-02T10:48:37Z</time>
      </trkpt>
      <trkpt lat="47.71703" lon="6.13469">
        <ele>345.14</ele>
        <time>2015-12-02T10:48:38Z</time>
      </trkpt>
      <trkpt lat="47.71696" lon="6.1347">
        <ele>344.55</ele>
        <time>2015-12-02T10:48:39Z</time>
      </trkpt>
      <trkpt lat="47.71689" lon="6.1347">
        <ele>344.05</ele>
        <time>2015-12-02T10:48:40Z</time>
      </trkpt>
      <trkpt lat="47.71683" lon="6.13469">
        <ele>343.65</ele>
        <time>2015-12-02T10:48:41Z</time>
      </trkpt>
      <trkpt lat="47.71676" lon="6.1347">
        <ele>343.1</ele>
        <time>2015-12-02T10:48:42Z</time>
      </trkpt>
      <trkpt lat="47.71669" lon="6.13469">
        <ele>342.63</ele>
        <time>2015-12-02T10:48:43Z</time>
      </trkpt>
      <trkpt lat="47.71662" lon="6.13469">
        <ele>342.29</ele>
        <time>2015-12-02T10:48:44Z</time>
      </trkpt>
      <trkpt lat="47.71654" lon="6.13468">
        <ele>341.97</ele>
        <time>2015-12-02T10:48:45Z</time>
      </trkpt>
      <trkpt lat="47.71646" lon="6.13468">
        <ele>341.71</ele>
        <time>2015-12-02T10:48:46Z</time>
      </trkpt>
      <trkpt lat="47.71639" lon="6.13468">
        <ele>341.38</ele>
        <time>2015-12-02T10:48:47Z</time>
      </trkpt>
      <trkpt lat="47.71632" lon="6.13469">
        <ele>341.12</ele>
        <time>2015-12-02T10:48:48Z</time>
      </trkpt>
      <trkpt lat="47.71625" lon="6.13471">
        <ele>340.68</ele>
        <time>2015-12-02T10:48:49Z</time>
      </trkpt>
      <trkpt lat="47.71619" lon="6.13475">
        <ele>340.22</ele>
        <time>2015-12-02T10:48:50Z</time>
      </trkpt>
      <trkpt lat="47.71613" lon="6.13479">
        <ele>339.83</ele>
        <time>2015-12-02T10:48:51Z</time>
      </trkpt>
      <trkpt lat="47.71607" lon="6.13483">
        <ele>339.59</ele>
        <time>2015-12-02T10:48:52Z</time>
      </trkpt>
      <trkpt lat="47.71602" lon="6.13487">
        <ele>339.37</ele>
        <time>2015-12-02T10:48:53Z</time>
      </trkpt>
      <trkpt lat="47.71598" lon="6.13491">
        <ele>339.21</ele>
        <time>2015-12-02T10:48:54Z</time>
      </trkpt>
      <trkpt lat="47.71595" lon="6.13496">
        <ele>338.98</ele>
        <time>2015-12-02T10:48:55Z</time>
      </trkpt>
      <trkpt lat="47.71591" lon="6.13499">
        <ele>338.87</ele>
        <time>2015-12-02T10:48:56Z</time>
      </trkpt>
      <trkpt lat="47.71584" lon="6.13506">
        <ele>338.55</ele>
        <time>2015-12-02T10:48:58Z</time>
      </trkpt>
      <trkpt lat="47.71577" lon="6.13515">
        <ele>338.23</ele>
        <time>2015-12-02T10:49:00Z</time>
      </trkpt>
      <trkpt lat="47.71574" lon="6.13519">
        <ele>338.24</ele>
        <time>2015-12-02T10:49:01Z</time>
      </trkpt>
      <trkpt lat="47.7157" lon="6.13524">
        <ele>338.14</ele>
        <time>2015-12-02T10:49:02Z</time>
      </trkpt>
      <trkpt lat="47.71567" lon="6.13528">
        <ele>338.15</ele>
        <time>2015-12-02T10:49:03Z</time>
      </trkpt>
      <trkpt lat="47.71562" lon="6.13533">
        <ele>338.3</ele>
        <time>2015-12-02T10:49:04Z</time>
      </trkpt>
      <trkpt lat="47.71558" lon="6.13537">
        <ele>338.38</ele>
        <time>2015-12-02T10:49:05Z</time>
      </trkpt>
      <trkpt lat="47.71554" lon="6.13542">
        <ele>338.06</ele>
        <time>2015-12-02T10:49:06Z</time>
      </trkpt>
      <trkpt lat="47.7155" lon="6.13546">
        <ele>337.91</ele>
        <time>2015-12-02T10:49:07Z</time>
      </trkpt>
      <trkpt lat="47.71545" lon="6.13551">
        <ele>337.83</ele>
        <time>2015-12-02T10:49:08Z</time>
      </trkpt>
      <trkpt lat="47.7154" lon="6.13556">
        <ele>337.94</ele>
        <time>2015-12-02T10:49:09Z</time>
      </trkpt>
      <trkpt lat="47.71536" lon="6.13561">
        <ele>338.05</ele>
        <time>2015-12-02T10:49:10Z</time>
      </trkpt>
      <trkpt lat="47.71531" lon="6.13566">
        <ele>338.05</ele>
        <time>2015-12-02T10:49:11Z</time>
      </trkpt>
      <trkpt lat="47.71526" lon="6.13571">
        <ele>337.85</ele>
        <time>2015-12-02T10:49:12Z</time>
      </trkpt>
      <trkpt lat="47.71521" lon="6.13576">
        <ele>337.7</ele>
        <time>2015-12-02T10:49:13Z</time>
      </trkpt>
      <trkpt lat="47.71516" lon="6.13581">
        <ele>337.73</ele>
        <time>2015-12-02T10:49:14Z</time>
      </trkpt>
      <trkpt lat="47.71512" lon="6.13586">
        <ele>337.99</ele>
        <time>2015-12-02T10:49:15Z</time>
      </trkpt>
      <trkpt lat="47.71508" lon="6.13591">
        <ele>338.17</ele>
        <time>2015-12-02T10:49:16Z</time>
      </trkpt>
      <trkpt lat="47.71504" lon="6.13595">
        <ele>338.46</ele>
        <time>2015-12-02T10:49:17Z</time>
      </trkpt>
      <trkpt lat="47.715" lon="6.13601">
        <ele>338.86</ele>
        <time>2015-12-02T10:49:18Z</time>
      </trkpt>
      <trkpt lat="47.71497" lon="6.13605">
        <ele>339.25</ele>
        <time>2015-12-02T10:49:19Z</time>
      </trkpt>
      <trkpt lat="47.7149" lon="6.13613">
        <ele>339.83</ele>
        <time>2015-12-02T10:49:21Z</time>
      </trkpt>
      <trkpt lat="47.71486" lon="6.13617">
        <ele>339.99</ele>
        <time>2015-12-02T10:49:22Z</time>
      </trkpt>
      <trkpt lat="47.71482" lon="6.13621">
        <ele>340.27</ele>
        <time>2015-12-02T10:49:23Z</time>
      </trkpt>
      <trkpt lat="47.71478" lon="6.13625">
        <ele>340.36</ele>
        <time>2015-12-02T10:49:24Z</time>
      </trkpt>
      <trkpt lat="47.7147" lon="6.1363">
        <ele>340.28</ele>
        <time>2015-12-02T10:49:26Z</time>
      </trkpt>
      <trkpt lat="47.71462" lon="6.13634">
        <ele>340.11</ele>
        <time>2015-12-02T10:49:28Z</time>
      </trkpt>
      <trkpt lat="47.71454" lon="6.13634">
        <ele>339.57</ele>
        <time>2015-12-02T10:49:30Z</time>
      </trkpt>
      <trkpt lat="47.71446" lon="6.13631">
        <ele>338.75</ele>
        <time>2015-12-02T10:49:32Z</time>
      </trkpt>
      <trkpt lat="47.7144" lon="6.13625">
        <ele>337.8</ele>
        <time>2015-12-02T10:49:34Z</time>
      </trkpt>
      <trkpt lat="47.71433" lon="6.13617">
        <ele>337.91</ele>
        <time>2015-12-02T10:49:36Z</time>
      </trkpt>
      <trkpt lat="47.71428" lon="6.13612">
        <ele>337.84</ele>
        <time>2015-12-02T10:49:38Z</time>
      </trkpt>
      <trkpt lat="47.71423" lon="6.13607">
        <ele>337.75</ele>
        <time>2015-12-02T10:49:40Z</time>
      </trkpt>
      <trkpt lat="47.71418" lon="6.13602">
        <ele>337.88</ele>
        <time>2015-12-02T10:49:42Z</time>
      </trkpt>
      <trkpt lat="47.71413" lon="6.13597">
        <ele>338.11</ele>
        <time>2015-12-02T10:49:44Z</time>
      </trkpt>
      <trkpt lat="47.71409" lon="6.1359">
        <ele>338.44</ele>
        <time>2015-12-02T10:49:46Z</time>
      </trkpt>
      <trkpt lat="47.71403" lon="6.13583">
        <ele>338.55</ele>
        <time>2015-12-02T10:49:48Z</time>
      </trkpt>
      <trkpt lat="47.71398" lon="6.13578">
        <ele>338.75</ele>
        <time>2015-12-02T10:49:50Z</time>
      </trkpt>
      <trkpt lat="47.71393" lon="6.13572">
        <ele>339.23</ele>
        <time>2015-12-02T10:49:52Z</time>
      </trkpt>
      <trkpt lat="47.71388" lon="6.13565">
        <ele>340.02</ele>
        <time>2015-12-02T10:49:54Z</time>
      </trkpt>
      <trkpt lat="47.71382" lon="6.1356">
        <ele>340.42</ele>
        <time>2015-12-02T10:49:56Z</time>
      </trkpt>
      <trkpt lat="47.71375" lon="6.13557">
        <ele>340.24</ele>
        <time>2015-12-02T10:49:58Z</time>
      </trkpt>
      <trkpt lat="47.71368" lon="6.13555">
        <ele>339.92</ele>
        <time>2015-12-02T10:50:00Z</time>
      </trkpt>
      <trkpt lat="47.7136" lon="6.13554">
        <ele>339.99</ele>
        <time>2015-12-02T10:50:02Z</time>
      </trkpt>
      <trkpt lat="47.71351" lon="6.13553">
        <ele>340.09</ele>
        <time>2015-12-02T10:50:04Z</time>
      </trkpt>
      <trkpt lat="47.71346" lon="6.13553">
        <ele>340.32</ele>
        <time>2015-12-02T10:50:05Z</time>
      </trkpt>
      <trkpt lat="47.71341" lon="6.13553">
        <ele>340.68</ele>
        <time>2015-12-02T10:50:06Z</time>
      </trkpt>
      <trkpt lat="47.71333" lon="6.13552">
        <ele>341.23</ele>
        <time>2015-12-02T10:50:08Z</time>
      </trkpt>
      <trkpt lat="47.71325" lon="6.13551">
        <ele>341.65</ele>
        <time>2015-12-02T10:50:10Z</time>
      </trkpt>
      <trkpt lat="47.71316" lon="6.13551">
        <ele>341.9</ele>
        <time>2015-12-02T10:50:12Z</time>
      </trkpt>
      <trkpt lat="47.71311" lon="6.13552">
        <ele>342.08</ele>
        <time>2015-12-02T10:50:13Z</time>
      </trkpt>
      <trkpt lat="47.71305" lon="6.13552">
        <ele>342.06</ele>
        <time>2015-12-02T10:50:14Z</time>
      </trkpt>
      <trkpt lat="47.71299" lon="6.13553">
        <ele>341.96</ele>
        <time>2015-12-02T10:50:15Z</time>
      </trkpt>
      <trkpt lat="47.71293" lon="6.13554">
        <ele>341.95</ele>
        <time>2015-12-02T10:50:16Z</time>
      </trkpt>
      <trkpt lat="47.71287" lon="6.13553">
        <ele>342.05</ele>
        <time>2015-12-02T10:50:17Z</time>
      </trkpt>
      <trkpt lat="47.71281" lon="6.13553">
        <ele>342.2</ele>
        <time>2015-12-02T10:50:18Z</time>
      </trkpt>
      <trkpt lat="47.71274" lon="6.13553">
        <ele>342.08</ele>
        <time>2015-12-02T10:50:19Z</time>
      </trkpt>
      <trkpt lat="47.71267" lon="6.13554">
        <ele>341.86</ele>
        <time>2015-12-02T10:50:20Z</time>
      </trkpt>
      <trkpt lat="47.71261" lon="6.13555">
        <ele>341.56</ele>
        <time>2015-12-02T10:50:21Z</time>
      </trkpt>
      <trkpt lat="47.71256" lon="6.13556">
        <ele>341.2</ele>
        <time>2015-12-02T10:50:22Z</time>
      </trkpt>
      <trkpt lat="47.71251" lon="6.13556">
        <ele>340.98</ele>
        <time>2015-12-02T10:50:23Z</time>
      </trkpt>
      <trkpt lat="47.71246" lon="6.13556">
        <ele>340.81</ele>
        <time>2015-12-02T10:50:24Z</time>
      </trkpt>
      <trkpt lat="47.71241" lon="6.13555">
        <ele>340.68</ele>
        <time>2015-12-02T10:50:25Z</time>
      </trkpt>
      <trkpt lat="47.71236" lon="6.13555">
        <ele>340.62</ele>
        <time>2015-12-02T10:50:26Z</time>
      </trkpt>
      <trkpt lat="47.71231" lon="6.13555">
        <ele>340.58</ele>
        <time>2015-12-02T10:50:27Z</time>
      </trkpt>
      <trkpt lat="47.71227" lon="6.13555">
        <ele>340.42</ele>
        <time>2015-12-02T10:50:28Z</time>
      </trkpt>
      <trkpt lat="47.71222" lon="6.13555">
        <ele>340.23</ele>
        <time>2015-12-02T10:50:29Z</time>
      </trkpt>
      <trkpt lat="47.71218" lon="6.13554">
        <ele>339.99</ele>
        <time>2015-12-02T10:50:30Z</time>
      </trkpt>
      <trkpt lat="47.71213" lon="6.13554">
        <ele>340.02</ele>
        <time>2015-12-02T10:50:31Z</time>
      </trkpt>
      <trkpt lat="47.71208" lon="6.13554">
        <ele>340.04</ele>
        <time>2015-12-02T10:50:32Z</time>
      </trkpt>
      <trkpt lat="47.71203" lon="6.13555">
        <ele>340.09</ele>
        <time>2015-12-02T10:50:33Z</time>
      </trkpt>
      <trkpt lat="47.71198" lon="6.13555">
        <ele>340.12</ele>
        <time>2015-12-02T10:50:34Z</time>
      </trkpt>
      <trkpt lat="47.71192" lon="6.13555">
        <ele>340.19</ele>
        <time>2015-12-02T10:50:35Z</time>
      </trkpt>
      <trkpt lat="47.71187" lon="6.13555">
        <ele>340.12</ele>
        <time>2015-12-02T10:50:36Z</time>
      </trkpt>
      <trkpt lat="47.71182" lon="6.13555">
        <ele>339.98</ele>
        <time>2015-12-02T10:50:37Z</time>
      </trkpt>
      <trkpt lat="47.71177" lon="6.13555">
        <ele>339.92</ele>
        <time>2015-12-02T10:50:38Z</time>
      </trkpt>
      <trkpt lat="47.71171" lon="6.13555">
        <ele>339.73</ele>
        <time>2015-12-02T10:50:39Z</time>
      </trkpt>
      <trkpt lat="47.71166" lon="6.13556">
        <ele>339.49</ele>
        <time>2015-12-02T10:50:40Z</time>
      </trkpt>
      <trkpt lat="47.71161" lon="6.13556">
        <ele>339.27</ele>
        <time>2015-12-02T10:50:41Z</time>
      </trkpt>
      <trkpt lat="47.71156" lon="6.13556">
        <ele>339.01</ele>
        <time>2015-12-02T10:50:42Z</time>
      </trkpt>
      <trkpt lat="47.71151" lon="6.13556">
        <ele>338.73</ele>
        <time>2015-12-02T10:50:43Z</time>
      </trkpt>
      <trkpt lat="47.71145" lon="6.13556">
        <ele>338.39</ele>
        <time>2015-12-02T10:50:44Z</time>
      </trkpt>
      <trkpt lat="47.7114" lon="6.13556">
        <ele>338.17</ele>
        <time>2015-12-02T10:50:45Z</time>
      </trkpt>
      <trkpt lat="47.71134" lon="6.13556">
        <ele>338.11</ele>
        <time>2015-12-02T10:50:46Z</time>
      </trkpt>
      <trkpt lat="47.71128" lon="6.13556">
        <ele>338.08</ele>
        <time>2015-12-02T10:50:47Z</time>
      </trkpt>
      <trkpt lat="47.71123" lon="6.13556">
        <ele>337.92</ele>
        <time>2015-12-02T10:50:48Z</time>
      </trkpt>
      <trkpt lat="47.71117" lon="6.13556">
        <ele>337.58</ele>
        <time>2015-12-02T10:50:49Z</time>
      </trkpt>
      <trkpt lat="47.71112" lon="6.13557">
        <ele>337.17</ele>
        <time>2015-12-02T10:50:50Z</time>
      </trkpt>
      <trkpt lat="47.71108" lon="6.13557">
        <ele>336.76</ele>
        <time>2015-12-02T10:50:51Z</time>
      </trkpt>
      <trkpt lat="47.71103" lon="6.13558">
        <ele>336.46</ele>
        <time>2015-12-02T10:50:52Z</time>
      </trkpt>
      <trkpt lat="47.71096" lon="6.13559">
        <ele>336.1</ele>
        <time>2015-12-02T10:50:54Z</time>
      </trkpt>
      <trkpt lat="47.7109" lon="6.13559">
        <ele>336.11</ele>
        <time>2015-12-02T10:50:56Z</time>
      </trkpt>
      <trkpt lat="47.71083" lon="6.13558">
        <ele>336.34</ele>
        <time>2015-12-02T10:50:58Z</time>
      </trkpt>
      <trkpt lat="47.71075" lon="6.13557">
        <ele>336.7</ele>
        <time>2015-12-02T10:51:00Z</time>
      </trkpt>
      <trkpt lat="47.71067" lon="6.13557">
        <ele>337.06</ele>
        <time>2015-12-02T10:51:02Z</time>
      </trkpt>
      <trkpt lat="47.7106" lon="6.13556">
        <ele>337</ele>
        <time>2015-12-02T10:51:04Z</time>
      </trkpt>
      <trkpt lat="47.71053" lon="6.13557">
        <ele>337.24</ele>
        <time>2015-12-02T10:51:06Z</time>
      </trkpt>
      <trkpt lat="47.71047" lon="6.13557">
        <ele>337.47</ele>
        <time>2015-12-02T10:51:08Z</time>
      </trkpt>
      <trkpt lat="47.71042" lon="6.13556">
        <ele>337.53</ele>
        <time>2015-12-02T10:51:10Z</time>
      </trkpt>
      <trkpt lat="47.71036" lon="6.13558">
        <ele>338.14</ele>
        <time>2015-12-02T10:51:13Z</time>
      </trkpt>
      <trkpt lat="47.7103" lon="6.13557">
        <ele>338.77</ele>
        <time>2015-12-02T10:51:16Z</time>
      </trkpt>
      <trkpt lat="47.71024" lon="6.13558">
        <ele>339.13</ele>
        <time>2015-12-02T10:51:18Z</time>
      </trkpt>
      <trkpt lat="47.71019" lon="6.13558">
        <ele>338.97</ele>
        <time>2015-12-02T10:51:20Z</time>
      </trkpt>
      <trkpt lat="47.71013" lon="6.13557">
        <ele>338.17</ele>
        <time>2015-12-02T10:51:23Z</time>
      </trkpt>
      <trkpt lat="47.71006" lon="6.13558">
        <ele>337.83</ele>
        <time>2015-12-02T10:51:26Z</time>
      </trkpt>
      <trkpt lat="47.71001" lon="6.1356">
        <ele>338.2</ele>
        <time>2015-12-02T10:51:28Z</time>
      </trkpt>
      <trkpt lat="47.70995" lon="6.13562">
        <ele>338.71</ele>
        <time>2015-12-02T10:51:30Z</time>
      </trkpt>
      <trkpt lat="47.7099" lon="6.13563">
        <ele>338.59</ele>
        <time>2015-12-02T10:51:32Z</time>
      </trkpt>
      <trkpt lat="47.70985" lon="6.13564">
        <ele>338.34</ele>
        <time>2015-12-02T10:51:34Z</time>
      </trkpt>
      <trkpt lat="47.70979" lon="6.13566">
        <ele>337.87</ele>
        <time>2015-12-02T10:51:36Z</time>
      </trkpt>
      <trkpt lat="47.70975" lon="6.13568">
        <ele>337.56</ele>
        <time>2015-12-02T10:51:38Z</time>
      </trkpt>
      <trkpt lat="47.7097" lon="6.1357">
        <ele>337.15</ele>
        <time>2015-12-02T10:51:41Z</time>
      </trkpt>
      <trkpt lat="47.70964" lon="6.13573">
        <ele>336.84</ele>
        <time>2015-12-02T10:51:44Z</time>
      </trkpt>
      <trkpt lat="47.70958" lon="6.13577">
        <ele>336.64</ele>
        <time>2015-12-02T10:51:47Z</time>
      </trkpt>
      <trkpt lat="47.70954" lon="6.1358">
        <ele>336.57</ele>
        <time>2015-12-02T10:51:49Z</time>
      </trkpt>
      <trkpt lat="47.70949" lon="6.13583">
        <ele>336.71</ele>
        <time>2015-12-02T10:51:51Z</time>
      </trkpt>
      <trkpt lat="47.70945" lon="6.13585">
        <ele>336.76</ele>
        <time>2015-12-02T10:51:53Z</time>
      </trkpt>
      <trkpt lat="47.70939" lon="6.13586">
        <ele>336.4</ele>
        <time>2015-12-02T10:51:56Z</time>
      </trkpt>
      <trkpt lat="47.70934" lon="6.13589">
        <ele>336.36</ele>
        <time>2015-12-02T10:51:58Z</time>
      </trkpt>
      <trkpt lat="47.70929" lon="6.13589">
        <ele>335.44</ele>
        <time>2015-12-02T10:52:02Z</time>
      </trkpt>
      <trkpt lat="47.70924" lon="6.13587">
        <ele>334.81</ele>
        <time>2015-12-02T10:52:05Z</time>
      </trkpt>
      <trkpt lat="47.70919" lon="6.13588">
        <ele>334.62</ele>
        <time>2015-12-02T10:52:07Z</time>
      </trkpt>
      <trkpt lat="47.70914" lon="6.13589">
        <ele>334.39</ele>
        <time>2015-12-02T10:52:09Z</time>
      </trkpt>
      <trkpt lat="47.70908" lon="6.13587">
        <ele>334.54</ele>
        <time>2015-12-02T10:52:12Z</time>
      </trkpt>
      <trkpt lat="47.70903" lon="6.13586">
        <ele>334.35</ele>
        <time>2015-12-02T10:52:14Z</time>
      </trkpt>
      <trkpt lat="47.70897" lon="6.13586">
        <ele>333.98</ele>
        <time>2015-12-02T10:52:16Z</time>
      </trkpt>
      <trkpt lat="47.70892" lon="6.13586">
        <ele>333.48</ele>
        <time>2015-12-02T10:52:18Z</time>
      </trkpt>
      <trkpt lat="47.70887" lon="6.13585">
        <ele>333.31</ele>
        <time>2015-12-02T10:52:20Z</time>
      </trkpt>
      <trkpt lat="47.70881" lon="6.13584">
        <ele>333</ele>
        <time>2015-12-02T10:52:23Z</time>
      </trkpt>
      <trkpt lat="47.70877" lon="6.13581">
        <ele>333.29</ele>
        <time>2015-12-02T10:52:26Z</time>
      </trkpt>
      <trkpt lat="47.70871" lon="6.13579">
        <ele>333.99</ele>
        <time>2015-12-02T10:52:29Z</time>
      </trkpt>
      <trkpt lat="47.70868" lon="6.13583">
        <ele>335.16</ele>
        <time>2015-12-02T10:52:32Z</time>
      </trkpt>
      <trkpt lat="47.70845" lon="6.13584">
        <ele>337.05</ele>
        <time>2015-12-02T10:52:49Z</time>
      </trkpt>
      <trkpt lat="47.70839" lon="6.13582">
        <ele>337.23</ele>
        <time>2015-12-02T10:52:51Z</time>
      </trkpt>
      <trkpt lat="47.70834" lon="6.13579">
        <ele>337.56</ele>
        <time>2015-12-02T10:52:55Z</time>
      </trkpt>
      <trkpt lat="47.70829" lon="6.13577">
        <ele>337.65</ele>
        <time>2015-12-02T10:52:57Z</time>
      </trkpt>
      <trkpt lat="47.70824" lon="6.13577">
        <ele>337.48</ele>
        <time>2015-12-02T10:52:59Z</time>
      </trkpt>
      <trkpt lat="47.70819" lon="6.13577">
        <ele>337.73</ele>
        <time>2015-12-02T10:53:01Z</time>
      </trkpt>
      <trkpt lat="47.70814" lon="6.13575">
        <ele>338.5</ele>
        <time>2015-12-02T10:53:03Z</time>
      </trkpt>
      <trkpt lat="47.70808" lon="6.13576">
        <ele>339.01</ele>
        <time>2015-12-02T10:53:05Z</time>
      </trkpt>
      <trkpt lat="47.70802" lon="6.13577">
        <ele>340.02</ele>
        <time>2015-12-02T10:53:08Z</time>
      </trkpt>
      <trkpt lat="47.70797" lon="6.13578">
        <ele>340.22</ele>
        <time>2015-12-02T10:53:10Z</time>
      </trkpt>
      <trkpt lat="47.70791" lon="6.13577">
        <ele>339.23</ele>
        <time>2015-12-02T10:53:13Z</time>
      </trkpt>
      <trkpt lat="47.70785" lon="6.13578">
        <ele>338.17</ele>
        <time>2015-12-02T10:53:16Z</time>
      </trkpt>
      <trkpt lat="47.70778" lon="6.13577">
        <ele>338.56</ele>
        <time>2015-12-02T10:53:18Z</time>
      </trkpt>
      <trkpt lat="47.70772" lon="6.13577">
        <ele>338.23</ele>
        <time>2015-12-02T10:53:21Z</time>
      </trkpt>
      <trkpt lat="47.70765" lon="6.13577">
        <ele>338.36</ele>
        <time>2015-12-02T10:53:24Z</time>
      </trkpt>
      <trkpt lat="47.70759" lon="6.1358">
        <ele>338.48</ele>
        <time>2015-12-02T10:53:27Z</time>
      </trkpt>
      <trkpt lat="47.70752" lon="6.13581">
        <ele>337.78</ele>
        <time>2015-12-02T10:53:30Z</time>
      </trkpt>
      <trkpt lat="47.70747" lon="6.13581">
        <ele>337.03</ele>
        <time>2015-12-02T10:53:32Z</time>
      </trkpt>
      <trkpt lat="47.70743" lon="6.13582">
        <ele>336.32</ele>
        <time>2015-12-02T10:53:34Z</time>
      </trkpt>
      <trkpt lat="47.70737" lon="6.13584">
        <ele>335.75</ele>
        <time>2015-12-02T10:53:37Z</time>
      </trkpt>
      <trkpt lat="47.70731" lon="6.13585">
        <ele>336</ele>
        <time>2015-12-02T10:53:40Z</time>
      </trkpt>
      <trkpt lat="47.70727" lon="6.13587">
        <ele>336.16</ele>
        <time>2015-12-02T10:53:42Z</time>
      </trkpt>
      <trkpt lat="47.70721" lon="6.13589">
        <ele>336.28</ele>
        <time>2015-12-02T10:53:45Z</time>
      </trkpt>
      <trkpt lat="47.70716" lon="6.13591">
        <ele>335.81</ele>
        <time>2015-12-02T10:53:49Z</time>
      </trkpt>
      <trkpt lat="47.70711" lon="6.13594">
        <ele>335</ele>
        <time>2015-12-02T10:53:53Z</time>
      </trkpt>
      <trkpt lat="47.70705" lon="6.13596">
        <ele>334.88</ele>
        <time>2015-12-02T10:53:56Z</time>
      </trkpt>
      <trkpt lat="47.70699" lon="6.13599">
        <ele>335.09</ele>
        <time>2015-12-02T10:53:59Z</time>
      </trkpt>
      <trkpt lat="47.70693" lon="6.136">
        <ele>335.06</ele>
        <time>2015-12-02T10:54:01Z</time>
      </trkpt>
      <trkpt lat="47.70686" lon="6.13602">
        <ele>334.9</ele>
        <time>2015-12-02T10:54:04Z</time>
      </trkpt>
      <trkpt lat="47.70681" lon="6.13604">
        <ele>334.96</ele>
        <time>2015-12-02T10:54:06Z</time>
      </trkpt>
      <trkpt lat="47.70676" lon="6.13608">
        <ele>335.02</ele>
        <time>2015-12-02T10:54:09Z</time>
      </trkpt>
      <trkpt lat="47.70671" lon="6.1361">
        <ele>334.89</ele>
        <time>2015-12-02T10:54:11Z</time>
      </trkpt>
      <trkpt lat="47.70667" lon="6.13613">
        <ele>335.16</ele>
        <time>2015-12-02T10:54:13Z</time>
      </trkpt>
      <trkpt lat="47.70663" lon="6.13616">
        <ele>335.45</ele>
        <time>2015-12-02T10:54:15Z</time>
      </trkpt>
      <trkpt lat="47.70659" lon="6.13623">
        <ele>335.89</ele>
        <time>2015-12-02T10:54:18Z</time>
      </trkpt>
      <trkpt lat="47.70655" lon="6.13627">
        <ele>336.44</ele>
        <time>2015-12-02T10:54:20Z</time>
      </trkpt>
      <trkpt lat="47.7065" lon="6.13633">
        <ele>336.65</ele>
        <time>2015-12-02T10:54:22Z</time>
      </trkpt>
      <trkpt lat="47.70646" lon="6.13635">
        <ele>337.45</ele>
        <time>2015-12-02T10:54:24Z</time>
      </trkpt>
      <trkpt lat="47.7064" lon="6.13635">
        <ele>337.75</ele>
        <time>2015-12-02T10:54:26Z</time>
      </trkpt>
      <trkpt lat="47.70636" lon="6.13639">
        <ele>338.36</ele>
        <time>2015-12-02T10:54:29Z</time>
      </trkpt>
      <trkpt lat="47.70632" lon="6.13644">
        <ele>338.9</ele>
        <time>2015-12-02T10:54:32Z</time>
      </trkpt>
      <trkpt lat="47.70626" lon="6.13645">
        <ele>339.31</ele>
        <time>2015-12-02T10:54:35Z</time>
      </trkpt>
      <trkpt lat="47.70621" lon="6.13647">
        <ele>339.16</ele>
        <time>2015-12-02T10:54:38Z</time>
      </trkpt>
      <trkpt lat="47.70617" lon="6.13654">
        <ele>338.63</ele>
        <time>2015-12-02T10:54:41Z</time>
      </trkpt>
      <trkpt lat="47.70613" lon="6.13658">
        <ele>338.17</ele>
        <time>2015-12-02T10:54:43Z</time>
      </trkpt>
      <trkpt lat="47.70608" lon="6.13663">
        <ele>338.32</ele>
        <time>2015-12-02T10:54:46Z</time>
      </trkpt>
      <trkpt lat="47.70605" lon="6.13667">
        <ele>338.39</ele>
        <time>2015-12-02T10:54:48Z</time>
      </trkpt>
      <trkpt lat="47.70601" lon="6.13672">
        <ele>338.26</ele>
        <time>2015-12-02T10:54:51Z</time>
      </trkpt>
      <trkpt lat="47.70592" lon="6.13682">
        <ele>338.5</ele>
        <time>2015-12-02T10:54:58Z</time>
      </trkpt>
      <trkpt lat="47.70587" lon="6.13686">
        <ele>338.99</ele>
        <time>2015-12-02T10:55:00Z</time>
      </trkpt>
      <trkpt lat="47.70581" lon="6.13689">
        <ele>338.99</ele>
        <time>2015-12-02T10:55:02Z</time>
      </trkpt>
      <trkpt lat="47.70576" lon="6.1369">
        <ele>338.83</ele>
        <time>2015-12-02T10:55:04Z</time>
      </trkpt>
      <trkpt lat="47.70572" lon="6.13692">
        <ele>339</ele>
        <time>2015-12-02T10:55:06Z</time>
      </trkpt>
      <trkpt lat="47.70567" lon="6.13695">
        <ele>339.11</ele>
        <time>2015-12-02T10:55:08Z</time>
      </trkpt>
      <trkpt lat="47.70562" lon="6.13696">
        <ele>339.27</ele>
        <time>2015-12-02T10:55:10Z</time>
      </trkpt>
      <trkpt lat="47.70557" lon="6.13697">
        <ele>339.23</ele>
        <time>2015-12-02T10:55:12Z</time>
      </trkpt>
      <trkpt lat="47.70552" lon="6.137">
        <ele>339.12</ele>
        <time>2015-12-02T10:55:14Z</time>
      </trkpt>
      <trkpt lat="47.70548" lon="6.13703">
        <ele>338.94</ele>
        <time>2015-12-02T10:55:16Z</time>
      </trkpt>
      <trkpt lat="47.70544" lon="6.13708">
        <ele>338.62</ele>
        <time>2015-12-02T10:55:18Z</time>
      </trkpt>
      <trkpt lat="47.70539" lon="6.13711">
        <ele>338.57</ele>
        <time>2015-12-02T10:55:20Z</time>
      </trkpt>
      <trkpt lat="47.70535" lon="6.13714">
        <ele>339.08</ele>
        <time>2015-12-02T10:55:22Z</time>
      </trkpt>
      <trkpt lat="47.7053" lon="6.13718">
        <ele>339.31</ele>
        <time>2015-12-02T10:55:24Z</time>
      </trkpt>
      <trkpt lat="47.70526" lon="6.13722">
        <ele>339.32</ele>
        <time>2015-12-02T10:55:26Z</time>
      </trkpt>
      <trkpt lat="47.70522" lon="6.13725">
        <ele>338.84</ele>
        <time>2015-12-02T10:55:28Z</time>
      </trkpt>
      <trkpt lat="47.70515" lon="6.13729">
        <ele>338.04</ele>
        <time>2015-12-02T10:55:31Z</time>
      </trkpt>
      <trkpt lat="47.70508" lon="6.13731">
        <ele>337.62</ele>
        <time>2015-12-02T10:55:33Z</time>
      </trkpt>
      <trkpt lat="47.70502" lon="6.13733">
        <ele>337.24</ele>
        <time>2015-12-02T10:55:35Z</time>
      </trkpt>
      <trkpt lat="47.70497" lon="6.13736">
        <ele>336.5</ele>
        <time>2015-12-02T10:55:37Z</time>
      </trkpt>
      <trkpt lat="47.70492" lon="6.13738">
        <ele>335.86</ele>
        <time>2015-12-02T10:55:39Z</time>
      </trkpt>
      <trkpt lat="47.70488" lon="6.1374">
        <ele>335.15</ele>
        <time>2015-12-02T10:55:41Z</time>
      </trkpt>
      <trkpt lat="47.70483" lon="6.13743">
        <ele>335.23</ele>
        <time>2015-12-02T10:55:43Z</time>
      </trkpt>
      <trkpt lat="47.70477" lon="6.13747">
        <ele>334.96</ele>
        <time>2015-12-02T10:55:46Z</time>
      </trkpt>
      <trkpt lat="47.70473" lon="6.13748">
        <ele>335.28</ele>
        <time>2015-12-02T10:55:48Z</time>
      </trkpt>
      <trkpt lat="47.70469" lon="6.13753">
        <ele>335.48</ele>
        <time>2015-12-02T10:55:50Z</time>
      </trkpt>
      <trkpt lat="47.70463" lon="6.13756">
        <ele>335.69</ele>
        <time>2015-12-02T10:55:53Z</time>
      </trkpt>
      <trkpt lat="47.70456" lon="6.13758">
        <ele>335.85</ele>
        <time>2015-12-02T10:55:58Z</time>
      </trkpt>
      <trkpt lat="47.70451" lon="6.1376">
        <ele>336.13</ele>
        <time>2015-12-02T10:56:00Z</time>
      </trkpt>
      <trkpt lat="47.70447" lon="6.13762">
        <ele>335.94</ele>
        <time>2015-12-02T10:56:02Z</time>
      </trkpt>
      <trkpt lat="47.70442" lon="6.13761">
        <ele>335.57</ele>
        <time>2015-12-02T10:56:04Z</time>
      </trkpt>
      <trkpt lat="47.70436" lon="6.13765">
        <ele>335.2</ele>
        <time>2015-12-02T10:56:07Z</time>
      </trkpt>
      <trkpt lat="47.70431" lon="6.1377">
        <ele>334.63</ele>
        <time>2015-12-02T10:56:10Z</time>
      </trkpt>
      <trkpt lat="47.70426" lon="6.13772">
        <ele>333.82</ele>
        <time>2015-12-02T10:56:12Z</time>
      </trkpt>
      <trkpt lat="47.70421" lon="6.13774">
        <ele>333.07</ele>
        <time>2015-12-02T10:56:14Z</time>
      </trkpt>
      <trkpt lat="47.70415" lon="6.13776">
        <ele>332.31</ele>
        <time>2015-12-02T10:56:16Z</time>
      </trkpt>
      <trkpt lat="47.70409" lon="6.13778">
        <ele>331.36</ele>
        <time>2015-12-02T10:56:18Z</time>
      </trkpt>
      <trkpt lat="47.70403" lon="6.13781">
        <ele>330.95</ele>
        <time>2015-12-02T10:56:20Z</time>
      </trkpt>
      <trkpt lat="47.70397" lon="6.13785">
        <ele>331.23</ele>
        <time>2015-12-02T10:56:22Z</time>
      </trkpt>
      <trkpt lat="47.70392" lon="6.13788">
        <ele>331.22</ele>
        <time>2015-12-02T10:56:24Z</time>
      </trkpt>
      <trkpt lat="47.70387" lon="6.13791">
        <ele>330.47</ele>
        <time>2015-12-02T10:56:26Z</time>
      </trkpt>
      <trkpt lat="47.70381" lon="6.13795">
        <ele>329.21</ele>
        <time>2015-12-02T10:56:28Z</time>
      </trkpt>
      <trkpt lat="47.70374" lon="6.138">
        <ele>327.79</ele>
        <time>2015-12-02T10:56:30Z</time>
      </trkpt>
      <trkpt lat="47.70366" lon="6.13805">
        <ele>326.44</ele>
        <time>2015-12-02T10:56:32Z</time>
      </trkpt>
      <trkpt lat="47.70362" lon="6.13808">
        <ele>325.79</ele>
        <time>2015-12-02T10:56:33Z</time>
      </trkpt>
      <trkpt lat="47.70358" lon="6.13811">
        <ele>325.37</ele>
        <time>2015-12-02T10:56:34Z</time>
      </trkpt>
      <trkpt lat="47.7035" lon="6.13816">
        <ele>324.96</ele>
        <time>2015-12-02T10:56:36Z</time>
      </trkpt>
      <trkpt lat="47.70344" lon="6.1382">
        <ele>324.3</ele>
        <time>2015-12-02T10:56:38Z</time>
      </trkpt>
      <trkpt lat="47.70339" lon="6.13824">
        <ele>323.71</ele>
        <time>2015-12-02T10:56:40Z</time>
      </trkpt>
      <trkpt lat="47.70334" lon="6.13827">
        <ele>323.37</ele>
        <time>2015-12-02T10:56:42Z</time>
      </trkpt>
      <trkpt lat="47.70328" lon="6.1383">
        <ele>323.6</ele>
        <time>2015-12-02T10:56:44Z</time>
      </trkpt>
      <trkpt lat="47.70323" lon="6.13833">
        <ele>323.51</ele>
        <time>2015-12-02T10:56:46Z</time>
      </trkpt>
      <trkpt lat="47.70317" lon="6.13835">
        <ele>323.27</ele>
        <time>2015-12-02T10:56:48Z</time>
      </trkpt>
      <trkpt lat="47.70312" lon="6.13838">
        <ele>322.8</ele>
        <time>2015-12-02T10:56:50Z</time>
      </trkpt>
      <trkpt lat="47.70307" lon="6.13841">
        <ele>322.36</ele>
        <time>2015-12-02T10:56:52Z</time>
      </trkpt>
      <trkpt lat="47.70301" lon="6.13843">
        <ele>321.93</ele>
        <time>2015-12-02T10:56:54Z</time>
      </trkpt>
      <trkpt lat="47.70295" lon="6.13845">
        <ele>321.47</ele>
        <time>2015-12-02T10:56:56Z</time>
      </trkpt>
      <trkpt lat="47.7029" lon="6.13848">
        <ele>320.68</ele>
        <time>2015-12-02T10:56:58Z</time>
      </trkpt>
      <trkpt lat="47.70285" lon="6.1385">
        <ele>320.26</ele>
        <time>2015-12-02T10:57:00Z</time>
      </trkpt>
      <trkpt lat="47.70279" lon="6.13851">
        <ele>320.08</ele>
        <time>2015-12-02T10:57:03Z</time>
      </trkpt>
      <trkpt lat="47.70273" lon="6.13854">
        <ele>320.03</ele>
        <time>2015-12-02T10:57:05Z</time>
      </trkpt>
      <trkpt lat="47.70267" lon="6.13858">
        <ele>320.1</ele>
        <time>2015-12-02T10:57:07Z</time>
      </trkpt>
      <trkpt lat="47.70263" lon="6.13863">
        <ele>319.89</ele>
        <time>2015-12-02T10:57:09Z</time>
      </trkpt>
      <trkpt lat="47.70258" lon="6.1387">
        <ele>319.54</ele>
        <time>2015-12-02T10:57:11Z</time>
      </trkpt>
      <trkpt lat="47.70257" lon="6.13881">
        <ele>318.37</ele>
        <time>2015-12-02T10:57:13Z</time>
      </trkpt>
      <trkpt lat="47.7026" lon="6.13891">
        <ele>317.11</ele>
        <time>2015-12-02T10:57:15Z</time>
      </trkpt>
      <trkpt lat="47.70264" lon="6.139">
        <ele>316.49</ele>
        <time>2015-12-02T10:57:17Z</time>
      </trkpt>
      <trkpt lat="47.70266" lon="6.1391">
        <ele>316.36</ele>
        <time>2015-12-02T10:57:19Z</time>
      </trkpt>
      <trkpt lat="47.70269" lon="6.13918">
        <ele>316.45</ele>
        <time>2015-12-02T10:57:21Z</time>
      </trkpt>
      <trkpt lat="47.70271" lon="6.13926">
        <ele>316.4</ele>
        <time>2015-12-02T10:57:24Z</time>
      </trkpt>
      <trkpt lat="47.70273" lon="6.13935">
        <ele>316.27</ele>
        <time>2015-12-02T10:57:27Z</time>
      </trkpt>
      <trkpt lat="47.70275" lon="6.13944">
        <ele>316.15</ele>
        <time>2015-12-02T10:57:30Z</time>
      </trkpt>
      <trkpt lat="47.70278" lon="6.13951">
        <ele>316.19</ele>
        <time>2015-12-02T10:57:33Z</time>
      </trkpt>
      <trkpt lat="47.7028" lon="6.13958">
        <ele>316.56</ele>
        <time>2015-12-02T10:57:35Z</time>
      </trkpt>
      <trkpt lat="47.70282" lon="6.13965">
        <ele>316.45</ele>
        <time>2015-12-02T10:57:37Z</time>
      </trkpt>
      <trkpt lat="47.70284" lon="6.13974">
        <ele>316.38</ele>
        <time>2015-12-02T10:57:39Z</time>
      </trkpt>
      <trkpt lat="47.70287" lon="6.13982">
        <ele>316.88</ele>
        <time>2015-12-02T10:57:41Z</time>
      </trkpt>
      <trkpt lat="47.70288" lon="6.1399">
        <ele>317.33</ele>
        <time>2015-12-02T10:57:43Z</time>
      </trkpt>
      <trkpt lat="47.7029" lon="6.14">
        <ele>317.37</ele>
        <time>2015-12-02T10:57:45Z</time>
      </trkpt>
      <trkpt lat="47.70291" lon="6.14011">
        <ele>317.26</ele>
        <time>2015-12-02T10:57:47Z</time>
      </trkpt>
      <trkpt lat="47.70293" lon="6.14018">
        <ele>317.3</ele>
        <time>2015-12-02T10:57:48Z</time>
      </trkpt>
      <trkpt lat="47.70295" lon="6.14031">
        <ele>317.46</ele>
        <time>2015-12-02T10:57:50Z</time>
      </trkpt>
      <trkpt lat="47.70298" lon="6.14043">
        <ele>317.8</ele>
        <time>2015-12-02T10:57:52Z</time>
      </trkpt>
      <trkpt lat="47.703" lon="6.1405">
        <ele>317.78</ele>
        <time>2015-12-02T10:57:53Z</time>
      </trkpt>
      <trkpt lat="47.70302" lon="6.14057">
        <ele>317.61</ele>
        <time>2015-12-02T10:57:54Z</time>
      </trkpt>
      <trkpt lat="47.70303" lon="6.14064">
        <ele>317.43</ele>
        <time>2015-12-02T10:57:55Z</time>
      </trkpt>
      <trkpt lat="47.70305" lon="6.1407">
        <ele>317.24</ele>
        <time>2015-12-02T10:57:56Z</time>
      </trkpt>
      <trkpt lat="47.70307" lon="6.14077">
        <ele>317.1</ele>
        <time>2015-12-02T10:57:57Z</time>
      </trkpt>
      <trkpt lat="47.70309" lon="6.14084">
        <ele>316.97</ele>
        <time>2015-12-02T10:57:58Z</time>
      </trkpt>
      <trkpt lat="47.7031" lon="6.14093">
        <ele>316.76</ele>
        <time>2015-12-02T10:57:59Z</time>
      </trkpt>
      <trkpt lat="47.70312" lon="6.14102">
        <ele>316.61</ele>
        <time>2015-12-02T10:58:00Z</time>
      </trkpt>
      <trkpt lat="47.70315" lon="6.14113">
        <ele>316.28</ele>
        <time>2015-12-02T10:58:01Z</time>
      </trkpt>
      <trkpt lat="47.70317" lon="6.14123">
        <ele>315.96</ele>
        <time>2015-12-02T10:58:02Z</time>
      </trkpt>
      <trkpt lat="47.7032" lon="6.14133">
        <ele>315.76</ele>
        <time>2015-12-02T10:58:03Z</time>
      </trkpt>
      <trkpt lat="47.70322" lon="6.14144">
        <ele>315.45</ele>
        <time>2015-12-02T10:58:04Z</time>
      </trkpt>
      <trkpt lat="47.70324" lon="6.14153">
        <ele>315.2</ele>
        <time>2015-12-02T10:58:05Z</time>
      </trkpt>
      <trkpt lat="47.70327" lon="6.1416">
        <ele>314.93</ele>
        <time>2015-12-02T10:58:06Z</time>
      </trkpt>
      <trkpt lat="47.70329" lon="6.14168">
        <ele>314.54</ele>
        <time>2015-12-02T10:58:07Z</time>
      </trkpt>
      <trkpt lat="47.70331" lon="6.14177">
        <ele>314.35</ele>
        <time>2015-12-02T10:58:08Z</time>
      </trkpt>
      <trkpt lat="47.70333" lon="6.14186">
        <ele>314.25</ele>
        <time>2015-12-02T10:58:09Z</time>
      </trkpt>
      <trkpt lat="47.70335" lon="6.14197">
        <ele>313.75</ele>
        <time>2015-12-02T10:58:10Z</time>
      </trkpt>
      <trkpt lat="47.70338" lon="6.14207">
        <ele>313.2</ele>
        <time>2015-12-02T10:58:11Z</time>
      </trkpt>
      <trkpt lat="47.70341" lon="6.14215">
        <ele>312.73</ele>
        <time>2015-12-02T10:58:12Z</time>
      </trkpt>
      <trkpt lat="47.70343" lon="6.14222">
        <ele>312.34</ele>
        <time>2015-12-02T10:58:13Z</time>
      </trkpt>
      <trkpt lat="47.70344" lon="6.14229">
        <ele>312.24</ele>
        <time>2015-12-02T10:58:14Z</time>
      </trkpt>
      <trkpt lat="47.70344" lon="6.14236">
        <ele>312.3</ele>
        <time>2015-12-02T10:58:15Z</time>
      </trkpt>
      <trkpt lat="47.70341" lon="6.14248">
        <ele>312.31</ele>
        <time>2015-12-02T10:58:17Z</time>
      </trkpt>
      <trkpt lat="47.70338" lon="6.14253">
        <ele>312.23</ele>
        <time>2015-12-02T10:58:18Z</time>
      </trkpt>
      <trkpt lat="47.70335" lon="6.14259">
        <ele>312.09</ele>
        <time>2015-12-02T10:58:19Z</time>
      </trkpt>
      <trkpt lat="47.70328" lon="6.14265">
        <ele>311.21</ele>
        <time>2015-12-02T10:58:21Z</time>
      </trkpt>
      <trkpt lat="47.70324" lon="6.14274">
        <ele>310.14</ele>
        <time>2015-12-02T10:58:23Z</time>
      </trkpt>
      <trkpt lat="47.70321" lon="6.14281">
        <ele>309.4</ele>
        <time>2015-12-02T10:58:24Z</time>
      </trkpt>
      <trkpt lat="47.70318" lon="6.14287">
        <ele>308.97</ele>
        <time>2015-12-02T10:58:25Z</time>
      </trkpt>
      <trkpt lat="47.70315" lon="6.14294">
        <ele>308.81</ele>
        <time>2015-12-02T10:58:26Z</time>
      </trkpt>
      <trkpt lat="47.7031" lon="6.14304">
        <ele>308.47</ele>
        <time>2015-12-02T10:58:28Z</time>
      </trkpt>
      <trkpt lat="47.70306" lon="6.14308">
        <ele>308.06</ele>
        <time>2015-12-02T10:58:29Z</time>
      </trkpt>
      <trkpt lat="47.70302" lon="6.14313">
        <ele>307.75</ele>
        <time>2015-12-02T10:58:30Z</time>
      </trkpt>
      <trkpt lat="47.70298" lon="6.14318">
        <ele>307.35</ele>
        <time>2015-12-02T10:58:31Z</time>
      </trkpt>
      <trkpt lat="47.70294" lon="6.14322">
        <ele>306.85</ele>
        <time>2015-12-02T10:58:32Z</time>
      </trkpt>
      <trkpt lat="47.7029" lon="6.14326">
        <ele>306.3</ele>
        <time>2015-12-02T10:58:33Z</time>
      </trkpt>
      <trkpt lat="47.70286" lon="6.1433">
        <ele>305.83</ele>
        <time>2015-12-02T10:58:34Z</time>
      </trkpt>
      <trkpt lat="47.70281" lon="6.14333">
        <ele>305.24</ele>
        <time>2015-12-02T10:58:35Z</time>
      </trkpt>
      <trkpt lat="47.70277" lon="6.14337">
        <ele>304.59</ele>
        <time>2015-12-02T10:58:36Z</time>
      </trkpt>
      <trkpt lat="47.70273" lon="6.14341">
        <ele>303.97</ele>
        <time>2015-12-02T10:58:37Z</time>
      </trkpt>
      <trkpt lat="47.70269" lon="6.14345">
        <ele>303.36</ele>
        <time>2015-12-02T10:58:38Z</time>
      </trkpt>
      <trkpt lat="47.70264" lon="6.14349">
        <ele>302.71</ele>
        <time>2015-12-02T10:58:39Z</time>
      </trkpt>
      <trkpt lat="47.7026" lon="6.14353">
        <ele>302.08</ele>
        <time>2015-12-02T10:58:40Z</time>
      </trkpt>
      <trkpt lat="47.70256" lon="6.14358">
        <ele>301.46</ele>
        <time>2015-12-02T10:58:41Z</time>
      </trkpt>
      <trkpt lat="47.70252" lon="6.14362">
        <ele>300.96</ele>
        <time>2015-12-02T10:58:42Z</time>
      </trkpt>
      <trkpt lat="47.70248" lon="6.14367">
        <ele>300.55</ele>
        <time>2015-12-02T10:58:43Z</time>
      </trkpt>
      <trkpt lat="47.70243" lon="6.14371">
        <ele>300.15</ele>
        <time>2015-12-02T10:58:44Z</time>
      </trkpt>
      <trkpt lat="47.70239" lon="6.14375">
        <ele>299.8</ele>
        <time>2015-12-02T10:58:45Z</time>
      </trkpt>
      <trkpt lat="47.70235" lon="6.1438">
        <ele>299.48</ele>
        <time>2015-12-02T10:58:46Z</time>
      </trkpt>
      <trkpt lat="47.7023" lon="6.14383">
        <ele>299.16</ele>
        <time>2015-12-02T10:58:47Z</time>
      </trkpt>
      <trkpt lat="47.70226" lon="6.14387">
        <ele>298.86</ele>
        <time>2015-12-02T10:58:48Z</time>
      </trkpt>
      <trkpt lat="47.70221" lon="6.14392">
        <ele>298.55</ele>
        <time>2015-12-02T10:58:49Z</time>
      </trkpt>
      <trkpt lat="47.70217" lon="6.14396">
        <ele>298.2</ele>
        <time>2015-12-02T10:58:50Z</time>
      </trkpt>
      <trkpt lat="47.70212" lon="6.14401">
        <ele>297.78</ele>
        <time>2015-12-02T10:58:51Z</time>
      </trkpt>
      <trkpt lat="47.70207" lon="6.14406">
        <ele>297.26</ele>
        <time>2015-12-02T10:58:52Z</time>
      </trkpt>
      <trkpt lat="47.70201" lon="6.14412">
        <ele>296.76</ele>
        <time>2015-12-02T10:58:53Z</time>
      </trkpt>
      <trkpt lat="47.70196" lon="6.14418">
        <ele>296.25</ele>
        <time>2015-12-02T10:58:54Z</time>
      </trkpt>
      <trkpt lat="47.7019" lon="6.14424">
        <ele>295.85</ele>
        <time>2015-12-02T10:58:55Z</time>
      </trkpt>
      <trkpt lat="47.70185" lon="6.1443">
        <ele>295.45</ele>
        <time>2015-12-02T10:58:56Z</time>
      </trkpt>
      <trkpt lat="47.7018" lon="6.14437">
        <ele>295.15</ele>
        <time>2015-12-02T10:58:57Z</time>
      </trkpt>
      <trkpt lat="47.70175" lon="6.14444">
        <ele>295</ele>
        <time>2015-12-02T10:58:58Z</time>
      </trkpt>
      <trkpt lat="47.70171" lon="6.14451">
        <ele>294.83</ele>
        <time>2015-12-02T10:58:59Z</time>
      </trkpt>
      <trkpt lat="47.70167" lon="6.14458">
        <ele>294.69</ele>
        <time>2015-12-02T10:59:00Z</time>
      </trkpt>
      <trkpt lat="47.70163" lon="6.14465">
        <ele>294.62</ele>
        <time>2015-12-02T10:59:01Z</time>
      </trkpt>
      <trkpt lat="47.7016" lon="6.14471">
        <ele>294.64</ele>
        <time>2015-12-02T10:59:02Z</time>
      </trkpt>
      <trkpt lat="47.70157" lon="6.14477">
        <ele>294.64</ele>
        <time>2015-12-02T10:59:03Z</time>
      </trkpt>
      <trkpt lat="47.70155" lon="6.14482">
        <ele>294.7</ele>
        <time>2015-12-02T10:59:04Z</time>
      </trkpt>
      <trkpt lat="47.70149" lon="6.14492">
        <ele>294.86</ele>
        <time>2015-12-02T10:59:06Z</time>
      </trkpt>
      <trkpt lat="47.70145" lon="6.14502">
        <ele>295.15</ele>
        <time>2015-12-02T10:59:08Z</time>
      </trkpt>
      <trkpt lat="47.7014" lon="6.14512">
        <ele>295.18</ele>
        <time>2015-12-02T10:59:10Z</time>
      </trkpt>
      <trkpt lat="47.70135" lon="6.14522">
        <ele>295.11</ele>
        <time>2015-12-02T10:59:12Z</time>
      </trkpt>
      <trkpt lat="47.70131" lon="6.14531">
        <ele>295.14</ele>
        <time>2015-12-02T10:59:14Z</time>
      </trkpt>
      <trkpt lat="47.70126" lon="6.14541">
        <ele>295.22</ele>
        <time>2015-12-02T10:59:16Z</time>
      </trkpt>
      <trkpt lat="47.70121" lon="6.1455">
        <ele>295.19</ele>
        <time>2015-12-02T10:59:18Z</time>
      </trkpt>
      <trkpt lat="47.70117" lon="6.14559">
        <ele>295.11</ele>
        <time>2015-12-02T10:59:20Z</time>
      </trkpt>
      <trkpt lat="47.70112" lon="6.14568">
        <ele>294.94</ele>
        <time>2015-12-02T10:59:22Z</time>
      </trkpt>
      <trkpt lat="47.70107" lon="6.14578">
        <ele>294.75</ele>
        <time>2015-12-02T10:59:24Z</time>
      </trkpt>
      <trkpt lat="47.70102" lon="6.14588">
        <ele>294.6</ele>
        <time>2015-12-02T10:59:26Z</time>
      </trkpt>
      <trkpt lat="47.70098" lon="6.14598">
        <ele>294.49</ele>
        <time>2015-12-02T10:59:28Z</time>
      </trkpt>
      <trkpt lat="47.70093" lon="6.14608">
        <ele>294.46</ele>
        <time>2015-12-02T10:59:30Z</time>
      </trkpt>
      <trkpt lat="47.70088" lon="6.14617">
        <ele>294.48</ele>
        <time>2015-12-02T10:59:32Z</time>
      </trkpt>
      <trkpt lat="47.70085" lon="6.14622">
        <ele>294.31</ele>
        <time>2015-12-02T10:59:33Z</time>
      </trkpt>
      <trkpt lat="47.70079" lon="6.14633">
        <ele>293.87</ele>
        <time>2015-12-02T10:59:35Z</time>
      </trkpt>
      <trkpt lat="47.70077" lon="6.14639">
        <ele>293.61</ele>
        <time>2015-12-02T10:59:36Z</time>
      </trkpt>
      <trkpt lat="47.70074" lon="6.14645">
        <ele>293.33</ele>
        <time>2015-12-02T10:59:37Z</time>
      </trkpt>
      <trkpt lat="47.7007" lon="6.14652">
        <ele>293.04</ele>
        <time>2015-12-02T10:59:38Z</time>
      </trkpt>
      <trkpt lat="47.70067" lon="6.14659">
        <ele>292.65</ele>
        <time>2015-12-02T10:59:39Z</time>
      </trkpt>
      <trkpt lat="47.70064" lon="6.14666">
        <ele>292.05</ele>
        <time>2015-12-02T10:59:40Z</time>
      </trkpt>
      <trkpt lat="47.70059" lon="6.14674">
        <ele>291.4</ele>
        <time>2015-12-02T10:59:41Z</time>
      </trkpt>
      <trkpt lat="47.70054" lon="6.14681">
        <ele>290.68</ele>
        <time>2015-12-02T10:59:42Z</time>
      </trkpt>
      <trkpt lat="47.70048" lon="6.14687">
        <ele>290.06</ele>
        <time>2015-12-02T10:59:43Z</time>
      </trkpt>
      <trkpt lat="47.70042" lon="6.14692">
        <ele>289.46</ele>
        <time>2015-12-02T10:59:44Z</time>
      </trkpt>
      <trkpt lat="47.70035" lon="6.14697">
        <ele>288.85</ele>
        <time>2015-12-02T10:59:45Z</time>
      </trkpt>
      <trkpt lat="47.70028" lon="6.14701">
        <ele>288.35</ele>
        <time>2015-12-02T10:59:46Z</time>
      </trkpt>
      <trkpt lat="47.70021" lon="6.14706">
        <ele>287.9</ele>
        <time>2015-12-02T10:59:47Z</time>
      </trkpt>
      <trkpt lat="47.70014" lon="6.1471">
        <ele>287.58</ele>
        <time>2015-12-02T10:59:48Z</time>
      </trkpt>
      <trkpt lat="47.70007" lon="6.14715">
        <ele>287.36</ele>
        <time>2015-12-02T10:59:49Z</time>
      </trkpt>
      <trkpt lat="47.70001" lon="6.14719">
        <ele>287.21</ele>
        <time>2015-12-02T10:59:50Z</time>
      </trkpt>
      <trkpt lat="47.69994" lon="6.14723">
        <ele>287.08</ele>
        <time>2015-12-02T10:59:51Z</time>
      </trkpt>
      <trkpt lat="47.69988" lon="6.14727">
        <ele>287.02</ele>
        <time>2015-12-02T10:59:52Z</time>
      </trkpt>
      <trkpt lat="47.69982" lon="6.14731">
        <ele>286.93</ele>
        <time>2015-12-02T10:59:53Z</time>
      </trkpt>
      <trkpt lat="47.69977" lon="6.14735">
        <ele>286.74</ele>
        <time>2015-12-02T10:59:54Z</time>
      </trkpt>
      <trkpt lat="47.69971" lon="6.1474">
        <ele>286.55</ele>
        <time>2015-12-02T10:59:55Z</time>
      </trkpt>
      <trkpt lat="47.69966" lon="6.14744">
        <ele>286.3</ele>
        <time>2015-12-02T10:59:56Z</time>
      </trkpt>
      <trkpt lat="47.6996" lon="6.14748">
        <ele>286.07</ele>
        <time>2015-12-02T10:59:57Z</time>
      </trkpt>
      <trkpt lat="47.69954" lon="6.14751">
        <ele>285.81</ele>
        <time>2015-12-02T10:59:58Z</time>
      </trkpt>
      <trkpt lat="47.69948" lon="6.14754">
        <ele>285.58</ele>
        <time>2015-12-02T10:59:59Z</time>
      </trkpt>
      <trkpt lat="47.69942" lon="6.14758">
        <ele>285.32</ele>
        <time>2015-12-02T11:00:00Z</time>
      </trkpt>
      <trkpt lat="47.69936" lon="6.14762">
        <ele>285.03</ele>
        <time>2015-12-02T11:00:01Z</time>
      </trkpt>
      <trkpt lat="47.6993" lon="6.14766">
        <ele>284.74</ele>
        <time>2015-12-02T11:00:02Z</time>
      </trkpt>
      <trkpt lat="47.69924" lon="6.1477">
        <ele>284.5</ele>
        <time>2015-12-02T11:00:03Z</time>
      </trkpt>
      <trkpt lat="47.69918" lon="6.14774">
        <ele>284.27</ele>
        <time>2015-12-02T11:00:04Z</time>
      </trkpt>
      <trkpt lat="47.69912" lon="6.14778">
        <ele>284.06</ele>
        <time>2015-12-02T11:00:05Z</time>
      </trkpt>
      <trkpt lat="47.69906" lon="6.14782">
        <ele>283.86</ele>
        <time>2015-12-02T11:00:06Z</time>
      </trkpt>
      <trkpt lat="47.699" lon="6.14786">
        <ele>283.65</ele>
        <time>2015-12-02T11:00:07Z</time>
      </trkpt>
      <trkpt lat="47.69895" lon="6.1479">
        <ele>283.5</ele>
        <time>2015-12-02T11:00:08Z</time>
      </trkpt>
      <trkpt lat="47.69889" lon="6.14794">
        <ele>283.38</ele>
        <time>2015-12-02T11:00:09Z</time>
      </trkpt>
      <trkpt lat="47.69884" lon="6.14798">
        <ele>283.21</ele>
        <time>2015-12-02T11:00:10Z</time>
      </trkpt>
      <trkpt lat="47.69879" lon="6.14802">
        <ele>283.03</ele>
        <time>2015-12-02T11:00:11Z</time>
      </trkpt>
      <trkpt lat="47.69873" lon="6.14806">
        <ele>282.84</ele>
        <time>2015-12-02T11:00:12Z</time>
      </trkpt>
      <trkpt lat="47.69868" lon="6.1481">
        <ele>282.65</ele>
        <time>2015-12-02T11:00:13Z</time>
      </trkpt>
      <trkpt lat="47.69863" lon="6.14814">
        <ele>282.45</ele>
        <time>2015-12-02T11:00:14Z</time>
      </trkpt>
      <trkpt lat="47.69858" lon="6.14818">
        <ele>282.2</ele>
        <time>2015-12-02T11:00:15Z</time>
      </trkpt>
      <trkpt lat="47.69853" lon="6.14822">
        <ele>281.98</ele>
        <time>2015-12-02T11:00:16Z</time>
      </trkpt>
      <trkpt lat="47.69848" lon="6.14826">
        <ele>281.76</ele>
        <time>2015-12-02T11:00:17Z</time>
      </trkpt>
      <trkpt lat="47.69843" lon="6.1483">
        <ele>281.46</ele>
        <time>2015-12-02T11:00:18Z</time>
      </trkpt>
      <trkpt lat="47.69838" lon="6.14834">
        <ele>281.05</ele>
        <time>2015-12-02T11:00:19Z</time>
      </trkpt>
      <trkpt lat="47.69834" lon="6.14838">
        <ele>280.6</ele>
        <time>2015-12-02T11:00:20Z</time>
      </trkpt>
      <trkpt lat="47.69829" lon="6.14842">
        <ele>280.13</ele>
        <time>2015-12-02T11:00:21Z</time>
      </trkpt>
      <trkpt lat="47.69824" lon="6.14846">
        <ele>279.59</ele>
        <time>2015-12-02T11:00:22Z</time>
      </trkpt>
      <trkpt lat="47.69819" lon="6.14848">
        <ele>279.07</ele>
        <time>2015-12-02T11:00:23Z</time>
      </trkpt>
      <trkpt lat="47.69813" lon="6.14849">
        <ele>278.61</ele>
        <time>2015-12-02T11:00:24Z</time>
      </trkpt>
      <trkpt lat="47.69808" lon="6.14847">
        <ele>278.18</ele>
        <time>2015-12-02T11:00:25Z</time>
      </trkpt>
      <trkpt lat="47.69802" lon="6.14844">
        <ele>277.77</ele>
        <time>2015-12-02T11:00:26Z</time>
      </trkpt>
      <trkpt lat="47.69797" lon="6.14839">
        <ele>277.41</ele>
        <time>2015-12-02T11:00:27Z</time>
      </trkpt>
      <trkpt lat="47.69792" lon="6.14835">
        <ele>277.03</ele>
        <time>2015-12-02T11:00:28Z</time>
      </trkpt>
      <trkpt lat="47.69787" lon="6.14831">
        <ele>276.64</ele>
        <time>2015-12-02T11:00:29Z</time>
      </trkpt>
      <trkpt lat="47.69781" lon="6.14827">
        <ele>276.2</ele>
        <time>2015-12-02T11:00:30Z</time>
      </trkpt>
      <trkpt lat="47.69776" lon="6.14824">
        <ele>275.72</ele>
        <time>2015-12-02T11:00:31Z</time>
      </trkpt>
      <trkpt lat="47.6977" lon="6.14821">
        <ele>275.24</ele>
        <time>2015-12-02T11:00:32Z</time>
      </trkpt>
      <trkpt lat="47.69765" lon="6.14819">
        <ele>274.74</ele>
        <time>2015-12-02T11:00:33Z</time>
      </trkpt>
      <trkpt lat="47.69759" lon="6.14817">
        <ele>274.25</ele>
        <time>2015-12-02T11:00:34Z</time>
      </trkpt>
      <trkpt lat="47.69753" lon="6.14818">
        <ele>273.7</ele>
        <time>2015-12-02T11:00:35Z</time>
      </trkpt>
      <trkpt lat="47.69747" lon="6.14821">
        <ele>273.13</ele>
        <time>2015-12-02T11:00:36Z</time>
      </trkpt>
      <trkpt lat="47.69743" lon="6.14828">
        <ele>272.54</ele>
        <time>2015-12-02T11:00:37Z</time>
      </trkpt>
      <trkpt lat="47.69739" lon="6.14837">
        <ele>271.89</ele>
        <time>2015-12-02T11:00:38Z</time>
      </trkpt>
      <trkpt lat="47.69736" lon="6.14847">
        <ele>271.17</ele>
        <time>2015-12-02T11:00:39Z</time>
      </trkpt>
      <trkpt lat="47.69734" lon="6.14857">
        <ele>270.51</ele>
        <time>2015-12-02T11:00:40Z</time>
      </trkpt>
      <trkpt lat="47.69732" lon="6.14867">
        <ele>269.93</ele>
        <time>2015-12-02T11:00:41Z</time>
      </trkpt>
      <trkpt lat="47.69729" lon="6.14877">
        <ele>269.39</ele>
        <time>2015-12-02T11:00:42Z</time>
      </trkpt>
      <trkpt lat="47.69727" lon="6.14888">
        <ele>268.82</ele>
        <time>2015-12-02T11:00:43Z</time>
      </trkpt>
      <trkpt lat="47.69725" lon="6.14898">
        <ele>268.29</ele>
        <time>2015-12-02T11:00:44Z</time>
      </trkpt>
      <trkpt lat="47.69723" lon="6.14909">
        <ele>267.67</ele>
        <time>2015-12-02T11:00:45Z</time>
      </trkpt>
      <trkpt lat="47.6972" lon="6.14921">
        <ele>267.01</ele>
        <time>2015-12-02T11:00:46Z</time>
      </trkpt>
      <trkpt lat="47.69718" lon="6.14933">
        <ele>266.18</ele>
        <time>2015-12-02T11:00:47Z</time>
      </trkpt>
      <trkpt lat="47.69715" lon="6.14945">
        <ele>265.32</ele>
        <time>2015-12-02T11:00:48Z</time>
      </trkpt>
      <trkpt lat="47.69712" lon="6.14958">
        <ele>264.38</ele>
        <time>2015-12-02T11:00:49Z</time>
      </trkpt>
      <trkpt lat="47.69709" lon="6.14972">
        <ele>263.42</ele>
        <time>2015-12-02T11:00:50Z</time>
      </trkpt>
      <trkpt lat="47.69706" lon="6.14985">
        <ele>262.53</ele>
        <time>2015-12-02T11:00:51Z</time>
      </trkpt>
      <trkpt lat="47.69703" lon="6.14999">
        <ele>261.54</ele>
        <time>2015-12-02T11:00:52Z</time>
      </trkpt>
      <trkpt lat="47.69701" lon="6.15012">
        <ele>260.6</ele>
        <time>2015-12-02T11:00:53Z</time>
      </trkpt>
      <trkpt lat="47.69698" lon="6.15026">
        <ele>259.62</ele>
        <time>2015-12-02T11:00:54Z</time>
      </trkpt>
      <trkpt lat="47.69695" lon="6.1504">
        <ele>258.64</ele>
        <time>2015-12-02T11:00:55Z</time>
      </trkpt>
      <trkpt lat="47.69692" lon="6.15055">
        <ele>257.64</ele>
        <time>2015-12-02T11:00:56Z</time>
      </trkpt>
      <trkpt lat="47.69689" lon="6.15068">
        <ele>256.75</ele>
        <time>2015-12-02T11:00:57Z</time>
      </trkpt>
      <trkpt lat="47.69686" lon="6.15081">
        <ele>256</ele>
        <time>2015-12-02T11:00:58Z</time>
      </trkpt>
      <trkpt lat="47.69682" lon="6.15093">
        <ele>255.33</ele>
        <time>2015-12-02T11:00:59Z</time>
      </trkpt>
      <trkpt lat="47.69677" lon="6.15104">
        <ele>254.69</ele>
        <time>2015-12-02T11:01:00Z</time>
      </trkpt>
      <trkpt lat="47.69672" lon="6.15114">
        <ele>254.12</ele>
        <time>2015-12-02T11:01:01Z</time>
      </trkpt>
      <trkpt lat="47.69665" lon="6.15123">
        <ele>253.69</ele>
        <time>2015-12-02T11:01:02Z</time>
      </trkpt>
      <trkpt lat="47.69658" lon="6.1513">
        <ele>253.37</ele>
        <time>2015-12-02T11:01:03Z</time>
      </trkpt>
      <trkpt lat="47.69651" lon="6.15137">
        <ele>252.96</ele>
        <time>2015-12-02T11:01:04Z</time>
      </trkpt>
      <trkpt lat="47.69643" lon="6.15143">
        <ele>252.46</ele>
        <time>2015-12-02T11:01:05Z</time>
      </trkpt>
      <trkpt lat="47.69635" lon="6.15148">
        <ele>251.95</ele>
        <time>2015-12-02T11:01:06Z</time>
      </trkpt>
      <trkpt lat="47.69626" lon="6.15152">
        <ele>251.4</ele>
        <time>2015-12-02T11:01:07Z</time>
      </trkpt>
      <trkpt lat="47.69618" lon="6.15157">
        <ele>250.73</ele>
        <time>2015-12-02T11:01:08Z</time>
      </trkpt>
      <trkpt lat="47.69609" lon="6.1516">
        <ele>250.09</ele>
        <time>2015-12-02T11:01:09Z</time>
      </trkpt>
      <trkpt lat="47.69599" lon="6.15163">
        <ele>249.47</ele>
        <time>2015-12-02T11:01:10Z</time>
      </trkpt>
      <trkpt lat="47.6959" lon="6.15165">
        <ele>248.91</ele>
        <time>2015-12-02T11:01:11Z</time>
      </trkpt>
      <trkpt lat="47.69581" lon="6.15167">
        <ele>248.48</ele>
        <time>2015-12-02T11:01:12Z</time>
      </trkpt>
      <trkpt lat="47.69571" lon="6.15169">
        <ele>248.12</ele>
        <time>2015-12-02T11:01:13Z</time>
      </trkpt>
      <trkpt lat="47.69562" lon="6.1517">
        <ele>247.78</ele>
        <time>2015-12-02T11:01:14Z</time>
      </trkpt>
      <trkpt lat="47.69554" lon="6.15172">
        <ele>247.52</ele>
        <time>2015-12-02T11:01:15Z</time>
      </trkpt>
      <trkpt lat="47.69547" lon="6.15174">
        <ele>247.23</ele>
        <time>2015-12-02T11:01:16Z</time>
      </trkpt>
      <trkpt lat="47.69541" lon="6.15175">
        <ele>247.04</ele>
        <time>2015-12-02T11:01:17Z</time>
      </trkpt>
      <trkpt lat="47.69535" lon="6.15176">
        <ele>246.95</ele>
        <time>2015-12-02T11:01:18Z</time>
      </trkpt>
      <trkpt lat="47.69529" lon="6.15175">
        <ele>246.85</ele>
        <time>2015-12-02T11:01:19Z</time>
      </trkpt>
      <trkpt lat="47.69524" lon="6.15173">
        <ele>246.8</ele>
        <time>2015-12-02T11:01:20Z</time>
      </trkpt>
      <trkpt lat="47.69519" lon="6.1517">
        <ele>246.73</ele>
        <time>2015-12-02T11:01:21Z</time>
      </trkpt>
      <trkpt lat="47.69515" lon="6.15165">
        <ele>246.69</ele>
        <time>2015-12-02T11:01:22Z</time>
      </trkpt>
      <trkpt lat="47.69512" lon="6.15159">
        <ele>246.62</ele>
        <time>2015-12-02T11:01:23Z</time>
      </trkpt>
      <trkpt lat="47.69509" lon="6.15153">
        <ele>246.59</ele>
        <time>2015-12-02T11:01:24Z</time>
      </trkpt>
      <trkpt lat="47.69507" lon="6.15147">
        <ele>246.57</ele>
        <time>2015-12-02T11:01:25Z</time>
      </trkpt>
      <trkpt lat="47.69502" lon="6.15137">
        <ele>246.76</ele>
        <time>2015-12-02T11:01:27Z</time>
      </trkpt>
      <trkpt lat="47.69496" lon="6.1513">
        <ele>247.08</ele>
        <time>2015-12-02T11:01:29Z</time>
      </trkpt>
      <trkpt lat="47.69491" lon="6.15124">
        <ele>247.33</ele>
        <time>2015-12-02T11:01:31Z</time>
      </trkpt>
      <trkpt lat="47.69485" lon="6.15119">
        <ele>247.42</ele>
        <time>2015-12-02T11:01:33Z</time>
      </trkpt>
      <trkpt lat="47.69479" lon="6.15116">
        <ele>247.57</ele>
        <time>2015-12-02T11:01:35Z</time>
      </trkpt>
      <trkpt lat="47.69472" lon="6.15115">
        <ele>247.66</ele>
        <time>2015-12-02T11:01:37Z</time>
      </trkpt>
      <trkpt lat="47.69465" lon="6.15116">
        <ele>247.78</ele>
        <time>2015-12-02T11:01:39Z</time>
      </trkpt>
      <trkpt lat="47.69459" lon="6.15118">
        <ele>247.96</ele>
        <time>2015-12-02T11:01:41Z</time>
      </trkpt>
      <trkpt lat="47.69452" lon="6.15119">
        <ele>248.08</ele>
        <time>2015-12-02T11:01:43Z</time>
      </trkpt>
      <trkpt lat="47.69446" lon="6.15121">
        <ele>248.33</ele>
        <time>2015-12-02T11:01:45Z</time>
      </trkpt>
      <trkpt lat="47.69439" lon="6.15124">
        <ele>248.6</ele>
        <time>2015-12-02T11:01:47Z</time>
      </trkpt>
      <trkpt lat="47.69432" lon="6.15125">
        <ele>248.79</ele>
        <time>2015-12-02T11:01:49Z</time>
      </trkpt>
      <trkpt lat="47.69426" lon="6.15126">
        <ele>248.86</ele>
        <time>2015-12-02T11:01:51Z</time>
      </trkpt>
      <trkpt lat="47.69419" lon="6.15128">
        <ele>248.7</ele>
        <time>2015-12-02T11:01:53Z</time>
      </trkpt>
      <trkpt lat="47.69411" lon="6.15131">
        <ele>248.36</ele>
        <time>2015-12-02T11:01:55Z</time>
      </trkpt>
      <trkpt lat="47.69406" lon="6.15131">
        <ele>248.16</ele>
        <time>2015-12-02T11:01:56Z</time>
      </trkpt>
      <trkpt lat="47.69401" lon="6.15133">
        <ele>247.95</ele>
        <time>2015-12-02T11:01:57Z</time>
      </trkpt>
      <trkpt lat="47.69396" lon="6.15134">
        <ele>247.85</ele>
        <time>2015-12-02T11:01:58Z</time>
      </trkpt>
      <trkpt lat="47.69391" lon="6.15136">
        <ele>247.8</ele>
        <time>2015-12-02T11:01:59Z</time>
      </trkpt>
      <trkpt lat="47.69386" lon="6.15138">
        <ele>247.78</ele>
        <time>2015-12-02T11:02:00Z</time>
      </trkpt>
      <trkpt lat="47.69381" lon="6.1514">
        <ele>247.71</ele>
        <time>2015-12-02T11:02:01Z</time>
      </trkpt>
      <trkpt lat="47.69376" lon="6.15142">
        <ele>247.63</ele>
        <time>2015-12-02T11:02:02Z</time>
      </trkpt>
      <trkpt lat="47.69371" lon="6.15144">
        <ele>247.49</ele>
        <time>2015-12-02T11:02:03Z</time>
      </trkpt>
      <trkpt lat="47.69367" lon="6.15146">
        <ele>247.32</ele>
        <time>2015-12-02T11:02:04Z</time>
      </trkpt>
      <trkpt lat="47.69363" lon="6.15148">
        <ele>247.24</ele>
        <time>2015-12-02T11:02:05Z</time>
      </trkpt>
      <trkpt lat="47.69355" lon="6.15152">
        <ele>247.17</ele>
        <time>2015-12-02T11:02:07Z</time>
      </trkpt>
      <trkpt lat="47.69347" lon="6.15157">
        <ele>247.16</ele>
        <time>2015-12-02T11:02:09Z</time>
      </trkpt>
      <trkpt lat="47.69339" lon="6.15161">
        <ele>247.03</ele>
        <time>2015-12-02T11:02:11Z</time>
      </trkpt>
      <trkpt lat="47.69331" lon="6.15166">
        <ele>246.77</ele>
        <time>2015-12-02T11:02:13Z</time>
      </trkpt>
      <trkpt lat="47.69323" lon="6.15171">
        <ele>246.56</ele>
        <time>2015-12-02T11:02:15Z</time>
      </trkpt>
      <trkpt lat="47.69318" lon="6.15174">
        <ele>246.45</ele>
        <time>2015-12-02T11:02:16Z</time>
      </trkpt>
      <trkpt lat="47.69314" lon="6.15177">
        <ele>246.4</ele>
        <time>2015-12-02T11:02:17Z</time>
      </trkpt>
      <trkpt lat="47.6931" lon="6.1518">
        <ele>246.43</ele>
        <time>2015-12-02T11:02:18Z</time>
      </trkpt>
      <trkpt lat="47.69306" lon="6.15184">
        <ele>246.44</ele>
        <time>2015-12-02T11:02:19Z</time>
      </trkpt>
      <trkpt lat="47.69301" lon="6.15187">
        <ele>246.44</ele>
        <time>2015-12-02T11:02:20Z</time>
      </trkpt>
      <trkpt lat="47.69297" lon="6.1519">
        <ele>246.4</ele>
        <time>2015-12-02T11:02:21Z</time>
      </trkpt>
      <trkpt lat="47.69293" lon="6.15194">
        <ele>246.32</ele>
        <time>2015-12-02T11:02:22Z</time>
      </trkpt>
      <trkpt lat="47.69289" lon="6.15197">
        <ele>246.24</ele>
        <time>2015-12-02T11:02:23Z</time>
      </trkpt>
      <trkpt lat="47.69284" lon="6.15201">
        <ele>246.09</ele>
        <time>2015-12-02T11:02:24Z</time>
      </trkpt>
      <trkpt lat="47.69279" lon="6.15204">
        <ele>245.97</ele>
        <time>2015-12-02T11:02:25Z</time>
      </trkpt>
      <trkpt lat="47.69274" lon="6.15207">
        <ele>245.86</ele>
        <time>2015-12-02T11:02:26Z</time>
      </trkpt>
      <trkpt lat="47.6927" lon="6.1521">
        <ele>245.71</ele>
        <time>2015-12-02T11:02:27Z</time>
      </trkpt>
      <trkpt lat="47.69265" lon="6.15213">
        <ele>245.58</ele>
        <time>2015-12-02T11:02:28Z</time>
      </trkpt>
      <trkpt lat="47.69259" lon="6.15215">
        <ele>245.46</ele>
        <time>2015-12-02T11:02:29Z</time>
      </trkpt>
      <trkpt lat="47.69254" lon="6.15218">
        <ele>245.36</ele>
        <time>2015-12-02T11:02:30Z</time>
      </trkpt>
      <trkpt lat="47.69249" lon="6.1522">
        <ele>245.25</ele>
        <time>2015-12-02T11:02:31Z</time>
      </trkpt>
      <trkpt lat="47.69245" lon="6.15223">
        <ele>245.2</ele>
        <time>2015-12-02T11:02:32Z</time>
      </trkpt>
      <trkpt lat="47.6924" lon="6.15224">
        <ele>245.13</ele>
        <time>2015-12-02T11:02:33Z</time>
      </trkpt>
      <trkpt lat="47.69235" lon="6.15226">
        <ele>245.14</ele>
        <time>2015-12-02T11:02:34Z</time>
      </trkpt>
      <trkpt lat="47.6923" lon="6.15228">
        <ele>245.09</ele>
        <time>2015-12-02T11:02:35Z</time>
      </trkpt>
      <trkpt lat="47.69226" lon="6.15229">
        <ele>245.12</ele>
        <time>2015-12-02T11:02:36Z</time>
      </trkpt>
      <trkpt lat="47.69221" lon="6.15231">
        <ele>245.14</ele>
        <time>2015-12-02T11:02:37Z</time>
      </trkpt>
      <trkpt lat="47.69217" lon="6.15232">
        <ele>245.14</ele>
        <time>2015-12-02T11:02:38Z</time>
      </trkpt>
      <trkpt lat="47.69208" lon="6.15235">
        <ele>245.07</ele>
        <time>2015-12-02T11:02:40Z</time>
      </trkpt>
      <trkpt lat="47.692" lon="6.15238">
        <ele>245.13</ele>
        <time>2015-12-02T11:02:42Z</time>
      </trkpt>
      <trkpt lat="47.69191" lon="6.15242">
        <ele>245.27</ele>
        <time>2015-12-02T11:02:44Z</time>
      </trkpt>
      <trkpt lat="47.69184" lon="6.15247">
        <ele>245.43</ele>
        <time>2015-12-02T11:02:46Z</time>
      </trkpt>
      <trkpt lat="47.69178" lon="6.15254">
        <ele>245.65</ele>
        <time>2015-12-02T11:02:48Z</time>
      </trkpt>
      <trkpt lat="47.69172" lon="6.15262">
        <ele>245.85</ele>
        <time>2015-12-02T11:02:50Z</time>
      </trkpt>
      <trkpt lat="47.69166" lon="6.15271">
        <ele>245.93</ele>
        <time>2015-12-02T11:02:52Z</time>
      </trkpt>
      <trkpt lat="47.69161" lon="6.1528">
        <ele>246.02</ele>
        <time>2015-12-02T11:02:54Z</time>
      </trkpt>
      <trkpt lat="47.69154" lon="6.15289">
        <ele>246.09</ele>
        <time>2015-12-02T11:02:56Z</time>
      </trkpt>
      <trkpt lat="47.69148" lon="6.15297">
        <ele>246.01</ele>
        <time>2015-12-02T11:02:58Z</time>
      </trkpt>
      <trkpt lat="47.6914" lon="6.15304">
        <ele>246.02</ele>
        <time>2015-12-02T11:03:00Z</time>
      </trkpt>
      <trkpt lat="47.69133" lon="6.1531">
        <ele>245.92</ele>
        <time>2015-12-02T11:03:02Z</time>
      </trkpt>
      <trkpt lat="47.69125" lon="6.15314">
        <ele>245.79</ele>
        <time>2015-12-02T11:03:04Z</time>
      </trkpt>
      <trkpt lat="47.69117" lon="6.15317">
        <ele>245.76</ele>
        <time>2015-12-02T11:03:06Z</time>
      </trkpt>
      <trkpt lat="47.6911" lon="6.1532">
        <ele>245.95</ele>
        <time>2015-12-02T11:03:08Z</time>
      </trkpt>
      <trkpt lat="47.69103" lon="6.15323">
        <ele>246.15</ele>
        <time>2015-12-02T11:03:10Z</time>
      </trkpt>
      <trkpt lat="47.69098" lon="6.15325">
        <ele>246.35</ele>
        <time>2015-12-02T11:03:12Z</time>
      </trkpt>
      <trkpt lat="47.69092" lon="6.15324">
        <ele>246.55</ele>
        <time>2015-12-02T11:03:14Z</time>
      </trkpt>
      <trkpt lat="47.69088" lon="6.15326">
        <ele>246.8</ele>
        <time>2015-12-02T11:03:16Z</time>
      </trkpt>
      <trkpt lat="47.69083" lon="6.15329">
        <ele>247.09</ele>
        <time>2015-12-02T11:03:18Z</time>
      </trkpt>
      <trkpt lat="47.69078" lon="6.1533">
        <ele>247.34</ele>
        <time>2015-12-02T11:03:20Z</time>
      </trkpt>
      <trkpt lat="47.69074" lon="6.1533">
        <ele>247.62</ele>
        <time>2015-12-02T11:03:22Z</time>
      </trkpt>
      <trkpt lat="47.69069" lon="6.15331">
        <ele>247.84</ele>
        <time>2015-12-02T11:03:24Z</time>
      </trkpt>
      <trkpt lat="47.69064" lon="6.15333">
        <ele>248.1</ele>
        <time>2015-12-02T11:03:26Z</time>
      </trkpt>
      <trkpt lat="47.69059" lon="6.15335">
        <ele>248.29</ele>
        <time>2015-12-02T11:03:28Z</time>
      </trkpt>
      <trkpt lat="47.69055" lon="6.15338">
        <ele>248.46</ele>
        <time>2015-12-02T11:03:30Z</time>
      </trkpt>
      <trkpt lat="47.6905" lon="6.15341">
        <ele>248.7</ele>
        <time>2015-12-02T11:03:32Z</time>
      </trkpt>
      <trkpt lat="47.69045" lon="6.15344">
        <ele>248.94</ele>
        <time>2015-12-02T11:03:34Z</time>
      </trkpt>
      <trkpt lat="47.6904" lon="6.15345">
        <ele>249.15</ele>
        <time>2015-12-02T11:03:36Z</time>
      </trkpt>
      <trkpt lat="47.69036" lon="6.15347">
        <ele>249.43</ele>
        <time>2015-12-02T11:03:38Z</time>
      </trkpt>
      <trkpt lat="47.69031" lon="6.15349">
        <ele>249.69</ele>
        <time>2015-12-02T11:03:40Z</time>
      </trkpt>
      <trkpt lat="47.69026" lon="6.15351">
        <ele>249.86</ele>
        <time>2015-12-02T11:03:42Z</time>
      </trkpt>
      <trkpt lat="47.69021" lon="6.15352">
        <ele>250.05</ele>
        <time>2015-12-02T11:03:44Z</time>
      </trkpt>
      <trkpt lat="47.69016" lon="6.15355">
        <ele>250.18</ele>
        <time>2015-12-02T11:03:46Z</time>
      </trkpt>
      <trkpt lat="47.69011" lon="6.15358">
        <ele>250.21</ele>
        <time>2015-12-02T11:03:48Z</time>
      </trkpt>
      <trkpt lat="47.69005" lon="6.15362">
        <ele>250.17</ele>
        <time>2015-12-02T11:03:50Z</time>
      </trkpt>
      <trkpt lat="47.69" lon="6.15368">
        <ele>250.03</ele>
        <time>2015-12-02T11:03:52Z</time>
      </trkpt>
      <trkpt lat="47.68994" lon="6.15374">
        <ele>249.97</ele>
        <time>2015-12-02T11:03:54Z</time>
      </trkpt>
      <trkpt lat="47.68988" lon="6.15381">
        <ele>249.96</ele>
        <time>2015-12-02T11:03:56Z</time>
      </trkpt>
      <trkpt lat="47.68983" lon="6.15388">
        <ele>249.95</ele>
        <time>2015-12-02T11:03:58Z</time>
      </trkpt>
      <trkpt lat="47.68978" lon="6.15397">
        <ele>249.95</ele>
        <time>2015-12-02T11:04:00Z</time>
      </trkpt>
      <trkpt lat="47.68974" lon="6.15407">
        <ele>250.03</ele>
        <time>2015-12-02T11:04:02Z</time>
      </trkpt>
      <trkpt lat="47.6897" lon="6.15417">
        <ele>250.17</ele>
        <time>2015-12-02T11:04:04Z</time>
      </trkpt>
      <trkpt lat="47.68966" lon="6.15425">
        <ele>250.56</ele>
        <time>2015-12-02T11:04:06Z</time>
      </trkpt>
      <trkpt lat="47.68964" lon="6.15433">
        <ele>251.03</ele>
        <time>2015-12-02T11:04:08Z</time>
      </trkpt>
      <trkpt lat="47.68962" lon="6.1544">
        <ele>251.52</ele>
        <time>2015-12-02T11:04:10Z</time>
      </trkpt>
      <trkpt lat="47.68961" lon="6.15446">
        <ele>251.84</ele>
        <time>2015-12-02T11:04:12Z</time>
      </trkpt>
      <trkpt lat="47.6896" lon="6.15453">
        <ele>252.05</ele>
        <time>2015-12-02T11:04:14Z</time>
      </trkpt>
      <trkpt lat="47.68957" lon="6.1546">
        <ele>252.25</ele>
        <time>2015-12-02T11:04:16Z</time>
      </trkpt>
      <trkpt lat="47.68956" lon="6.15467">
        <ele>252.45</ele>
        <time>2015-12-02T11:04:18Z</time>
      </trkpt>
      <trkpt lat="47.68956" lon="6.15474">
        <ele>252.65</ele>
        <time>2015-12-02T11:04:20Z</time>
      </trkpt>
      <trkpt lat="47.68956" lon="6.15481">
        <ele>252.9</ele>
        <time>2015-12-02T11:04:22Z</time>
      </trkpt>
      <trkpt lat="47.68951" lon="6.15489">
        <ele>253.24</ele>
        <time>2015-12-02T11:04:25Z</time>
      </trkpt>
      <trkpt lat="47.6895" lon="6.15495">
        <ele>253.52</ele>
        <time>2015-12-02T11:04:27Z</time>
      </trkpt>
      <trkpt lat="47.68949" lon="6.15502">
        <ele>253.74</ele>
        <time>2015-12-02T11:04:29Z</time>
      </trkpt>
      <trkpt lat="47.68947" lon="6.15509">
        <ele>253.95</ele>
        <time>2015-12-02T11:04:31Z</time>
      </trkpt>
      <trkpt lat="47.68944" lon="6.15514">
        <ele>254.15</ele>
        <time>2015-12-02T11:04:33Z</time>
      </trkpt>
      <trkpt lat="47.68941" lon="6.1552">
        <ele>254.28</ele>
        <time>2015-12-02T11:04:35Z</time>
      </trkpt>
      <trkpt lat="47.6894" lon="6.15528">
        <ele>254.41</ele>
        <time>2015-12-02T11:04:37Z</time>
      </trkpt>
      <trkpt lat="47.68939" lon="6.15535">
        <ele>254.52</ele>
        <time>2015-12-02T11:04:39Z</time>
      </trkpt>
      <trkpt lat="47.68937" lon="6.15542">
        <ele>254.54</ele>
        <time>2015-12-02T11:04:41Z</time>
      </trkpt>
      <trkpt lat="47.68934" lon="6.15549">
        <ele>254.62</ele>
        <time>2015-12-02T11:04:43Z</time>
      </trkpt>
      <trkpt lat="47.68931" lon="6.15556">
        <ele>254.72</ele>
        <time>2015-12-02T11:04:45Z</time>
      </trkpt>
      <trkpt lat="47.68926" lon="6.15561">
        <ele>254.69</ele>
        <time>2015-12-02T11:04:47Z</time>
      </trkpt>
      <trkpt lat="47.68922" lon="6.15567">
        <ele>254.54</ele>
        <time>2015-12-02T11:04:49Z</time>
      </trkpt>
      <trkpt lat="47.68918" lon="6.15575">
        <ele>254.55</ele>
        <time>2015-12-02T11:04:51Z</time>
      </trkpt>
      <trkpt lat="47.68915" lon="6.15584">
        <ele>254.68</ele>
        <time>2015-12-02T11:04:53Z</time>
      </trkpt>
      <trkpt lat="47.6891" lon="6.15592">
        <ele>254.86</ele>
        <time>2015-12-02T11:04:55Z</time>
      </trkpt>
      <trkpt lat="47.68906" lon="6.15601">
        <ele>255</ele>
        <time>2015-12-02T11:04:57Z</time>
      </trkpt>
      <trkpt lat="47.68902" lon="6.15608">
        <ele>255.11</ele>
        <time>2015-12-02T11:04:59Z</time>
      </trkpt>
      <trkpt lat="47.68898" lon="6.15616">
        <ele>255.22</ele>
        <time>2015-12-02T11:05:01Z</time>
      </trkpt>
      <trkpt lat="47.68894" lon="6.15625">
        <ele>255.24</ele>
        <time>2015-12-02T11:05:03Z</time>
      </trkpt>
      <trkpt lat="47.68889" lon="6.15635">
        <ele>255.2</ele>
        <time>2015-12-02T11:05:05Z</time>
      </trkpt>
      <trkpt lat="47.68885" lon="6.15645">
        <ele>255.16</ele>
        <time>2015-12-02T11:05:07Z</time>
      </trkpt>
      <trkpt lat="47.6888" lon="6.15655">
        <ele>255.08</ele>
        <time>2015-12-02T11:05:09Z</time>
      </trkpt>
      <trkpt lat="47.68877" lon="6.15665">
        <ele>255.06</ele>
        <time>2015-12-02T11:05:11Z</time>
      </trkpt>
      <trkpt lat="47.68874" lon="6.15676">
        <ele>254.93</ele>
        <time>2015-12-02T11:05:13Z</time>
      </trkpt>
      <trkpt lat="47.6887" lon="6.15686">
        <ele>254.87</ele>
        <time>2015-12-02T11:05:15Z</time>
      </trkpt>
      <trkpt lat="47.68865" lon="6.15696">
        <ele>254.81</ele>
        <time>2015-12-02T11:05:17Z</time>
      </trkpt>
      <trkpt lat="47.68861" lon="6.15705">
        <ele>254.76</ele>
        <time>2015-12-02T11:05:19Z</time>
      </trkpt>
      <trkpt lat="47.68857" lon="6.15714">
        <ele>254.68</ele>
        <time>2015-12-02T11:05:21Z</time>
      </trkpt>
      <trkpt lat="47.68854" lon="6.15724">
        <ele>254.48</ele>
        <time>2015-12-02T11:05:23Z</time>
      </trkpt>
      <trkpt lat="47.68851" lon="6.15733">
        <ele>254.26</ele>
        <time>2015-12-02T11:05:25Z</time>
      </trkpt>
      <trkpt lat="47.68847" lon="6.15743">
        <ele>253.95</ele>
        <time>2015-12-02T11:06:35Z</time>
      </trkpt>
      <trkpt lat="47.68844" lon="6.15749">
        <ele>253.7</ele>
        <time>2015-12-02T11:06:38Z</time>
      </trkpt>
      <trkpt lat="47.68841" lon="6.15756">
        <ele>253.66</ele>
        <time>2015-12-02T11:06:40Z</time>
      </trkpt>
      <trkpt lat="47.68837" lon="6.15763">
        <ele>253.6</ele>
        <time>2015-12-02T11:06:42Z</time>
      </trkpt>
      <trkpt lat="47.68832" lon="6.15771">
        <ele>253.39</ele>
        <time>2015-12-02T11:06:44Z</time>
      </trkpt>
      <trkpt lat="47.68826" lon="6.15781">
        <ele>253.04</ele>
        <time>2015-12-02T11:06:46Z</time>
      </trkpt>
      <trkpt lat="47.68824" lon="6.15787">
        <ele>252.79</ele>
        <time>2015-12-02T11:06:47Z</time>
      </trkpt>
      <trkpt lat="47.68821" lon="6.15792">
        <ele>252.57</ele>
        <time>2015-12-02T11:06:48Z</time>
      </trkpt>
      <trkpt lat="47.68817" lon="6.15798">
        <ele>252.36</ele>
        <time>2015-12-02T11:06:49Z</time>
      </trkpt>
      <trkpt lat="47.68814" lon="6.15804">
        <ele>252.11</ele>
        <time>2015-12-02T11:06:50Z</time>
      </trkpt>
      <trkpt lat="47.6881" lon="6.1581">
        <ele>251.83</ele>
        <time>2015-12-02T11:06:51Z</time>
      </trkpt>
      <trkpt lat="47.68806" lon="6.15816">
        <ele>251.54</ele>
        <time>2015-12-02T11:06:52Z</time>
      </trkpt>
      <trkpt lat="47.68801" lon="6.15822">
        <ele>251.25</ele>
        <time>2015-12-02T11:06:53Z</time>
      </trkpt>
      <trkpt lat="47.68797" lon="6.15828">
        <ele>250.95</ele>
        <time>2015-12-02T11:06:54Z</time>
      </trkpt>
      <trkpt lat="47.68792" lon="6.15833">
        <ele>250.65</ele>
        <time>2015-12-02T11:06:55Z</time>
      </trkpt>
      <trkpt lat="47.68787" lon="6.15839">
        <ele>250.3</ele>
        <time>2015-12-02T11:06:56Z</time>
      </trkpt>
      <trkpt lat="47.68781" lon="6.15844">
        <ele>249.98</ele>
        <time>2015-12-02T11:06:57Z</time>
      </trkpt>
      <trkpt lat="47.68776" lon="6.15849">
        <ele>249.56</ele>
        <time>2015-12-02T11:06:58Z</time>
      </trkpt>
      <trkpt lat="47.68771" lon="6.15854">
        <ele>249.21</ele>
        <time>2015-12-02T11:06:59Z</time>
      </trkpt>
      <trkpt lat="47.68765" lon="6.15859">
        <ele>248.88</ele>
        <time>2015-12-02T11:07:00Z</time>
      </trkpt>
      <trkpt lat="47.6876" lon="6.15864">
        <ele>248.57</ele>
        <time>2015-12-02T11:07:01Z</time>
      </trkpt>
      <trkpt lat="47.68755" lon="6.15869">
        <ele>248.26</ele>
        <time>2015-12-02T11:07:02Z</time>
      </trkpt>
      <trkpt lat="47.6875" lon="6.15874">
        <ele>248</ele>
        <time>2015-12-02T11:07:03Z</time>
      </trkpt>
      <trkpt lat="47.68744" lon="6.15879">
        <ele>247.73</ele>
        <time>2015-12-02T11:07:04Z</time>
      </trkpt>
      <trkpt lat="47.68738" lon="6.15884">
        <ele>247.39</ele>
        <time>2015-12-02T11:07:05Z</time>
      </trkpt>
      <trkpt lat="47.68733" lon="6.15889">
        <ele>247.12</ele>
        <time>2015-12-02T11:07:06Z</time>
      </trkpt>
      <trkpt lat="47.68727" lon="6.15893">
        <ele>246.84</ele>
        <time>2015-12-02T11:07:07Z</time>
      </trkpt>
      <trkpt lat="47.68721" lon="6.15898">
        <ele>246.64</ele>
        <time>2015-12-02T11:07:08Z</time>
      </trkpt>
      <trkpt lat="47.68715" lon="6.15903">
        <ele>246.5</ele>
        <time>2015-12-02T11:07:09Z</time>
      </trkpt>
      <trkpt lat="47.68709" lon="6.15908">
        <ele>246.37</ele>
        <time>2015-12-02T11:07:10Z</time>
      </trkpt>
      <trkpt lat="47.68703" lon="6.15912">
        <ele>246.16</ele>
        <time>2015-12-02T11:07:11Z</time>
      </trkpt>
      <trkpt lat="47.68697" lon="6.15917">
        <ele>245.81</ele>
        <time>2015-12-02T11:07:12Z</time>
      </trkpt>
      <trkpt lat="47.6869" lon="6.15921">
        <ele>245.33</ele>
        <time>2015-12-02T11:07:13Z</time>
      </trkpt>
      <trkpt lat="47.68684" lon="6.15926">
        <ele>244.79</ele>
        <time>2015-12-02T11:07:14Z</time>
      </trkpt>
      <trkpt lat="47.68677" lon="6.1593">
        <ele>244.27</ele>
        <time>2015-12-02T11:07:15Z</time>
      </trkpt>
      <trkpt lat="47.6867" lon="6.15934">
        <ele>243.71</ele>
        <time>2015-12-02T11:07:16Z</time>
      </trkpt>
      <trkpt lat="47.68663" lon="6.15938">
        <ele>243.13</ele>
        <time>2015-12-02T11:07:17Z</time>
      </trkpt>
      <trkpt lat="47.68656" lon="6.15942">
        <ele>242.59</ele>
        <time>2015-12-02T11:07:18Z</time>
      </trkpt>
      <trkpt lat="47.68648" lon="6.15945">
        <ele>242.07</ele>
        <time>2015-12-02T11:07:19Z</time>
      </trkpt>
      <trkpt lat="47.6864" lon="6.15947">
        <ele>241.56</ele>
        <time>2015-12-02T11:07:20Z</time>
      </trkpt>
      <trkpt lat="47.68632" lon="6.15949">
        <ele>241.01</ele>
        <time>2015-12-02T11:07:21Z</time>
      </trkpt>
      <trkpt lat="47.68624" lon="6.15951">
        <ele>240.48</ele>
        <time>2015-12-02T11:07:22Z</time>
      </trkpt>
      <trkpt lat="47.68615" lon="6.15953">
        <ele>239.96</ele>
        <time>2015-12-02T11:07:23Z</time>
      </trkpt>
      <trkpt lat="47.68607" lon="6.15955">
        <ele>239.41</ele>
        <time>2015-12-02T11:07:24Z</time>
      </trkpt>
      <trkpt lat="47.68599" lon="6.15957">
        <ele>238.78</ele>
        <time>2015-12-02T11:07:25Z</time>
      </trkpt>
      <trkpt lat="47.6859" lon="6.15959">
        <ele>238.17</ele>
        <time>2015-12-02T11:07:26Z</time>
      </trkpt>
      <trkpt lat="47.68582" lon="6.15961">
        <ele>237.61</ele>
        <time>2015-12-02T11:07:27Z</time>
      </trkpt>
      <trkpt lat="47.68573" lon="6.15964">
        <ele>237.08</ele>
        <time>2015-12-02T11:07:28Z</time>
      </trkpt>
      <trkpt lat="47.68565" lon="6.15969">
        <ele>236.57</ele>
        <time>2015-12-02T11:07:29Z</time>
      </trkpt>
      <trkpt lat="47.68558" lon="6.15975">
        <ele>236.06</ele>
        <time>2015-12-02T11:07:30Z</time>
      </trkpt>
      <trkpt lat="47.6855" lon="6.15981">
        <ele>235.55</ele>
        <time>2015-12-02T11:07:31Z</time>
      </trkpt>
      <trkpt lat="47.68543" lon="6.15988">
        <ele>235.05</ele>
        <time>2015-12-02T11:07:32Z</time>
      </trkpt>
      <trkpt lat="47.68536" lon="6.15995">
        <ele>234.6</ele>
        <time>2015-12-02T11:07:33Z</time>
      </trkpt>
      <trkpt lat="47.68529" lon="6.16003">
        <ele>234.18</ele>
        <time>2015-12-02T11:07:34Z</time>
      </trkpt>
      <trkpt lat="47.68522" lon="6.1601">
        <ele>233.86</ele>
        <time>2015-12-02T11:07:35Z</time>
      </trkpt>
      <trkpt lat="47.68516" lon="6.16017">
        <ele>233.56</ele>
        <time>2015-12-02T11:07:36Z</time>
      </trkpt>
      <trkpt lat="47.68509" lon="6.16024">
        <ele>233.3</ele>
        <time>2015-12-02T11:07:37Z</time>
      </trkpt>
      <trkpt lat="47.68503" lon="6.16031">
        <ele>233.13</ele>
        <time>2015-12-02T11:07:38Z</time>
      </trkpt>
      <trkpt lat="47.68497" lon="6.16038">
        <ele>232.94</ele>
        <time>2015-12-02T11:07:39Z</time>
      </trkpt>
      <trkpt lat="47.68492" lon="6.16044">
        <ele>232.8</ele>
        <time>2015-12-02T11:07:40Z</time>
      </trkpt>
      <trkpt lat="47.68486" lon="6.1605">
        <ele>232.72</ele>
        <time>2015-12-02T11:07:41Z</time>
      </trkpt>
      <trkpt lat="47.68481" lon="6.16056">
        <ele>232.64</ele>
        <time>2015-12-02T11:07:42Z</time>
      </trkpt>
      <trkpt lat="47.68475" lon="6.16061">
        <ele>232.54</ele>
        <time>2015-12-02T11:07:43Z</time>
      </trkpt>
      <trkpt lat="47.6847" lon="6.16066">
        <ele>232.5</ele>
        <time>2015-12-02T11:07:44Z</time>
      </trkpt>
      <trkpt lat="47.68465" lon="6.16071">
        <ele>232.42</ele>
        <time>2015-12-02T11:07:45Z</time>
      </trkpt>
      <trkpt lat="47.68461" lon="6.16076">
        <ele>232.39</ele>
        <time>2015-12-02T11:07:46Z</time>
      </trkpt>
      <trkpt lat="47.68457" lon="6.1608">
        <ele>232.37</ele>
        <time>2015-12-02T11:07:47Z</time>
      </trkpt>
      <trkpt lat="47.68452" lon="6.16084">
        <ele>232.41</ele>
        <time>2015-12-02T11:07:48Z</time>
      </trkpt>
      <trkpt lat="47.68448" lon="6.16088">
        <ele>232.48</ele>
        <time>2015-12-02T11:07:49Z</time>
      </trkpt>
      <trkpt lat="47.68445" lon="6.16091">
        <ele>232.57</ele>
        <time>2015-12-02T11:07:50Z</time>
      </trkpt>
      <trkpt lat="47.68441" lon="6.16095">
        <ele>232.61</ele>
        <time>2015-12-02T11:07:51Z</time>
      </trkpt>
      <trkpt lat="47.68437" lon="6.16099">
        <ele>232.63</ele>
        <time>2015-12-02T11:07:52Z</time>
      </trkpt>
      <trkpt lat="47.6843" lon="6.16107">
        <ele>232.77</ele>
        <time>2015-12-02T11:07:54Z</time>
      </trkpt>
      <trkpt lat="47.68424" lon="6.16115">
        <ele>232.96</ele>
        <time>2015-12-02T11:07:56Z</time>
      </trkpt>
      <trkpt lat="47.68419" lon="6.16124">
        <ele>233.08</ele>
        <time>2015-12-02T11:07:58Z</time>
      </trkpt>
      <trkpt lat="47.68414" lon="6.16134">
        <ele>233.16</ele>
        <time>2015-12-02T11:08:00Z</time>
      </trkpt>
      <trkpt lat="47.68409" lon="6.16144">
        <ele>233.03</ele>
        <time>2015-12-02T11:08:02Z</time>
      </trkpt>
      <trkpt lat="47.68406" lon="6.16149">
        <ele>232.94</ele>
        <time>2015-12-02T11:08:03Z</time>
      </trkpt>
      <trkpt lat="47.68403" lon="6.16155">
        <ele>232.9</ele>
        <time>2015-12-02T11:08:04Z</time>
      </trkpt>
      <trkpt lat="47.684" lon="6.1616">
        <ele>232.82</ele>
        <time>2015-12-02T11:08:05Z</time>
      </trkpt>
      <trkpt lat="47.68397" lon="6.16167">
        <ele>232.79</ele>
        <time>2015-12-02T11:08:06Z</time>
      </trkpt>
      <trkpt lat="47.68394" lon="6.16173">
        <ele>232.72</ele>
        <time>2015-12-02T11:08:07Z</time>
      </trkpt>
      <trkpt lat="47.6839" lon="6.16179">
        <ele>232.69</ele>
        <time>2015-12-02T11:08:08Z</time>
      </trkpt>
      <trkpt lat="47.68387" lon="6.16185">
        <ele>232.67</ele>
        <time>2015-12-02T11:08:09Z</time>
      </trkpt>
      <trkpt lat="47.68384" lon="6.1619">
        <ele>232.61</ele>
        <time>2015-12-02T11:08:10Z</time>
      </trkpt>
      <trkpt lat="47.68381" lon="6.16196">
        <ele>232.58</ele>
        <time>2015-12-02T11:08:11Z</time>
      </trkpt>
      <trkpt lat="47.68378" lon="6.16202">
        <ele>232.57</ele>
        <time>2015-12-02T11:08:12Z</time>
      </trkpt>
      <trkpt lat="47.68374" lon="6.16207">
        <ele>232.56</ele>
        <time>2015-12-02T11:08:13Z</time>
      </trkpt>
      <trkpt lat="47.68371" lon="6.16212">
        <ele>232.6</ele>
        <time>2015-12-02T11:08:14Z</time>
      </trkpt>
      <trkpt lat="47.68368" lon="6.16217">
        <ele>232.68</ele>
        <time>2015-12-02T11:08:15Z</time>
      </trkpt>
      <trkpt lat="47.68364" lon="6.16222">
        <ele>232.71</ele>
        <time>2015-12-02T11:08:16Z</time>
      </trkpt>
      <trkpt lat="47.68361" lon="6.16226">
        <ele>232.73</ele>
        <time>2015-12-02T11:08:17Z</time>
      </trkpt>
      <trkpt lat="47.68355" lon="6.16236">
        <ele>232.77</ele>
        <time>2015-12-02T11:08:19Z</time>
      </trkpt>
      <trkpt lat="47.68352" lon="6.1624">
        <ele>232.86</ele>
        <time>2015-12-02T11:08:20Z</time>
      </trkpt>
      <trkpt lat="47.68345" lon="6.16249">
        <ele>232.9</ele>
        <time>2015-12-02T11:08:22Z</time>
      </trkpt>
      <trkpt lat="47.68339" lon="6.1626">
        <ele>232.66</ele>
        <time>2015-12-02T11:08:24Z</time>
      </trkpt>
      <trkpt lat="47.68336" lon="6.16265">
        <ele>232.61</ele>
        <time>2015-12-02T11:08:25Z</time>
      </trkpt>
      <trkpt lat="47.68331" lon="6.16276">
        <ele>232.57</ele>
        <time>2015-12-02T11:08:27Z</time>
      </trkpt>
      <trkpt lat="47.68328" lon="6.16281">
        <ele>232.66</ele>
        <time>2015-12-02T11:08:28Z</time>
      </trkpt>
      <trkpt lat="47.68325" lon="6.16287">
        <ele>232.75</ele>
        <time>2015-12-02T11:08:29Z</time>
      </trkpt>
      <trkpt lat="47.68322" lon="6.16292">
        <ele>232.8</ele>
        <time>2015-12-02T11:08:30Z</time>
      </trkpt>
      <trkpt lat="47.6832" lon="6.16297">
        <ele>232.78</ele>
        <time>2015-12-02T11:08:31Z</time>
      </trkpt>
      <trkpt lat="47.68316" lon="6.16303">
        <ele>232.91</ele>
        <time>2015-12-02T11:08:32Z</time>
      </trkpt>
      <trkpt lat="47.6831" lon="6.16312">
        <ele>233.84</ele>
        <time>2015-12-02T11:08:34Z</time>
      </trkpt>
      <trkpt lat="47.68307" lon="6.16318">
        <ele>234.2</ele>
        <time>2015-12-02T11:08:35Z</time>
      </trkpt>
      <trkpt lat="47.68302" lon="6.16328">
        <ele>234.44</ele>
        <time>2015-12-02T11:08:37Z</time>
      </trkpt>
      <trkpt lat="47.68296" lon="6.16333">
        <ele>233.87</ele>
        <time>2015-12-02T11:08:39Z</time>
      </trkpt>
      <trkpt lat="47.6829" lon="6.16331">
        <ele>233.68</ele>
        <time>2015-12-02T11:08:41Z</time>
      </trkpt>
      <trkpt lat="47.68284" lon="6.16328">
        <ele>233.46</ele>
        <time>2015-12-02T11:08:43Z</time>
      </trkpt>
      <trkpt lat="47.68278" lon="6.16324">
        <ele>233.43</ele>
        <time>2015-12-02T11:08:45Z</time>
      </trkpt>
      <trkpt lat="47.68272" lon="6.16319">
        <ele>233.02</ele>
        <time>2015-12-02T11:08:47Z</time>
      </trkpt>
      <trkpt lat="47.68265" lon="6.16314">
        <ele>232.79</ele>
        <time>2015-12-02T11:08:49Z</time>
      </trkpt>
      <trkpt lat="47.68259" lon="6.16309">
        <ele>232.79</ele>
        <time>2015-12-02T11:08:51Z</time>
      </trkpt>
      <trkpt lat="47.68252" lon="6.16303">
        <ele>232.71</ele>
        <time>2015-12-02T11:08:53Z</time>
      </trkpt>
      <trkpt lat="47.68246" lon="6.16297">
        <ele>232.59</ele>
        <time>2015-12-02T11:08:55Z</time>
      </trkpt>
      <trkpt lat="47.6824" lon="6.16292">
        <ele>232.59</ele>
        <time>2015-12-02T11:08:57Z</time>
      </trkpt>
      <trkpt lat="47.68235" lon="6.16286">
        <ele>232.63</ele>
        <time>2015-12-02T11:08:59Z</time>
      </trkpt>
      <trkpt lat="47.68228" lon="6.1628">
        <ele>232.65</ele>
        <time>2015-12-02T11:09:01Z</time>
      </trkpt>
      <trkpt lat="47.6822" lon="6.16274">
        <ele>232.57</ele>
        <time>2015-12-02T11:09:03Z</time>
      </trkpt>
      <trkpt lat="47.68213" lon="6.16267">
        <ele>232.68</ele>
        <time>2015-12-02T11:09:05Z</time>
      </trkpt>
      <trkpt lat="47.68206" lon="6.1626">
        <ele>233.01</ele>
        <time>2015-12-02T11:09:07Z</time>
      </trkpt>
      <trkpt lat="47.68199" lon="6.16254">
        <ele>233.02</ele>
        <time>2015-12-02T11:09:09Z</time>
      </trkpt>
      <trkpt lat="47.68193" lon="6.16249">
        <ele>233.04</ele>
        <time>2015-12-02T11:09:11Z</time>
      </trkpt>
      <trkpt lat="47.68185" lon="6.16247">
        <ele>233.17</ele>
        <time>2015-12-02T11:09:13Z</time>
      </trkpt>
      <trkpt lat="47.68178" lon="6.16252">
        <ele>233.46</ele>
        <time>2015-12-02T11:09:15Z</time>
      </trkpt>
      <trkpt lat="47.68174" lon="6.16262">
        <ele>233.63</ele>
        <time>2015-12-02T11:09:17Z</time>
      </trkpt>
      <trkpt lat="47.68173" lon="6.16273">
        <ele>233.67</ele>
        <time>2015-12-02T11:09:19Z</time>
      </trkpt>
      <trkpt lat="47.68173" lon="6.16284">
        <ele>233.41</ele>
        <time>2015-12-02T11:09:21Z</time>
      </trkpt>
      <trkpt lat="47.68173" lon="6.16296">
        <ele>233.04</ele>
        <time>2015-12-02T11:09:23Z</time>
      </trkpt>
      <trkpt lat="47.68173" lon="6.16307">
        <ele>232.87</ele>
        <time>2015-12-02T11:09:25Z</time>
      </trkpt>
      <trkpt lat="47.68172" lon="6.16319">
        <ele>232.98</ele>
        <time>2015-12-02T11:09:27Z</time>
      </trkpt>
      <trkpt lat="47.68171" lon="6.16331">
        <ele>233.03</ele>
        <time>2015-12-02T11:09:29Z</time>
      </trkpt>
      <trkpt lat="47.68169" lon="6.16342">
        <ele>233.22</ele>
        <time>2015-12-02T11:09:31Z</time>
      </trkpt>
      <trkpt lat="47.68166" lon="6.16353">
        <ele>233.39</ele>
        <time>2015-12-02T11:09:33Z</time>
      </trkpt>
      <trkpt lat="47.68163" lon="6.16363">
        <ele>233.44</ele>
        <time>2015-12-02T11:09:35Z</time>
      </trkpt>
      <trkpt lat="47.68161" lon="6.16374">
        <ele>233.65</ele>
        <time>2015-12-02T11:09:37Z</time>
      </trkpt>
      <trkpt lat="47.68158" lon="6.16385">
        <ele>233.8</ele>
        <time>2015-12-02T11:09:39Z</time>
      </trkpt>
      <trkpt lat="47.68155" lon="6.16396">
        <ele>233.84</ele>
        <time>2015-12-02T11:09:41Z</time>
      </trkpt>
      <trkpt lat="47.68152" lon="6.16407">
        <ele>233.9</ele>
        <time>2015-12-02T11:09:43Z</time>
      </trkpt>
      <trkpt lat="47.68149" lon="6.16417">
        <ele>233.81</ele>
        <time>2015-12-02T11:09:45Z</time>
      </trkpt>
      <trkpt lat="47.68147" lon="6.16427">
        <ele>233.62</ele>
        <time>2015-12-02T11:09:47Z</time>
      </trkpt>
      <trkpt lat="47.68144" lon="6.16437">
        <ele>233.74</ele>
        <time>2015-12-02T11:09:49Z</time>
      </trkpt>
      <trkpt lat="47.68142" lon="6.16446">
        <ele>233.9</ele>
        <time>2015-12-02T11:09:51Z</time>
      </trkpt>
      <trkpt lat="47.6814" lon="6.16455">
        <ele>234.06</ele>
        <time>2015-12-02T11:09:53Z</time>
      </trkpt>
      <trkpt lat="47.68138" lon="6.16463">
        <ele>234.45</ele>
        <time>2015-12-02T11:09:55Z</time>
      </trkpt>
      <trkpt lat="47.68136" lon="6.16471">
        <ele>234.78</ele>
        <time>2015-12-02T11:09:57Z</time>
      </trkpt>
      <trkpt lat="47.68134" lon="6.1648">
        <ele>234.96</ele>
        <time>2015-12-02T11:09:59Z</time>
      </trkpt>
      <trkpt lat="47.6813" lon="6.16489">
        <ele>234.68</ele>
        <time>2015-12-02T11:10:01Z</time>
      </trkpt>
      <trkpt lat="47.68123" lon="6.16494">
        <ele>234.06</ele>
        <time>2015-12-02T11:10:03Z</time>
      </trkpt>
      <trkpt lat="47.68117" lon="6.16492">
        <ele>233.5</ele>
        <time>2015-12-02T11:10:05Z</time>
      </trkpt>
      <trkpt lat="47.68112" lon="6.16488">
        <ele>233.39</ele>
        <time>2015-12-02T11:10:07Z</time>
      </trkpt>
      <trkpt lat="47.68108" lon="6.16484">
        <ele>233.49</ele>
        <time>2015-12-02T11:10:09Z</time>
      </trkpt>
      <trkpt lat="47.68103" lon="6.16481">
        <ele>233.68</ele>
        <time>2015-12-02T11:10:11Z</time>
      </trkpt>
      <trkpt lat="47.68098" lon="6.16479">
        <ele>233.51</ele>
        <time>2015-12-02T11:10:13Z</time>
      </trkpt>
      <trkpt lat="47.68093" lon="6.16477">
        <ele>233.42</ele>
        <time>2015-12-02T11:10:15Z</time>
      </trkpt>
      <trkpt lat="47.68088" lon="6.16475">
        <ele>232.99</ele>
        <time>2015-12-02T11:10:17Z</time>
      </trkpt>
      <trkpt lat="47.68083" lon="6.16473">
        <ele>233.21</ele>
        <time>2015-12-02T11:10:19Z</time>
      </trkpt>
      <trkpt lat="47.68078" lon="6.16471">
        <ele>233.57</ele>
        <time>2015-12-02T11:10:21Z</time>
      </trkpt>
      <trkpt lat="47.68074" lon="6.16468">
        <ele>233.88</ele>
        <time>2015-12-02T11:10:23Z</time>
      </trkpt>
      <trkpt lat="47.68069" lon="6.16464">
        <ele>234.16</ele>
        <time>2015-12-02T11:10:25Z</time>
      </trkpt>
      <trkpt lat="47.68065" lon="6.1646">
        <ele>234.45</ele>
        <time>2015-12-02T11:10:27Z</time>
      </trkpt>
      <trkpt lat="47.68061" lon="6.16452">
        <ele>234.58</ele>
        <time>2015-12-02T11:10:30Z</time>
      </trkpt>
      <trkpt lat="47.68059" lon="6.16446">
        <ele>235.03</ele>
        <time>2015-12-02T11:10:32Z</time>
      </trkpt>
      <trkpt lat="47.68058" lon="6.16439">
        <ele>235.02</ele>
        <time>2015-12-02T11:10:34Z</time>
      </trkpt>
      <trkpt lat="47.68061" lon="6.16446">
        <ele>235.43</ele>
        <time>2015-12-02T11:10:58Z</time>
      </trkpt>
      <trkpt lat="47.68064" lon="6.16453">
        <ele>235.36</ele>
        <time>2015-12-02T11:11:01Z</time>
      </trkpt>
      <trkpt lat="47.68067" lon="6.1646">
        <ele>235.25</ele>
        <time>2015-12-02T11:11:46Z</time>
      </trkpt>
      <trkpt lat="47.6807" lon="6.16468">
        <ele>235.25</ele>
        <time>2015-12-02T11:11:49Z</time>
      </trkpt>
      <trkpt lat="47.68072" lon="6.16475">
        <ele>235.25</ele>
        <time>2015-12-02T11:11:51Z</time>
      </trkpt>
      <trkpt lat="47.68076" lon="6.16482">
        <ele>235.2</ele>
        <time>2015-12-02T11:11:53Z</time>
      </trkpt>
      <trkpt lat="47.68079" lon="6.16487">
        <ele>235.16</ele>
        <time>2015-12-02T11:11:55Z</time>
      </trkpt>
      <trkpt lat="47.68083" lon="6.16496">
        <ele>234.9</ele>
        <time>2015-12-02T11:12:05Z</time>
      </trkpt>
      <trkpt lat="47.68087" lon="6.16504">
        <ele>235.47</ele>
        <time>2015-12-02T11:12:08Z</time>
      </trkpt>
      <trkpt lat="47.68089" lon="6.1651">
        <ele>235.53</ele>
        <time>2015-12-02T11:12:10Z</time>
      </trkpt>
      <trkpt lat="47.68093" lon="6.16518">
        <ele>235.12</ele>
        <time>2015-12-02T11:12:12Z</time>
      </trkpt>
      <trkpt lat="47.68096" lon="6.16526">
        <ele>234.54</ele>
        <time>2015-12-02T11:12:14Z</time>
      </trkpt>
      <trkpt lat="47.681" lon="6.16534">
        <ele>234.2</ele>
        <time>2015-12-02T11:12:16Z</time>
      </trkpt>
      <trkpt lat="47.68105" lon="6.16542">
        <ele>233.96</ele>
        <time>2015-12-02T11:12:18Z</time>
      </trkpt>
      <trkpt lat="47.6811" lon="6.16549">
        <ele>233.8</ele>
        <time>2015-12-02T11:12:20Z</time>
      </trkpt>
      <trkpt lat="47.68117" lon="6.16555">
        <ele>233.44</ele>
        <time>2015-12-02T11:12:22Z</time>
      </trkpt>
      <trkpt lat="47.68124" lon="6.16561">
        <ele>233.1</ele>
        <time>2015-12-02T11:12:24Z</time>
      </trkpt>
      <trkpt lat="47.68131" lon="6.16566">
        <ele>232.81</ele>
        <time>2015-12-02T11:12:26Z</time>
      </trkpt>
      <trkpt lat="47.68138" lon="6.16571">
        <ele>232.62</ele>
        <time>2015-12-02T11:12:28Z</time>
      </trkpt>
      <trkpt lat="47.68144" lon="6.16575">
        <ele>232.57</ele>
        <time>2015-12-02T11:12:30Z</time>
      </trkpt>
      <trkpt lat="47.68149" lon="6.1658">
        <ele>232.58</ele>
        <time>2015-12-02T11:12:32Z</time>
      </trkpt>
      <trkpt lat="47.68154" lon="6.16583">
        <ele>232.43</ele>
        <time>2015-12-02T11:12:34Z</time>
      </trkpt>
      <trkpt lat="47.68159" lon="6.16586">
        <ele>232.32</ele>
        <time>2015-12-02T11:12:36Z</time>
      </trkpt>
      <trkpt lat="47.68164" lon="6.16587">
        <ele>232.27</ele>
        <time>2015-12-02T11:12:38Z</time>
      </trkpt>
      <trkpt lat="47.6817" lon="6.1659">
        <ele>232.34</ele>
        <time>2015-12-02T11:12:41Z</time>
      </trkpt>
      <trkpt lat="47.68175" lon="6.16593">
        <ele>232.42</ele>
        <time>2015-12-02T11:12:43Z</time>
      </trkpt>
      <trkpt lat="47.6818" lon="6.16597">
        <ele>232.62</ele>
        <time>2015-12-02T11:12:45Z</time>
      </trkpt>
      <trkpt lat="47.68185" lon="6.166">
        <ele>232.77</ele>
        <time>2015-12-02T11:12:47Z</time>
      </trkpt>
      <trkpt lat="47.6819" lon="6.16604">
        <ele>232.73</ele>
        <time>2015-12-02T11:12:49Z</time>
      </trkpt>
      <trkpt lat="47.68194" lon="6.16606">
        <ele>232.6</ele>
        <time>2015-12-02T11:12:51Z</time>
      </trkpt>
      <trkpt lat="47.68199" lon="6.16608">
        <ele>232.69</ele>
        <time>2015-12-02T11:12:53Z</time>
      </trkpt>
      <trkpt lat="47.68205" lon="6.1661">
        <ele>232.66</ele>
        <time>2015-12-02T11:12:56Z</time>
      </trkpt>
      <trkpt lat="47.6821" lon="6.16613">
        <ele>232.6</ele>
        <time>2015-12-02T11:12:58Z</time>
      </trkpt>
      <trkpt lat="47.68216" lon="6.16615">
        <ele>232.58</ele>
        <time>2015-12-02T11:13:01Z</time>
      </trkpt>
      <trkpt lat="47.68222" lon="6.1661">
        <ele>232.3</ele>
        <time>2015-12-02T11:13:04Z</time>
      </trkpt>
      <trkpt lat="47.68224" lon="6.16601">
        <ele>232.22</ele>
        <time>2015-12-02T11:13:07Z</time>
      </trkpt>
    </trkseg>
  </trk>
</gpx>